<?xml version="1.0" encoding="UTF-8" standalone="no" ?>
<gpx xmlns="http://www.topografix.com/GPX/1/1" xmlns:xsi="http://www.w3.org/2001/XMLSchema-instance" xsi:schemaLocation="http://www.topografix.com/GPX/1/1 http://www.topografix.com/GPX/1/1/gpx.xsd" version="1.1" creator="VisuGPX - https://www.visugpx.com">
  <metadata>
    <name>Boucle 28 km autour de Versailles</name>
    <desc><![CDATA[Départ de la gare de Versailles Rive Droite
Boucle menée par Véro]]></desc>
  </metadata>
  <trk>
    <name><![CDATA[SityTrail - Boucle 28 km autour de Versailles]]></name>
    <desc><![CDATA[Départ de la gare de Versailles Rive Droite
Boucle menée par Véro]]></desc>
    <trkseg>
      <trkpt lat="48.80963" lon="2.13566">
        <ele>124</ele>
        <time>2022-10-23T07:14:26.479Z</time>
      </trkpt>
      <trkpt lat="48.80956" lon="2.13548">
        <ele>123</ele>
        <time>2022-10-23T07:14:27.482Z</time>
      </trkpt>
      <trkpt lat="48.80957" lon="2.13534">
        <ele>123</ele>
        <time>2022-10-23T07:14:32.476Z</time>
      </trkpt>
      <trkpt lat="48.80954" lon="2.13532">
        <ele>123</ele>
        <time>2022-10-23T07:14:36.484Z</time>
      </trkpt>
      <trkpt lat="48.80954" lon="2.13526">
        <ele>123</ele>
        <time>2022-10-23T07:14:40.489Z</time>
      </trkpt>
      <trkpt lat="48.80954" lon="2.13519">
        <ele>123</ele>
        <time>2022-10-23T07:14:45.482Z</time>
      </trkpt>
      <trkpt lat="48.80953" lon="2.13512">
        <ele>123</ele>
        <time>2022-10-23T07:14:50.474Z</time>
      </trkpt>
      <trkpt lat="48.80953" lon="2.13512">
        <ele>123</ele>
        <time>2022-10-23T07:14:54.477Z</time>
      </trkpt>
      <trkpt lat="48.80954" lon="2.13509">
        <ele>123</ele>
        <time>2022-10-23T07:14:59.483Z</time>
      </trkpt>
      <trkpt lat="48.80956" lon="2.13505">
        <ele>123</ele>
        <time>2022-10-23T07:15:04.481Z</time>
      </trkpt>
      <trkpt lat="48.80953" lon="2.13501">
        <ele>123</ele>
        <time>2022-10-23T07:15:14.511Z</time>
      </trkpt>
      <trkpt lat="48.80952" lon="2.135">
        <ele>123</ele>
        <time>2022-10-23T07:15:19.493Z</time>
      </trkpt>
      <trkpt lat="48.8095" lon="2.13498">
        <ele>123</ele>
        <time>2022-10-23T07:15:24.491Z</time>
      </trkpt>
      <trkpt lat="48.80952" lon="2.13494">
        <ele>123</ele>
        <time>2022-10-23T07:15:28.495Z</time>
      </trkpt>
      <trkpt lat="48.80951" lon="2.13488">
        <ele>123</ele>
        <time>2022-10-23T07:15:32.494Z</time>
      </trkpt>
      <trkpt lat="48.8095" lon="2.13479">
        <ele>124</ele>
        <time>2022-10-23T07:15:46.512Z</time>
      </trkpt>
      <trkpt lat="48.80951" lon="2.13478">
        <ele>124</ele>
        <time>2022-10-23T07:15:51.486Z</time>
      </trkpt>
      <trkpt lat="48.8095" lon="2.13473">
        <ele>124</ele>
        <time>2022-10-23T07:15:56.500Z</time>
      </trkpt>
      <trkpt lat="48.8095" lon="2.13472">
        <ele>124</ele>
        <time>2022-10-23T07:16:00.510Z</time>
      </trkpt>
      <trkpt lat="48.80949" lon="2.13468">
        <ele>124</ele>
        <time>2022-10-23T07:16:05.484Z</time>
      </trkpt>
      <trkpt lat="48.80949" lon="2.13466">
        <ele>124</ele>
        <time>2022-10-23T07:16:09.493Z</time>
      </trkpt>
      <trkpt lat="48.80947" lon="2.13461">
        <ele>124</ele>
        <time>2022-10-23T07:16:13.496Z</time>
      </trkpt>
      <trkpt lat="48.80947" lon="2.13453">
        <ele>126</ele>
        <time>2022-10-23T07:16:18.498Z</time>
      </trkpt>
      <trkpt lat="48.80947" lon="2.13445">
        <ele>126</ele>
        <time>2022-10-23T07:16:22.493Z</time>
      </trkpt>
      <trkpt lat="48.80948" lon="2.13438">
        <ele>126</ele>
        <time>2022-10-23T07:16:26.505Z</time>
      </trkpt>
      <trkpt lat="48.80951" lon="2.13434">
        <ele>126</ele>
        <time>2022-10-23T07:16:30.507Z</time>
      </trkpt>
      <trkpt lat="48.80954" lon="2.13432">
        <ele>126</ele>
        <time>2022-10-23T07:16:34.510Z</time>
      </trkpt>
      <trkpt lat="48.80957" lon="2.13423">
        <ele>127</ele>
        <time>2022-10-23T07:16:39.498Z</time>
      </trkpt>
      <trkpt lat="48.80958" lon="2.13416">
        <ele>128</ele>
        <time>2022-10-23T07:16:44.481Z</time>
      </trkpt>
      <trkpt lat="48.80964" lon="2.13413">
        <ele>128</ele>
        <time>2022-10-23T07:16:49.470Z</time>
      </trkpt>
      <trkpt lat="48.80963" lon="2.13407">
        <ele>128</ele>
        <time>2022-10-23T07:16:53.471Z</time>
      </trkpt>
      <trkpt lat="48.80966" lon="2.134">
        <ele>128</ele>
        <time>2022-10-23T07:16:57.486Z</time>
      </trkpt>
      <trkpt lat="48.80965" lon="2.13394">
        <ele>128</ele>
        <time>2022-10-23T07:17:01.499Z</time>
      </trkpt>
      <trkpt lat="48.80964" lon="2.13384">
        <ele>128</ele>
        <time>2022-10-23T07:17:06.489Z</time>
      </trkpt>
      <trkpt lat="48.80957" lon="2.13375">
        <ele>128</ele>
        <time>2022-10-23T07:17:10.473Z</time>
      </trkpt>
      <trkpt lat="48.80955" lon="2.13371">
        <ele>128</ele>
        <time>2022-10-23T07:17:15.471Z</time>
      </trkpt>
      <trkpt lat="48.80964" lon="2.13411">
        <ele>128</ele>
        <time>2022-10-23T07:17:20.473Z</time>
      </trkpt>
      <trkpt lat="48.80949" lon="2.13377">
        <ele>128</ele>
        <time>2022-10-23T07:17:24.495Z</time>
      </trkpt>
      <trkpt lat="48.80941" lon="2.13354">
        <ele>128</ele>
        <time>2022-10-23T07:17:29.483Z</time>
      </trkpt>
      <trkpt lat="48.80936" lon="2.13347">
        <ele>126</ele>
        <time>2022-10-23T07:17:34.471Z</time>
      </trkpt>
      <trkpt lat="48.80931" lon="2.13338">
        <ele>126</ele>
        <time>2022-10-23T07:17:38.483Z</time>
      </trkpt>
      <trkpt lat="48.80924" lon="2.13335">
        <ele>126</ele>
        <time>2022-10-23T07:17:42.521Z</time>
      </trkpt>
      <trkpt lat="48.80914" lon="2.13332">
        <ele>126</ele>
        <time>2022-10-23T07:17:47.479Z</time>
      </trkpt>
      <trkpt lat="48.80908" lon="2.13339">
        <ele>126</ele>
        <time>2022-10-23T07:17:51.476Z</time>
      </trkpt>
      <trkpt lat="48.80906" lon="2.13346">
        <ele>126</ele>
        <time>2022-10-23T07:17:56.517Z</time>
      </trkpt>
      <trkpt lat="48.80903" lon="2.13348">
        <ele>127</ele>
        <time>2022-10-23T07:18:01.475Z</time>
      </trkpt>
      <trkpt lat="48.80903" lon="2.13341">
        <ele>126</ele>
        <time>2022-10-23T07:18:06.509Z</time>
      </trkpt>
      <trkpt lat="48.80905" lon="2.13333">
        <ele>126</ele>
        <time>2022-10-23T07:18:11.486Z</time>
      </trkpt>
      <trkpt lat="48.80907" lon="2.13325">
        <ele>126</ele>
        <time>2022-10-23T07:18:16.514Z</time>
      </trkpt>
      <trkpt lat="48.80906" lon="2.13318">
        <ele>125</ele>
        <time>2022-10-23T07:18:21.492Z</time>
      </trkpt>
      <trkpt lat="48.80907" lon="2.13307">
        <ele>125</ele>
        <time>2022-10-23T07:18:26.511Z</time>
      </trkpt>
      <trkpt lat="48.80908" lon="2.13298">
        <ele>125</ele>
        <time>2022-10-23T07:18:31.482Z</time>
      </trkpt>
      <trkpt lat="48.80906" lon="2.1329">
        <ele>125</ele>
        <time>2022-10-23T07:18:36.511Z</time>
      </trkpt>
      <trkpt lat="48.80908" lon="2.13282">
        <ele>125</ele>
        <time>2022-10-23T07:18:41.484Z</time>
      </trkpt>
      <trkpt lat="48.80908" lon="2.13274">
        <ele>125</ele>
        <time>2022-10-23T07:18:45.489Z</time>
      </trkpt>
      <trkpt lat="48.80908" lon="2.13263">
        <ele>124</ele>
        <time>2022-10-23T07:18:50.505Z</time>
      </trkpt>
      <trkpt lat="48.80907" lon="2.13251">
        <ele>124</ele>
        <time>2022-10-23T07:18:55.472Z</time>
      </trkpt>
      <trkpt lat="48.8091" lon="2.13243">
        <ele>124</ele>
        <time>2022-10-23T07:18:59.485Z</time>
      </trkpt>
      <trkpt lat="48.80913" lon="2.13235">
        <ele>124</ele>
        <time>2022-10-23T07:19:04.512Z</time>
      </trkpt>
      <trkpt lat="48.80915" lon="2.13225">
        <ele>124</ele>
        <time>2022-10-23T07:19:09.499Z</time>
      </trkpt>
      <trkpt lat="48.80916" lon="2.13217">
        <ele>124</ele>
        <time>2022-10-23T07:19:14.509Z</time>
      </trkpt>
      <trkpt lat="48.80916" lon="2.13207">
        <ele>124</ele>
        <time>2022-10-23T07:19:19.493Z</time>
      </trkpt>
      <trkpt lat="48.80915" lon="2.13201">
        <ele>124</ele>
        <time>2022-10-23T07:19:23.512Z</time>
      </trkpt>
      <trkpt lat="48.80915" lon="2.13191">
        <ele>124</ele>
        <time>2022-10-23T07:19:28.477Z</time>
      </trkpt>
      <trkpt lat="48.80915" lon="2.13186">
        <ele>124</ele>
        <time>2022-10-23T07:19:32.529Z</time>
      </trkpt>
      <trkpt lat="48.80915" lon="2.13177">
        <ele>124</ele>
        <time>2022-10-23T07:19:37.516Z</time>
      </trkpt>
      <trkpt lat="48.80917" lon="2.13168">
        <ele>124</ele>
        <time>2022-10-23T07:19:42.528Z</time>
      </trkpt>
      <trkpt lat="48.80919" lon="2.13156">
        <ele>124</ele>
        <time>2022-10-23T07:19:47.507Z</time>
      </trkpt>
      <trkpt lat="48.80929" lon="2.13127">
        <ele>124</ele>
        <time>2022-10-23T07:20:31.475Z</time>
      </trkpt>
      <trkpt lat="48.80925" lon="2.13117">
        <ele>124</ele>
        <time>2022-10-23T07:20:36.476Z</time>
      </trkpt>
      <trkpt lat="48.80925" lon="2.13103">
        <ele>124</ele>
        <time>2022-10-23T07:20:40.478Z</time>
      </trkpt>
      <trkpt lat="48.80927" lon="2.13092">
        <ele>124</ele>
        <time>2022-10-23T07:20:44.477Z</time>
      </trkpt>
      <trkpt lat="48.80928" lon="2.13077">
        <ele>124</ele>
        <time>2022-10-23T07:20:49.477Z</time>
      </trkpt>
      <trkpt lat="48.80927" lon="2.13064">
        <ele>123</ele>
        <time>2022-10-23T07:20:54.483Z</time>
      </trkpt>
      <trkpt lat="48.80927" lon="2.13049">
        <ele>123</ele>
        <time>2022-10-23T07:20:59.484Z</time>
      </trkpt>
      <trkpt lat="48.8093" lon="2.13035">
        <ele>122</ele>
        <time>2022-10-23T07:21:04.480Z</time>
      </trkpt>
      <trkpt lat="48.8093" lon="2.13025">
        <ele>122</ele>
        <time>2022-10-23T07:21:08.485Z</time>
      </trkpt>
      <trkpt lat="48.80933" lon="2.13008">
        <ele>123</ele>
        <time>2022-10-23T07:21:13.482Z</time>
      </trkpt>
      <trkpt lat="48.80933" lon="2.12997">
        <ele>123</ele>
        <time>2022-10-23T07:21:18.474Z</time>
      </trkpt>
      <trkpt lat="48.80934" lon="2.12987">
        <ele>123</ele>
        <time>2022-10-23T07:21:22.480Z</time>
      </trkpt>
      <trkpt lat="48.80932" lon="2.12971">
        <ele>123</ele>
        <time>2022-10-23T07:21:27.480Z</time>
      </trkpt>
      <trkpt lat="48.80934" lon="2.1296">
        <ele>123</ele>
        <time>2022-10-23T07:21:32.482Z</time>
      </trkpt>
      <trkpt lat="48.80935" lon="2.12949">
        <ele>123</ele>
        <time>2022-10-23T07:21:36.517Z</time>
      </trkpt>
      <trkpt lat="48.80938" lon="2.12935">
        <ele>123</ele>
        <time>2022-10-23T07:21:40.516Z</time>
      </trkpt>
      <trkpt lat="48.80939" lon="2.12923">
        <ele>124</ele>
        <time>2022-10-23T07:21:45.497Z</time>
      </trkpt>
      <trkpt lat="48.80939" lon="2.12914">
        <ele>124</ele>
        <time>2022-10-23T07:21:49.511Z</time>
      </trkpt>
      <trkpt lat="48.80941" lon="2.12903">
        <ele>124</ele>
        <time>2022-10-23T07:21:53.521Z</time>
      </trkpt>
      <trkpt lat="48.80941" lon="2.12893">
        <ele>125</ele>
        <time>2022-10-23T07:21:58.497Z</time>
      </trkpt>
      <trkpt lat="48.80939" lon="2.12882">
        <ele>125</ele>
        <time>2022-10-23T07:22:03.470Z</time>
      </trkpt>
      <trkpt lat="48.80938" lon="2.12872">
        <ele>125</ele>
        <time>2022-10-23T07:22:07.474Z</time>
      </trkpt>
      <trkpt lat="48.80941" lon="2.1286">
        <ele>125</ele>
        <time>2022-10-23T07:22:11.475Z</time>
      </trkpt>
      <trkpt lat="48.80945" lon="2.12849">
        <ele>125</ele>
        <time>2022-10-23T07:22:16.478Z</time>
      </trkpt>
      <trkpt lat="48.80946" lon="2.12841">
        <ele>125</ele>
        <time>2022-10-23T07:22:20.526Z</time>
      </trkpt>
      <trkpt lat="48.80948" lon="2.1283">
        <ele>125</ele>
        <time>2022-10-23T07:22:25.477Z</time>
      </trkpt>
      <trkpt lat="48.80949" lon="2.12823">
        <ele>125</ele>
        <time>2022-10-23T07:22:29.519Z</time>
      </trkpt>
      <trkpt lat="48.80951" lon="2.12814">
        <ele>124</ele>
        <time>2022-10-23T07:22:34.511Z</time>
      </trkpt>
      <trkpt lat="48.80952" lon="2.12806">
        <ele>124</ele>
        <time>2022-10-23T07:22:39.513Z</time>
      </trkpt>
      <trkpt lat="48.80953" lon="2.12795">
        <ele>124</ele>
        <time>2022-10-23T07:22:44.507Z</time>
      </trkpt>
      <trkpt lat="48.80953" lon="2.12786">
        <ele>124</ele>
        <time>2022-10-23T07:22:49.501Z</time>
      </trkpt>
      <trkpt lat="48.80954" lon="2.12776">
        <ele>124</ele>
        <time>2022-10-23T07:22:54.510Z</time>
      </trkpt>
      <trkpt lat="48.80955" lon="2.12765">
        <ele>124</ele>
        <time>2022-10-23T07:22:59.501Z</time>
      </trkpt>
      <trkpt lat="48.80956" lon="2.12753">
        <ele>124</ele>
        <time>2022-10-23T07:23:04.497Z</time>
      </trkpt>
      <trkpt lat="48.80956" lon="2.12739">
        <ele>124</ele>
        <time>2022-10-23T07:23:09.498Z</time>
      </trkpt>
      <trkpt lat="48.80954" lon="2.12729">
        <ele>124</ele>
        <time>2022-10-23T07:23:13.504Z</time>
      </trkpt>
      <trkpt lat="48.80957" lon="2.12719">
        <ele>124</ele>
        <time>2022-10-23T07:23:18.521Z</time>
      </trkpt>
      <trkpt lat="48.80958" lon="2.12705">
        <ele>124</ele>
        <time>2022-10-23T07:23:23.497Z</time>
      </trkpt>
      <trkpt lat="48.80959" lon="2.12693">
        <ele>123</ele>
        <time>2022-10-23T07:23:28.518Z</time>
      </trkpt>
      <trkpt lat="48.8096" lon="2.12684">
        <ele>123</ele>
        <time>2022-10-23T07:23:33.503Z</time>
      </trkpt>
      <trkpt lat="48.80961" lon="2.12673">
        <ele>123</ele>
        <time>2022-10-23T07:23:38.529Z</time>
      </trkpt>
      <trkpt lat="48.80961" lon="2.12662">
        <ele>123</ele>
        <time>2022-10-23T07:23:43.530Z</time>
      </trkpt>
      <trkpt lat="48.80962" lon="2.12654">
        <ele>123</ele>
        <time>2022-10-23T07:23:48.516Z</time>
      </trkpt>
      <trkpt lat="48.80963" lon="2.12646">
        <ele>123</ele>
        <time>2022-10-23T07:23:53.515Z</time>
      </trkpt>
      <trkpt lat="48.80964" lon="2.12637">
        <ele>123</ele>
        <time>2022-10-23T07:23:58.504Z</time>
      </trkpt>
      <trkpt lat="48.80964" lon="2.1263">
        <ele>123</ele>
        <time>2022-10-23T07:24:02.518Z</time>
      </trkpt>
      <trkpt lat="48.80963" lon="2.1262">
        <ele>123</ele>
        <time>2022-10-23T07:24:07.516Z</time>
      </trkpt>
      <trkpt lat="48.80963" lon="2.12607">
        <ele>123</ele>
        <time>2022-10-23T07:24:12.525Z</time>
      </trkpt>
      <trkpt lat="48.80965" lon="2.12596">
        <ele>123</ele>
        <time>2022-10-23T07:24:17.509Z</time>
      </trkpt>
      <trkpt lat="48.8097" lon="2.12581">
        <ele>123</ele>
        <time>2022-10-23T07:24:57.520Z</time>
      </trkpt>
      <trkpt lat="48.80971" lon="2.12581">
        <ele>123</ele>
        <time>2022-10-23T07:25:02.524Z</time>
      </trkpt>
      <trkpt lat="48.80974" lon="2.12578">
        <ele>123</ele>
        <time>2022-10-23T07:25:07.512Z</time>
      </trkpt>
      <trkpt lat="48.80976" lon="2.12566">
        <ele>123</ele>
        <time>2022-10-23T07:25:12.472Z</time>
      </trkpt>
      <trkpt lat="48.80979" lon="2.12557">
        <ele>123</ele>
        <time>2022-10-23T07:25:17.478Z</time>
      </trkpt>
      <trkpt lat="48.80981" lon="2.12554">
        <ele>123</ele>
        <time>2022-10-23T07:25:22.481Z</time>
      </trkpt>
      <trkpt lat="48.80981" lon="2.12548">
        <ele>123</ele>
        <time>2022-10-23T07:25:27.480Z</time>
      </trkpt>
      <trkpt lat="48.8098" lon="2.12546">
        <ele>123</ele>
        <time>2022-10-23T07:25:32.473Z</time>
      </trkpt>
      <trkpt lat="48.80979" lon="2.12544">
        <ele>123</ele>
        <time>2022-10-23T07:25:36.485Z</time>
      </trkpt>
      <trkpt lat="48.80976" lon="2.12541">
        <ele>124</ele>
        <time>2022-10-23T07:25:41.468Z</time>
      </trkpt>
      <trkpt lat="48.80973" lon="2.12537">
        <ele>124</ele>
        <time>2022-10-23T07:25:45.498Z</time>
      </trkpt>
      <trkpt lat="48.80967" lon="2.12533">
        <ele>124</ele>
        <time>2022-10-23T07:25:50.491Z</time>
      </trkpt>
      <trkpt lat="48.80968" lon="2.12529">
        <ele>124</ele>
        <time>2022-10-23T07:25:54.524Z</time>
      </trkpt>
      <trkpt lat="48.8097" lon="2.1252">
        <ele>124</ele>
        <time>2022-10-23T07:25:59.529Z</time>
      </trkpt>
      <trkpt lat="48.8097" lon="2.1251">
        <ele>126</ele>
        <time>2022-10-23T07:26:04.529Z</time>
      </trkpt>
      <trkpt lat="48.80971" lon="2.12503">
        <ele>126</ele>
        <time>2022-10-23T07:26:09.472Z</time>
      </trkpt>
      <trkpt lat="48.8097" lon="2.12492">
        <ele>126</ele>
        <time>2022-10-23T07:26:14.491Z</time>
      </trkpt>
      <trkpt lat="48.80971" lon="2.12486">
        <ele>127</ele>
        <time>2022-10-23T07:26:18.501Z</time>
      </trkpt>
      <trkpt lat="48.80973" lon="2.12475">
        <ele>127</ele>
        <time>2022-10-23T07:26:23.511Z</time>
      </trkpt>
      <trkpt lat="48.80973" lon="2.12467">
        <ele>127</ele>
        <time>2022-10-23T07:26:28.491Z</time>
      </trkpt>
      <trkpt lat="48.80972" lon="2.1246">
        <ele>127</ele>
        <time>2022-10-23T07:26:32.503Z</time>
      </trkpt>
      <trkpt lat="48.80974" lon="2.12449">
        <ele>128</ele>
        <time>2022-10-23T07:26:37.475Z</time>
      </trkpt>
      <trkpt lat="48.80975" lon="2.12441">
        <ele>128</ele>
        <time>2022-10-23T07:26:41.519Z</time>
      </trkpt>
      <trkpt lat="48.80977" lon="2.12427">
        <ele>128</ele>
        <time>2022-10-23T07:26:46.501Z</time>
      </trkpt>
      <trkpt lat="48.80978" lon="2.12418">
        <ele>128</ele>
        <time>2022-10-23T07:26:50.521Z</time>
      </trkpt>
      <trkpt lat="48.80978" lon="2.12409">
        <ele>128</ele>
        <time>2022-10-23T07:26:55.479Z</time>
      </trkpt>
      <trkpt lat="48.8098" lon="2.12402">
        <ele>127</ele>
        <time>2022-10-23T07:26:59.501Z</time>
      </trkpt>
      <trkpt lat="48.80981" lon="2.12394">
        <ele>127</ele>
        <time>2022-10-23T07:27:03.526Z</time>
      </trkpt>
      <trkpt lat="48.80981" lon="2.12385">
        <ele>127</ele>
        <time>2022-10-23T07:27:08.510Z</time>
      </trkpt>
      <trkpt lat="48.80981" lon="2.12377">
        <ele>127</ele>
        <time>2022-10-23T07:27:13.519Z</time>
      </trkpt>
      <trkpt lat="48.80981" lon="2.12367">
        <ele>125</ele>
        <time>2022-10-23T07:27:18.534Z</time>
      </trkpt>
      <trkpt lat="48.80983" lon="2.12355">
        <ele>125</ele>
        <time>2022-10-23T07:27:23.522Z</time>
      </trkpt>
      <trkpt lat="48.80984" lon="2.12343">
        <ele>122</ele>
        <time>2022-10-23T07:27:28.508Z</time>
      </trkpt>
      <trkpt lat="48.80985" lon="2.12332">
        <ele>122</ele>
        <time>2022-10-23T07:27:32.527Z</time>
      </trkpt>
      <trkpt lat="48.80986" lon="2.12321">
        <ele>123</ele>
        <time>2022-10-23T07:27:37.518Z</time>
      </trkpt>
      <trkpt lat="48.80988" lon="2.12311">
        <ele>119</ele>
        <time>2022-10-23T07:27:42.533Z</time>
      </trkpt>
      <trkpt lat="48.80989" lon="2.12302">
        <ele>119</ele>
        <time>2022-10-23T07:27:47.511Z</time>
      </trkpt>
      <trkpt lat="48.8099" lon="2.12291">
        <ele>119</ele>
        <time>2022-10-23T07:27:52.516Z</time>
      </trkpt>
      <trkpt lat="48.80992" lon="2.1228">
        <ele>119</ele>
        <time>2022-10-23T07:27:57.515Z</time>
      </trkpt>
      <trkpt lat="48.80992" lon="2.12269">
        <ele>119</ele>
        <time>2022-10-23T07:28:02.509Z</time>
      </trkpt>
      <trkpt lat="48.80993" lon="2.12261">
        <ele>119</ele>
        <time>2022-10-23T07:28:06.517Z</time>
      </trkpt>
      <trkpt lat="48.80994" lon="2.12254">
        <ele>119</ele>
        <time>2022-10-23T07:28:10.522Z</time>
      </trkpt>
      <trkpt lat="48.80994" lon="2.12245">
        <ele>119</ele>
        <time>2022-10-23T07:28:15.490Z</time>
      </trkpt>
      <trkpt lat="48.80995" lon="2.12236">
        <ele>120</ele>
        <time>2022-10-23T07:28:19.494Z</time>
      </trkpt>
      <trkpt lat="48.80995" lon="2.12227">
        <ele>120</ele>
        <time>2022-10-23T07:28:23.505Z</time>
      </trkpt>
      <trkpt lat="48.80996" lon="2.12218">
        <ele>120</ele>
        <time>2022-10-23T07:28:27.516Z</time>
      </trkpt>
      <trkpt lat="48.80995" lon="2.12212">
        <ele>120</ele>
        <time>2022-10-23T07:28:32.518Z</time>
      </trkpt>
      <trkpt lat="48.80995" lon="2.12203">
        <ele>121</ele>
        <time>2022-10-23T07:28:37.500Z</time>
      </trkpt>
      <trkpt lat="48.80996" lon="2.12195">
        <ele>121</ele>
        <time>2022-10-23T07:28:41.506Z</time>
      </trkpt>
      <trkpt lat="48.80997" lon="2.12184">
        <ele>121</ele>
        <time>2022-10-23T07:28:46.530Z</time>
      </trkpt>
      <trkpt lat="48.80999" lon="2.12177">
        <ele>120</ele>
        <time>2022-10-23T07:28:51.512Z</time>
      </trkpt>
      <trkpt lat="48.81" lon="2.12167">
        <ele>120</ele>
        <time>2022-10-23T07:28:56.509Z</time>
      </trkpt>
      <trkpt lat="48.81002" lon="2.12157">
        <ele>120</ele>
        <time>2022-10-23T07:29:01.507Z</time>
      </trkpt>
      <trkpt lat="48.81001" lon="2.12147">
        <ele>120</ele>
        <time>2022-10-23T07:29:06.522Z</time>
      </trkpt>
      <trkpt lat="48.81001" lon="2.12137">
        <ele>120</ele>
        <time>2022-10-23T07:29:11.521Z</time>
      </trkpt>
      <trkpt lat="48.81004" lon="2.12128">
        <ele>120</ele>
        <time>2022-10-23T07:29:16.528Z</time>
      </trkpt>
      <trkpt lat="48.81007" lon="2.12115">
        <ele>120</ele>
        <time>2022-10-23T07:29:21.513Z</time>
      </trkpt>
      <trkpt lat="48.81006" lon="2.12106">
        <ele>120</ele>
        <time>2022-10-23T07:29:26.484Z</time>
      </trkpt>
      <trkpt lat="48.81005" lon="2.12099">
        <ele>120</ele>
        <time>2022-10-23T07:29:30.484Z</time>
      </trkpt>
      <trkpt lat="48.81006" lon="2.12085">
        <ele>120</ele>
        <time>2022-10-23T07:29:35.481Z</time>
      </trkpt>
      <trkpt lat="48.81011" lon="2.12076">
        <ele>120</ele>
        <time>2022-10-23T07:29:40.476Z</time>
      </trkpt>
      <trkpt lat="48.81016" lon="2.12072">
        <ele>120</ele>
        <time>2022-10-23T07:29:45.471Z</time>
      </trkpt>
      <trkpt lat="48.81018" lon="2.12071">
        <ele>120</ele>
        <time>2022-10-23T07:29:50.486Z</time>
      </trkpt>
      <trkpt lat="48.81014" lon="2.12069">
        <ele>120</ele>
        <time>2022-10-23T07:29:55.484Z</time>
      </trkpt>
      <trkpt lat="48.8101" lon="2.12067">
        <ele>120</ele>
        <time>2022-10-23T07:30:00.475Z</time>
      </trkpt>
      <trkpt lat="48.81007" lon="2.12059">
        <ele>120</ele>
        <time>2022-10-23T07:30:04.485Z</time>
      </trkpt>
      <trkpt lat="48.81005" lon="2.12052">
        <ele>120</ele>
        <time>2022-10-23T07:30:09.476Z</time>
      </trkpt>
      <trkpt lat="48.81005" lon="2.12042">
        <ele>120</ele>
        <time>2022-10-23T07:30:14.489Z</time>
      </trkpt>
      <trkpt lat="48.81007" lon="2.12029">
        <ele>121</ele>
        <time>2022-10-23T07:30:19.472Z</time>
      </trkpt>
      <trkpt lat="48.81007" lon="2.12018">
        <ele>121</ele>
        <time>2022-10-23T07:30:23.480Z</time>
      </trkpt>
      <trkpt lat="48.81009" lon="2.12006">
        <ele>121</ele>
        <time>2022-10-23T07:30:28.485Z</time>
      </trkpt>
      <trkpt lat="48.8101" lon="2.11999">
        <ele>121</ele>
        <time>2022-10-23T07:30:32.487Z</time>
      </trkpt>
      <trkpt lat="48.81008" lon="2.11992">
        <ele>121</ele>
        <time>2022-10-23T07:30:36.485Z</time>
      </trkpt>
      <trkpt lat="48.81008" lon="2.11982">
        <ele>122</ele>
        <time>2022-10-23T07:30:41.485Z</time>
      </trkpt>
      <trkpt lat="48.8101" lon="2.1197">
        <ele>122</ele>
        <time>2022-10-23T07:30:46.490Z</time>
      </trkpt>
      <trkpt lat="48.81013" lon="2.11959">
        <ele>122</ele>
        <time>2022-10-23T07:30:51.484Z</time>
      </trkpt>
      <trkpt lat="48.81015" lon="2.11943">
        <ele>121</ele>
        <time>2022-10-23T07:30:56.479Z</time>
      </trkpt>
      <trkpt lat="48.81014" lon="2.11933">
        <ele>122</ele>
        <time>2022-10-23T07:31:00.492Z</time>
      </trkpt>
      <trkpt lat="48.81016" lon="2.11924">
        <ele>121</ele>
        <time>2022-10-23T07:31:05.476Z</time>
      </trkpt>
      <trkpt lat="48.81016" lon="2.11917">
        <ele>121</ele>
        <time>2022-10-23T07:31:09.483Z</time>
      </trkpt>
      <trkpt lat="48.8102" lon="2.1191">
        <ele>121</ele>
        <time>2022-10-23T07:31:14.480Z</time>
      </trkpt>
      <trkpt lat="48.81021" lon="2.11902">
        <ele>120</ele>
        <time>2022-10-23T07:31:18.494Z</time>
      </trkpt>
      <trkpt lat="48.81021" lon="2.11891">
        <ele>120</ele>
        <time>2022-10-23T07:31:23.486Z</time>
      </trkpt>
      <trkpt lat="48.8102" lon="2.1188">
        <ele>120</ele>
        <time>2022-10-23T07:31:28.486Z</time>
      </trkpt>
      <trkpt lat="48.81021" lon="2.11873">
        <ele>119</ele>
        <time>2022-10-23T07:31:32.479Z</time>
      </trkpt>
      <trkpt lat="48.81022" lon="2.11863">
        <ele>119</ele>
        <time>2022-10-23T07:31:37.479Z</time>
      </trkpt>
      <trkpt lat="48.81021" lon="2.11855">
        <ele>119</ele>
        <time>2022-10-23T07:31:42.480Z</time>
      </trkpt>
      <trkpt lat="48.81021" lon="2.11844">
        <ele>118</ele>
        <time>2022-10-23T07:31:47.482Z</time>
      </trkpt>
      <trkpt lat="48.81023" lon="2.11832">
        <ele>118</ele>
        <time>2022-10-23T07:31:52.483Z</time>
      </trkpt>
      <trkpt lat="48.81026" lon="2.11822">
        <ele>118</ele>
        <time>2022-10-23T07:31:57.473Z</time>
      </trkpt>
      <trkpt lat="48.81027" lon="2.1181">
        <ele>117</ele>
        <time>2022-10-23T07:32:02.503Z</time>
      </trkpt>
      <trkpt lat="48.81025" lon="2.11803">
        <ele>117</ele>
        <time>2022-10-23T07:32:06.521Z</time>
      </trkpt>
      <trkpt lat="48.81026" lon="2.11792">
        <ele>117</ele>
        <time>2022-10-23T07:32:11.528Z</time>
      </trkpt>
      <trkpt lat="48.81028" lon="2.11782">
        <ele>117</ele>
        <time>2022-10-23T07:32:16.474Z</time>
      </trkpt>
      <trkpt lat="48.81027" lon="2.11776">
        <ele>117</ele>
        <time>2022-10-23T07:32:20.487Z</time>
      </trkpt>
      <trkpt lat="48.81026" lon="2.11766">
        <ele>117</ele>
        <time>2022-10-23T07:32:25.485Z</time>
      </trkpt>
      <trkpt lat="48.81026" lon="2.11757">
        <ele>118</ele>
        <time>2022-10-23T07:32:30.513Z</time>
      </trkpt>
      <trkpt lat="48.81027" lon="2.11748">
        <ele>118</ele>
        <time>2022-10-23T07:32:35.491Z</time>
      </trkpt>
      <trkpt lat="48.81029" lon="2.11739">
        <ele>118</ele>
        <time>2022-10-23T07:32:40.476Z</time>
      </trkpt>
      <trkpt lat="48.8103" lon="2.11733">
        <ele>120</ele>
        <time>2022-10-23T07:32:44.517Z</time>
      </trkpt>
      <trkpt lat="48.81031" lon="2.11721">
        <ele>120</ele>
        <time>2022-10-23T07:32:49.499Z</time>
      </trkpt>
      <trkpt lat="48.81032" lon="2.11715">
        <ele>120</ele>
        <time>2022-10-23T07:32:53.526Z</time>
      </trkpt>
      <trkpt lat="48.81031" lon="2.11707">
        <ele>119</ele>
        <time>2022-10-23T07:32:58.515Z</time>
      </trkpt>
      <trkpt lat="48.81031" lon="2.117">
        <ele>119</ele>
        <time>2022-10-23T07:33:02.521Z</time>
      </trkpt>
      <trkpt lat="48.81033" lon="2.11689">
        <ele>119</ele>
        <time>2022-10-23T07:33:07.514Z</time>
      </trkpt>
      <trkpt lat="48.81035" lon="2.11683">
        <ele>119</ele>
        <time>2022-10-23T07:33:11.529Z</time>
      </trkpt>
      <trkpt lat="48.81038" lon="2.1167">
        <ele>118</ele>
        <time>2022-10-23T07:33:16.520Z</time>
      </trkpt>
      <trkpt lat="48.81041" lon="2.11658">
        <ele>118</ele>
        <time>2022-10-23T07:33:21.528Z</time>
      </trkpt>
      <trkpt lat="48.81046" lon="2.11649">
        <ele>113</ele>
        <time>2022-10-23T07:33:26.505Z</time>
      </trkpt>
      <trkpt lat="48.81049" lon="2.11643">
        <ele>113</ele>
        <time>2022-10-23T07:33:30.511Z</time>
      </trkpt>
      <trkpt lat="48.81051" lon="2.11634">
        <ele>113</ele>
        <time>2022-10-23T07:33:35.498Z</time>
      </trkpt>
      <trkpt lat="48.81054" lon="2.11624">
        <ele>115</ele>
        <time>2022-10-23T07:33:40.510Z</time>
      </trkpt>
      <trkpt lat="48.81056" lon="2.11615">
        <ele>115</ele>
        <time>2022-10-23T07:33:45.488Z</time>
      </trkpt>
      <trkpt lat="48.81059" lon="2.11608">
        <ele>115</ele>
        <time>2022-10-23T07:33:49.515Z</time>
      </trkpt>
      <trkpt lat="48.81063" lon="2.11601">
        <ele>115</ele>
        <time>2022-10-23T07:33:54.496Z</time>
      </trkpt>
      <trkpt lat="48.81066" lon="2.11596">
        <ele>117</ele>
        <time>2022-10-23T07:33:58.508Z</time>
      </trkpt>
      <trkpt lat="48.81069" lon="2.11588">
        <ele>117</ele>
        <time>2022-10-23T07:34:03.506Z</time>
      </trkpt>
      <trkpt lat="48.81072" lon="2.11579">
        <ele>116</ele>
        <time>2022-10-23T07:34:08.506Z</time>
      </trkpt>
      <trkpt lat="48.81075" lon="2.11572">
        <ele>116</ele>
        <time>2022-10-23T07:34:12.527Z</time>
      </trkpt>
      <trkpt lat="48.81079" lon="2.11563">
        <ele>117</ele>
        <time>2022-10-23T07:34:17.531Z</time>
      </trkpt>
      <trkpt lat="48.81081" lon="2.11557">
        <ele>117</ele>
        <time>2022-10-23T07:34:22.503Z</time>
      </trkpt>
      <trkpt lat="48.81084" lon="2.11547">
        <ele>117</ele>
        <time>2022-10-23T07:34:26.515Z</time>
      </trkpt>
      <trkpt lat="48.81089" lon="2.11536">
        <ele>118</ele>
        <time>2022-10-23T07:34:30.528Z</time>
      </trkpt>
      <trkpt lat="48.81091" lon="2.11523">
        <ele>118</ele>
        <time>2022-10-23T07:34:35.501Z</time>
      </trkpt>
      <trkpt lat="48.81093" lon="2.11517">
        <ele>118</ele>
        <time>2022-10-23T07:34:39.511Z</time>
      </trkpt>
      <trkpt lat="48.81096" lon="2.1151">
        <ele>119</ele>
        <time>2022-10-23T07:34:43.521Z</time>
      </trkpt>
      <trkpt lat="48.811" lon="2.11504">
        <ele>116</ele>
        <time>2022-10-23T07:34:48.522Z</time>
      </trkpt>
      <trkpt lat="48.81104" lon="2.11496">
        <ele>116</ele>
        <time>2022-10-23T07:34:53.501Z</time>
      </trkpt>
      <trkpt lat="48.81106" lon="2.1149">
        <ele>116</ele>
        <time>2022-10-23T07:34:57.510Z</time>
      </trkpt>
      <trkpt lat="48.81108" lon="2.11484">
        <ele>116</ele>
        <time>2022-10-23T07:35:01.530Z</time>
      </trkpt>
      <trkpt lat="48.8111" lon="2.11478">
        <ele>116</ele>
        <time>2022-10-23T07:35:06.510Z</time>
      </trkpt>
      <trkpt lat="48.81114" lon="2.11468">
        <ele>116</ele>
        <time>2022-10-23T07:35:10.527Z</time>
      </trkpt>
      <trkpt lat="48.81117" lon="2.11457">
        <ele>116</ele>
        <time>2022-10-23T07:35:15.500Z</time>
      </trkpt>
      <trkpt lat="48.81119" lon="2.11447">
        <ele>116</ele>
        <time>2022-10-23T07:35:20.524Z</time>
      </trkpt>
      <trkpt lat="48.81123" lon="2.11438">
        <ele>116</ele>
        <time>2022-10-23T07:35:25.493Z</time>
      </trkpt>
      <trkpt lat="48.81126" lon="2.11431">
        <ele>115</ele>
        <time>2022-10-23T07:35:29.512Z</time>
      </trkpt>
      <trkpt lat="48.81128" lon="2.11422">
        <ele>115</ele>
        <time>2022-10-23T07:35:34.496Z</time>
      </trkpt>
      <trkpt lat="48.8113" lon="2.11415">
        <ele>115</ele>
        <time>2022-10-23T07:35:38.497Z</time>
      </trkpt>
      <trkpt lat="48.81132" lon="2.11406">
        <ele>115</ele>
        <time>2022-10-23T07:35:43.504Z</time>
      </trkpt>
      <trkpt lat="48.81135" lon="2.11395">
        <ele>115</ele>
        <time>2022-10-23T07:35:48.501Z</time>
      </trkpt>
      <trkpt lat="48.81138" lon="2.11389">
        <ele>115</ele>
        <time>2022-10-23T07:35:52.527Z</time>
      </trkpt>
      <trkpt lat="48.81141" lon="2.1138">
        <ele>115</ele>
        <time>2022-10-23T07:35:57.520Z</time>
      </trkpt>
      <trkpt lat="48.81145" lon="2.11369">
        <ele>116</ele>
        <time>2022-10-23T07:36:02.521Z</time>
      </trkpt>
      <trkpt lat="48.81149" lon="2.11362">
        <ele>116</ele>
        <time>2022-10-23T07:36:07.532Z</time>
      </trkpt>
      <trkpt lat="48.81154" lon="2.11355">
        <ele>113</ele>
        <time>2022-10-23T07:36:12.526Z</time>
      </trkpt>
      <trkpt lat="48.81157" lon="2.11346">
        <ele>114</ele>
        <time>2022-10-23T07:36:17.518Z</time>
      </trkpt>
      <trkpt lat="48.8116" lon="2.11337">
        <ele>114</ele>
        <time>2022-10-23T07:36:22.520Z</time>
      </trkpt>
      <trkpt lat="48.81163" lon="2.1133">
        <ele>114</ele>
        <time>2022-10-23T07:36:27.492Z</time>
      </trkpt>
      <trkpt lat="48.81166" lon="2.11322">
        <ele>114</ele>
        <time>2022-10-23T07:36:31.523Z</time>
      </trkpt>
      <trkpt lat="48.81167" lon="2.11313">
        <ele>114</ele>
        <time>2022-10-23T07:36:36.518Z</time>
      </trkpt>
      <trkpt lat="48.81172" lon="2.11302">
        <ele>114</ele>
        <time>2022-10-23T07:36:41.531Z</time>
      </trkpt>
      <trkpt lat="48.81174" lon="2.11294">
        <ele>114</ele>
        <time>2022-10-23T07:36:46.515Z</time>
      </trkpt>
      <trkpt lat="48.81177" lon="2.11286">
        <ele>115</ele>
        <time>2022-10-23T07:36:51.503Z</time>
      </trkpt>
      <trkpt lat="48.81179" lon="2.11279">
        <ele>115</ele>
        <time>2022-10-23T07:36:56.510Z</time>
      </trkpt>
      <trkpt lat="48.81182" lon="2.11273">
        <ele>113</ele>
        <time>2022-10-23T07:37:00.520Z</time>
      </trkpt>
      <trkpt lat="48.81186" lon="2.11263">
        <ele>114</ele>
        <time>2022-10-23T07:37:05.511Z</time>
      </trkpt>
      <trkpt lat="48.81189" lon="2.11254">
        <ele>114</ele>
        <time>2022-10-23T07:37:10.517Z</time>
      </trkpt>
      <trkpt lat="48.81192" lon="2.11246">
        <ele>114</ele>
        <time>2022-10-23T07:37:15.512Z</time>
      </trkpt>
      <trkpt lat="48.81194" lon="2.1124">
        <ele>114</ele>
        <time>2022-10-23T07:37:19.517Z</time>
      </trkpt>
      <trkpt lat="48.81198" lon="2.1123">
        <ele>114</ele>
        <time>2022-10-23T07:37:24.526Z</time>
      </trkpt>
      <trkpt lat="48.81201" lon="2.11222">
        <ele>114</ele>
        <time>2022-10-23T07:37:29.512Z</time>
      </trkpt>
      <trkpt lat="48.81203" lon="2.11215">
        <ele>114</ele>
        <time>2022-10-23T07:37:33.523Z</time>
      </trkpt>
      <trkpt lat="48.81206" lon="2.11206">
        <ele>114</ele>
        <time>2022-10-23T07:37:38.517Z</time>
      </trkpt>
      <trkpt lat="48.81205" lon="2.11193">
        <ele>114</ele>
        <time>2022-10-23T07:37:43.476Z</time>
      </trkpt>
      <trkpt lat="48.81206" lon="2.11185">
        <ele>114</ele>
        <time>2022-10-23T07:37:47.480Z</time>
      </trkpt>
      <trkpt lat="48.81207" lon="2.11173">
        <ele>115</ele>
        <time>2022-10-23T07:37:51.484Z</time>
      </trkpt>
      <trkpt lat="48.81208" lon="2.11166">
        <ele>115</ele>
        <time>2022-10-23T07:37:56.469Z</time>
      </trkpt>
      <trkpt lat="48.81208" lon="2.1116">
        <ele>115</ele>
        <time>2022-10-23T07:38:00.487Z</time>
      </trkpt>
      <trkpt lat="48.81209" lon="2.11159">
        <ele>112</ele>
        <time>2022-10-23T07:38:05.473Z</time>
      </trkpt>
      <trkpt lat="48.81213" lon="2.1115">
        <ele>113</ele>
        <time>2022-10-23T07:38:10.478Z</time>
      </trkpt>
      <trkpt lat="48.81215" lon="2.11137">
        <ele>113</ele>
        <time>2022-10-23T07:38:15.473Z</time>
      </trkpt>
      <trkpt lat="48.81216" lon="2.11126">
        <ele>113</ele>
        <time>2022-10-23T07:38:20.473Z</time>
      </trkpt>
      <trkpt lat="48.81215" lon="2.11114">
        <ele>114</ele>
        <time>2022-10-23T07:38:24.530Z</time>
      </trkpt>
      <trkpt lat="48.81212" lon="2.11108">
        <ele>114</ele>
        <time>2022-10-23T07:38:29.501Z</time>
      </trkpt>
      <trkpt lat="48.81209" lon="2.11103">
        <ele>114</ele>
        <time>2022-10-23T07:38:34.499Z</time>
      </trkpt>
      <trkpt lat="48.81205" lon="2.11099">
        <ele>115</ele>
        <time>2022-10-23T07:38:38.520Z</time>
      </trkpt>
      <trkpt lat="48.81199" lon="2.11096">
        <ele>114</ele>
        <time>2022-10-23T07:38:43.496Z</time>
      </trkpt>
      <trkpt lat="48.81194" lon="2.11091">
        <ele>114</ele>
        <time>2022-10-23T07:38:48.478Z</time>
      </trkpt>
      <trkpt lat="48.81189" lon="2.1109">
        <ele>114</ele>
        <time>2022-10-23T07:38:52.490Z</time>
      </trkpt>
      <trkpt lat="48.81182" lon="2.11087">
        <ele>114</ele>
        <time>2022-10-23T07:38:57.484Z</time>
      </trkpt>
      <trkpt lat="48.81176" lon="2.11083">
        <ele>115</ele>
        <time>2022-10-23T07:39:02.487Z</time>
      </trkpt>
      <trkpt lat="48.8117" lon="2.11081">
        <ele>115</ele>
        <time>2022-10-23T07:39:06.496Z</time>
      </trkpt>
      <trkpt lat="48.81166" lon="2.11077">
        <ele>115</ele>
        <time>2022-10-23T07:39:10.502Z</time>
      </trkpt>
      <trkpt lat="48.81161" lon="2.11074">
        <ele>115</ele>
        <time>2022-10-23T07:39:15.509Z</time>
      </trkpt>
      <trkpt lat="48.81156" lon="2.1107">
        <ele>115</ele>
        <time>2022-10-23T07:39:19.513Z</time>
      </trkpt>
      <trkpt lat="48.81149" lon="2.11067">
        <ele>113</ele>
        <time>2022-10-23T07:39:24.498Z</time>
      </trkpt>
      <trkpt lat="48.81144" lon="2.11064">
        <ele>113</ele>
        <time>2022-10-23T07:39:28.514Z</time>
      </trkpt>
      <trkpt lat="48.81138" lon="2.11058">
        <ele>113</ele>
        <time>2022-10-23T07:39:33.519Z</time>
      </trkpt>
      <trkpt lat="48.81132" lon="2.11056">
        <ele>113</ele>
        <time>2022-10-23T07:39:38.507Z</time>
      </trkpt>
      <trkpt lat="48.81126" lon="2.1105">
        <ele>113</ele>
        <time>2022-10-23T07:39:43.496Z</time>
      </trkpt>
      <trkpt lat="48.81121" lon="2.11047">
        <ele>113</ele>
        <time>2022-10-23T07:39:47.495Z</time>
      </trkpt>
      <trkpt lat="48.81115" lon="2.11043">
        <ele>113</ele>
        <time>2022-10-23T07:39:51.520Z</time>
      </trkpt>
      <trkpt lat="48.81106" lon="2.11039">
        <ele>113</ele>
        <time>2022-10-23T07:39:56.487Z</time>
      </trkpt>
      <trkpt lat="48.81101" lon="2.11038">
        <ele>113</ele>
        <time>2022-10-23T07:40:00.529Z</time>
      </trkpt>
      <trkpt lat="48.81096" lon="2.11032">
        <ele>114</ele>
        <time>2022-10-23T07:40:05.487Z</time>
      </trkpt>
      <trkpt lat="48.8109" lon="2.1103">
        <ele>114</ele>
        <time>2022-10-23T07:40:09.507Z</time>
      </trkpt>
      <trkpt lat="48.81085" lon="2.11024">
        <ele>114</ele>
        <time>2022-10-23T07:40:13.535Z</time>
      </trkpt>
      <trkpt lat="48.81079" lon="2.11022">
        <ele>114</ele>
        <time>2022-10-23T07:40:18.513Z</time>
      </trkpt>
      <trkpt lat="48.81071" lon="2.11029">
        <ele>114</ele>
        <time>2022-10-23T07:41:36.508Z</time>
      </trkpt>
      <trkpt lat="48.81069" lon="2.11028">
        <ele>115</ele>
        <time>2022-10-23T07:41:41.475Z</time>
      </trkpt>
      <trkpt lat="48.81068" lon="2.1103">
        <ele>115</ele>
        <time>2022-10-23T07:41:45.519Z</time>
      </trkpt>
      <trkpt lat="48.81067" lon="2.11031">
        <ele>115</ele>
        <time>2022-10-23T07:41:50.492Z</time>
      </trkpt>
      <trkpt lat="48.81067" lon="2.11031">
        <ele>115</ele>
        <time>2022-10-23T07:41:54.506Z</time>
      </trkpt>
      <trkpt lat="48.81067" lon="2.11025">
        <ele>115</ele>
        <time>2022-10-23T07:43:20.509Z</time>
      </trkpt>
      <trkpt lat="48.8106" lon="2.1102">
        <ele>115</ele>
        <time>2022-10-23T07:43:25.496Z</time>
      </trkpt>
      <trkpt lat="48.81055" lon="2.11016">
        <ele>115</ele>
        <time>2022-10-23T07:43:30.511Z</time>
      </trkpt>
      <trkpt lat="48.81049" lon="2.11009">
        <ele>114</ele>
        <time>2022-10-23T07:43:35.494Z</time>
      </trkpt>
      <trkpt lat="48.81045" lon="2.11007">
        <ele>114</ele>
        <time>2022-10-23T07:43:39.511Z</time>
      </trkpt>
      <trkpt lat="48.81039" lon="2.11005">
        <ele>115</ele>
        <time>2022-10-23T07:43:44.498Z</time>
      </trkpt>
      <trkpt lat="48.81035" lon="2.11001">
        <ele>115</ele>
        <time>2022-10-23T07:43:48.499Z</time>
      </trkpt>
      <trkpt lat="48.81028" lon="2.10996">
        <ele>115</ele>
        <time>2022-10-23T07:43:53.529Z</time>
      </trkpt>
      <trkpt lat="48.81023" lon="2.10994">
        <ele>115</ele>
        <time>2022-10-23T07:43:58.500Z</time>
      </trkpt>
      <trkpt lat="48.81016" lon="2.10988">
        <ele>115</ele>
        <time>2022-10-23T07:44:03.534Z</time>
      </trkpt>
      <trkpt lat="48.81009" lon="2.10984">
        <ele>114</ele>
        <time>2022-10-23T07:44:08.507Z</time>
      </trkpt>
      <trkpt lat="48.81004" lon="2.1098">
        <ele>114</ele>
        <time>2022-10-23T07:44:13.530Z</time>
      </trkpt>
      <trkpt lat="48.80998" lon="2.10977">
        <ele>114</ele>
        <time>2022-10-23T07:44:18.513Z</time>
      </trkpt>
      <trkpt lat="48.80993" lon="2.10974">
        <ele>114</ele>
        <time>2022-10-23T07:44:23.511Z</time>
      </trkpt>
      <trkpt lat="48.80987" lon="2.10972">
        <ele>114</ele>
        <time>2022-10-23T07:44:28.492Z</time>
      </trkpt>
      <trkpt lat="48.80982" lon="2.10969">
        <ele>113</ele>
        <time>2022-10-23T07:44:33.514Z</time>
      </trkpt>
      <trkpt lat="48.80976" lon="2.10965">
        <ele>113</ele>
        <time>2022-10-23T07:44:37.527Z</time>
      </trkpt>
      <trkpt lat="48.8097" lon="2.10962">
        <ele>113</ele>
        <time>2022-10-23T07:44:41.534Z</time>
      </trkpt>
      <trkpt lat="48.80965" lon="2.10958">
        <ele>112</ele>
        <time>2022-10-23T07:44:46.493Z</time>
      </trkpt>
      <trkpt lat="48.80958" lon="2.10952">
        <ele>112</ele>
        <time>2022-10-23T07:44:51.519Z</time>
      </trkpt>
      <trkpt lat="48.80951" lon="2.10949">
        <ele>112</ele>
        <time>2022-10-23T07:44:56.497Z</time>
      </trkpt>
      <trkpt lat="48.80946" lon="2.10946">
        <ele>112</ele>
        <time>2022-10-23T07:45:00.518Z</time>
      </trkpt>
      <trkpt lat="48.80939" lon="2.10941">
        <ele>112</ele>
        <time>2022-10-23T07:45:05.516Z</time>
      </trkpt>
      <trkpt lat="48.80933" lon="2.10938">
        <ele>112</ele>
        <time>2022-10-23T07:45:10.496Z</time>
      </trkpt>
      <trkpt lat="48.80926" lon="2.10934">
        <ele>113</ele>
        <time>2022-10-23T07:45:14.508Z</time>
      </trkpt>
      <trkpt lat="48.8092" lon="2.10931">
        <ele>113</ele>
        <time>2022-10-23T07:45:19.520Z</time>
      </trkpt>
      <trkpt lat="48.80915" lon="2.10928">
        <ele>113</ele>
        <time>2022-10-23T07:45:24.490Z</time>
      </trkpt>
      <trkpt lat="48.80909" lon="2.10923">
        <ele>113</ele>
        <time>2022-10-23T07:45:29.497Z</time>
      </trkpt>
      <trkpt lat="48.80903" lon="2.10918">
        <ele>112</ele>
        <time>2022-10-23T07:45:34.505Z</time>
      </trkpt>
      <trkpt lat="48.80899" lon="2.10915">
        <ele>112</ele>
        <time>2022-10-23T07:45:39.497Z</time>
      </trkpt>
      <trkpt lat="48.80894" lon="2.10906">
        <ele>112</ele>
        <time>2022-10-23T07:45:44.493Z</time>
      </trkpt>
      <trkpt lat="48.80888" lon="2.10898">
        <ele>111</ele>
        <time>2022-10-23T07:45:49.483Z</time>
      </trkpt>
      <trkpt lat="48.80882" lon="2.10891">
        <ele>111</ele>
        <time>2022-10-23T07:45:54.485Z</time>
      </trkpt>
      <trkpt lat="48.80879" lon="2.10886">
        <ele>111</ele>
        <time>2022-10-23T07:45:58.497Z</time>
      </trkpt>
      <trkpt lat="48.80875" lon="2.1088">
        <ele>111</ele>
        <time>2022-10-23T07:46:03.486Z</time>
      </trkpt>
      <trkpt lat="48.8087" lon="2.10874">
        <ele>112</ele>
        <time>2022-10-23T07:46:08.495Z</time>
      </trkpt>
      <trkpt lat="48.80867" lon="2.1087">
        <ele>112</ele>
        <time>2022-10-23T07:46:13.490Z</time>
      </trkpt>
      <trkpt lat="48.80865" lon="2.10862">
        <ele>112</ele>
        <time>2022-10-23T07:46:18.479Z</time>
      </trkpt>
      <trkpt lat="48.80864" lon="2.10855">
        <ele>112</ele>
        <time>2022-10-23T07:46:22.485Z</time>
      </trkpt>
      <trkpt lat="48.80863" lon="2.10848">
        <ele>112</ele>
        <time>2022-10-23T07:46:26.489Z</time>
      </trkpt>
      <trkpt lat="48.80864" lon="2.10839">
        <ele>112</ele>
        <time>2022-10-23T07:46:31.473Z</time>
      </trkpt>
      <trkpt lat="48.80865" lon="2.10833">
        <ele>112</ele>
        <time>2022-10-23T07:46:35.481Z</time>
      </trkpt>
      <trkpt lat="48.80868" lon="2.10822">
        <ele>112</ele>
        <time>2022-10-23T07:46:40.472Z</time>
      </trkpt>
      <trkpt lat="48.80869" lon="2.1082">
        <ele>112</ele>
        <time>2022-10-23T07:46:44.475Z</time>
      </trkpt>
      <trkpt lat="48.80871" lon="2.10811">
        <ele>112</ele>
        <time>2022-10-23T07:46:48.490Z</time>
      </trkpt>
      <trkpt lat="48.80873" lon="2.10805">
        <ele>112</ele>
        <time>2022-10-23T07:46:53.501Z</time>
      </trkpt>
      <trkpt lat="48.80872" lon="2.108">
        <ele>112</ele>
        <time>2022-10-23T07:46:58.504Z</time>
      </trkpt>
      <trkpt lat="48.80874" lon="2.10793">
        <ele>112</ele>
        <time>2022-10-23T07:47:02.507Z</time>
      </trkpt>
      <trkpt lat="48.80876" lon="2.10785">
        <ele>113</ele>
        <time>2022-10-23T07:47:07.519Z</time>
      </trkpt>
      <trkpt lat="48.80881" lon="2.10776">
        <ele>113</ele>
        <time>2022-10-23T07:47:12.520Z</time>
      </trkpt>
      <trkpt lat="48.80883" lon="2.10765">
        <ele>113</ele>
        <time>2022-10-23T07:47:17.504Z</time>
      </trkpt>
      <trkpt lat="48.80885" lon="2.10755">
        <ele>115</ele>
        <time>2022-10-23T07:47:21.518Z</time>
      </trkpt>
      <trkpt lat="48.80886" lon="2.10746">
        <ele>115</ele>
        <time>2022-10-23T07:47:26.501Z</time>
      </trkpt>
      <trkpt lat="48.80888" lon="2.1074">
        <ele>115</ele>
        <time>2022-10-23T07:47:30.515Z</time>
      </trkpt>
      <trkpt lat="48.8089" lon="2.10732">
        <ele>116</ele>
        <time>2022-10-23T07:47:34.516Z</time>
      </trkpt>
      <trkpt lat="48.80893" lon="2.10726">
        <ele>116</ele>
        <time>2022-10-23T07:47:39.495Z</time>
      </trkpt>
      <trkpt lat="48.80894" lon="2.1072">
        <ele>116</ele>
        <time>2022-10-23T07:47:43.511Z</time>
      </trkpt>
      <trkpt lat="48.80897" lon="2.10711">
        <ele>116</ele>
        <time>2022-10-23T07:47:48.501Z</time>
      </trkpt>
      <trkpt lat="48.80898" lon="2.10702">
        <ele>117</ele>
        <time>2022-10-23T07:47:53.527Z</time>
      </trkpt>
      <trkpt lat="48.80899" lon="2.10698">
        <ele>117</ele>
        <time>2022-10-23T07:47:58.500Z</time>
      </trkpt>
      <trkpt lat="48.809" lon="2.10691">
        <ele>117</ele>
        <time>2022-10-23T07:48:02.516Z</time>
      </trkpt>
      <trkpt lat="48.80903" lon="2.1068">
        <ele>114</ele>
        <time>2022-10-23T07:48:07.513Z</time>
      </trkpt>
      <trkpt lat="48.80905" lon="2.10672">
        <ele>114</ele>
        <time>2022-10-23T07:48:12.518Z</time>
      </trkpt>
      <trkpt lat="48.80909" lon="2.10661">
        <ele>114</ele>
        <time>2022-10-23T07:48:17.525Z</time>
      </trkpt>
      <trkpt lat="48.8091" lon="2.10656">
        <ele>114</ele>
        <time>2022-10-23T07:48:21.531Z</time>
      </trkpt>
      <trkpt lat="48.80914" lon="2.10647">
        <ele>114</ele>
        <time>2022-10-23T07:48:26.513Z</time>
      </trkpt>
      <trkpt lat="48.80917" lon="2.10637">
        <ele>114</ele>
        <time>2022-10-23T07:48:31.514Z</time>
      </trkpt>
      <trkpt lat="48.80919" lon="2.10629">
        <ele>114</ele>
        <time>2022-10-23T07:48:35.535Z</time>
      </trkpt>
      <trkpt lat="48.80921" lon="2.1062">
        <ele>113</ele>
        <time>2022-10-23T07:48:40.510Z</time>
      </trkpt>
      <trkpt lat="48.80924" lon="2.10613">
        <ele>113</ele>
        <time>2022-10-23T07:48:45.543Z</time>
      </trkpt>
      <trkpt lat="48.80925" lon="2.10603">
        <ele>113</ele>
        <time>2022-10-23T07:48:50.506Z</time>
      </trkpt>
      <trkpt lat="48.80927" lon="2.10595">
        <ele>114</ele>
        <time>2022-10-23T07:48:55.511Z</time>
      </trkpt>
      <trkpt lat="48.8093" lon="2.10588">
        <ele>114</ele>
        <time>2022-10-23T07:49:00.510Z</time>
      </trkpt>
      <trkpt lat="48.80932" lon="2.10578">
        <ele>112</ele>
        <time>2022-10-23T07:49:05.526Z</time>
      </trkpt>
      <trkpt lat="48.80934" lon="2.10568">
        <ele>113</ele>
        <time>2022-10-23T07:49:10.499Z</time>
      </trkpt>
      <trkpt lat="48.80937" lon="2.1056">
        <ele>113</ele>
        <time>2022-10-23T07:49:14.524Z</time>
      </trkpt>
      <trkpt lat="48.80937" lon="2.10554">
        <ele>113</ele>
        <time>2022-10-23T07:49:19.513Z</time>
      </trkpt>
      <trkpt lat="48.8094" lon="2.10547">
        <ele>113</ele>
        <time>2022-10-23T07:49:23.525Z</time>
      </trkpt>
      <trkpt lat="48.80944" lon="2.10539">
        <ele>114</ele>
        <time>2022-10-23T07:49:28.504Z</time>
      </trkpt>
      <trkpt lat="48.80945" lon="2.10529">
        <ele>114</ele>
        <time>2022-10-23T07:49:32.534Z</time>
      </trkpt>
      <trkpt lat="48.80948" lon="2.10519">
        <ele>114</ele>
        <time>2022-10-23T07:49:37.521Z</time>
      </trkpt>
      <trkpt lat="48.8095" lon="2.10509">
        <ele>114</ele>
        <time>2022-10-23T07:49:42.526Z</time>
      </trkpt>
      <trkpt lat="48.80953" lon="2.105">
        <ele>114</ele>
        <time>2022-10-23T07:49:47.515Z</time>
      </trkpt>
      <trkpt lat="48.80956" lon="2.10489">
        <ele>114</ele>
        <time>2022-10-23T07:49:52.521Z</time>
      </trkpt>
      <trkpt lat="48.80957" lon="2.10479">
        <ele>115</ele>
        <time>2022-10-23T07:49:57.509Z</time>
      </trkpt>
      <trkpt lat="48.80958" lon="2.1047">
        <ele>115</ele>
        <time>2022-10-23T07:50:02.531Z</time>
      </trkpt>
      <trkpt lat="48.80959" lon="2.10463">
        <ele>113</ele>
        <time>2022-10-23T07:50:06.542Z</time>
      </trkpt>
      <trkpt lat="48.80963" lon="2.10454">
        <ele>114</ele>
        <time>2022-10-23T07:50:11.527Z</time>
      </trkpt>
      <trkpt lat="48.80964" lon="2.10447">
        <ele>114</ele>
        <time>2022-10-23T07:50:16.540Z</time>
      </trkpt>
      <trkpt lat="48.80967" lon="2.1044">
        <ele>114</ele>
        <time>2022-10-23T07:50:21.523Z</time>
      </trkpt>
      <trkpt lat="48.80969" lon="2.10433">
        <ele>114</ele>
        <time>2022-10-23T07:50:26.533Z</time>
      </trkpt>
      <trkpt lat="48.80973" lon="2.10424">
        <ele>114</ele>
        <time>2022-10-23T07:50:31.512Z</time>
      </trkpt>
      <trkpt lat="48.80974" lon="2.10415">
        <ele>114</ele>
        <time>2022-10-23T07:50:35.527Z</time>
      </trkpt>
      <trkpt lat="48.80975" lon="2.10407">
        <ele>114</ele>
        <time>2022-10-23T07:50:40.533Z</time>
      </trkpt>
      <trkpt lat="48.80977" lon="2.10399">
        <ele>114</ele>
        <time>2022-10-23T07:50:45.525Z</time>
      </trkpt>
      <trkpt lat="48.80981" lon="2.1039">
        <ele>114</ele>
        <time>2022-10-23T07:50:50.528Z</time>
      </trkpt>
      <trkpt lat="48.80985" lon="2.10378">
        <ele>114</ele>
        <time>2022-10-23T07:50:55.506Z</time>
      </trkpt>
      <trkpt lat="48.80987" lon="2.10369">
        <ele>114</ele>
        <time>2022-10-23T07:50:59.533Z</time>
      </trkpt>
      <trkpt lat="48.80989" lon="2.1036">
        <ele>114</ele>
        <time>2022-10-23T07:51:04.508Z</time>
      </trkpt>
      <trkpt lat="48.8099" lon="2.10353">
        <ele>114</ele>
        <time>2022-10-23T07:51:08.537Z</time>
      </trkpt>
      <trkpt lat="48.80993" lon="2.10345">
        <ele>114</ele>
        <time>2022-10-23T07:51:13.513Z</time>
      </trkpt>
      <trkpt lat="48.80995" lon="2.10338">
        <ele>114</ele>
        <time>2022-10-23T07:51:18.526Z</time>
      </trkpt>
      <trkpt lat="48.80998" lon="2.1033">
        <ele>114</ele>
        <time>2022-10-23T07:51:22.526Z</time>
      </trkpt>
      <trkpt lat="48.81001" lon="2.10321">
        <ele>114</ele>
        <time>2022-10-23T07:51:27.511Z</time>
      </trkpt>
      <trkpt lat="48.81003" lon="2.10311">
        <ele>115</ele>
        <time>2022-10-23T07:51:31.537Z</time>
      </trkpt>
      <trkpt lat="48.81005" lon="2.10301">
        <ele>115</ele>
        <time>2022-10-23T07:51:36.530Z</time>
      </trkpt>
      <trkpt lat="48.81008" lon="2.10291">
        <ele>117</ele>
        <time>2022-10-23T07:51:41.517Z</time>
      </trkpt>
      <trkpt lat="48.81009" lon="2.10284">
        <ele>117</ele>
        <time>2022-10-23T07:51:45.509Z</time>
      </trkpt>
      <trkpt lat="48.81011" lon="2.10275">
        <ele>117</ele>
        <time>2022-10-23T07:51:50.529Z</time>
      </trkpt>
      <trkpt lat="48.81013" lon="2.10264">
        <ele>117</ele>
        <time>2022-10-23T07:51:55.515Z</time>
      </trkpt>
      <trkpt lat="48.81015" lon="2.10254">
        <ele>118</ele>
        <time>2022-10-23T07:52:00.522Z</time>
      </trkpt>
      <trkpt lat="48.81019" lon="2.10243">
        <ele>118</ele>
        <time>2022-10-23T07:52:05.524Z</time>
      </trkpt>
      <trkpt lat="48.81021" lon="2.10234">
        <ele>117</ele>
        <time>2022-10-23T07:52:10.520Z</time>
      </trkpt>
      <trkpt lat="48.81026" lon="2.10225">
        <ele>117</ele>
        <time>2022-10-23T07:52:14.541Z</time>
      </trkpt>
      <trkpt lat="48.81029" lon="2.10213">
        <ele>117</ele>
        <time>2022-10-23T07:52:19.501Z</time>
      </trkpt>
      <trkpt lat="48.81033" lon="2.10212">
        <ele>117</ele>
        <time>2022-10-23T07:52:24.480Z</time>
      </trkpt>
      <trkpt lat="48.81038" lon="2.10212">
        <ele>117</ele>
        <time>2022-10-23T07:52:28.490Z</time>
      </trkpt>
      <trkpt lat="48.81045" lon="2.10212">
        <ele>117</ele>
        <time>2022-10-23T07:52:33.485Z</time>
      </trkpt>
      <trkpt lat="48.81053" lon="2.10211">
        <ele>117</ele>
        <time>2022-10-23T07:52:38.485Z</time>
      </trkpt>
      <trkpt lat="48.81059" lon="2.10203">
        <ele>114</ele>
        <time>2022-10-23T07:52:43.472Z</time>
      </trkpt>
      <trkpt lat="48.8106" lon="2.10198">
        <ele>114</ele>
        <time>2022-10-23T07:52:47.482Z</time>
      </trkpt>
      <trkpt lat="48.81063" lon="2.10192">
        <ele>114</ele>
        <time>2022-10-23T07:52:51.486Z</time>
      </trkpt>
      <trkpt lat="48.81066" lon="2.10185">
        <ele>114</ele>
        <time>2022-10-23T07:52:56.497Z</time>
      </trkpt>
      <trkpt lat="48.8107" lon="2.1018">
        <ele>112</ele>
        <time>2022-10-23T07:53:01.491Z</time>
      </trkpt>
      <trkpt lat="48.81074" lon="2.10179">
        <ele>112</ele>
        <time>2022-10-23T07:53:06.489Z</time>
      </trkpt>
      <trkpt lat="48.81078" lon="2.10178">
        <ele>112</ele>
        <time>2022-10-23T07:53:10.515Z</time>
      </trkpt>
      <trkpt lat="48.81086" lon="2.10172">
        <ele>112</ele>
        <time>2022-10-23T07:53:15.486Z</time>
      </trkpt>
      <trkpt lat="48.81093" lon="2.1017">
        <ele>112</ele>
        <time>2022-10-23T07:53:20.477Z</time>
      </trkpt>
      <trkpt lat="48.81096" lon="2.10172">
        <ele>112</ele>
        <time>2022-10-23T07:53:25.479Z</time>
      </trkpt>
      <trkpt lat="48.81101" lon="2.10175">
        <ele>113</ele>
        <time>2022-10-23T07:53:30.485Z</time>
      </trkpt>
      <trkpt lat="48.81106" lon="2.10178">
        <ele>113</ele>
        <time>2022-10-23T07:53:34.492Z</time>
      </trkpt>
      <trkpt lat="48.81113" lon="2.10182">
        <ele>114</ele>
        <time>2022-10-23T07:53:39.491Z</time>
      </trkpt>
      <trkpt lat="48.81118" lon="2.10184">
        <ele>114</ele>
        <time>2022-10-23T07:53:44.490Z</time>
      </trkpt>
      <trkpt lat="48.81124" lon="2.10187">
        <ele>114</ele>
        <time>2022-10-23T07:53:48.488Z</time>
      </trkpt>
      <trkpt lat="48.81131" lon="2.10189">
        <ele>113</ele>
        <time>2022-10-23T07:53:53.487Z</time>
      </trkpt>
      <trkpt lat="48.81138" lon="2.10194">
        <ele>113</ele>
        <time>2022-10-23T07:53:58.494Z</time>
      </trkpt>
      <trkpt lat="48.81143" lon="2.10195">
        <ele>113</ele>
        <time>2022-10-23T07:54:03.483Z</time>
      </trkpt>
      <trkpt lat="48.81151" lon="2.10199">
        <ele>113</ele>
        <time>2022-10-23T07:54:08.490Z</time>
      </trkpt>
      <trkpt lat="48.81157" lon="2.10204">
        <ele>113</ele>
        <time>2022-10-23T07:54:13.482Z</time>
      </trkpt>
      <trkpt lat="48.81162" lon="2.10207">
        <ele>113</ele>
        <time>2022-10-23T07:54:17.485Z</time>
      </trkpt>
      <trkpt lat="48.81166" lon="2.10211">
        <ele>114</ele>
        <time>2022-10-23T07:54:22.477Z</time>
      </trkpt>
      <trkpt lat="48.81174" lon="2.10217">
        <ele>114</ele>
        <time>2022-10-23T07:54:26.488Z</time>
      </trkpt>
      <trkpt lat="48.81188" lon="2.10221">
        <ele>114</ele>
        <time>2022-10-23T07:54:31.482Z</time>
      </trkpt>
      <trkpt lat="48.81193" lon="2.10223">
        <ele>114</ele>
        <time>2022-10-23T07:54:36.488Z</time>
      </trkpt>
      <trkpt lat="48.81197" lon="2.1023">
        <ele>114</ele>
        <time>2022-10-23T07:54:41.513Z</time>
      </trkpt>
      <trkpt lat="48.81204" lon="2.10232">
        <ele>114</ele>
        <time>2022-10-23T07:54:46.494Z</time>
      </trkpt>
      <trkpt lat="48.81211" lon="2.10232">
        <ele>111</ele>
        <time>2022-10-23T07:54:51.497Z</time>
      </trkpt>
      <trkpt lat="48.81215" lon="2.10235">
        <ele>111</ele>
        <time>2022-10-23T07:54:55.551Z</time>
      </trkpt>
      <trkpt lat="48.81221" lon="2.10238">
        <ele>115</ele>
        <time>2022-10-23T07:55:00.516Z</time>
      </trkpt>
      <trkpt lat="48.81227" lon="2.1024">
        <ele>115</ele>
        <time>2022-10-23T07:55:05.519Z</time>
      </trkpt>
      <trkpt lat="48.81233" lon="2.10244">
        <ele>115</ele>
        <time>2022-10-23T07:55:10.505Z</time>
      </trkpt>
      <trkpt lat="48.81238" lon="2.10245">
        <ele>115</ele>
        <time>2022-10-23T07:55:14.507Z</time>
      </trkpt>
      <trkpt lat="48.81244" lon="2.1025">
        <ele>115</ele>
        <time>2022-10-23T07:55:19.499Z</time>
      </trkpt>
      <trkpt lat="48.81249" lon="2.10253">
        <ele>115</ele>
        <time>2022-10-23T07:55:23.539Z</time>
      </trkpt>
      <trkpt lat="48.81254" lon="2.10256">
        <ele>115</ele>
        <time>2022-10-23T07:55:28.490Z</time>
      </trkpt>
      <trkpt lat="48.81259" lon="2.1026">
        <ele>115</ele>
        <time>2022-10-23T07:55:32.537Z</time>
      </trkpt>
      <trkpt lat="48.81265" lon="2.10263">
        <ele>111</ele>
        <time>2022-10-23T07:55:37.526Z</time>
      </trkpt>
      <trkpt lat="48.81271" lon="2.10267">
        <ele>114</ele>
        <time>2022-10-23T07:55:42.515Z</time>
      </trkpt>
      <trkpt lat="48.81276" lon="2.1027">
        <ele>114</ele>
        <time>2022-10-23T07:55:46.527Z</time>
      </trkpt>
      <trkpt lat="48.81283" lon="2.10275">
        <ele>114</ele>
        <time>2022-10-23T07:55:51.522Z</time>
      </trkpt>
      <trkpt lat="48.81291" lon="2.10282">
        <ele>114</ele>
        <time>2022-10-23T07:55:56.535Z</time>
      </trkpt>
      <trkpt lat="48.81296" lon="2.10287">
        <ele>112</ele>
        <time>2022-10-23T07:56:01.505Z</time>
      </trkpt>
      <trkpt lat="48.81301" lon="2.10291">
        <ele>112</ele>
        <time>2022-10-23T07:56:05.543Z</time>
      </trkpt>
      <trkpt lat="48.81308" lon="2.10294">
        <ele>114</ele>
        <time>2022-10-23T07:56:10.533Z</time>
      </trkpt>
      <trkpt lat="48.81314" lon="2.10296">
        <ele>114</ele>
        <time>2022-10-23T07:56:15.518Z</time>
      </trkpt>
      <trkpt lat="48.8132" lon="2.10298">
        <ele>115</ele>
        <time>2022-10-23T07:56:19.522Z</time>
      </trkpt>
      <trkpt lat="48.81327" lon="2.10302">
        <ele>115</ele>
        <time>2022-10-23T07:56:24.533Z</time>
      </trkpt>
      <trkpt lat="48.81333" lon="2.10303">
        <ele>115</ele>
        <time>2022-10-23T07:56:29.524Z</time>
      </trkpt>
      <trkpt lat="48.81337" lon="2.10304">
        <ele>115</ele>
        <time>2022-10-23T07:56:33.530Z</time>
      </trkpt>
      <trkpt lat="48.81345" lon="2.10303">
        <ele>115</ele>
        <time>2022-10-23T07:56:38.529Z</time>
      </trkpt>
      <trkpt lat="48.81353" lon="2.103">
        <ele>115</ele>
        <time>2022-10-23T07:56:43.478Z</time>
      </trkpt>
      <trkpt lat="48.81359" lon="2.10302">
        <ele>115</ele>
        <time>2022-10-23T07:56:47.486Z</time>
      </trkpt>
      <trkpt lat="48.81365" lon="2.10307">
        <ele>115</ele>
        <time>2022-10-23T07:56:52.482Z</time>
      </trkpt>
      <trkpt lat="48.81369" lon="2.10308">
        <ele>115</ele>
        <time>2022-10-23T07:56:57.473Z</time>
      </trkpt>
      <trkpt lat="48.81375" lon="2.10305">
        <ele>115</ele>
        <time>2022-10-23T07:57:01.486Z</time>
      </trkpt>
      <trkpt lat="48.81381" lon="2.10301">
        <ele>114</ele>
        <time>2022-10-23T07:57:06.481Z</time>
      </trkpt>
      <trkpt lat="48.81387" lon="2.10298">
        <ele>114</ele>
        <time>2022-10-23T07:57:10.488Z</time>
      </trkpt>
      <trkpt lat="48.81394" lon="2.10293">
        <ele>114</ele>
        <time>2022-10-23T07:57:15.494Z</time>
      </trkpt>
      <trkpt lat="48.814" lon="2.10288">
        <ele>113</ele>
        <time>2022-10-23T07:57:20.489Z</time>
      </trkpt>
      <trkpt lat="48.81407" lon="2.10286">
        <ele>110</ele>
        <time>2022-10-23T07:57:24.498Z</time>
      </trkpt>
      <trkpt lat="48.81412" lon="2.10283">
        <ele>110</ele>
        <time>2022-10-23T07:57:29.492Z</time>
      </trkpt>
      <trkpt lat="48.81414" lon="2.10274">
        <ele>110</ele>
        <time>2022-10-23T07:57:34.482Z</time>
      </trkpt>
      <trkpt lat="48.81417" lon="2.10264">
        <ele>109</ele>
        <time>2022-10-23T07:57:39.498Z</time>
      </trkpt>
      <trkpt lat="48.8142" lon="2.1026">
        <ele>109</ele>
        <time>2022-10-23T07:57:44.496Z</time>
      </trkpt>
      <trkpt lat="48.81421" lon="2.1025">
        <ele>109</ele>
        <time>2022-10-23T07:57:49.519Z</time>
      </trkpt>
      <trkpt lat="48.81424" lon="2.10239">
        <ele>109</ele>
        <time>2022-10-23T07:57:54.490Z</time>
      </trkpt>
      <trkpt lat="48.81425" lon="2.10231">
        <ele>110</ele>
        <time>2022-10-23T07:57:58.512Z</time>
      </trkpt>
      <trkpt lat="48.81425" lon="2.1022">
        <ele>110</ele>
        <time>2022-10-23T07:58:03.482Z</time>
      </trkpt>
      <trkpt lat="48.81425" lon="2.10211">
        <ele>110</ele>
        <time>2022-10-23T07:58:07.490Z</time>
      </trkpt>
      <trkpt lat="48.81424" lon="2.10203">
        <ele>112</ele>
        <time>2022-10-23T07:58:11.496Z</time>
      </trkpt>
      <trkpt lat="48.81423" lon="2.10195">
        <ele>112</ele>
        <time>2022-10-23T07:58:16.494Z</time>
      </trkpt>
      <trkpt lat="48.81421" lon="2.10186">
        <ele>112</ele>
        <time>2022-10-23T07:58:20.519Z</time>
      </trkpt>
      <trkpt lat="48.81418" lon="2.10178">
        <ele>113</ele>
        <time>2022-10-23T07:58:25.478Z</time>
      </trkpt>
      <trkpt lat="48.81415" lon="2.10172">
        <ele>113</ele>
        <time>2022-10-23T07:58:29.503Z</time>
      </trkpt>
      <trkpt lat="48.81412" lon="2.10165">
        <ele>113</ele>
        <time>2022-10-23T07:58:33.533Z</time>
      </trkpt>
      <trkpt lat="48.81408" lon="2.10158">
        <ele>113</ele>
        <time>2022-10-23T07:58:38.509Z</time>
      </trkpt>
      <trkpt lat="48.81404" lon="2.10151">
        <ele>113</ele>
        <time>2022-10-23T07:58:42.544Z</time>
      </trkpt>
      <trkpt lat="48.814" lon="2.10143">
        <ele>113</ele>
        <time>2022-10-23T07:58:47.515Z</time>
      </trkpt>
      <trkpt lat="48.81397" lon="2.10137">
        <ele>113</ele>
        <time>2022-10-23T07:58:51.522Z</time>
      </trkpt>
      <trkpt lat="48.81393" lon="2.10134">
        <ele>113</ele>
        <time>2022-10-23T07:58:56.527Z</time>
      </trkpt>
      <trkpt lat="48.81387" lon="2.10131">
        <ele>113</ele>
        <time>2022-10-23T07:59:00.537Z</time>
      </trkpt>
      <trkpt lat="48.81364" lon="2.10126">
        <ele>113</ele>
        <time>2022-10-23T07:59:46.521Z</time>
      </trkpt>
      <trkpt lat="48.81362" lon="2.10126">
        <ele>113</ele>
        <time>2022-10-23T07:59:51.530Z</time>
      </trkpt>
      <trkpt lat="48.8136" lon="2.10127">
        <ele>113</ele>
        <time>2022-10-23T07:59:56.479Z</time>
      </trkpt>
      <trkpt lat="48.8136" lon="2.10126">
        <ele>113</ele>
        <time>2022-10-23T08:00:00.479Z</time>
      </trkpt>
      <trkpt lat="48.8136" lon="2.10126">
        <ele>113</ele>
        <time>2022-10-23T08:00:04.490Z</time>
      </trkpt>
      <trkpt lat="48.81359" lon="2.10123">
        <ele>113</ele>
        <time>2022-10-23T08:00:09.487Z</time>
      </trkpt>
      <trkpt lat="48.81355" lon="2.10119">
        <ele>113</ele>
        <time>2022-10-23T08:00:13.499Z</time>
      </trkpt>
      <trkpt lat="48.81347" lon="2.10114">
        <ele>113</ele>
        <time>2022-10-23T08:00:18.517Z</time>
      </trkpt>
      <trkpt lat="48.81343" lon="2.10108">
        <ele>113</ele>
        <time>2022-10-23T08:00:23.507Z</time>
      </trkpt>
      <trkpt lat="48.8134" lon="2.10106">
        <ele>113</ele>
        <time>2022-10-23T08:00:27.520Z</time>
      </trkpt>
      <trkpt lat="48.81336" lon="2.10102">
        <ele>113</ele>
        <time>2022-10-23T08:00:32.520Z</time>
      </trkpt>
      <trkpt lat="48.8133" lon="2.10098">
        <ele>113</ele>
        <time>2022-10-23T08:00:37.516Z</time>
      </trkpt>
      <trkpt lat="48.81325" lon="2.10096">
        <ele>113</ele>
        <time>2022-10-23T08:00:41.533Z</time>
      </trkpt>
      <trkpt lat="48.81318" lon="2.10092">
        <ele>115</ele>
        <time>2022-10-23T08:00:46.521Z</time>
      </trkpt>
      <trkpt lat="48.81311" lon="2.10087">
        <ele>115</ele>
        <time>2022-10-23T08:00:51.513Z</time>
      </trkpt>
      <trkpt lat="48.81303" lon="2.10082">
        <ele>115</ele>
        <time>2022-10-23T08:00:56.499Z</time>
      </trkpt>
      <trkpt lat="48.81298" lon="2.10078">
        <ele>115</ele>
        <time>2022-10-23T08:01:01.508Z</time>
      </trkpt>
      <trkpt lat="48.81292" lon="2.10073">
        <ele>115</ele>
        <time>2022-10-23T08:01:06.524Z</time>
      </trkpt>
      <trkpt lat="48.81285" lon="2.10067">
        <ele>113</ele>
        <time>2022-10-23T08:01:11.517Z</time>
      </trkpt>
      <trkpt lat="48.81279" lon="2.10065">
        <ele>113</ele>
        <time>2022-10-23T08:01:16.523Z</time>
      </trkpt>
      <trkpt lat="48.8127" lon="2.10061">
        <ele>113</ele>
        <time>2022-10-23T08:01:21.517Z</time>
      </trkpt>
      <trkpt lat="48.81265" lon="2.10058">
        <ele>113</ele>
        <time>2022-10-23T08:01:26.508Z</time>
      </trkpt>
      <trkpt lat="48.8126" lon="2.10055">
        <ele>114</ele>
        <time>2022-10-23T08:01:31.513Z</time>
      </trkpt>
      <trkpt lat="48.81255" lon="2.10051">
        <ele>114</ele>
        <time>2022-10-23T08:01:35.519Z</time>
      </trkpt>
      <trkpt lat="48.81249" lon="2.10048">
        <ele>114</ele>
        <time>2022-10-23T08:01:39.556Z</time>
      </trkpt>
      <trkpt lat="48.81243" lon="2.10043">
        <ele>114</ele>
        <time>2022-10-23T08:01:44.537Z</time>
      </trkpt>
      <trkpt lat="48.81238" lon="2.1004">
        <ele>114</ele>
        <time>2022-10-23T08:01:49.533Z</time>
      </trkpt>
      <trkpt lat="48.81232" lon="2.10036">
        <ele>115</ele>
        <time>2022-10-23T08:01:54.520Z</time>
      </trkpt>
      <trkpt lat="48.81226" lon="2.10034">
        <ele>115</ele>
        <time>2022-10-23T08:01:59.492Z</time>
      </trkpt>
      <trkpt lat="48.81222" lon="2.10031">
        <ele>115</ele>
        <time>2022-10-23T08:02:03.512Z</time>
      </trkpt>
      <trkpt lat="48.81217" lon="2.10027">
        <ele>115</ele>
        <time>2022-10-23T08:02:07.523Z</time>
      </trkpt>
      <trkpt lat="48.8121" lon="2.10022">
        <ele>115</ele>
        <time>2022-10-23T08:02:12.527Z</time>
      </trkpt>
      <trkpt lat="48.81204" lon="2.10018">
        <ele>114</ele>
        <time>2022-10-23T08:02:17.508Z</time>
      </trkpt>
      <trkpt lat="48.81195" lon="2.10016">
        <ele>114</ele>
        <time>2022-10-23T08:02:22.518Z</time>
      </trkpt>
      <trkpt lat="48.8119" lon="2.10014">
        <ele>114</ele>
        <time>2022-10-23T08:02:26.531Z</time>
      </trkpt>
      <trkpt lat="48.81184" lon="2.10009">
        <ele>114</ele>
        <time>2022-10-23T08:02:31.528Z</time>
      </trkpt>
      <trkpt lat="48.81179" lon="2.10006">
        <ele>113</ele>
        <time>2022-10-23T08:02:36.529Z</time>
      </trkpt>
      <trkpt lat="48.81176" lon="2.10003">
        <ele>113</ele>
        <time>2022-10-23T08:02:41.524Z</time>
      </trkpt>
      <trkpt lat="48.81168" lon="2.1">
        <ele>113</ele>
        <time>2022-10-23T08:02:46.514Z</time>
      </trkpt>
      <trkpt lat="48.81161" lon="2.09996">
        <ele>113</ele>
        <time>2022-10-23T08:02:51.493Z</time>
      </trkpt>
      <trkpt lat="48.81157" lon="2.09992">
        <ele>113</ele>
        <time>2022-10-23T08:02:55.514Z</time>
      </trkpt>
      <trkpt lat="48.81153" lon="2.0999">
        <ele>111</ele>
        <time>2022-10-23T08:02:59.534Z</time>
      </trkpt>
      <trkpt lat="48.81147" lon="2.09987">
        <ele>111</ele>
        <time>2022-10-23T08:03:04.512Z</time>
      </trkpt>
      <trkpt lat="48.81141" lon="2.09983">
        <ele>114</ele>
        <time>2022-10-23T08:03:08.523Z</time>
      </trkpt>
      <trkpt lat="48.81137" lon="2.09975">
        <ele>114</ele>
        <time>2022-10-23T08:03:13.514Z</time>
      </trkpt>
      <trkpt lat="48.81134" lon="2.0997">
        <ele>114</ele>
        <time>2022-10-23T08:03:17.528Z</time>
      </trkpt>
      <trkpt lat="48.81132" lon="2.09964">
        <ele>114</ele>
        <time>2022-10-23T08:03:22.528Z</time>
      </trkpt>
      <trkpt lat="48.81131" lon="2.09953">
        <ele>116</ele>
        <time>2022-10-23T08:03:27.525Z</time>
      </trkpt>
      <trkpt lat="48.81128" lon="2.09952">
        <ele>116</ele>
        <time>2022-10-23T08:03:32.482Z</time>
      </trkpt>
      <trkpt lat="48.81126" lon="2.09955">
        <ele>116</ele>
        <time>2022-10-23T08:03:36.492Z</time>
      </trkpt>
      <trkpt lat="48.81127" lon="2.09954">
        <ele>116</ele>
        <time>2022-10-23T08:03:41.481Z</time>
      </trkpt>
      <trkpt lat="48.81127" lon="2.09944">
        <ele>116</ele>
        <time>2022-10-23T08:03:46.479Z</time>
      </trkpt>
      <trkpt lat="48.81128" lon="2.09938">
        <ele>116</ele>
        <time>2022-10-23T08:03:50.487Z</time>
      </trkpt>
      <trkpt lat="48.81131" lon="2.0993">
        <ele>117</ele>
        <time>2022-10-23T08:03:54.491Z</time>
      </trkpt>
      <trkpt lat="48.81133" lon="2.09921">
        <ele>117</ele>
        <time>2022-10-23T08:03:59.488Z</time>
      </trkpt>
      <trkpt lat="48.81136" lon="2.0991">
        <ele>117</ele>
        <time>2022-10-23T08:04:04.488Z</time>
      </trkpt>
      <trkpt lat="48.81135" lon="2.099">
        <ele>117</ele>
        <time>2022-10-23T08:04:09.487Z</time>
      </trkpt>
      <trkpt lat="48.81131" lon="2.09892">
        <ele>117</ele>
        <time>2022-10-23T08:04:14.486Z</time>
      </trkpt>
      <trkpt lat="48.81123" lon="2.0989">
        <ele>116</ele>
        <time>2022-10-23T08:04:19.482Z</time>
      </trkpt>
      <trkpt lat="48.81117" lon="2.0989">
        <ele>116</ele>
        <time>2022-10-23T08:04:23.491Z</time>
      </trkpt>
      <trkpt lat="48.8111" lon="2.09895">
        <ele>116</ele>
        <time>2022-10-23T08:04:28.482Z</time>
      </trkpt>
      <trkpt lat="48.81109" lon="2.09895">
        <ele>116</ele>
        <time>2022-10-23T08:04:33.475Z</time>
      </trkpt>
      <trkpt lat="48.81108" lon="2.09893">
        <ele>116</ele>
        <time>2022-10-23T08:04:37.487Z</time>
      </trkpt>
      <trkpt lat="48.8111" lon="2.0989">
        <ele>116</ele>
        <time>2022-10-23T08:04:42.478Z</time>
      </trkpt>
      <trkpt lat="48.81112" lon="2.09883">
        <ele>116</ele>
        <time>2022-10-23T08:04:46.511Z</time>
      </trkpt>
      <trkpt lat="48.81117" lon="2.09875">
        <ele>116</ele>
        <time>2022-10-23T08:04:51.496Z</time>
      </trkpt>
      <trkpt lat="48.81115" lon="2.09869">
        <ele>116</ele>
        <time>2022-10-23T08:04:55.518Z</time>
      </trkpt>
      <trkpt lat="48.81114" lon="2.0986">
        <ele>116</ele>
        <time>2022-10-23T08:04:59.513Z</time>
      </trkpt>
      <trkpt lat="48.81111" lon="2.09848">
        <ele>116</ele>
        <time>2022-10-23T08:05:04.503Z</time>
      </trkpt>
      <trkpt lat="48.81108" lon="2.09839">
        <ele>111</ele>
        <time>2022-10-23T08:05:09.473Z</time>
      </trkpt>
      <trkpt lat="48.81108" lon="2.09832">
        <ele>111</ele>
        <time>2022-10-23T08:05:13.474Z</time>
      </trkpt>
      <trkpt lat="48.81108" lon="2.09823">
        <ele>111</ele>
        <time>2022-10-23T08:05:18.482Z</time>
      </trkpt>
      <trkpt lat="48.81105" lon="2.09812">
        <ele>111</ele>
        <time>2022-10-23T08:05:23.478Z</time>
      </trkpt>
      <trkpt lat="48.81105" lon="2.09808">
        <ele>111</ele>
        <time>2022-10-23T08:05:27.477Z</time>
      </trkpt>
      <trkpt lat="48.81106" lon="2.09809">
        <ele>111</ele>
        <time>2022-10-23T08:05:31.480Z</time>
      </trkpt>
      <trkpt lat="48.81106" lon="2.09805">
        <ele>111</ele>
        <time>2022-10-23T08:05:36.477Z</time>
      </trkpt>
      <trkpt lat="48.81106" lon="2.09797">
        <ele>111</ele>
        <time>2022-10-23T08:05:40.483Z</time>
      </trkpt>
      <trkpt lat="48.81109" lon="2.09788">
        <ele>111</ele>
        <time>2022-10-23T08:05:45.476Z</time>
      </trkpt>
      <trkpt lat="48.8111" lon="2.09788">
        <ele>111</ele>
        <time>2022-10-23T08:06:03.474Z</time>
      </trkpt>
      <trkpt lat="48.81113" lon="2.0978">
        <ele>111</ele>
        <time>2022-10-23T08:06:07.480Z</time>
      </trkpt>
      <trkpt lat="48.81115" lon="2.09773">
        <ele>111</ele>
        <time>2022-10-23T08:06:12.480Z</time>
      </trkpt>
      <trkpt lat="48.81116" lon="2.09766">
        <ele>111</ele>
        <time>2022-10-23T08:06:16.481Z</time>
      </trkpt>
      <trkpt lat="48.81117" lon="2.09758">
        <ele>111</ele>
        <time>2022-10-23T08:06:20.488Z</time>
      </trkpt>
      <trkpt lat="48.81119" lon="2.09749">
        <ele>111</ele>
        <time>2022-10-23T08:06:25.482Z</time>
      </trkpt>
      <trkpt lat="48.81122" lon="2.09742">
        <ele>111</ele>
        <time>2022-10-23T08:06:29.486Z</time>
      </trkpt>
      <trkpt lat="48.81125" lon="2.09733">
        <ele>117</ele>
        <time>2022-10-23T08:06:33.485Z</time>
      </trkpt>
      <trkpt lat="48.81127" lon="2.09727">
        <ele>117</ele>
        <time>2022-10-23T08:06:38.478Z</time>
      </trkpt>
      <trkpt lat="48.81128" lon="2.09723">
        <ele>117</ele>
        <time>2022-10-23T08:06:43.475Z</time>
      </trkpt>
      <trkpt lat="48.8113" lon="2.09724">
        <ele>117</ele>
        <time>2022-10-23T08:06:47.481Z</time>
      </trkpt>
      <trkpt lat="48.81132" lon="2.09714">
        <ele>117</ele>
        <time>2022-10-23T08:06:52.487Z</time>
      </trkpt>
      <trkpt lat="48.81134" lon="2.09701">
        <ele>116</ele>
        <time>2022-10-23T08:06:57.488Z</time>
      </trkpt>
      <trkpt lat="48.81136" lon="2.09688">
        <ele>116</ele>
        <time>2022-10-23T08:07:15.483Z</time>
      </trkpt>
      <trkpt lat="48.81137" lon="2.09681">
        <ele>116</ele>
        <time>2022-10-23T08:07:19.489Z</time>
      </trkpt>
      <trkpt lat="48.81141" lon="2.09672">
        <ele>111</ele>
        <time>2022-10-23T08:07:23.484Z</time>
      </trkpt>
      <trkpt lat="48.81145" lon="2.09663">
        <ele>111</ele>
        <time>2022-10-23T08:07:28.504Z</time>
      </trkpt>
      <trkpt lat="48.81148" lon="2.09654">
        <ele>111</ele>
        <time>2022-10-23T08:07:33.484Z</time>
      </trkpt>
      <trkpt lat="48.8115" lon="2.09642">
        <ele>111</ele>
        <time>2022-10-23T08:07:38.480Z</time>
      </trkpt>
      <trkpt lat="48.81152" lon="2.09627">
        <ele>111</ele>
        <time>2022-10-23T08:07:43.476Z</time>
      </trkpt>
      <trkpt lat="48.81154" lon="2.09618">
        <ele>115</ele>
        <time>2022-10-23T08:07:47.490Z</time>
      </trkpt>
      <trkpt lat="48.81158" lon="2.09612">
        <ele>115</ele>
        <time>2022-10-23T08:07:51.511Z</time>
      </trkpt>
      <trkpt lat="48.81163" lon="2.096">
        <ele>115</ele>
        <time>2022-10-23T08:07:56.508Z</time>
      </trkpt>
      <trkpt lat="48.81164" lon="2.09593">
        <ele>115</ele>
        <time>2022-10-23T08:08:00.518Z</time>
      </trkpt>
      <trkpt lat="48.81165" lon="2.09582">
        <ele>115</ele>
        <time>2022-10-23T08:08:05.503Z</time>
      </trkpt>
      <trkpt lat="48.81168" lon="2.0957">
        <ele>115</ele>
        <time>2022-10-23T08:08:10.479Z</time>
      </trkpt>
      <trkpt lat="48.8117" lon="2.09562">
        <ele>111</ele>
        <time>2022-10-23T08:08:14.506Z</time>
      </trkpt>
      <trkpt lat="48.81172" lon="2.09554">
        <ele>111</ele>
        <time>2022-10-23T08:08:18.514Z</time>
      </trkpt>
      <trkpt lat="48.81174" lon="2.09541">
        <ele>111</ele>
        <time>2022-10-23T08:08:23.518Z</time>
      </trkpt>
      <trkpt lat="48.81177" lon="2.09531">
        <ele>111</ele>
        <time>2022-10-23T08:08:28.483Z</time>
      </trkpt>
      <trkpt lat="48.8118" lon="2.09521">
        <ele>111</ele>
        <time>2022-10-23T08:08:33.497Z</time>
      </trkpt>
      <trkpt lat="48.81182" lon="2.09515">
        <ele>116</ele>
        <time>2022-10-23T08:08:38.480Z</time>
      </trkpt>
      <trkpt lat="48.81185" lon="2.09507">
        <ele>115</ele>
        <time>2022-10-23T08:08:42.489Z</time>
      </trkpt>
      <trkpt lat="48.81188" lon="2.09498">
        <ele>115</ele>
        <time>2022-10-23T08:08:47.485Z</time>
      </trkpt>
      <trkpt lat="48.8119" lon="2.09491">
        <ele>115</ele>
        <time>2022-10-23T08:08:51.500Z</time>
      </trkpt>
      <trkpt lat="48.81196" lon="2.09485">
        <ele>113</ele>
        <time>2022-10-23T08:08:56.497Z</time>
      </trkpt>
      <trkpt lat="48.81202" lon="2.09475">
        <ele>113</ele>
        <time>2022-10-23T08:09:01.487Z</time>
      </trkpt>
      <trkpt lat="48.81207" lon="2.09464">
        <ele>113</ele>
        <time>2022-10-23T08:09:06.509Z</time>
      </trkpt>
      <trkpt lat="48.81212" lon="2.09456">
        <ele>115</ele>
        <time>2022-10-23T08:09:11.497Z</time>
      </trkpt>
      <trkpt lat="48.81216" lon="2.09451">
        <ele>115</ele>
        <time>2022-10-23T08:09:16.480Z</time>
      </trkpt>
      <trkpt lat="48.8122" lon="2.09446">
        <ele>115</ele>
        <time>2022-10-23T08:09:20.506Z</time>
      </trkpt>
      <trkpt lat="48.81224" lon="2.09441">
        <ele>115</ele>
        <time>2022-10-23T08:09:25.498Z</time>
      </trkpt>
      <trkpt lat="48.8123" lon="2.09427">
        <ele>116</ele>
        <time>2022-10-23T08:09:30.483Z</time>
      </trkpt>
      <trkpt lat="48.81232" lon="2.09417">
        <ele>116</ele>
        <time>2022-10-23T08:09:34.491Z</time>
      </trkpt>
      <trkpt lat="48.81234" lon="2.09408">
        <ele>116</ele>
        <time>2022-10-23T08:09:39.485Z</time>
      </trkpt>
      <trkpt lat="48.81238" lon="2.09398">
        <ele>117</ele>
        <time>2022-10-23T08:09:44.485Z</time>
      </trkpt>
      <trkpt lat="48.81242" lon="2.0939">
        <ele>117</ele>
        <time>2022-10-23T08:09:48.495Z</time>
      </trkpt>
      <trkpt lat="48.81244" lon="2.09383">
        <ele>117</ele>
        <time>2022-10-23T08:09:52.504Z</time>
      </trkpt>
      <trkpt lat="48.81247" lon="2.09374">
        <ele>116</ele>
        <time>2022-10-23T08:09:57.495Z</time>
      </trkpt>
      <trkpt lat="48.81253" lon="2.09365">
        <ele>116</ele>
        <time>2022-10-23T08:10:02.488Z</time>
      </trkpt>
      <trkpt lat="48.81255" lon="2.09358">
        <ele>116</ele>
        <time>2022-10-23T08:10:06.494Z</time>
      </trkpt>
      <trkpt lat="48.81259" lon="2.0935">
        <ele>116</ele>
        <time>2022-10-23T08:10:11.481Z</time>
      </trkpt>
      <trkpt lat="48.81264" lon="2.09344">
        <ele>114</ele>
        <time>2022-10-23T08:10:15.490Z</time>
      </trkpt>
      <trkpt lat="48.81268" lon="2.09341">
        <ele>118</ele>
        <time>2022-10-23T08:10:19.503Z</time>
      </trkpt>
      <trkpt lat="48.81273" lon="2.09336">
        <ele>118</ele>
        <time>2022-10-23T08:10:24.507Z</time>
      </trkpt>
      <trkpt lat="48.81278" lon="2.09332">
        <ele>118</ele>
        <time>2022-10-23T08:10:29.483Z</time>
      </trkpt>
      <trkpt lat="48.81284" lon="2.09329">
        <ele>118</ele>
        <time>2022-10-23T08:10:33.514Z</time>
      </trkpt>
      <trkpt lat="48.8129" lon="2.09323">
        <ele>118</ele>
        <time>2022-10-23T08:10:38.507Z</time>
      </trkpt>
      <trkpt lat="48.81293" lon="2.09316">
        <ele>117</ele>
        <time>2022-10-23T08:10:42.533Z</time>
      </trkpt>
      <trkpt lat="48.81298" lon="2.0931">
        <ele>117</ele>
        <time>2022-10-23T08:10:47.483Z</time>
      </trkpt>
      <trkpt lat="48.81302" lon="2.09304">
        <ele>117</ele>
        <time>2022-10-23T08:10:51.522Z</time>
      </trkpt>
      <trkpt lat="48.81307" lon="2.09297">
        <ele>117</ele>
        <time>2022-10-23T08:10:56.529Z</time>
      </trkpt>
      <trkpt lat="48.81313" lon="2.09291">
        <ele>114</ele>
        <time>2022-10-23T08:11:01.532Z</time>
      </trkpt>
      <trkpt lat="48.81321" lon="2.0929">
        <ele>117</ele>
        <time>2022-10-23T08:11:06.528Z</time>
      </trkpt>
      <trkpt lat="48.8133" lon="2.09286">
        <ele>117</ele>
        <time>2022-10-23T08:11:11.518Z</time>
      </trkpt>
      <trkpt lat="48.81336" lon="2.0928">
        <ele>117</ele>
        <time>2022-10-23T08:11:16.551Z</time>
      </trkpt>
      <trkpt lat="48.8134" lon="2.09273">
        <ele>117</ele>
        <time>2022-10-23T08:11:21.514Z</time>
      </trkpt>
      <trkpt lat="48.81342" lon="2.09267">
        <ele>117</ele>
        <time>2022-10-23T08:11:25.533Z</time>
      </trkpt>
      <trkpt lat="48.81348" lon="2.0926">
        <ele>120</ele>
        <time>2022-10-23T08:11:30.487Z</time>
      </trkpt>
      <trkpt lat="48.81353" lon="2.09251">
        <ele>120</ele>
        <time>2022-10-23T08:11:34.527Z</time>
      </trkpt>
      <trkpt lat="48.81358" lon="2.0924">
        <ele>120</ele>
        <time>2022-10-23T08:11:39.524Z</time>
      </trkpt>
      <trkpt lat="48.81363" lon="2.09228">
        <ele>120</ele>
        <time>2022-10-23T08:11:44.524Z</time>
      </trkpt>
      <trkpt lat="48.81365" lon="2.09218">
        <ele>120</ele>
        <time>2022-10-23T08:11:48.533Z</time>
      </trkpt>
      <trkpt lat="48.81368" lon="2.09208">
        <ele>120</ele>
        <time>2022-10-23T08:11:53.525Z</time>
      </trkpt>
      <trkpt lat="48.81371" lon="2.09197">
        <ele>120</ele>
        <time>2022-10-23T08:11:58.515Z</time>
      </trkpt>
      <trkpt lat="48.81375" lon="2.09191">
        <ele>120</ele>
        <time>2022-10-23T08:12:03.492Z</time>
      </trkpt>
      <trkpt lat="48.81378" lon="2.09183">
        <ele>120</ele>
        <time>2022-10-23T08:12:07.503Z</time>
      </trkpt>
      <trkpt lat="48.81381" lon="2.09172">
        <ele>120</ele>
        <time>2022-10-23T08:12:12.504Z</time>
      </trkpt>
      <trkpt lat="48.81383" lon="2.0916">
        <ele>120</ele>
        <time>2022-10-23T08:12:17.494Z</time>
      </trkpt>
      <trkpt lat="48.81385" lon="2.09151">
        <ele>120</ele>
        <time>2022-10-23T08:12:21.504Z</time>
      </trkpt>
      <trkpt lat="48.81388" lon="2.09141">
        <ele>120</ele>
        <time>2022-10-23T08:12:25.512Z</time>
      </trkpt>
      <trkpt lat="48.8139" lon="2.0913">
        <ele>120</ele>
        <time>2022-10-23T08:12:30.489Z</time>
      </trkpt>
      <trkpt lat="48.81393" lon="2.09119">
        <ele>119</ele>
        <time>2022-10-23T08:12:35.494Z</time>
      </trkpt>
      <trkpt lat="48.81394" lon="2.09111">
        <ele>119</ele>
        <time>2022-10-23T08:12:39.500Z</time>
      </trkpt>
      <trkpt lat="48.81396" lon="2.09103">
        <ele>119</ele>
        <time>2022-10-23T08:12:43.504Z</time>
      </trkpt>
      <trkpt lat="48.81399" lon="2.09093">
        <ele>120</ele>
        <time>2022-10-23T08:12:48.497Z</time>
      </trkpt>
      <trkpt lat="48.81402" lon="2.09081">
        <ele>120</ele>
        <time>2022-10-23T08:12:53.494Z</time>
      </trkpt>
      <trkpt lat="48.81404" lon="2.09071">
        <ele>120</ele>
        <time>2022-10-23T08:12:58.511Z</time>
      </trkpt>
      <trkpt lat="48.81406" lon="2.0906">
        <ele>119</ele>
        <time>2022-10-23T08:13:03.492Z</time>
      </trkpt>
      <trkpt lat="48.81408" lon="2.09052">
        <ele>119</ele>
        <time>2022-10-23T08:13:07.500Z</time>
      </trkpt>
      <trkpt lat="48.81411" lon="2.09041">
        <ele>119</ele>
        <time>2022-10-23T08:13:12.489Z</time>
      </trkpt>
      <trkpt lat="48.81414" lon="2.09032">
        <ele>119</ele>
        <time>2022-10-23T08:13:17.499Z</time>
      </trkpt>
      <trkpt lat="48.81415" lon="2.09023">
        <ele>119</ele>
        <time>2022-10-23T08:13:22.509Z</time>
      </trkpt>
      <trkpt lat="48.81419" lon="2.09014">
        <ele>118</ele>
        <time>2022-10-23T08:13:27.491Z</time>
      </trkpt>
      <trkpt lat="48.81421" lon="2.09005">
        <ele>118</ele>
        <time>2022-10-23T08:13:31.511Z</time>
      </trkpt>
      <trkpt lat="48.81425" lon="2.08996">
        <ele>118</ele>
        <time>2022-10-23T08:13:36.489Z</time>
      </trkpt>
      <trkpt lat="48.81425" lon="2.08987">
        <ele>118</ele>
        <time>2022-10-23T08:13:40.516Z</time>
      </trkpt>
      <trkpt lat="48.81428" lon="2.08981">
        <ele>118</ele>
        <time>2022-10-23T08:13:45.475Z</time>
      </trkpt>
      <trkpt lat="48.81428" lon="2.08972">
        <ele>118</ele>
        <time>2022-10-23T08:13:49.502Z</time>
      </trkpt>
      <trkpt lat="48.81427" lon="2.08964">
        <ele>118</ele>
        <time>2022-10-23T08:13:53.507Z</time>
      </trkpt>
      <trkpt lat="48.81423" lon="2.08957">
        <ele>118</ele>
        <time>2022-10-23T08:13:58.514Z</time>
      </trkpt>
      <trkpt lat="48.81424" lon="2.08944">
        <ele>118</ele>
        <time>2022-10-23T08:14:03.529Z</time>
      </trkpt>
      <trkpt lat="48.81421" lon="2.08934">
        <ele>118</ele>
        <time>2022-10-23T08:14:08.496Z</time>
      </trkpt>
      <trkpt lat="48.8142" lon="2.08928">
        <ele>118</ele>
        <time>2022-10-23T08:14:12.523Z</time>
      </trkpt>
      <trkpt lat="48.81422" lon="2.08919">
        <ele>118</ele>
        <time>2022-10-23T08:14:17.497Z</time>
      </trkpt>
      <trkpt lat="48.81424" lon="2.08908">
        <ele>118</ele>
        <time>2022-10-23T08:14:22.517Z</time>
      </trkpt>
      <trkpt lat="48.81426" lon="2.089">
        <ele>118</ele>
        <time>2022-10-23T08:14:26.526Z</time>
      </trkpt>
      <trkpt lat="48.81427" lon="2.08889">
        <ele>118</ele>
        <time>2022-10-23T08:14:31.494Z</time>
      </trkpt>
      <trkpt lat="48.81426" lon="2.08879">
        <ele>118</ele>
        <time>2022-10-23T08:14:36.484Z</time>
      </trkpt>
      <trkpt lat="48.81427" lon="2.08871">
        <ele>117</ele>
        <time>2022-10-23T08:14:41.486Z</time>
      </trkpt>
      <trkpt lat="48.81428" lon="2.08861">
        <ele>117</ele>
        <time>2022-10-23T08:14:46.494Z</time>
      </trkpt>
      <trkpt lat="48.81428" lon="2.08854">
        <ele>117</ele>
        <time>2022-10-23T08:14:51.504Z</time>
      </trkpt>
      <trkpt lat="48.81426" lon="2.08845">
        <ele>117</ele>
        <time>2022-10-23T08:14:55.508Z</time>
      </trkpt>
      <trkpt lat="48.81428" lon="2.08834">
        <ele>117</ele>
        <time>2022-10-23T08:15:00.519Z</time>
      </trkpt>
      <trkpt lat="48.81429" lon="2.08824">
        <ele>117</ele>
        <time>2022-10-23T08:15:05.513Z</time>
      </trkpt>
      <trkpt lat="48.81426" lon="2.08813">
        <ele>116</ele>
        <time>2022-10-23T08:15:10.505Z</time>
      </trkpt>
      <trkpt lat="48.81423" lon="2.08804">
        <ele>116</ele>
        <time>2022-10-23T08:15:14.516Z</time>
      </trkpt>
      <trkpt lat="48.8142" lon="2.08797">
        <ele>116</ele>
        <time>2022-10-23T08:15:18.516Z</time>
      </trkpt>
      <trkpt lat="48.81418" lon="2.0879">
        <ele>115</ele>
        <time>2022-10-23T08:15:23.509Z</time>
      </trkpt>
      <trkpt lat="48.81416" lon="2.08781">
        <ele>115</ele>
        <time>2022-10-23T08:15:28.486Z</time>
      </trkpt>
      <trkpt lat="48.81412" lon="2.08773">
        <ele>115</ele>
        <time>2022-10-23T08:15:32.497Z</time>
      </trkpt>
      <trkpt lat="48.81406" lon="2.0877">
        <ele>115</ele>
        <time>2022-10-23T08:15:36.515Z</time>
      </trkpt>
      <trkpt lat="48.81402" lon="2.08766">
        <ele>112</ele>
        <time>2022-10-23T08:15:41.521Z</time>
      </trkpt>
      <trkpt lat="48.81396" lon="2.08759">
        <ele>113</ele>
        <time>2022-10-23T08:15:46.517Z</time>
      </trkpt>
      <trkpt lat="48.81393" lon="2.08754">
        <ele>113</ele>
        <time>2022-10-23T08:15:50.514Z</time>
      </trkpt>
      <trkpt lat="48.81388" lon="2.08748">
        <ele>113</ele>
        <time>2022-10-23T08:15:55.491Z</time>
      </trkpt>
      <trkpt lat="48.81383" lon="2.08743">
        <ele>113</ele>
        <time>2022-10-23T08:15:59.515Z</time>
      </trkpt>
      <trkpt lat="48.81378" lon="2.08737">
        <ele>113</ele>
        <time>2022-10-23T08:16:04.512Z</time>
      </trkpt>
      <trkpt lat="48.81374" lon="2.08729">
        <ele>111</ele>
        <time>2022-10-23T08:16:09.523Z</time>
      </trkpt>
      <trkpt lat="48.81371" lon="2.0872">
        <ele>111</ele>
        <time>2022-10-23T08:16:14.508Z</time>
      </trkpt>
      <trkpt lat="48.81359" lon="2.08705">
        <ele>111</ele>
        <time>2022-10-23T08:16:33.482Z</time>
      </trkpt>
      <trkpt lat="48.81358" lon="2.08702">
        <ele>111</ele>
        <time>2022-10-23T08:16:38.490Z</time>
      </trkpt>
      <trkpt lat="48.81358" lon="2.087">
        <ele>111</ele>
        <time>2022-10-23T08:16:43.499Z</time>
      </trkpt>
      <trkpt lat="48.81353" lon="2.08699">
        <ele>111</ele>
        <time>2022-10-23T08:16:48.503Z</time>
      </trkpt>
      <trkpt lat="48.81345" lon="2.08699">
        <ele>112</ele>
        <time>2022-10-23T08:16:53.504Z</time>
      </trkpt>
      <trkpt lat="48.81337" lon="2.08696">
        <ele>112</ele>
        <time>2022-10-23T08:16:58.483Z</time>
      </trkpt>
      <trkpt lat="48.8133" lon="2.08695">
        <ele>112</ele>
        <time>2022-10-23T08:17:03.490Z</time>
      </trkpt>
      <trkpt lat="48.81321" lon="2.08693">
        <ele>112</ele>
        <time>2022-10-23T08:17:08.518Z</time>
      </trkpt>
      <trkpt lat="48.81314" lon="2.08693">
        <ele>115</ele>
        <time>2022-10-23T08:17:13.484Z</time>
      </trkpt>
      <trkpt lat="48.81308" lon="2.08696">
        <ele>115</ele>
        <time>2022-10-23T08:17:18.482Z</time>
      </trkpt>
      <trkpt lat="48.81302" lon="2.08697">
        <ele>115</ele>
        <time>2022-10-23T08:17:22.497Z</time>
      </trkpt>
      <trkpt lat="48.81297" lon="2.08698">
        <ele>115</ele>
        <time>2022-10-23T08:17:27.484Z</time>
      </trkpt>
      <trkpt lat="48.81293" lon="2.08703">
        <ele>115</ele>
        <time>2022-10-23T08:17:31.532Z</time>
      </trkpt>
      <trkpt lat="48.81287" lon="2.08708">
        <ele>119</ele>
        <time>2022-10-23T08:17:36.481Z</time>
      </trkpt>
      <trkpt lat="48.81282" lon="2.08712">
        <ele>117</ele>
        <time>2022-10-23T08:17:40.516Z</time>
      </trkpt>
      <trkpt lat="48.81277" lon="2.08716">
        <ele>117</ele>
        <time>2022-10-23T08:17:44.518Z</time>
      </trkpt>
      <trkpt lat="48.81271" lon="2.08722">
        <ele>117</ele>
        <time>2022-10-23T08:17:49.519Z</time>
      </trkpt>
      <trkpt lat="48.81268" lon="2.08727">
        <ele>117</ele>
        <time>2022-10-23T08:17:53.526Z</time>
      </trkpt>
      <trkpt lat="48.81263" lon="2.08731">
        <ele>121</ele>
        <time>2022-10-23T08:17:58.509Z</time>
      </trkpt>
      <trkpt lat="48.81258" lon="2.08736">
        <ele>121</ele>
        <time>2022-10-23T08:18:02.530Z</time>
      </trkpt>
      <trkpt lat="48.81253" lon="2.08743">
        <ele>118</ele>
        <time>2022-10-23T08:18:07.504Z</time>
      </trkpt>
      <trkpt lat="48.81249" lon="2.0875">
        <ele>118</ele>
        <time>2022-10-23T08:18:11.523Z</time>
      </trkpt>
      <trkpt lat="48.81245" lon="2.08759">
        <ele>118</ele>
        <time>2022-10-23T08:18:16.525Z</time>
      </trkpt>
      <trkpt lat="48.81239" lon="2.08769">
        <ele>116</ele>
        <time>2022-10-23T08:18:21.508Z</time>
      </trkpt>
      <trkpt lat="48.81234" lon="2.08776">
        <ele>120</ele>
        <time>2022-10-23T08:18:25.520Z</time>
      </trkpt>
      <trkpt lat="48.81231" lon="2.0878">
        <ele>120</ele>
        <time>2022-10-23T08:18:29.536Z</time>
      </trkpt>
      <trkpt lat="48.81225" lon="2.08786">
        <ele>120</ele>
        <time>2022-10-23T08:18:34.527Z</time>
      </trkpt>
      <trkpt lat="48.8122" lon="2.08791">
        <ele>120</ele>
        <time>2022-10-23T08:18:39.539Z</time>
      </trkpt>
      <trkpt lat="48.81214" lon="2.08797">
        <ele>117</ele>
        <time>2022-10-23T08:18:44.491Z</time>
      </trkpt>
      <trkpt lat="48.81205" lon="2.08807">
        <ele>117</ele>
        <time>2022-10-23T08:18:49.515Z</time>
      </trkpt>
      <trkpt lat="48.812" lon="2.08815">
        <ele>117</ele>
        <time>2022-10-23T08:18:53.533Z</time>
      </trkpt>
      <trkpt lat="48.81194" lon="2.08825">
        <ele>116</ele>
        <time>2022-10-23T08:18:58.532Z</time>
      </trkpt>
      <trkpt lat="48.8119" lon="2.08837">
        <ele>116</ele>
        <time>2022-10-23T08:19:03.488Z</time>
      </trkpt>
      <trkpt lat="48.81189" lon="2.08847">
        <ele>116</ele>
        <time>2022-10-23T08:19:07.502Z</time>
      </trkpt>
      <trkpt lat="48.81186" lon="2.08853">
        <ele>114</ele>
        <time>2022-10-23T08:19:12.485Z</time>
      </trkpt>
      <trkpt lat="48.81183" lon="2.08859">
        <ele>114</ele>
        <time>2022-10-23T08:19:16.527Z</time>
      </trkpt>
      <trkpt lat="48.81181" lon="2.08866">
        <ele>114</ele>
        <time>2022-10-23T08:19:21.486Z</time>
      </trkpt>
      <trkpt lat="48.8118" lon="2.08871">
        <ele>118</ele>
        <time>2022-10-23T08:19:25.518Z</time>
      </trkpt>
      <trkpt lat="48.81178" lon="2.08882">
        <ele>118</ele>
        <time>2022-10-23T08:19:30.507Z</time>
      </trkpt>
      <trkpt lat="48.81176" lon="2.08891">
        <ele>118</ele>
        <time>2022-10-23T08:19:35.482Z</time>
      </trkpt>
      <trkpt lat="48.81174" lon="2.08898">
        <ele>118</ele>
        <time>2022-10-23T08:19:39.519Z</time>
      </trkpt>
      <trkpt lat="48.81173" lon="2.08908">
        <ele>118</ele>
        <time>2022-10-23T08:19:44.524Z</time>
      </trkpt>
      <trkpt lat="48.81171" lon="2.08913">
        <ele>118</ele>
        <time>2022-10-23T08:19:48.543Z</time>
      </trkpt>
      <trkpt lat="48.81169" lon="2.08921">
        <ele>118</ele>
        <time>2022-10-23T08:19:53.488Z</time>
      </trkpt>
      <trkpt lat="48.81168" lon="2.08928">
        <ele>118</ele>
        <time>2022-10-23T08:19:57.476Z</time>
      </trkpt>
      <trkpt lat="48.81169" lon="2.08936">
        <ele>119</ele>
        <time>2022-10-23T08:20:02.490Z</time>
      </trkpt>
      <trkpt lat="48.81168" lon="2.08944">
        <ele>119</ele>
        <time>2022-10-23T08:20:06.501Z</time>
      </trkpt>
      <trkpt lat="48.81164" lon="2.08962">
        <ele>118</ele>
        <time>2022-10-23T08:20:11.485Z</time>
      </trkpt>
      <trkpt lat="48.81161" lon="2.08974">
        <ele>118</ele>
        <time>2022-10-23T08:20:15.519Z</time>
      </trkpt>
      <trkpt lat="48.81156" lon="2.08983">
        <ele>118</ele>
        <time>2022-10-23T08:20:20.519Z</time>
      </trkpt>
      <trkpt lat="48.81152" lon="2.08992">
        <ele>119</ele>
        <time>2022-10-23T08:20:25.509Z</time>
      </trkpt>
      <trkpt lat="48.81149" lon="2.09004">
        <ele>119</ele>
        <time>2022-10-23T08:20:29.530Z</time>
      </trkpt>
      <trkpt lat="48.81145" lon="2.09014">
        <ele>118</ele>
        <time>2022-10-23T08:20:34.534Z</time>
      </trkpt>
      <trkpt lat="48.81141" lon="2.09023">
        <ele>118</ele>
        <time>2022-10-23T08:20:39.512Z</time>
      </trkpt>
      <trkpt lat="48.81139" lon="2.09034">
        <ele>118</ele>
        <time>2022-10-23T08:20:44.533Z</time>
      </trkpt>
      <trkpt lat="48.81139" lon="2.09044">
        <ele>118</ele>
        <time>2022-10-23T08:20:49.501Z</time>
      </trkpt>
      <trkpt lat="48.81137" lon="2.0905">
        <ele>118</ele>
        <time>2022-10-23T08:20:53.540Z</time>
      </trkpt>
      <trkpt lat="48.81135" lon="2.09059">
        <ele>118</ele>
        <time>2022-10-23T08:20:58.533Z</time>
      </trkpt>
      <trkpt lat="48.81133" lon="2.09066">
        <ele>118</ele>
        <time>2022-10-23T08:21:02.535Z</time>
      </trkpt>
      <trkpt lat="48.8113" lon="2.09073">
        <ele>118</ele>
        <time>2022-10-23T08:21:07.530Z</time>
      </trkpt>
      <trkpt lat="48.81128" lon="2.09081">
        <ele>118</ele>
        <time>2022-10-23T08:21:12.529Z</time>
      </trkpt>
      <trkpt lat="48.81125" lon="2.0909">
        <ele>118</ele>
        <time>2022-10-23T08:21:17.525Z</time>
      </trkpt>
      <trkpt lat="48.81122" lon="2.09101">
        <ele>119</ele>
        <time>2022-10-23T08:21:22.510Z</time>
      </trkpt>
      <trkpt lat="48.81119" lon="2.0911">
        <ele>119</ele>
        <time>2022-10-23T08:21:27.511Z</time>
      </trkpt>
      <trkpt lat="48.81119" lon="2.09122">
        <ele>119</ele>
        <time>2022-10-23T08:21:32.489Z</time>
      </trkpt>
      <trkpt lat="48.81119" lon="2.09133">
        <ele>119</ele>
        <time>2022-10-23T08:21:36.487Z</time>
      </trkpt>
      <trkpt lat="48.81118" lon="2.09139">
        <ele>119</ele>
        <time>2022-10-23T08:21:40.520Z</time>
      </trkpt>
      <trkpt lat="48.8112" lon="2.09146">
        <ele>119</ele>
        <time>2022-10-23T08:21:44.526Z</time>
      </trkpt>
      <trkpt lat="48.81124" lon="2.09153">
        <ele>118</ele>
        <time>2022-10-23T08:21:48.530Z</time>
      </trkpt>
      <trkpt lat="48.81127" lon="2.09163">
        <ele>116</ele>
        <time>2022-10-23T08:21:53.520Z</time>
      </trkpt>
      <trkpt lat="48.8113" lon="2.09172">
        <ele>116</ele>
        <time>2022-10-23T08:21:58.525Z</time>
      </trkpt>
      <trkpt lat="48.81133" lon="2.0918">
        <ele>116</ele>
        <time>2022-10-23T08:22:03.526Z</time>
      </trkpt>
      <trkpt lat="48.81134" lon="2.0919">
        <ele>115</ele>
        <time>2022-10-23T08:22:08.515Z</time>
      </trkpt>
      <trkpt lat="48.81135" lon="2.09201">
        <ele>115</ele>
        <time>2022-10-23T08:22:13.510Z</time>
      </trkpt>
      <trkpt lat="48.81135" lon="2.09212">
        <ele>115</ele>
        <time>2022-10-23T08:22:18.524Z</time>
      </trkpt>
      <trkpt lat="48.81136" lon="2.09219">
        <ele>115</ele>
        <time>2022-10-23T08:22:22.541Z</time>
      </trkpt>
      <trkpt lat="48.81138" lon="2.0923">
        <ele>115</ele>
        <time>2022-10-23T08:22:27.544Z</time>
      </trkpt>
      <trkpt lat="48.81138" lon="2.0924">
        <ele>115</ele>
        <time>2022-10-23T08:22:32.516Z</time>
      </trkpt>
      <trkpt lat="48.8114" lon="2.09247">
        <ele>115</ele>
        <time>2022-10-23T08:22:36.536Z</time>
      </trkpt>
      <trkpt lat="48.81141" lon="2.09258">
        <ele>115</ele>
        <time>2022-10-23T08:22:41.494Z</time>
      </trkpt>
      <trkpt lat="48.81143" lon="2.09267">
        <ele>114</ele>
        <time>2022-10-23T08:22:46.512Z</time>
      </trkpt>
      <trkpt lat="48.81145" lon="2.09275">
        <ele>114</ele>
        <time>2022-10-23T08:22:50.515Z</time>
      </trkpt>
      <trkpt lat="48.81143" lon="2.09284">
        <ele>114</ele>
        <time>2022-10-23T08:22:55.511Z</time>
      </trkpt>
      <trkpt lat="48.81144" lon="2.09298">
        <ele>113</ele>
        <time>2022-10-23T08:23:00.492Z</time>
      </trkpt>
      <trkpt lat="48.81143" lon="2.09308">
        <ele>113</ele>
        <time>2022-10-23T08:23:04.512Z</time>
      </trkpt>
      <trkpt lat="48.81142" lon="2.09316">
        <ele>113</ele>
        <time>2022-10-23T08:23:09.479Z</time>
      </trkpt>
      <trkpt lat="48.81142" lon="2.09324">
        <ele>112</ele>
        <time>2022-10-23T08:23:13.487Z</time>
      </trkpt>
      <trkpt lat="48.8114" lon="2.0933">
        <ele>112</ele>
        <time>2022-10-23T08:23:17.494Z</time>
      </trkpt>
      <trkpt lat="48.81137" lon="2.09337">
        <ele>112</ele>
        <time>2022-10-23T08:23:21.510Z</time>
      </trkpt>
      <trkpt lat="48.81134" lon="2.09344">
        <ele>112</ele>
        <time>2022-10-23T08:23:26.525Z</time>
      </trkpt>
      <trkpt lat="48.8113" lon="2.09349">
        <ele>111</ele>
        <time>2022-10-23T08:23:30.527Z</time>
      </trkpt>
      <trkpt lat="48.81127" lon="2.09358">
        <ele>111</ele>
        <time>2022-10-23T08:23:35.530Z</time>
      </trkpt>
      <trkpt lat="48.81125" lon="2.09368">
        <ele>115</ele>
        <time>2022-10-23T08:23:39.530Z</time>
      </trkpt>
      <trkpt lat="48.81121" lon="2.09379">
        <ele>113</ele>
        <time>2022-10-23T08:23:44.535Z</time>
      </trkpt>
      <trkpt lat="48.81118" lon="2.09388">
        <ele>113</ele>
        <time>2022-10-23T08:23:49.522Z</time>
      </trkpt>
      <trkpt lat="48.81116" lon="2.09397">
        <ele>113</ele>
        <time>2022-10-23T08:23:54.536Z</time>
      </trkpt>
      <trkpt lat="48.81114" lon="2.09408">
        <ele>112</ele>
        <time>2022-10-23T08:23:59.525Z</time>
      </trkpt>
      <trkpt lat="48.81112" lon="2.09418">
        <ele>112</ele>
        <time>2022-10-23T08:24:04.517Z</time>
      </trkpt>
      <trkpt lat="48.81111" lon="2.09428">
        <ele>112</ele>
        <time>2022-10-23T08:24:09.502Z</time>
      </trkpt>
      <trkpt lat="48.81109" lon="2.09435">
        <ele>111</ele>
        <time>2022-10-23T08:24:13.512Z</time>
      </trkpt>
      <trkpt lat="48.81108" lon="2.09442">
        <ele>111</ele>
        <time>2022-10-23T08:24:17.512Z</time>
      </trkpt>
      <trkpt lat="48.81106" lon="2.09452">
        <ele>111</ele>
        <time>2022-10-23T08:24:22.516Z</time>
      </trkpt>
      <trkpt lat="48.81103" lon="2.09459">
        <ele>111</ele>
        <time>2022-10-23T08:24:26.520Z</time>
      </trkpt>
      <trkpt lat="48.81102" lon="2.09465">
        <ele>111</ele>
        <time>2022-10-23T08:24:30.535Z</time>
      </trkpt>
      <trkpt lat="48.811" lon="2.09475">
        <ele>111</ele>
        <time>2022-10-23T08:24:35.516Z</time>
      </trkpt>
      <trkpt lat="48.81098" lon="2.09482">
        <ele>111</ele>
        <time>2022-10-23T08:24:39.536Z</time>
      </trkpt>
      <trkpt lat="48.81095" lon="2.09491">
        <ele>114</ele>
        <time>2022-10-23T08:24:44.531Z</time>
      </trkpt>
      <trkpt lat="48.81093" lon="2.09498">
        <ele>114</ele>
        <time>2022-10-23T08:24:48.539Z</time>
      </trkpt>
      <trkpt lat="48.81091" lon="2.09509">
        <ele>114</ele>
        <time>2022-10-23T08:24:53.528Z</time>
      </trkpt>
      <trkpt lat="48.81088" lon="2.09519">
        <ele>114</ele>
        <time>2022-10-23T08:24:58.525Z</time>
      </trkpt>
      <trkpt lat="48.81085" lon="2.09528">
        <ele>114</ele>
        <time>2022-10-23T08:25:03.523Z</time>
      </trkpt>
      <trkpt lat="48.81083" lon="2.09537">
        <ele>114</ele>
        <time>2022-10-23T08:25:08.524Z</time>
      </trkpt>
      <trkpt lat="48.81081" lon="2.09544">
        <ele>114</ele>
        <time>2022-10-23T08:25:12.537Z</time>
      </trkpt>
      <trkpt lat="48.81079" lon="2.09553">
        <ele>114</ele>
        <time>2022-10-23T08:25:17.520Z</time>
      </trkpt>
      <trkpt lat="48.81077" lon="2.09564">
        <ele>114</ele>
        <time>2022-10-23T08:25:22.519Z</time>
      </trkpt>
      <trkpt lat="48.81074" lon="2.09574">
        <ele>111</ele>
        <time>2022-10-23T08:25:27.531Z</time>
      </trkpt>
      <trkpt lat="48.81072" lon="2.09582">
        <ele>111</ele>
        <time>2022-10-23T08:25:32.543Z</time>
      </trkpt>
      <trkpt lat="48.81069" lon="2.09592">
        <ele>114</ele>
        <time>2022-10-23T08:25:37.530Z</time>
      </trkpt>
      <trkpt lat="48.81067" lon="2.09601">
        <ele>113</ele>
        <time>2022-10-23T08:25:42.499Z</time>
      </trkpt>
      <trkpt lat="48.81065" lon="2.09608">
        <ele>113</ele>
        <time>2022-10-23T08:25:46.532Z</time>
      </trkpt>
      <trkpt lat="48.81062" lon="2.09618">
        <ele>113</ele>
        <time>2022-10-23T08:25:51.522Z</time>
      </trkpt>
      <trkpt lat="48.8106" lon="2.09629">
        <ele>112</ele>
        <time>2022-10-23T08:25:56.499Z</time>
      </trkpt>
      <trkpt lat="48.81058" lon="2.09638">
        <ele>112</ele>
        <time>2022-10-23T08:26:01.495Z</time>
      </trkpt>
      <trkpt lat="48.81057" lon="2.09642">
        <ele>112</ele>
        <time>2022-10-23T08:26:05.510Z</time>
      </trkpt>
      <trkpt lat="48.81056" lon="2.09648">
        <ele>112</ele>
        <time>2022-10-23T08:26:09.515Z</time>
      </trkpt>
      <trkpt lat="48.81054" lon="2.09658">
        <ele>111</ele>
        <time>2022-10-23T08:26:14.495Z</time>
      </trkpt>
      <trkpt lat="48.81051" lon="2.09672">
        <ele>111</ele>
        <time>2022-10-23T08:26:19.498Z</time>
      </trkpt>
      <trkpt lat="48.81049" lon="2.09681">
        <ele>111</ele>
        <time>2022-10-23T08:26:24.489Z</time>
      </trkpt>
      <trkpt lat="48.81048" lon="2.0969">
        <ele>111</ele>
        <time>2022-10-23T08:26:28.523Z</time>
      </trkpt>
      <trkpt lat="48.81043" lon="2.09695">
        <ele>111</ele>
        <time>2022-10-23T08:26:33.497Z</time>
      </trkpt>
      <trkpt lat="48.81042" lon="2.09702">
        <ele>111</ele>
        <time>2022-10-23T08:26:38.481Z</time>
      </trkpt>
      <trkpt lat="48.81041" lon="2.09708">
        <ele>113</ele>
        <time>2022-10-23T08:26:43.488Z</time>
      </trkpt>
      <trkpt lat="48.81039" lon="2.09715">
        <ele>113</ele>
        <time>2022-10-23T08:26:47.500Z</time>
      </trkpt>
      <trkpt lat="48.81036" lon="2.09725">
        <ele>113</ele>
        <time>2022-10-23T08:27:01.496Z</time>
      </trkpt>
      <trkpt lat="48.81036" lon="2.09725">
        <ele>113</ele>
        <time>2022-10-23T08:27:06.501Z</time>
      </trkpt>
      <trkpt lat="48.81036" lon="2.09725">
        <ele>113</ele>
        <time>2022-10-23T08:27:10.521Z</time>
      </trkpt>
      <trkpt lat="48.81033" lon="2.09734">
        <ele>113</ele>
        <time>2022-10-23T08:27:15.511Z</time>
      </trkpt>
      <trkpt lat="48.81029" lon="2.09742">
        <ele>113</ele>
        <time>2022-10-23T08:27:19.518Z</time>
      </trkpt>
      <trkpt lat="48.81026" lon="2.09749">
        <ele>113</ele>
        <time>2022-10-23T08:27:23.517Z</time>
      </trkpt>
      <trkpt lat="48.81023" lon="2.09758">
        <ele>113</ele>
        <time>2022-10-23T08:27:28.522Z</time>
      </trkpt>
      <trkpt lat="48.81021" lon="2.09766">
        <ele>113</ele>
        <time>2022-10-23T08:27:32.529Z</time>
      </trkpt>
      <trkpt lat="48.81018" lon="2.09776">
        <ele>113</ele>
        <time>2022-10-23T08:27:37.507Z</time>
      </trkpt>
      <trkpt lat="48.81014" lon="2.09792">
        <ele>112</ele>
        <time>2022-10-23T08:27:51.477Z</time>
      </trkpt>
      <trkpt lat="48.81008" lon="2.09794">
        <ele>112</ele>
        <time>2022-10-23T08:27:55.487Z</time>
      </trkpt>
      <trkpt lat="48.81002" lon="2.09803">
        <ele>112</ele>
        <time>2022-10-23T08:27:59.501Z</time>
      </trkpt>
      <trkpt lat="48.80996" lon="2.09804">
        <ele>112</ele>
        <time>2022-10-23T08:28:03.493Z</time>
      </trkpt>
      <trkpt lat="48.80989" lon="2.09807">
        <ele>112</ele>
        <time>2022-10-23T08:28:08.491Z</time>
      </trkpt>
      <trkpt lat="48.80982" lon="2.09809">
        <ele>113</ele>
        <time>2022-10-23T08:28:12.499Z</time>
      </trkpt>
      <trkpt lat="48.80977" lon="2.09814">
        <ele>113</ele>
        <time>2022-10-23T08:28:16.540Z</time>
      </trkpt>
      <trkpt lat="48.80974" lon="2.09824">
        <ele>112</ele>
        <time>2022-10-23T08:28:21.483Z</time>
      </trkpt>
      <trkpt lat="48.80974" lon="2.09836">
        <ele>112</ele>
        <time>2022-10-23T08:28:25.489Z</time>
      </trkpt>
      <trkpt lat="48.80975" lon="2.0984">
        <ele>112</ele>
        <time>2022-10-23T08:28:30.491Z</time>
      </trkpt>
      <trkpt lat="48.80974" lon="2.09846">
        <ele>112</ele>
        <time>2022-10-23T08:28:35.475Z</time>
      </trkpt>
      <trkpt lat="48.80969" lon="2.09852">
        <ele>112</ele>
        <time>2022-10-23T08:28:39.500Z</time>
      </trkpt>
      <trkpt lat="48.80959" lon="2.09856">
        <ele>112</ele>
        <time>2022-10-23T08:28:44.497Z</time>
      </trkpt>
      <trkpt lat="48.80953" lon="2.09858">
        <ele>111</ele>
        <time>2022-10-23T08:28:48.518Z</time>
      </trkpt>
      <trkpt lat="48.8095" lon="2.09859">
        <ele>111</ele>
        <time>2022-10-23T08:28:52.535Z</time>
      </trkpt>
      <trkpt lat="48.80943" lon="2.09862">
        <ele>111</ele>
        <time>2022-10-23T08:28:57.516Z</time>
      </trkpt>
      <trkpt lat="48.80936" lon="2.0986">
        <ele>111</ele>
        <time>2022-10-23T08:29:02.535Z</time>
      </trkpt>
      <trkpt lat="48.80932" lon="2.09857">
        <ele>111</ele>
        <time>2022-10-23T08:29:07.484Z</time>
      </trkpt>
      <trkpt lat="48.80928" lon="2.09854">
        <ele>111</ele>
        <time>2022-10-23T08:29:11.486Z</time>
      </trkpt>
      <trkpt lat="48.80921" lon="2.09854">
        <ele>111</ele>
        <time>2022-10-23T08:29:15.485Z</time>
      </trkpt>
      <trkpt lat="48.80914" lon="2.09849">
        <ele>111</ele>
        <time>2022-10-23T08:29:20.517Z</time>
      </trkpt>
      <trkpt lat="48.80909" lon="2.09845">
        <ele>115</ele>
        <time>2022-10-23T08:29:25.500Z</time>
      </trkpt>
      <trkpt lat="48.80902" lon="2.09844">
        <ele>113</ele>
        <time>2022-10-23T08:29:30.529Z</time>
      </trkpt>
      <trkpt lat="48.80897" lon="2.0984">
        <ele>113</ele>
        <time>2022-10-23T08:29:34.533Z</time>
      </trkpt>
      <trkpt lat="48.80892" lon="2.09837">
        <ele>113</ele>
        <time>2022-10-23T08:29:38.541Z</time>
      </trkpt>
      <trkpt lat="48.80886" lon="2.09832">
        <ele>113</ele>
        <time>2022-10-23T08:29:43.497Z</time>
      </trkpt>
      <trkpt lat="48.8088" lon="2.09829">
        <ele>113</ele>
        <time>2022-10-23T08:29:48.554Z</time>
      </trkpt>
      <trkpt lat="48.80875" lon="2.09826">
        <ele>111</ele>
        <time>2022-10-23T08:29:53.499Z</time>
      </trkpt>
      <trkpt lat="48.80868" lon="2.09822">
        <ele>111</ele>
        <time>2022-10-23T08:29:58.535Z</time>
      </trkpt>
      <trkpt lat="48.80861" lon="2.09818">
        <ele>112</ele>
        <time>2022-10-23T08:30:03.499Z</time>
      </trkpt>
      <trkpt lat="48.80855" lon="2.09815">
        <ele>112</ele>
        <time>2022-10-23T08:30:08.533Z</time>
      </trkpt>
      <trkpt lat="48.80849" lon="2.09812">
        <ele>112</ele>
        <time>2022-10-23T08:30:12.556Z</time>
      </trkpt>
      <trkpt lat="48.80841" lon="2.09807">
        <ele>113</ele>
        <time>2022-10-23T08:30:17.493Z</time>
      </trkpt>
      <trkpt lat="48.80834" lon="2.09802">
        <ele>113</ele>
        <time>2022-10-23T08:30:22.535Z</time>
      </trkpt>
      <trkpt lat="48.80827" lon="2.09798">
        <ele>113</ele>
        <time>2022-10-23T08:30:27.498Z</time>
      </trkpt>
      <trkpt lat="48.80821" lon="2.09795">
        <ele>113</ele>
        <time>2022-10-23T08:30:32.530Z</time>
      </trkpt>
      <trkpt lat="48.80815" lon="2.09792">
        <ele>116</ele>
        <time>2022-10-23T08:30:37.505Z</time>
      </trkpt>
      <trkpt lat="48.80808" lon="2.0979">
        <ele>116</ele>
        <time>2022-10-23T08:30:42.540Z</time>
      </trkpt>
      <trkpt lat="48.80803" lon="2.09786">
        <ele>116</ele>
        <time>2022-10-23T08:30:47.499Z</time>
      </trkpt>
      <trkpt lat="48.80797" lon="2.09782">
        <ele>116</ele>
        <time>2022-10-23T08:30:52.536Z</time>
      </trkpt>
      <trkpt lat="48.80789" lon="2.09776">
        <ele>118</ele>
        <time>2022-10-23T08:30:57.493Z</time>
      </trkpt>
      <trkpt lat="48.80782" lon="2.09773">
        <ele>118</ele>
        <time>2022-10-23T08:31:02.538Z</time>
      </trkpt>
      <trkpt lat="48.80776" lon="2.0977">
        <ele>118</ele>
        <time>2022-10-23T08:31:07.491Z</time>
      </trkpt>
      <trkpt lat="48.80769" lon="2.09765">
        <ele>118</ele>
        <time>2022-10-23T08:31:12.537Z</time>
      </trkpt>
      <trkpt lat="48.80763" lon="2.09761">
        <ele>117</ele>
        <time>2022-10-23T08:31:17.493Z</time>
      </trkpt>
      <trkpt lat="48.80758" lon="2.09758">
        <ele>117</ele>
        <time>2022-10-23T08:31:21.498Z</time>
      </trkpt>
      <trkpt lat="48.80752" lon="2.09754">
        <ele>117</ele>
        <time>2022-10-23T08:31:26.525Z</time>
      </trkpt>
      <trkpt lat="48.80743" lon="2.09751">
        <ele>117</ele>
        <time>2022-10-23T08:31:31.495Z</time>
      </trkpt>
      <trkpt lat="48.80736" lon="2.09746">
        <ele>117</ele>
        <time>2022-10-23T08:31:36.514Z</time>
      </trkpt>
      <trkpt lat="48.80731" lon="2.09743">
        <ele>117</ele>
        <time>2022-10-23T08:31:40.512Z</time>
      </trkpt>
      <trkpt lat="48.80724" lon="2.0974">
        <ele>117</ele>
        <time>2022-10-23T08:31:45.500Z</time>
      </trkpt>
      <trkpt lat="48.80719" lon="2.09737">
        <ele>117</ele>
        <time>2022-10-23T08:31:49.506Z</time>
      </trkpt>
      <trkpt lat="48.80715" lon="2.09734">
        <ele>117</ele>
        <time>2022-10-23T08:31:54.520Z</time>
      </trkpt>
      <trkpt lat="48.80709" lon="2.0973">
        <ele>117</ele>
        <time>2022-10-23T08:31:59.488Z</time>
      </trkpt>
      <trkpt lat="48.80704" lon="2.09726">
        <ele>117</ele>
        <time>2022-10-23T08:32:03.499Z</time>
      </trkpt>
      <trkpt lat="48.80697" lon="2.09722">
        <ele>117</ele>
        <time>2022-10-23T08:32:08.495Z</time>
      </trkpt>
      <trkpt lat="48.80693" lon="2.09719">
        <ele>117</ele>
        <time>2022-10-23T08:32:13.500Z</time>
      </trkpt>
      <trkpt lat="48.80689" lon="2.09716">
        <ele>117</ele>
        <time>2022-10-23T08:32:17.502Z</time>
      </trkpt>
      <trkpt lat="48.80686" lon="2.09719">
        <ele>117</ele>
        <time>2022-10-23T08:32:22.482Z</time>
      </trkpt>
      <trkpt lat="48.8068" lon="2.09711">
        <ele>115</ele>
        <time>2022-10-23T08:32:27.514Z</time>
      </trkpt>
      <trkpt lat="48.80673" lon="2.09703">
        <ele>116</ele>
        <time>2022-10-23T08:32:32.501Z</time>
      </trkpt>
      <trkpt lat="48.80667" lon="2.09699">
        <ele>116</ele>
        <time>2022-10-23T08:32:36.504Z</time>
      </trkpt>
      <trkpt lat="48.80661" lon="2.09696">
        <ele>116</ele>
        <time>2022-10-23T08:32:40.532Z</time>
      </trkpt>
      <trkpt lat="48.80653" lon="2.09692">
        <ele>116</ele>
        <time>2022-10-23T08:32:45.505Z</time>
      </trkpt>
      <trkpt lat="48.80646" lon="2.09688">
        <ele>115</ele>
        <time>2022-10-23T08:32:50.501Z</time>
      </trkpt>
      <trkpt lat="48.80641" lon="2.09682">
        <ele>115</ele>
        <time>2022-10-23T08:32:55.498Z</time>
      </trkpt>
      <trkpt lat="48.80636" lon="2.09676">
        <ele>115</ele>
        <time>2022-10-23T08:33:00.502Z</time>
      </trkpt>
      <trkpt lat="48.80629" lon="2.09672">
        <ele>115</ele>
        <time>2022-10-23T08:33:05.500Z</time>
      </trkpt>
      <trkpt lat="48.80621" lon="2.09672">
        <ele>114</ele>
        <time>2022-10-23T08:33:10.486Z</time>
      </trkpt>
      <trkpt lat="48.80617" lon="2.09673">
        <ele>114</ele>
        <time>2022-10-23T08:33:14.500Z</time>
      </trkpt>
      <trkpt lat="48.80611" lon="2.09671">
        <ele>114</ele>
        <time>2022-10-23T08:33:18.511Z</time>
      </trkpt>
      <trkpt lat="48.80605" lon="2.09667">
        <ele>114</ele>
        <time>2022-10-23T08:33:22.526Z</time>
      </trkpt>
      <trkpt lat="48.80598" lon="2.0966">
        <ele>114</ele>
        <time>2022-10-23T08:33:27.513Z</time>
      </trkpt>
      <trkpt lat="48.80592" lon="2.09656">
        <ele>113</ele>
        <time>2022-10-23T08:33:32.517Z</time>
      </trkpt>
      <trkpt lat="48.80586" lon="2.09652">
        <ele>112</ele>
        <time>2022-10-23T08:33:37.523Z</time>
      </trkpt>
      <trkpt lat="48.8058" lon="2.09648">
        <ele>112</ele>
        <time>2022-10-23T08:33:42.529Z</time>
      </trkpt>
      <trkpt lat="48.80573" lon="2.09644">
        <ele>112</ele>
        <time>2022-10-23T08:33:47.547Z</time>
      </trkpt>
      <trkpt lat="48.80567" lon="2.09642">
        <ele>112</ele>
        <time>2022-10-23T08:33:52.516Z</time>
      </trkpt>
      <trkpt lat="48.80559" lon="2.09639">
        <ele>112</ele>
        <time>2022-10-23T08:33:57.539Z</time>
      </trkpt>
      <trkpt lat="48.80552" lon="2.09636">
        <ele>112</ele>
        <time>2022-10-23T08:34:02.502Z</time>
      </trkpt>
      <trkpt lat="48.80547" lon="2.09634">
        <ele>112</ele>
        <time>2022-10-23T08:34:06.512Z</time>
      </trkpt>
      <trkpt lat="48.80543" lon="2.09635">
        <ele>112</ele>
        <time>2022-10-23T08:34:10.527Z</time>
      </trkpt>
      <trkpt lat="48.80538" lon="2.09637">
        <ele>113</ele>
        <time>2022-10-23T08:34:14.531Z</time>
      </trkpt>
      <trkpt lat="48.8053" lon="2.0964">
        <ele>113</ele>
        <time>2022-10-23T08:34:19.519Z</time>
      </trkpt>
      <trkpt lat="48.80523" lon="2.09644">
        <ele>113</ele>
        <time>2022-10-23T08:34:24.534Z</time>
      </trkpt>
      <trkpt lat="48.80516" lon="2.09648">
        <ele>113</ele>
        <time>2022-10-23T08:34:29.536Z</time>
      </trkpt>
      <trkpt lat="48.80509" lon="2.09653">
        <ele>111</ele>
        <time>2022-10-23T08:34:34.511Z</time>
      </trkpt>
      <trkpt lat="48.80505" lon="2.09658">
        <ele>111</ele>
        <time>2022-10-23T08:34:38.532Z</time>
      </trkpt>
      <trkpt lat="48.80503" lon="2.09666">
        <ele>111</ele>
        <time>2022-10-23T08:34:43.534Z</time>
      </trkpt>
      <trkpt lat="48.805" lon="2.09674">
        <ele>111</ele>
        <time>2022-10-23T08:34:47.544Z</time>
      </trkpt>
      <trkpt lat="48.80499" lon="2.09684">
        <ele>109</ele>
        <time>2022-10-23T08:34:52.529Z</time>
      </trkpt>
      <trkpt lat="48.80497" lon="2.09694">
        <ele>109</ele>
        <time>2022-10-23T08:34:57.534Z</time>
      </trkpt>
      <trkpt lat="48.80495" lon="2.09701">
        <ele>109</ele>
        <time>2022-10-23T08:35:02.516Z</time>
      </trkpt>
      <trkpt lat="48.80493" lon="2.09709">
        <ele>112</ele>
        <time>2022-10-23T08:35:06.535Z</time>
      </trkpt>
      <trkpt lat="48.8049" lon="2.09718">
        <ele>112</ele>
        <time>2022-10-23T08:35:11.500Z</time>
      </trkpt>
      <trkpt lat="48.80488" lon="2.09727">
        <ele>112</ele>
        <time>2022-10-23T08:35:15.523Z</time>
      </trkpt>
      <trkpt lat="48.80486" lon="2.09736">
        <ele>108</ele>
        <time>2022-10-23T08:35:20.520Z</time>
      </trkpt>
      <trkpt lat="48.80485" lon="2.09746">
        <ele>110</ele>
        <time>2022-10-23T08:35:25.527Z</time>
      </trkpt>
      <trkpt lat="48.80485" lon="2.09753">
        <ele>110</ele>
        <time>2022-10-23T08:35:29.557Z</time>
      </trkpt>
      <trkpt lat="48.80486" lon="2.09765">
        <ele>112</ele>
        <time>2022-10-23T08:35:34.522Z</time>
      </trkpt>
      <trkpt lat="48.80488" lon="2.09773">
        <ele>112</ele>
        <time>2022-10-23T08:35:38.513Z</time>
      </trkpt>
      <trkpt lat="48.80491" lon="2.09781">
        <ele>112</ele>
        <time>2022-10-23T08:35:43.498Z</time>
      </trkpt>
      <trkpt lat="48.80495" lon="2.09789">
        <ele>112</ele>
        <time>2022-10-23T08:35:47.506Z</time>
      </trkpt>
      <trkpt lat="48.80499" lon="2.09798">
        <ele>112</ele>
        <time>2022-10-23T08:35:52.514Z</time>
      </trkpt>
      <trkpt lat="48.80503" lon="2.09807">
        <ele>112</ele>
        <time>2022-10-23T08:35:56.520Z</time>
      </trkpt>
      <trkpt lat="48.80505" lon="2.09811">
        <ele>112</ele>
        <time>2022-10-23T08:36:00.526Z</time>
      </trkpt>
      <trkpt lat="48.8051" lon="2.09813">
        <ele>112</ele>
        <time>2022-10-23T08:36:05.497Z</time>
      </trkpt>
      <trkpt lat="48.80515" lon="2.09817">
        <ele>112</ele>
        <time>2022-10-23T08:36:09.522Z</time>
      </trkpt>
      <trkpt lat="48.80523" lon="2.0982">
        <ele>114</ele>
        <time>2022-10-23T08:36:14.483Z</time>
      </trkpt>
      <trkpt lat="48.80526" lon="2.09825">
        <ele>114</ele>
        <time>2022-10-23T08:36:18.493Z</time>
      </trkpt>
      <trkpt lat="48.80535" lon="2.09827">
        <ele>114</ele>
        <time>2022-10-23T08:36:23.481Z</time>
      </trkpt>
      <trkpt lat="48.80542" lon="2.09831">
        <ele>114</ele>
        <time>2022-10-23T08:36:27.481Z</time>
      </trkpt>
      <trkpt lat="48.80551" lon="2.09841">
        <ele>113</ele>
        <time>2022-10-23T08:36:32.489Z</time>
      </trkpt>
      <trkpt lat="48.80556" lon="2.09844">
        <ele>113</ele>
        <time>2022-10-23T08:36:37.497Z</time>
      </trkpt>
      <trkpt lat="48.80564" lon="2.09843">
        <ele>113</ele>
        <time>2022-10-23T08:36:42.497Z</time>
      </trkpt>
      <trkpt lat="48.80571" lon="2.09842">
        <ele>112</ele>
        <time>2022-10-23T08:36:46.507Z</time>
      </trkpt>
      <trkpt lat="48.80578" lon="2.09845">
        <ele>112</ele>
        <time>2022-10-23T08:36:51.510Z</time>
      </trkpt>
      <trkpt lat="48.80584" lon="2.09847">
        <ele>112</ele>
        <time>2022-10-23T08:36:56.490Z</time>
      </trkpt>
      <trkpt lat="48.8059" lon="2.09851">
        <ele>114</ele>
        <time>2022-10-23T08:37:00.499Z</time>
      </trkpt>
      <trkpt lat="48.80593" lon="2.09855">
        <ele>114</ele>
        <time>2022-10-23T08:37:04.502Z</time>
      </trkpt>
      <trkpt lat="48.806" lon="2.09859">
        <ele>113</ele>
        <time>2022-10-23T08:37:09.495Z</time>
      </trkpt>
      <trkpt lat="48.80605" lon="2.09863">
        <ele>113</ele>
        <time>2022-10-23T08:37:14.495Z</time>
      </trkpt>
      <trkpt lat="48.80612" lon="2.09868">
        <ele>113</ele>
        <time>2022-10-23T08:37:19.504Z</time>
      </trkpt>
      <trkpt lat="48.80619" lon="2.09873">
        <ele>113</ele>
        <time>2022-10-23T08:37:24.501Z</time>
      </trkpt>
      <trkpt lat="48.80625" lon="2.09877">
        <ele>114</ele>
        <time>2022-10-23T08:37:29.491Z</time>
      </trkpt>
      <trkpt lat="48.8063" lon="2.09883">
        <ele>114</ele>
        <time>2022-10-23T08:37:33.520Z</time>
      </trkpt>
      <trkpt lat="48.80634" lon="2.09888">
        <ele>114</ele>
        <time>2022-10-23T08:37:38.516Z</time>
      </trkpt>
      <trkpt lat="48.80638" lon="2.09893">
        <ele>114</ele>
        <time>2022-10-23T08:37:43.533Z</time>
      </trkpt>
      <trkpt lat="48.80644" lon="2.09896">
        <ele>114</ele>
        <time>2022-10-23T08:37:48.532Z</time>
      </trkpt>
      <trkpt lat="48.80649" lon="2.09899">
        <ele>114</ele>
        <time>2022-10-23T08:37:52.539Z</time>
      </trkpt>
      <trkpt lat="48.80655" lon="2.09903">
        <ele>116</ele>
        <time>2022-10-23T08:37:57.531Z</time>
      </trkpt>
      <trkpt lat="48.80662" lon="2.09908">
        <ele>116</ele>
        <time>2022-10-23T08:38:02.543Z</time>
      </trkpt>
      <trkpt lat="48.80669" lon="2.09915">
        <ele>116</ele>
        <time>2022-10-23T08:38:07.534Z</time>
      </trkpt>
      <trkpt lat="48.80676" lon="2.09918">
        <ele>116</ele>
        <time>2022-10-23T08:38:12.527Z</time>
      </trkpt>
      <trkpt lat="48.80681" lon="2.0992">
        <ele>116</ele>
        <time>2022-10-23T08:38:16.548Z</time>
      </trkpt>
      <trkpt lat="48.80688" lon="2.09925">
        <ele>114</ele>
        <time>2022-10-23T08:38:21.532Z</time>
      </trkpt>
      <trkpt lat="48.80695" lon="2.09929">
        <ele>114</ele>
        <time>2022-10-23T08:38:26.527Z</time>
      </trkpt>
      <trkpt lat="48.807" lon="2.09932">
        <ele>117</ele>
        <time>2022-10-23T08:38:30.550Z</time>
      </trkpt>
      <trkpt lat="48.80707" lon="2.09937">
        <ele>117</ele>
        <time>2022-10-23T08:38:35.527Z</time>
      </trkpt>
      <trkpt lat="48.80712" lon="2.09943">
        <ele>115</ele>
        <time>2022-10-23T08:38:40.528Z</time>
      </trkpt>
      <trkpt lat="48.80717" lon="2.09945">
        <ele>115</ele>
        <time>2022-10-23T08:38:44.547Z</time>
      </trkpt>
      <trkpt lat="48.80724" lon="2.0995">
        <ele>115</ele>
        <time>2022-10-23T08:38:49.506Z</time>
      </trkpt>
      <trkpt lat="48.80732" lon="2.09954">
        <ele>115</ele>
        <time>2022-10-23T08:38:54.525Z</time>
      </trkpt>
      <trkpt lat="48.80737" lon="2.09957">
        <ele>114</ele>
        <time>2022-10-23T08:38:59.537Z</time>
      </trkpt>
      <trkpt lat="48.80745" lon="2.09961">
        <ele>114</ele>
        <time>2022-10-23T08:39:04.516Z</time>
      </trkpt>
      <trkpt lat="48.80751" lon="2.09964">
        <ele>114</ele>
        <time>2022-10-23T08:39:09.529Z</time>
      </trkpt>
      <trkpt lat="48.80758" lon="2.0997">
        <ele>114</ele>
        <time>2022-10-23T08:39:14.507Z</time>
      </trkpt>
      <trkpt lat="48.80765" lon="2.09973">
        <ele>113</ele>
        <time>2022-10-23T08:39:18.527Z</time>
      </trkpt>
      <trkpt lat="48.8077" lon="2.09975">
        <ele>113</ele>
        <time>2022-10-23T08:39:22.544Z</time>
      </trkpt>
      <trkpt lat="48.80776" lon="2.09978">
        <ele>113</ele>
        <time>2022-10-23T08:39:27.512Z</time>
      </trkpt>
      <trkpt lat="48.80782" lon="2.09979">
        <ele>113</ele>
        <time>2022-10-23T08:39:31.525Z</time>
      </trkpt>
      <trkpt lat="48.80789" lon="2.09981">
        <ele>113</ele>
        <time>2022-10-23T08:39:36.518Z</time>
      </trkpt>
      <trkpt lat="48.80794" lon="2.09984">
        <ele>114</ele>
        <time>2022-10-23T08:39:40.533Z</time>
      </trkpt>
      <trkpt lat="48.80801" lon="2.09989">
        <ele>113</ele>
        <time>2022-10-23T08:39:45.501Z</time>
      </trkpt>
      <trkpt lat="48.80806" lon="2.09993">
        <ele>113</ele>
        <time>2022-10-23T08:39:49.506Z</time>
      </trkpt>
      <trkpt lat="48.80812" lon="2.09996">
        <ele>113</ele>
        <time>2022-10-23T08:39:53.516Z</time>
      </trkpt>
      <trkpt lat="48.80817" lon="2.1">
        <ele>113</ele>
        <time>2022-10-23T08:39:58.545Z</time>
      </trkpt>
      <trkpt lat="48.80824" lon="2.10005">
        <ele>113</ele>
        <time>2022-10-23T08:40:03.521Z</time>
      </trkpt>
      <trkpt lat="48.80831" lon="2.1001">
        <ele>113</ele>
        <time>2022-10-23T08:40:08.536Z</time>
      </trkpt>
      <trkpt lat="48.80838" lon="2.10011">
        <ele>113</ele>
        <time>2022-10-23T08:40:13.512Z</time>
      </trkpt>
      <trkpt lat="48.80844" lon="2.10015">
        <ele>116</ele>
        <time>2022-10-23T08:40:18.513Z</time>
      </trkpt>
      <trkpt lat="48.8085" lon="2.10021">
        <ele>115</ele>
        <time>2022-10-23T08:40:23.498Z</time>
      </trkpt>
      <trkpt lat="48.80854" lon="2.10026">
        <ele>115</ele>
        <time>2022-10-23T08:40:27.540Z</time>
      </trkpt>
      <trkpt lat="48.80861" lon="2.10031">
        <ele>115</ele>
        <time>2022-10-23T08:40:32.534Z</time>
      </trkpt>
      <trkpt lat="48.80867" lon="2.10034">
        <ele>115</ele>
        <time>2022-10-23T08:40:37.525Z</time>
      </trkpt>
      <trkpt lat="48.80874" lon="2.10035">
        <ele>115</ele>
        <time>2022-10-23T08:40:42.530Z</time>
      </trkpt>
      <trkpt lat="48.8088" lon="2.10039">
        <ele>112</ele>
        <time>2022-10-23T08:40:47.535Z</time>
      </trkpt>
      <trkpt lat="48.80885" lon="2.10043">
        <ele>113</ele>
        <time>2022-10-23T08:40:52.526Z</time>
      </trkpt>
      <trkpt lat="48.8089" lon="2.10048">
        <ele>113</ele>
        <time>2022-10-23T08:40:56.699Z</time>
      </trkpt>
      <trkpt lat="48.80897" lon="2.10056">
        <ele>113</ele>
        <time>2022-10-23T08:41:01.534Z</time>
      </trkpt>
      <trkpt lat="48.809" lon="2.10064">
        <ele>113</ele>
        <time>2022-10-23T08:41:06.532Z</time>
      </trkpt>
      <trkpt lat="48.80904" lon="2.10072">
        <ele>112</ele>
        <time>2022-10-23T08:41:11.532Z</time>
      </trkpt>
      <trkpt lat="48.80906" lon="2.10081">
        <ele>112</ele>
        <time>2022-10-23T08:41:16.532Z</time>
      </trkpt>
      <trkpt lat="48.80905" lon="2.1009">
        <ele>112</ele>
        <time>2022-10-23T08:41:21.517Z</time>
      </trkpt>
      <trkpt lat="48.80903" lon="2.10098">
        <ele>112</ele>
        <time>2022-10-23T08:41:25.546Z</time>
      </trkpt>
      <trkpt lat="48.80902" lon="2.10106">
        <ele>115</ele>
        <time>2022-10-23T08:41:30.525Z</time>
      </trkpt>
      <trkpt lat="48.80901" lon="2.10116">
        <ele>115</ele>
        <time>2022-10-23T08:41:35.530Z</time>
      </trkpt>
      <trkpt lat="48.80904" lon="2.10125">
        <ele>112</ele>
        <time>2022-10-23T08:41:40.526Z</time>
      </trkpt>
      <trkpt lat="48.80907" lon="2.10131">
        <ele>111</ele>
        <time>2022-10-23T08:41:44.535Z</time>
      </trkpt>
      <trkpt lat="48.80912" lon="2.10137">
        <ele>111</ele>
        <time>2022-10-23T08:41:49.486Z</time>
      </trkpt>
      <trkpt lat="48.80912" lon="2.10145">
        <ele>111</ele>
        <time>2022-10-23T08:41:53.491Z</time>
      </trkpt>
      <trkpt lat="48.8091" lon="2.10152">
        <ele>111</ele>
        <time>2022-10-23T08:41:58.486Z</time>
      </trkpt>
      <trkpt lat="48.80908" lon="2.10165">
        <ele>111</ele>
        <time>2022-10-23T08:42:02.501Z</time>
      </trkpt>
      <trkpt lat="48.80904" lon="2.10177">
        <ele>111</ele>
        <time>2022-10-23T08:42:07.480Z</time>
      </trkpt>
      <trkpt lat="48.80902" lon="2.10185">
        <ele>116</ele>
        <time>2022-10-23T08:42:11.486Z</time>
      </trkpt>
      <trkpt lat="48.80903" lon="2.10193">
        <ele>111</ele>
        <time>2022-10-23T08:42:15.494Z</time>
      </trkpt>
      <trkpt lat="48.80902" lon="2.10202">
        <ele>116</ele>
        <time>2022-10-23T08:42:20.493Z</time>
      </trkpt>
      <trkpt lat="48.809" lon="2.10213">
        <ele>111</ele>
        <time>2022-10-23T08:42:25.490Z</time>
      </trkpt>
      <trkpt lat="48.80898" lon="2.10221">
        <ele>111</ele>
        <time>2022-10-23T08:42:30.483Z</time>
      </trkpt>
      <trkpt lat="48.80897" lon="2.1023">
        <ele>111</ele>
        <time>2022-10-23T08:42:35.480Z</time>
      </trkpt>
      <trkpt lat="48.80894" lon="2.10236">
        <ele>111</ele>
        <time>2022-10-23T08:42:39.490Z</time>
      </trkpt>
      <trkpt lat="48.80893" lon="2.10242">
        <ele>111</ele>
        <time>2022-10-23T08:42:44.491Z</time>
      </trkpt>
      <trkpt lat="48.80891" lon="2.10253">
        <ele>111</ele>
        <time>2022-10-23T08:42:49.492Z</time>
      </trkpt>
      <trkpt lat="48.80888" lon="2.10264">
        <ele>111</ele>
        <time>2022-10-23T08:42:54.486Z</time>
      </trkpt>
      <trkpt lat="48.80888" lon="2.10268">
        <ele>111</ele>
        <time>2022-10-23T08:42:59.481Z</time>
      </trkpt>
      <trkpt lat="48.80884" lon="2.10279">
        <ele>111</ele>
        <time>2022-10-23T08:43:04.523Z</time>
      </trkpt>
      <trkpt lat="48.8088" lon="2.10289">
        <ele>111</ele>
        <time>2022-10-23T08:43:09.504Z</time>
      </trkpt>
      <trkpt lat="48.8088" lon="2.10297">
        <ele>111</ele>
        <time>2022-10-23T08:43:13.521Z</time>
      </trkpt>
      <trkpt lat="48.80878" lon="2.10304">
        <ele>111</ele>
        <time>2022-10-23T08:43:17.539Z</time>
      </trkpt>
      <trkpt lat="48.80874" lon="2.10316">
        <ele>111</ele>
        <time>2022-10-23T08:43:22.536Z</time>
      </trkpt>
      <trkpt lat="48.8087" lon="2.10327">
        <ele>111</ele>
        <time>2022-10-23T08:43:27.508Z</time>
      </trkpt>
      <trkpt lat="48.8087" lon="2.10333">
        <ele>111</ele>
        <time>2022-10-23T08:43:31.517Z</time>
      </trkpt>
      <trkpt lat="48.80865" lon="2.10344">
        <ele>111</ele>
        <time>2022-10-23T08:43:36.484Z</time>
      </trkpt>
      <trkpt lat="48.80863" lon="2.10354">
        <ele>111</ele>
        <time>2022-10-23T08:43:40.490Z</time>
      </trkpt>
      <trkpt lat="48.8086" lon="2.10361">
        <ele>111</ele>
        <time>2022-10-23T08:43:44.528Z</time>
      </trkpt>
      <trkpt lat="48.80858" lon="2.10368">
        <ele>111</ele>
        <time>2022-10-23T08:43:48.536Z</time>
      </trkpt>
      <trkpt lat="48.80856" lon="2.10378">
        <ele>111</ele>
        <time>2022-10-23T08:43:53.503Z</time>
      </trkpt>
      <trkpt lat="48.80854" lon="2.10388">
        <ele>111</ele>
        <time>2022-10-23T08:43:57.539Z</time>
      </trkpt>
      <trkpt lat="48.80852" lon="2.10396">
        <ele>111</ele>
        <time>2022-10-23T08:44:02.534Z</time>
      </trkpt>
      <trkpt lat="48.80849" lon="2.10405">
        <ele>111</ele>
        <time>2022-10-23T08:44:07.523Z</time>
      </trkpt>
      <trkpt lat="48.80847" lon="2.10414">
        <ele>111</ele>
        <time>2022-10-23T08:44:11.535Z</time>
      </trkpt>
      <trkpt lat="48.80846" lon="2.10421">
        <ele>111</ele>
        <time>2022-10-23T08:44:15.525Z</time>
      </trkpt>
      <trkpt lat="48.80843" lon="2.10429">
        <ele>111</ele>
        <time>2022-10-23T08:44:20.532Z</time>
      </trkpt>
      <trkpt lat="48.8084" lon="2.10443">
        <ele>111</ele>
        <time>2022-10-23T08:44:25.509Z</time>
      </trkpt>
      <trkpt lat="48.80838" lon="2.10453">
        <ele>111</ele>
        <time>2022-10-23T08:44:30.520Z</time>
      </trkpt>
      <trkpt lat="48.80836" lon="2.10461">
        <ele>111</ele>
        <time>2022-10-23T08:44:34.531Z</time>
      </trkpt>
      <trkpt lat="48.80834" lon="2.10468">
        <ele>111</ele>
        <time>2022-10-23T08:44:38.523Z</time>
      </trkpt>
      <trkpt lat="48.80831" lon="2.10478">
        <ele>111</ele>
        <time>2022-10-23T08:44:43.534Z</time>
      </trkpt>
      <trkpt lat="48.80831" lon="2.1049">
        <ele>111</ele>
        <time>2022-10-23T08:44:48.499Z</time>
      </trkpt>
      <trkpt lat="48.8083" lon="2.10499">
        <ele>111</ele>
        <time>2022-10-23T08:44:53.494Z</time>
      </trkpt>
      <trkpt lat="48.80827" lon="2.10513">
        <ele>111</ele>
        <time>2022-10-23T08:44:58.493Z</time>
      </trkpt>
      <trkpt lat="48.80826" lon="2.10527">
        <ele>111</ele>
        <time>2022-10-23T08:45:03.479Z</time>
      </trkpt>
      <trkpt lat="48.80826" lon="2.10526">
        <ele>111</ele>
        <time>2022-10-23T08:45:08.489Z</time>
      </trkpt>
      <trkpt lat="48.80821" lon="2.10532">
        <ele>111</ele>
        <time>2022-10-23T08:45:13.485Z</time>
      </trkpt>
      <trkpt lat="48.80815" lon="2.10541">
        <ele>116</ele>
        <time>2022-10-23T08:45:17.508Z</time>
      </trkpt>
      <trkpt lat="48.80812" lon="2.10554">
        <ele>111</ele>
        <time>2022-10-23T08:45:21.518Z</time>
      </trkpt>
      <trkpt lat="48.80809" lon="2.10564">
        <ele>111</ele>
        <time>2022-10-23T08:45:26.531Z</time>
      </trkpt>
      <trkpt lat="48.80806" lon="2.10572">
        <ele>111</ele>
        <time>2022-10-23T08:45:31.524Z</time>
      </trkpt>
      <trkpt lat="48.80803" lon="2.10584">
        <ele>111</ele>
        <time>2022-10-23T08:45:36.524Z</time>
      </trkpt>
      <trkpt lat="48.80801" lon="2.10594">
        <ele>111</ele>
        <time>2022-10-23T08:45:40.546Z</time>
      </trkpt>
      <trkpt lat="48.80798" lon="2.10602">
        <ele>111</ele>
        <time>2022-10-23T08:45:45.494Z</time>
      </trkpt>
      <trkpt lat="48.80796" lon="2.10609">
        <ele>111</ele>
        <time>2022-10-23T08:45:49.510Z</time>
      </trkpt>
      <trkpt lat="48.80793" lon="2.10617">
        <ele>111</ele>
        <time>2022-10-23T08:45:53.525Z</time>
      </trkpt>
      <trkpt lat="48.80789" lon="2.10626">
        <ele>114</ele>
        <time>2022-10-23T08:45:58.525Z</time>
      </trkpt>
      <trkpt lat="48.80786" lon="2.10636">
        <ele>114</ele>
        <time>2022-10-23T08:46:03.523Z</time>
      </trkpt>
      <trkpt lat="48.80785" lon="2.10646">
        <ele>114</ele>
        <time>2022-10-23T08:46:08.505Z</time>
      </trkpt>
      <trkpt lat="48.80783" lon="2.10656">
        <ele>111</ele>
        <time>2022-10-23T08:46:13.523Z</time>
      </trkpt>
      <trkpt lat="48.80781" lon="2.1067">
        <ele>111</ele>
        <time>2022-10-23T08:46:18.487Z</time>
      </trkpt>
      <trkpt lat="48.8078" lon="2.10679">
        <ele>111</ele>
        <time>2022-10-23T08:46:22.500Z</time>
      </trkpt>
      <trkpt lat="48.80779" lon="2.10691">
        <ele>111</ele>
        <time>2022-10-23T08:46:27.493Z</time>
      </trkpt>
      <trkpt lat="48.80777" lon="2.10695">
        <ele>111</ele>
        <time>2022-10-23T08:46:32.483Z</time>
      </trkpt>
      <trkpt lat="48.80773" lon="2.10702">
        <ele>111</ele>
        <time>2022-10-23T08:46:36.490Z</time>
      </trkpt>
      <trkpt lat="48.80765" lon="2.10706">
        <ele>111</ele>
        <time>2022-10-23T08:46:41.489Z</time>
      </trkpt>
      <trkpt lat="48.80762" lon="2.10712">
        <ele>112</ele>
        <time>2022-10-23T08:46:46.514Z</time>
      </trkpt>
      <trkpt lat="48.80754" lon="2.10719">
        <ele>112</ele>
        <time>2022-10-23T08:46:51.506Z</time>
      </trkpt>
      <trkpt lat="48.80748" lon="2.10724">
        <ele>112</ele>
        <time>2022-10-23T08:46:56.496Z</time>
      </trkpt>
      <trkpt lat="48.80744" lon="2.1073">
        <ele>112</ele>
        <time>2022-10-23T08:47:01.484Z</time>
      </trkpt>
      <trkpt lat="48.80741" lon="2.10737">
        <ele>112</ele>
        <time>2022-10-23T08:47:06.494Z</time>
      </trkpt>
      <trkpt lat="48.80737" lon="2.10747">
        <ele>112</ele>
        <time>2022-10-23T08:47:11.487Z</time>
      </trkpt>
      <trkpt lat="48.80733" lon="2.10755">
        <ele>111</ele>
        <time>2022-10-23T08:47:15.518Z</time>
      </trkpt>
      <trkpt lat="48.8073" lon="2.10765">
        <ele>112</ele>
        <time>2022-10-23T08:47:20.512Z</time>
      </trkpt>
      <trkpt lat="48.80728" lon="2.10774">
        <ele>112</ele>
        <time>2022-10-23T08:47:25.498Z</time>
      </trkpt>
      <trkpt lat="48.80726" lon="2.10781">
        <ele>112</ele>
        <time>2022-10-23T08:47:29.514Z</time>
      </trkpt>
      <trkpt lat="48.80726" lon="2.10793">
        <ele>112</ele>
        <time>2022-10-23T08:47:34.493Z</time>
      </trkpt>
      <trkpt lat="48.80727" lon="2.10803">
        <ele>112</ele>
        <time>2022-10-23T08:47:39.506Z</time>
      </trkpt>
      <trkpt lat="48.80727" lon="2.10812">
        <ele>112</ele>
        <time>2022-10-23T08:47:43.510Z</time>
      </trkpt>
      <trkpt lat="48.80728" lon="2.10823">
        <ele>112</ele>
        <time>2022-10-23T08:47:48.523Z</time>
      </trkpt>
      <trkpt lat="48.80726" lon="2.10836">
        <ele>112</ele>
        <time>2022-10-23T08:47:53.520Z</time>
      </trkpt>
      <trkpt lat="48.80725" lon="2.10844">
        <ele>112</ele>
        <time>2022-10-23T08:47:58.507Z</time>
      </trkpt>
      <trkpt lat="48.80725" lon="2.1085">
        <ele>112</ele>
        <time>2022-10-23T08:48:02.517Z</time>
      </trkpt>
      <trkpt lat="48.80725" lon="2.10862">
        <ele>112</ele>
        <time>2022-10-23T08:48:07.494Z</time>
      </trkpt>
      <trkpt lat="48.80725" lon="2.10872">
        <ele>112</ele>
        <time>2022-10-23T08:48:11.510Z</time>
      </trkpt>
      <trkpt lat="48.80725" lon="2.1088">
        <ele>111</ele>
        <time>2022-10-23T08:48:16.512Z</time>
      </trkpt>
      <trkpt lat="48.80727" lon="2.10887">
        <ele>111</ele>
        <time>2022-10-23T08:48:20.539Z</time>
      </trkpt>
      <trkpt lat="48.80729" lon="2.10897">
        <ele>111</ele>
        <time>2022-10-23T08:48:25.521Z</time>
      </trkpt>
      <trkpt lat="48.80733" lon="2.10906">
        <ele>111</ele>
        <time>2022-10-23T08:48:30.507Z</time>
      </trkpt>
      <trkpt lat="48.80736" lon="2.10912">
        <ele>111</ele>
        <time>2022-10-23T08:48:34.516Z</time>
      </trkpt>
      <trkpt lat="48.80741" lon="2.10919">
        <ele>111</ele>
        <time>2022-10-23T08:48:39.516Z</time>
      </trkpt>
      <trkpt lat="48.80744" lon="2.10924">
        <ele>111</ele>
        <time>2022-10-23T08:48:43.531Z</time>
      </trkpt>
      <trkpt lat="48.80748" lon="2.1093">
        <ele>111</ele>
        <time>2022-10-23T08:48:48.493Z</time>
      </trkpt>
      <trkpt lat="48.80752" lon="2.10931">
        <ele>111</ele>
        <time>2022-10-23T08:48:53.487Z</time>
      </trkpt>
      <trkpt lat="48.80754" lon="2.10937">
        <ele>111</ele>
        <time>2022-10-23T08:48:58.481Z</time>
      </trkpt>
      <trkpt lat="48.80756" lon="2.10942">
        <ele>111</ele>
        <time>2022-10-23T08:49:02.495Z</time>
      </trkpt>
      <trkpt lat="48.80756" lon="2.10941">
        <ele>111</ele>
        <time>2022-10-23T08:50:40.536Z</time>
      </trkpt>
      <trkpt lat="48.80752" lon="2.10938">
        <ele>111</ele>
        <time>2022-10-23T08:50:45.491Z</time>
      </trkpt>
      <trkpt lat="48.80747" lon="2.10934">
        <ele>111</ele>
        <time>2022-10-23T08:50:49.505Z</time>
      </trkpt>
      <trkpt lat="48.80743" lon="2.10929">
        <ele>111</ele>
        <time>2022-10-23T08:50:53.535Z</time>
      </trkpt>
      <trkpt lat="48.8074" lon="2.10923">
        <ele>111</ele>
        <time>2022-10-23T08:50:58.503Z</time>
      </trkpt>
      <trkpt lat="48.80737" lon="2.10918">
        <ele>111</ele>
        <time>2022-10-23T08:51:02.519Z</time>
      </trkpt>
      <trkpt lat="48.80734" lon="2.10911">
        <ele>111</ele>
        <time>2022-10-23T08:51:07.490Z</time>
      </trkpt>
      <trkpt lat="48.80731" lon="2.10903">
        <ele>111</ele>
        <time>2022-10-23T08:51:11.498Z</time>
      </trkpt>
      <trkpt lat="48.8073" lon="2.10897">
        <ele>111</ele>
        <time>2022-10-23T08:51:15.502Z</time>
      </trkpt>
      <trkpt lat="48.80728" lon="2.10891">
        <ele>111</ele>
        <time>2022-10-23T08:51:20.488Z</time>
      </trkpt>
      <trkpt lat="48.80728" lon="2.1089">
        <ele>111</ele>
        <time>2022-10-23T08:51:24.497Z</time>
      </trkpt>
      <trkpt lat="48.80724" lon="2.10882">
        <ele>111</ele>
        <time>2022-10-23T08:51:29.485Z</time>
      </trkpt>
      <trkpt lat="48.80722" lon="2.10873">
        <ele>112</ele>
        <time>2022-10-23T08:51:33.489Z</time>
      </trkpt>
      <trkpt lat="48.80721" lon="2.10865">
        <ele>112</ele>
        <time>2022-10-23T08:51:37.490Z</time>
      </trkpt>
      <trkpt lat="48.80717" lon="2.10858">
        <ele>112</ele>
        <time>2022-10-23T08:51:42.490Z</time>
      </trkpt>
      <trkpt lat="48.80716" lon="2.10854">
        <ele>112</ele>
        <time>2022-10-23T08:51:46.494Z</time>
      </trkpt>
      <trkpt lat="48.80717" lon="2.10846">
        <ele>112</ele>
        <time>2022-10-23T08:51:51.490Z</time>
      </trkpt>
      <trkpt lat="48.8072" lon="2.10837">
        <ele>112</ele>
        <time>2022-10-23T08:51:55.488Z</time>
      </trkpt>
      <trkpt lat="48.80723" lon="2.10829">
        <ele>112</ele>
        <time>2022-10-23T08:52:00.493Z</time>
      </trkpt>
      <trkpt lat="48.8072" lon="2.10823">
        <ele>112</ele>
        <time>2022-10-23T08:52:04.492Z</time>
      </trkpt>
      <trkpt lat="48.80715" lon="2.10816">
        <ele>112</ele>
        <time>2022-10-23T08:52:09.493Z</time>
      </trkpt>
      <trkpt lat="48.8071" lon="2.10811">
        <ele>112</ele>
        <time>2022-10-23T08:52:13.506Z</time>
      </trkpt>
      <trkpt lat="48.80704" lon="2.10808">
        <ele>112</ele>
        <time>2022-10-23T08:52:18.492Z</time>
      </trkpt>
      <trkpt lat="48.80697" lon="2.10802">
        <ele>112</ele>
        <time>2022-10-23T08:52:23.492Z</time>
      </trkpt>
      <trkpt lat="48.8069" lon="2.10799">
        <ele>112</ele>
        <time>2022-10-23T08:52:28.502Z</time>
      </trkpt>
      <trkpt lat="48.80685" lon="2.10797">
        <ele>112</ele>
        <time>2022-10-23T08:52:32.506Z</time>
      </trkpt>
      <trkpt lat="48.80679" lon="2.10794">
        <ele>115</ele>
        <time>2022-10-23T08:52:37.490Z</time>
      </trkpt>
      <trkpt lat="48.80674" lon="2.1079">
        <ele>116</ele>
        <time>2022-10-23T08:52:42.494Z</time>
      </trkpt>
      <trkpt lat="48.80669" lon="2.10786">
        <ele>116</ele>
        <time>2022-10-23T08:52:46.495Z</time>
      </trkpt>
      <trkpt lat="48.80666" lon="2.10785">
        <ele>116</ele>
        <time>2022-10-23T08:52:51.485Z</time>
      </trkpt>
      <trkpt lat="48.80662" lon="2.10784">
        <ele>116</ele>
        <time>2022-10-23T08:52:55.498Z</time>
      </trkpt>
      <trkpt lat="48.80657" lon="2.10781">
        <ele>116</ele>
        <time>2022-10-23T08:53:00.490Z</time>
      </trkpt>
      <trkpt lat="48.80652" lon="2.10779">
        <ele>117</ele>
        <time>2022-10-23T08:53:04.500Z</time>
      </trkpt>
      <trkpt lat="48.80649" lon="2.10778">
        <ele>117</ele>
        <time>2022-10-23T08:53:09.486Z</time>
      </trkpt>
      <trkpt lat="48.80645" lon="2.10777">
        <ele>117</ele>
        <time>2022-10-23T08:53:13.493Z</time>
      </trkpt>
      <trkpt lat="48.8064" lon="2.10772">
        <ele>117</ele>
        <time>2022-10-23T08:53:18.505Z</time>
      </trkpt>
      <trkpt lat="48.80636" lon="2.1077">
        <ele>117</ele>
        <time>2022-10-23T08:53:23.489Z</time>
      </trkpt>
      <trkpt lat="48.80632" lon="2.10767">
        <ele>117</ele>
        <time>2022-10-23T08:53:27.497Z</time>
      </trkpt>
      <trkpt lat="48.80626" lon="2.10761">
        <ele>117</ele>
        <time>2022-10-23T08:53:32.504Z</time>
      </trkpt>
      <trkpt lat="48.80621" lon="2.10758">
        <ele>116</ele>
        <time>2022-10-23T08:53:37.499Z</time>
      </trkpt>
      <trkpt lat="48.80614" lon="2.10755">
        <ele>116</ele>
        <time>2022-10-23T08:53:42.497Z</time>
      </trkpt>
      <trkpt lat="48.80607" lon="2.1075">
        <ele>116</ele>
        <time>2022-10-23T08:53:47.502Z</time>
      </trkpt>
      <trkpt lat="48.80603" lon="2.10745">
        <ele>116</ele>
        <time>2022-10-23T08:53:52.504Z</time>
      </trkpt>
      <trkpt lat="48.80597" lon="2.10742">
        <ele>117</ele>
        <time>2022-10-23T08:53:57.494Z</time>
      </trkpt>
      <trkpt lat="48.80591" lon="2.10739">
        <ele>117</ele>
        <time>2022-10-23T08:54:01.500Z</time>
      </trkpt>
      <trkpt lat="48.80585" lon="2.10737">
        <ele>117</ele>
        <time>2022-10-23T08:54:06.497Z</time>
      </trkpt>
      <trkpt lat="48.8058" lon="2.10733">
        <ele>115</ele>
        <time>2022-10-23T08:54:10.502Z</time>
      </trkpt>
      <trkpt lat="48.80574" lon="2.10729">
        <ele>115</ele>
        <time>2022-10-23T08:54:15.493Z</time>
      </trkpt>
      <trkpt lat="48.8057" lon="2.10726">
        <ele>115</ele>
        <time>2022-10-23T08:54:19.489Z</time>
      </trkpt>
      <trkpt lat="48.80564" lon="2.10721">
        <ele>121</ele>
        <time>2022-10-23T08:54:24.484Z</time>
      </trkpt>
      <trkpt lat="48.8056" lon="2.10716">
        <ele>121</ele>
        <time>2022-10-23T08:54:28.496Z</time>
      </trkpt>
      <trkpt lat="48.80555" lon="2.10712">
        <ele>121</ele>
        <time>2022-10-23T08:54:32.500Z</time>
      </trkpt>
      <trkpt lat="48.80551" lon="2.10709">
        <ele>121</ele>
        <time>2022-10-23T08:54:36.513Z</time>
      </trkpt>
      <trkpt lat="48.80544" lon="2.10708">
        <ele>119</ele>
        <time>2022-10-23T08:54:41.490Z</time>
      </trkpt>
      <trkpt lat="48.80537" lon="2.10703">
        <ele>122</ele>
        <time>2022-10-23T08:54:46.487Z</time>
      </trkpt>
      <trkpt lat="48.80532" lon="2.10702">
        <ele>122</ele>
        <time>2022-10-23T08:54:50.498Z</time>
      </trkpt>
      <trkpt lat="48.80527" lon="2.10699">
        <ele>122</ele>
        <time>2022-10-23T08:54:55.488Z</time>
      </trkpt>
      <trkpt lat="48.80521" lon="2.10695">
        <ele>122</ele>
        <time>2022-10-23T08:55:00.494Z</time>
      </trkpt>
      <trkpt lat="48.80517" lon="2.10695">
        <ele>122</ele>
        <time>2022-10-23T08:55:04.503Z</time>
      </trkpt>
      <trkpt lat="48.80513" lon="2.10693">
        <ele>122</ele>
        <time>2022-10-23T08:55:09.492Z</time>
      </trkpt>
      <trkpt lat="48.80506" lon="2.1069">
        <ele>122</ele>
        <time>2022-10-23T08:55:14.484Z</time>
      </trkpt>
      <trkpt lat="48.80501" lon="2.10686">
        <ele>122</ele>
        <time>2022-10-23T08:55:18.493Z</time>
      </trkpt>
      <trkpt lat="48.80496" lon="2.10684">
        <ele>122</ele>
        <time>2022-10-23T08:55:22.496Z</time>
      </trkpt>
      <trkpt lat="48.80488" lon="2.10679">
        <ele>122</ele>
        <time>2022-10-23T08:55:27.511Z</time>
      </trkpt>
      <trkpt lat="48.80481" lon="2.10674">
        <ele>121</ele>
        <time>2022-10-23T08:55:31.506Z</time>
      </trkpt>
      <trkpt lat="48.80474" lon="2.10666">
        <ele>121</ele>
        <time>2022-10-23T08:55:36.510Z</time>
      </trkpt>
      <trkpt lat="48.8047" lon="2.10662">
        <ele>121</ele>
        <time>2022-10-23T08:55:40.540Z</time>
      </trkpt>
      <trkpt lat="48.80464" lon="2.10656">
        <ele>121</ele>
        <time>2022-10-23T08:55:45.509Z</time>
      </trkpt>
      <trkpt lat="48.80462" lon="2.1065">
        <ele>122</ele>
        <time>2022-10-23T08:55:49.528Z</time>
      </trkpt>
      <trkpt lat="48.80457" lon="2.10642">
        <ele>121</ele>
        <time>2022-10-23T08:55:54.490Z</time>
      </trkpt>
      <trkpt lat="48.80453" lon="2.10638">
        <ele>121</ele>
        <time>2022-10-23T08:55:58.502Z</time>
      </trkpt>
      <trkpt lat="48.80449" lon="2.1063">
        <ele>121</ele>
        <time>2022-10-23T08:56:03.495Z</time>
      </trkpt>
      <trkpt lat="48.80442" lon="2.10626">
        <ele>121</ele>
        <time>2022-10-23T08:56:08.548Z</time>
      </trkpt>
      <trkpt lat="48.80435" lon="2.10619">
        <ele>123</ele>
        <time>2022-10-23T08:56:13.511Z</time>
      </trkpt>
      <trkpt lat="48.8043" lon="2.10615">
        <ele>122</ele>
        <time>2022-10-23T08:56:17.517Z</time>
      </trkpt>
      <trkpt lat="48.80423" lon="2.10611">
        <ele>122</ele>
        <time>2022-10-23T08:56:22.521Z</time>
      </trkpt>
      <trkpt lat="48.80417" lon="2.10606">
        <ele>122</ele>
        <time>2022-10-23T08:56:27.513Z</time>
      </trkpt>
      <trkpt lat="48.80411" lon="2.10602">
        <ele>122</ele>
        <time>2022-10-23T08:56:32.510Z</time>
      </trkpt>
      <trkpt lat="48.80406" lon="2.10599">
        <ele>122</ele>
        <time>2022-10-23T08:56:36.526Z</time>
      </trkpt>
      <trkpt lat="48.804" lon="2.10595">
        <ele>122</ele>
        <time>2022-10-23T08:56:41.527Z</time>
      </trkpt>
      <trkpt lat="48.80394" lon="2.10591">
        <ele>122</ele>
        <time>2022-10-23T08:56:46.520Z</time>
      </trkpt>
      <trkpt lat="48.8039" lon="2.10588">
        <ele>122</ele>
        <time>2022-10-23T08:56:50.525Z</time>
      </trkpt>
      <trkpt lat="48.80382" lon="2.10585">
        <ele>122</ele>
        <time>2022-10-23T08:56:55.504Z</time>
      </trkpt>
      <trkpt lat="48.80377" lon="2.10582">
        <ele>122</ele>
        <time>2022-10-23T08:56:59.520Z</time>
      </trkpt>
      <trkpt lat="48.80373" lon="2.10579">
        <ele>121</ele>
        <time>2022-10-23T08:57:04.525Z</time>
      </trkpt>
      <trkpt lat="48.80367" lon="2.10573">
        <ele>121</ele>
        <time>2022-10-23T08:57:09.492Z</time>
      </trkpt>
      <trkpt lat="48.80364" lon="2.10574">
        <ele>121</ele>
        <time>2022-10-23T08:57:13.497Z</time>
      </trkpt>
      <trkpt lat="48.8036" lon="2.10572">
        <ele>121</ele>
        <time>2022-10-23T08:57:18.503Z</time>
      </trkpt>
      <trkpt lat="48.80356" lon="2.1057">
        <ele>121</ele>
        <time>2022-10-23T08:57:22.516Z</time>
      </trkpt>
      <trkpt lat="48.80352" lon="2.1056">
        <ele>122</ele>
        <time>2022-10-23T08:57:27.507Z</time>
      </trkpt>
      <trkpt lat="48.80349" lon="2.10554">
        <ele>122</ele>
        <time>2022-10-23T08:57:31.515Z</time>
      </trkpt>
      <trkpt lat="48.80347" lon="2.10549">
        <ele>122</ele>
        <time>2022-10-23T08:57:36.503Z</time>
      </trkpt>
      <trkpt lat="48.80347" lon="2.10546">
        <ele>122</ele>
        <time>2022-10-23T08:57:40.507Z</time>
      </trkpt>
      <trkpt lat="48.80346" lon="2.10543">
        <ele>121</ele>
        <time>2022-10-23T08:57:45.506Z</time>
      </trkpt>
      <trkpt lat="48.80342" lon="2.10542">
        <ele>121</ele>
        <time>2022-10-23T08:57:49.512Z</time>
      </trkpt>
      <trkpt lat="48.80336" lon="2.1054">
        <ele>121</ele>
        <time>2022-10-23T08:57:54.507Z</time>
      </trkpt>
      <trkpt lat="48.8033" lon="2.10538">
        <ele>121</ele>
        <time>2022-10-23T08:57:58.511Z</time>
      </trkpt>
      <trkpt lat="48.80324" lon="2.10537">
        <ele>121</ele>
        <time>2022-10-23T08:58:02.515Z</time>
      </trkpt>
      <trkpt lat="48.8032" lon="2.10539">
        <ele>121</ele>
        <time>2022-10-23T08:58:06.522Z</time>
      </trkpt>
      <trkpt lat="48.80318" lon="2.10544">
        <ele>121</ele>
        <time>2022-10-23T08:58:11.520Z</time>
      </trkpt>
      <trkpt lat="48.80315" lon="2.1055">
        <ele>121</ele>
        <time>2022-10-23T08:58:16.523Z</time>
      </trkpt>
      <trkpt lat="48.8031" lon="2.10554">
        <ele>121</ele>
        <time>2022-10-23T08:58:21.522Z</time>
      </trkpt>
      <trkpt lat="48.80303" lon="2.10557">
        <ele>121</ele>
        <time>2022-10-23T08:58:26.514Z</time>
      </trkpt>
      <trkpt lat="48.80298" lon="2.10558">
        <ele>121</ele>
        <time>2022-10-23T08:58:31.507Z</time>
      </trkpt>
      <trkpt lat="48.80293" lon="2.10557">
        <ele>121</ele>
        <time>2022-10-23T08:58:35.528Z</time>
      </trkpt>
      <trkpt lat="48.80288" lon="2.10555">
        <ele>121</ele>
        <time>2022-10-23T08:58:40.525Z</time>
      </trkpt>
      <trkpt lat="48.80283" lon="2.10551">
        <ele>121</ele>
        <time>2022-10-23T08:58:45.528Z</time>
      </trkpt>
      <trkpt lat="48.80278" lon="2.10548">
        <ele>121</ele>
        <time>2022-10-23T08:58:50.515Z</time>
      </trkpt>
      <trkpt lat="48.80272" lon="2.10542">
        <ele>121</ele>
        <time>2022-10-23T08:58:55.521Z</time>
      </trkpt>
      <trkpt lat="48.80266" lon="2.10537">
        <ele>121</ele>
        <time>2022-10-23T08:59:00.514Z</time>
      </trkpt>
      <trkpt lat="48.80261" lon="2.10533">
        <ele>119</ele>
        <time>2022-10-23T08:59:05.521Z</time>
      </trkpt>
      <trkpt lat="48.80254" lon="2.10528">
        <ele>119</ele>
        <time>2022-10-23T08:59:10.520Z</time>
      </trkpt>
      <trkpt lat="48.80249" lon="2.10525">
        <ele>119</ele>
        <time>2022-10-23T08:59:14.527Z</time>
      </trkpt>
      <trkpt lat="48.80244" lon="2.10522">
        <ele>119</ele>
        <time>2022-10-23T08:59:19.517Z</time>
      </trkpt>
      <trkpt lat="48.80238" lon="2.10517">
        <ele>119</ele>
        <time>2022-10-23T08:59:24.497Z</time>
      </trkpt>
      <trkpt lat="48.80234" lon="2.10516">
        <ele>118</ele>
        <time>2022-10-23T08:59:28.520Z</time>
      </trkpt>
      <trkpt lat="48.80227" lon="2.10515">
        <ele>118</ele>
        <time>2022-10-23T08:59:33.525Z</time>
      </trkpt>
      <trkpt lat="48.80221" lon="2.10512">
        <ele>117</ele>
        <time>2022-10-23T08:59:38.528Z</time>
      </trkpt>
      <trkpt lat="48.80215" lon="2.10509">
        <ele>117</ele>
        <time>2022-10-23T08:59:43.519Z</time>
      </trkpt>
      <trkpt lat="48.80209" lon="2.10505">
        <ele>117</ele>
        <time>2022-10-23T08:59:48.526Z</time>
      </trkpt>
      <trkpt lat="48.80204" lon="2.10501">
        <ele>118</ele>
        <time>2022-10-23T08:59:53.513Z</time>
      </trkpt>
      <trkpt lat="48.80199" lon="2.10497">
        <ele>118</ele>
        <time>2022-10-23T08:59:57.524Z</time>
      </trkpt>
      <trkpt lat="48.80192" lon="2.10493">
        <ele>118</ele>
        <time>2022-10-23T09:00:02.522Z</time>
      </trkpt>
      <trkpt lat="48.80186" lon="2.10492">
        <ele>118</ele>
        <time>2022-10-23T09:00:06.531Z</time>
      </trkpt>
      <trkpt lat="48.8018" lon="2.10489">
        <ele>118</ele>
        <time>2022-10-23T09:00:11.514Z</time>
      </trkpt>
      <trkpt lat="48.80174" lon="2.10487">
        <ele>118</ele>
        <time>2022-10-23T09:00:16.507Z</time>
      </trkpt>
      <trkpt lat="48.80169" lon="2.10483">
        <ele>118</ele>
        <time>2022-10-23T09:00:20.517Z</time>
      </trkpt>
      <trkpt lat="48.80163" lon="2.10482">
        <ele>118</ele>
        <time>2022-10-23T09:00:25.532Z</time>
      </trkpt>
      <trkpt lat="48.80157" lon="2.10479">
        <ele>118</ele>
        <time>2022-10-23T09:00:30.526Z</time>
      </trkpt>
      <trkpt lat="48.80152" lon="2.10476">
        <ele>119</ele>
        <time>2022-10-23T09:00:35.525Z</time>
      </trkpt>
      <trkpt lat="48.80147" lon="2.10473">
        <ele>119</ele>
        <time>2022-10-23T09:00:40.527Z</time>
      </trkpt>
      <trkpt lat="48.80141" lon="2.10468">
        <ele>119</ele>
        <time>2022-10-23T09:00:45.509Z</time>
      </trkpt>
      <trkpt lat="48.80134" lon="2.10463">
        <ele>119</ele>
        <time>2022-10-23T09:00:50.513Z</time>
      </trkpt>
      <trkpt lat="48.80128" lon="2.10461">
        <ele>119</ele>
        <time>2022-10-23T09:00:54.516Z</time>
      </trkpt>
      <trkpt lat="48.80122" lon="2.10456">
        <ele>119</ele>
        <time>2022-10-23T09:00:59.507Z</time>
      </trkpt>
      <trkpt lat="48.80117" lon="2.10454">
        <ele>119</ele>
        <time>2022-10-23T09:01:03.517Z</time>
      </trkpt>
      <trkpt lat="48.80111" lon="2.10449">
        <ele>119</ele>
        <time>2022-10-23T09:01:08.508Z</time>
      </trkpt>
      <trkpt lat="48.80107" lon="2.10447">
        <ele>119</ele>
        <time>2022-10-23T09:01:12.512Z</time>
      </trkpt>
      <trkpt lat="48.801" lon="2.10444">
        <ele>119</ele>
        <time>2022-10-23T09:01:17.512Z</time>
      </trkpt>
      <trkpt lat="48.80094" lon="2.1044">
        <ele>119</ele>
        <time>2022-10-23T09:01:22.503Z</time>
      </trkpt>
      <trkpt lat="48.80089" lon="2.10437">
        <ele>119</ele>
        <time>2022-10-23T09:01:26.521Z</time>
      </trkpt>
      <trkpt lat="48.80085" lon="2.10435">
        <ele>119</ele>
        <time>2022-10-23T09:01:31.509Z</time>
      </trkpt>
      <trkpt lat="48.80078" lon="2.10432">
        <ele>119</ele>
        <time>2022-10-23T09:01:36.528Z</time>
      </trkpt>
      <trkpt lat="48.80073" lon="2.10428">
        <ele>118</ele>
        <time>2022-10-23T09:01:41.518Z</time>
      </trkpt>
      <trkpt lat="48.80066" lon="2.10426">
        <ele>118</ele>
        <time>2022-10-23T09:01:46.490Z</time>
      </trkpt>
      <trkpt lat="48.80059" lon="2.10425">
        <ele>118</ele>
        <time>2022-10-23T09:01:50.518Z</time>
      </trkpt>
      <trkpt lat="48.80052" lon="2.10417">
        <ele>118</ele>
        <time>2022-10-23T09:01:55.511Z</time>
      </trkpt>
      <trkpt lat="48.80046" lon="2.10413">
        <ele>118</ele>
        <time>2022-10-23T09:02:00.509Z</time>
      </trkpt>
      <trkpt lat="48.8004" lon="2.1041">
        <ele>119</ele>
        <time>2022-10-23T09:02:05.512Z</time>
      </trkpt>
      <trkpt lat="48.80034" lon="2.10406">
        <ele>119</ele>
        <time>2022-10-23T09:02:10.509Z</time>
      </trkpt>
      <trkpt lat="48.80028" lon="2.10403">
        <ele>119</ele>
        <time>2022-10-23T09:02:14.514Z</time>
      </trkpt>
      <trkpt lat="48.80021" lon="2.104">
        <ele>118</ele>
        <time>2022-10-23T09:02:19.508Z</time>
      </trkpt>
      <trkpt lat="48.80016" lon="2.10399">
        <ele>118</ele>
        <time>2022-10-23T09:02:23.512Z</time>
      </trkpt>
      <trkpt lat="48.80009" lon="2.10396">
        <ele>119</ele>
        <time>2022-10-23T09:02:28.521Z</time>
      </trkpt>
      <trkpt lat="48.80004" lon="2.10392">
        <ele>119</ele>
        <time>2022-10-23T09:02:33.516Z</time>
      </trkpt>
      <trkpt lat="48.79997" lon="2.10388">
        <ele>119</ele>
        <time>2022-10-23T09:02:38.518Z</time>
      </trkpt>
      <trkpt lat="48.79992" lon="2.10385">
        <ele>119</ele>
        <time>2022-10-23T09:02:42.524Z</time>
      </trkpt>
      <trkpt lat="48.79988" lon="2.1038">
        <ele>119</ele>
        <time>2022-10-23T09:02:47.513Z</time>
      </trkpt>
      <trkpt lat="48.79981" lon="2.10376">
        <ele>119</ele>
        <time>2022-10-23T09:02:52.505Z</time>
      </trkpt>
      <trkpt lat="48.79976" lon="2.10374">
        <ele>119</ele>
        <time>2022-10-23T09:02:56.514Z</time>
      </trkpt>
      <trkpt lat="48.79968" lon="2.10372">
        <ele>119</ele>
        <time>2022-10-23T09:03:01.507Z</time>
      </trkpt>
      <trkpt lat="48.79962" lon="2.10368">
        <ele>119</ele>
        <time>2022-10-23T09:03:06.518Z</time>
      </trkpt>
      <trkpt lat="48.79956" lon="2.10361">
        <ele>119</ele>
        <time>2022-10-23T09:03:11.517Z</time>
      </trkpt>
      <trkpt lat="48.79951" lon="2.10357">
        <ele>119</ele>
        <time>2022-10-23T09:03:16.521Z</time>
      </trkpt>
      <trkpt lat="48.79943" lon="2.10356">
        <ele>119</ele>
        <time>2022-10-23T09:03:21.516Z</time>
      </trkpt>
      <trkpt lat="48.79938" lon="2.10352">
        <ele>119</ele>
        <time>2022-10-23T09:03:26.522Z</time>
      </trkpt>
      <trkpt lat="48.79932" lon="2.10347">
        <ele>119</ele>
        <time>2022-10-23T09:03:31.515Z</time>
      </trkpt>
      <trkpt lat="48.79928" lon="2.10343">
        <ele>119</ele>
        <time>2022-10-23T09:03:36.518Z</time>
      </trkpt>
      <trkpt lat="48.79921" lon="2.1034">
        <ele>119</ele>
        <time>2022-10-23T09:03:41.516Z</time>
      </trkpt>
      <trkpt lat="48.79915" lon="2.10337">
        <ele>119</ele>
        <time>2022-10-23T09:03:46.516Z</time>
      </trkpt>
      <trkpt lat="48.7991" lon="2.10334">
        <ele>119</ele>
        <time>2022-10-23T09:03:51.507Z</time>
      </trkpt>
      <trkpt lat="48.79905" lon="2.10332">
        <ele>119</ele>
        <time>2022-10-23T09:03:56.510Z</time>
      </trkpt>
      <trkpt lat="48.79899" lon="2.10328">
        <ele>121</ele>
        <time>2022-10-23T09:04:01.505Z</time>
      </trkpt>
      <trkpt lat="48.79894" lon="2.10324">
        <ele>121</ele>
        <time>2022-10-23T09:04:06.514Z</time>
      </trkpt>
      <trkpt lat="48.79888" lon="2.1032">
        <ele>121</ele>
        <time>2022-10-23T09:04:11.516Z</time>
      </trkpt>
      <trkpt lat="48.79882" lon="2.10318">
        <ele>121</ele>
        <time>2022-10-23T09:04:16.506Z</time>
      </trkpt>
      <trkpt lat="48.79878" lon="2.10316">
        <ele>121</ele>
        <time>2022-10-23T09:04:20.515Z</time>
      </trkpt>
      <trkpt lat="48.79873" lon="2.10314">
        <ele>123</ele>
        <time>2022-10-23T09:04:25.503Z</time>
      </trkpt>
      <trkpt lat="48.79868" lon="2.10312">
        <ele>123</ele>
        <time>2022-10-23T09:04:30.511Z</time>
      </trkpt>
      <trkpt lat="48.79862" lon="2.1031">
        <ele>123</ele>
        <time>2022-10-23T09:04:35.511Z</time>
      </trkpt>
      <trkpt lat="48.79856" lon="2.10314">
        <ele>123</ele>
        <time>2022-10-23T09:04:40.506Z</time>
      </trkpt>
      <trkpt lat="48.79851" lon="2.10319">
        <ele>123</ele>
        <time>2022-10-23T09:04:45.508Z</time>
      </trkpt>
      <trkpt lat="48.79845" lon="2.10323">
        <ele>127</ele>
        <time>2022-10-23T09:04:50.506Z</time>
      </trkpt>
      <trkpt lat="48.7984" lon="2.10323">
        <ele>127</ele>
        <time>2022-10-23T09:04:54.521Z</time>
      </trkpt>
      <trkpt lat="48.79837" lon="2.10318">
        <ele>126</ele>
        <time>2022-10-23T09:04:59.509Z</time>
      </trkpt>
      <trkpt lat="48.79837" lon="2.10319">
        <ele>127</ele>
        <time>2022-10-23T09:05:04.503Z</time>
      </trkpt>
      <trkpt lat="48.79836" lon="2.1032">
        <ele>127</ele>
        <time>2022-10-23T09:05:09.486Z</time>
      </trkpt>
      <trkpt lat="48.79832" lon="2.10319">
        <ele>126</ele>
        <time>2022-10-23T09:05:13.501Z</time>
      </trkpt>
      <trkpt lat="48.79827" lon="2.1032">
        <ele>127</ele>
        <time>2022-10-23T09:05:18.513Z</time>
      </trkpt>
      <trkpt lat="48.79822" lon="2.10322">
        <ele>127</ele>
        <time>2022-10-23T09:05:23.509Z</time>
      </trkpt>
      <trkpt lat="48.79814" lon="2.10321">
        <ele>128</ele>
        <time>2022-10-23T09:05:28.514Z</time>
      </trkpt>
      <trkpt lat="48.79809" lon="2.10321">
        <ele>128</ele>
        <time>2022-10-23T09:05:32.524Z</time>
      </trkpt>
      <trkpt lat="48.79803" lon="2.10318">
        <ele>127</ele>
        <time>2022-10-23T09:05:37.511Z</time>
      </trkpt>
      <trkpt lat="48.798" lon="2.10318">
        <ele>127</ele>
        <time>2022-10-23T09:05:42.515Z</time>
      </trkpt>
      <trkpt lat="48.79795" lon="2.10323">
        <ele>128</ele>
        <time>2022-10-23T09:05:47.506Z</time>
      </trkpt>
      <trkpt lat="48.79792" lon="2.10332">
        <ele>128</ele>
        <time>2022-10-23T09:05:52.508Z</time>
      </trkpt>
      <trkpt lat="48.79791" lon="2.10343">
        <ele>128</ele>
        <time>2022-10-23T09:05:56.513Z</time>
      </trkpt>
      <trkpt lat="48.79792" lon="2.10348">
        <ele>128</ele>
        <time>2022-10-23T09:06:47.507Z</time>
      </trkpt>
      <trkpt lat="48.79792" lon="2.10342">
        <ele>128</ele>
        <time>2022-10-23T09:06:51.485Z</time>
      </trkpt>
      <trkpt lat="48.79793" lon="2.10334">
        <ele>128</ele>
        <time>2022-10-23T09:06:56.497Z</time>
      </trkpt>
      <trkpt lat="48.79794" lon="2.10328">
        <ele>128</ele>
        <time>2022-10-23T09:07:00.521Z</time>
      </trkpt>
      <trkpt lat="48.79797" lon="2.10321">
        <ele>128</ele>
        <time>2022-10-23T09:07:05.511Z</time>
      </trkpt>
      <trkpt lat="48.79802" lon="2.10319">
        <ele>127</ele>
        <time>2022-10-23T09:07:09.529Z</time>
      </trkpt>
      <trkpt lat="48.79808" lon="2.10319">
        <ele>127</ele>
        <time>2022-10-23T09:07:14.533Z</time>
      </trkpt>
      <trkpt lat="48.79814" lon="2.10319">
        <ele>127</ele>
        <time>2022-10-23T09:07:19.517Z</time>
      </trkpt>
      <trkpt lat="48.7982" lon="2.10321">
        <ele>127</ele>
        <time>2022-10-23T09:07:24.500Z</time>
      </trkpt>
      <trkpt lat="48.79824" lon="2.10324">
        <ele>127</ele>
        <time>2022-10-23T09:07:28.507Z</time>
      </trkpt>
      <trkpt lat="48.7983" lon="2.10325">
        <ele>127</ele>
        <time>2022-10-23T09:07:32.512Z</time>
      </trkpt>
      <trkpt lat="48.79835" lon="2.10324">
        <ele>127</ele>
        <time>2022-10-23T09:07:37.522Z</time>
      </trkpt>
      <trkpt lat="48.79836" lon="2.10323">
        <ele>127</ele>
        <time>2022-10-23T09:07:41.526Z</time>
      </trkpt>
      <trkpt lat="48.79838" lon="2.10324">
        <ele>127</ele>
        <time>2022-10-23T09:07:46.507Z</time>
      </trkpt>
      <trkpt lat="48.79841" lon="2.10325">
        <ele>127</ele>
        <time>2022-10-23T09:07:50.520Z</time>
      </trkpt>
      <trkpt lat="48.79846" lon="2.10325">
        <ele>127</ele>
        <time>2022-10-23T09:07:55.530Z</time>
      </trkpt>
      <trkpt lat="48.79849" lon="2.10325">
        <ele>124</ele>
        <time>2022-10-23T09:07:59.549Z</time>
      </trkpt>
      <trkpt lat="48.79849" lon="2.10325">
        <ele>124</ele>
        <time>2022-10-23T09:08:14.511Z</time>
      </trkpt>
      <trkpt lat="48.79848" lon="2.10327">
        <ele>124</ele>
        <time>2022-10-23T09:08:19.516Z</time>
      </trkpt>
      <trkpt lat="48.79847" lon="2.10329">
        <ele>127</ele>
        <time>2022-10-23T09:08:23.534Z</time>
      </trkpt>
      <trkpt lat="48.79846" lon="2.10336">
        <ele>127</ele>
        <time>2022-10-23T09:08:28.500Z</time>
      </trkpt>
      <trkpt lat="48.79846" lon="2.1034">
        <ele>127</ele>
        <time>2022-10-23T09:08:33.508Z</time>
      </trkpt>
      <trkpt lat="48.79844" lon="2.10349">
        <ele>127</ele>
        <time>2022-10-23T09:08:38.510Z</time>
      </trkpt>
      <trkpt lat="48.79844" lon="2.10354">
        <ele>127</ele>
        <time>2022-10-23T09:08:42.525Z</time>
      </trkpt>
      <trkpt lat="48.79843" lon="2.10358">
        <ele>127</ele>
        <time>2022-10-23T09:08:47.510Z</time>
      </trkpt>
      <trkpt lat="48.79841" lon="2.10368">
        <ele>127</ele>
        <time>2022-10-23T09:08:52.489Z</time>
      </trkpt>
      <trkpt lat="48.7984" lon="2.10374">
        <ele>127</ele>
        <time>2022-10-23T09:08:56.516Z</time>
      </trkpt>
      <trkpt lat="48.79839" lon="2.10381">
        <ele>126</ele>
        <time>2022-10-23T09:09:01.514Z</time>
      </trkpt>
      <trkpt lat="48.79838" lon="2.10386">
        <ele>126</ele>
        <time>2022-10-23T09:09:05.515Z</time>
      </trkpt>
      <trkpt lat="48.79836" lon="2.10395">
        <ele>126</ele>
        <time>2022-10-23T09:09:10.514Z</time>
      </trkpt>
      <trkpt lat="48.79834" lon="2.10404">
        <ele>125</ele>
        <time>2022-10-23T09:09:15.507Z</time>
      </trkpt>
      <trkpt lat="48.79832" lon="2.1041">
        <ele>125</ele>
        <time>2022-10-23T09:09:19.509Z</time>
      </trkpt>
      <trkpt lat="48.79831" lon="2.10416">
        <ele>125</ele>
        <time>2022-10-23T09:09:23.521Z</time>
      </trkpt>
      <trkpt lat="48.79829" lon="2.10424">
        <ele>125</ele>
        <time>2022-10-23T09:09:28.515Z</time>
      </trkpt>
      <trkpt lat="48.79827" lon="2.10433">
        <ele>124</ele>
        <time>2022-10-23T09:09:33.521Z</time>
      </trkpt>
      <trkpt lat="48.79825" lon="2.10442">
        <ele>124</ele>
        <time>2022-10-23T09:09:38.502Z</time>
      </trkpt>
      <trkpt lat="48.79824" lon="2.10448">
        <ele>124</ele>
        <time>2022-10-23T09:09:42.516Z</time>
      </trkpt>
      <trkpt lat="48.79823" lon="2.10456">
        <ele>124</ele>
        <time>2022-10-23T09:09:46.522Z</time>
      </trkpt>
      <trkpt lat="48.7982" lon="2.10467">
        <ele>123</ele>
        <time>2022-10-23T09:09:51.522Z</time>
      </trkpt>
      <trkpt lat="48.79817" lon="2.10476">
        <ele>125</ele>
        <time>2022-10-23T09:09:56.520Z</time>
      </trkpt>
      <trkpt lat="48.79816" lon="2.10486">
        <ele>125</ele>
        <time>2022-10-23T09:10:01.522Z</time>
      </trkpt>
      <trkpt lat="48.79814" lon="2.10494">
        <ele>125</ele>
        <time>2022-10-23T09:10:06.512Z</time>
      </trkpt>
      <trkpt lat="48.79812" lon="2.10503">
        <ele>125</ele>
        <time>2022-10-23T09:10:11.516Z</time>
      </trkpt>
      <trkpt lat="48.7981" lon="2.10513">
        <ele>125</ele>
        <time>2022-10-23T09:10:16.510Z</time>
      </trkpt>
      <trkpt lat="48.79809" lon="2.10521">
        <ele>125</ele>
        <time>2022-10-23T09:10:20.525Z</time>
      </trkpt>
      <trkpt lat="48.79808" lon="2.10531">
        <ele>125</ele>
        <time>2022-10-23T09:10:25.522Z</time>
      </trkpt>
      <trkpt lat="48.79806" lon="2.10537">
        <ele>125</ele>
        <time>2022-10-23T09:10:29.520Z</time>
      </trkpt>
      <trkpt lat="48.79805" lon="2.10546">
        <ele>125</ele>
        <time>2022-10-23T09:10:34.528Z</time>
      </trkpt>
      <trkpt lat="48.79803" lon="2.10555">
        <ele>125</ele>
        <time>2022-10-23T09:10:39.539Z</time>
      </trkpt>
      <trkpt lat="48.79801" lon="2.10563">
        <ele>125</ele>
        <time>2022-10-23T09:10:43.531Z</time>
      </trkpt>
      <trkpt lat="48.79799" lon="2.10573">
        <ele>125</ele>
        <time>2022-10-23T09:10:48.534Z</time>
      </trkpt>
      <trkpt lat="48.79797" lon="2.1058">
        <ele>125</ele>
        <time>2022-10-23T09:10:52.541Z</time>
      </trkpt>
      <trkpt lat="48.79794" lon="2.1059">
        <ele>125</ele>
        <time>2022-10-23T09:10:57.502Z</time>
      </trkpt>
      <trkpt lat="48.79792" lon="2.10599">
        <ele>127</ele>
        <time>2022-10-23T09:11:02.510Z</time>
      </trkpt>
      <trkpt lat="48.7979" lon="2.10608">
        <ele>127</ele>
        <time>2022-10-23T09:11:06.513Z</time>
      </trkpt>
      <trkpt lat="48.79789" lon="2.10616">
        <ele>127</ele>
        <time>2022-10-23T09:11:10.531Z</time>
      </trkpt>
      <trkpt lat="48.79786" lon="2.10626">
        <ele>126</ele>
        <time>2022-10-23T09:11:15.510Z</time>
      </trkpt>
      <trkpt lat="48.79785" lon="2.10634">
        <ele>126</ele>
        <time>2022-10-23T09:11:19.523Z</time>
      </trkpt>
      <trkpt lat="48.79784" lon="2.10644">
        <ele>126</ele>
        <time>2022-10-23T09:11:24.505Z</time>
      </trkpt>
      <trkpt lat="48.79782" lon="2.10654">
        <ele>124</ele>
        <time>2022-10-23T09:11:28.527Z</time>
      </trkpt>
      <trkpt lat="48.7978" lon="2.10666">
        <ele>124</ele>
        <time>2022-10-23T09:11:33.509Z</time>
      </trkpt>
      <trkpt lat="48.79778" lon="2.10674">
        <ele>124</ele>
        <time>2022-10-23T09:11:37.540Z</time>
      </trkpt>
      <trkpt lat="48.79775" lon="2.10684">
        <ele>124</ele>
        <time>2022-10-23T09:11:42.524Z</time>
      </trkpt>
      <trkpt lat="48.79772" lon="2.10695">
        <ele>124</ele>
        <time>2022-10-23T09:11:47.507Z</time>
      </trkpt>
      <trkpt lat="48.7977" lon="2.10704">
        <ele>124</ele>
        <time>2022-10-23T09:11:51.524Z</time>
      </trkpt>
      <trkpt lat="48.79769" lon="2.10713">
        <ele>124</ele>
        <time>2022-10-23T09:11:55.520Z</time>
      </trkpt>
      <trkpt lat="48.79767" lon="2.10723">
        <ele>124</ele>
        <time>2022-10-23T09:12:00.526Z</time>
      </trkpt>
      <trkpt lat="48.79765" lon="2.10732">
        <ele>124</ele>
        <time>2022-10-23T09:12:04.520Z</time>
      </trkpt>
      <trkpt lat="48.79763" lon="2.1074">
        <ele>128</ele>
        <time>2022-10-23T09:12:09.516Z</time>
      </trkpt>
      <trkpt lat="48.79761" lon="2.1075">
        <ele>128</ele>
        <time>2022-10-23T09:12:14.529Z</time>
      </trkpt>
      <trkpt lat="48.79759" lon="2.10761">
        <ele>128</ele>
        <time>2022-10-23T09:12:19.512Z</time>
      </trkpt>
      <trkpt lat="48.79757" lon="2.1077">
        <ele>129</ele>
        <time>2022-10-23T09:12:23.522Z</time>
      </trkpt>
      <trkpt lat="48.79754" lon="2.1078">
        <ele>129</ele>
        <time>2022-10-23T09:12:28.524Z</time>
      </trkpt>
      <trkpt lat="48.79752" lon="2.10789">
        <ele>129</ele>
        <time>2022-10-23T09:12:33.518Z</time>
      </trkpt>
      <trkpt lat="48.7975" lon="2.10798">
        <ele>130</ele>
        <time>2022-10-23T09:12:37.532Z</time>
      </trkpt>
      <trkpt lat="48.79748" lon="2.10809">
        <ele>130</ele>
        <time>2022-10-23T09:12:42.507Z</time>
      </trkpt>
      <trkpt lat="48.79746" lon="2.10816">
        <ele>130</ele>
        <time>2022-10-23T09:12:46.527Z</time>
      </trkpt>
      <trkpt lat="48.79744" lon="2.10826">
        <ele>130</ele>
        <time>2022-10-23T09:12:51.520Z</time>
      </trkpt>
      <trkpt lat="48.79742" lon="2.10836">
        <ele>130</ele>
        <time>2022-10-23T09:12:56.513Z</time>
      </trkpt>
      <trkpt lat="48.79741" lon="2.10844">
        <ele>130</ele>
        <time>2022-10-23T09:13:00.515Z</time>
      </trkpt>
      <trkpt lat="48.79739" lon="2.10854">
        <ele>130</ele>
        <time>2022-10-23T09:13:05.523Z</time>
      </trkpt>
      <trkpt lat="48.79736" lon="2.10864">
        <ele>133</ele>
        <time>2022-10-23T09:13:10.525Z</time>
      </trkpt>
      <trkpt lat="48.79733" lon="2.10871">
        <ele>133</ele>
        <time>2022-10-23T09:13:14.533Z</time>
      </trkpt>
      <trkpt lat="48.79732" lon="2.10881">
        <ele>131</ele>
        <time>2022-10-23T09:13:19.499Z</time>
      </trkpt>
      <trkpt lat="48.7973" lon="2.10889">
        <ele>131</ele>
        <time>2022-10-23T09:13:23.522Z</time>
      </trkpt>
      <trkpt lat="48.79729" lon="2.10901">
        <ele>131</ele>
        <time>2022-10-23T09:13:28.516Z</time>
      </trkpt>
      <trkpt lat="48.79727" lon="2.10908">
        <ele>129</ele>
        <time>2022-10-23T09:13:32.525Z</time>
      </trkpt>
      <trkpt lat="48.79726" lon="2.10917">
        <ele>129</ele>
        <time>2022-10-23T09:13:37.530Z</time>
      </trkpt>
      <trkpt lat="48.79725" lon="2.10925">
        <ele>129</ele>
        <time>2022-10-23T09:13:41.533Z</time>
      </trkpt>
      <trkpt lat="48.79723" lon="2.10935">
        <ele>127</ele>
        <time>2022-10-23T09:13:46.511Z</time>
      </trkpt>
      <trkpt lat="48.79721" lon="2.10946">
        <ele>127</ele>
        <time>2022-10-23T09:13:51.507Z</time>
      </trkpt>
      <trkpt lat="48.79718" lon="2.10959">
        <ele>125</ele>
        <time>2022-10-23T09:13:56.518Z</time>
      </trkpt>
      <trkpt lat="48.79717" lon="2.10968">
        <ele>125</ele>
        <time>2022-10-23T09:14:01.516Z</time>
      </trkpt>
      <trkpt lat="48.79715" lon="2.10975">
        <ele>125</ele>
        <time>2022-10-23T09:14:05.506Z</time>
      </trkpt>
      <trkpt lat="48.79712" lon="2.10986">
        <ele>125</ele>
        <time>2022-10-23T09:14:10.501Z</time>
      </trkpt>
      <trkpt lat="48.79711" lon="2.10994">
        <ele>124</ele>
        <time>2022-10-23T09:14:14.510Z</time>
      </trkpt>
      <trkpt lat="48.79709" lon="2.11004">
        <ele>124</ele>
        <time>2022-10-23T09:14:19.512Z</time>
      </trkpt>
      <trkpt lat="48.79707" lon="2.11012">
        <ele>128</ele>
        <time>2022-10-23T09:14:23.532Z</time>
      </trkpt>
      <trkpt lat="48.79704" lon="2.11021">
        <ele>125</ele>
        <time>2022-10-23T09:14:28.519Z</time>
      </trkpt>
      <trkpt lat="48.79702" lon="2.1103">
        <ele>125</ele>
        <time>2022-10-23T09:14:33.507Z</time>
      </trkpt>
      <trkpt lat="48.79702" lon="2.11038">
        <ele>125</ele>
        <time>2022-10-23T09:14:37.527Z</time>
      </trkpt>
      <trkpt lat="48.797" lon="2.11048">
        <ele>124</ele>
        <time>2022-10-23T09:14:42.522Z</time>
      </trkpt>
      <trkpt lat="48.79698" lon="2.1106">
        <ele>124</ele>
        <time>2022-10-23T09:14:47.536Z</time>
      </trkpt>
      <trkpt lat="48.79696" lon="2.11071">
        <ele>122</ele>
        <time>2022-10-23T09:14:52.507Z</time>
      </trkpt>
      <trkpt lat="48.79694" lon="2.1108">
        <ele>122</ele>
        <time>2022-10-23T09:14:57.519Z</time>
      </trkpt>
      <trkpt lat="48.79691" lon="2.11092">
        <ele>122</ele>
        <time>2022-10-23T09:15:02.522Z</time>
      </trkpt>
      <trkpt lat="48.79688" lon="2.11101">
        <ele>121</ele>
        <time>2022-10-23T09:15:06.529Z</time>
      </trkpt>
      <trkpt lat="48.79687" lon="2.1111">
        <ele>121</ele>
        <time>2022-10-23T09:15:11.501Z</time>
      </trkpt>
      <trkpt lat="48.79686" lon="2.11118">
        <ele>121</ele>
        <time>2022-10-23T09:15:15.512Z</time>
      </trkpt>
      <trkpt lat="48.79684" lon="2.11125">
        <ele>121</ele>
        <time>2022-10-23T09:15:19.521Z</time>
      </trkpt>
      <trkpt lat="48.79682" lon="2.11133">
        <ele>120</ele>
        <time>2022-10-23T09:15:24.515Z</time>
      </trkpt>
      <trkpt lat="48.79681" lon="2.11143">
        <ele>120</ele>
        <time>2022-10-23T09:15:29.531Z</time>
      </trkpt>
      <trkpt lat="48.79678" lon="2.11153">
        <ele>126</ele>
        <time>2022-10-23T09:15:34.520Z</time>
      </trkpt>
      <trkpt lat="48.79675" lon="2.11164">
        <ele>126</ele>
        <time>2022-10-23T09:15:39.524Z</time>
      </trkpt>
      <trkpt lat="48.79673" lon="2.11169">
        <ele>126</ele>
        <time>2022-10-23T09:15:43.542Z</time>
      </trkpt>
      <trkpt lat="48.79671" lon="2.11179">
        <ele>126</ele>
        <time>2022-10-23T09:15:48.523Z</time>
      </trkpt>
      <trkpt lat="48.79669" lon="2.11191">
        <ele>126</ele>
        <time>2022-10-23T09:15:53.555Z</time>
      </trkpt>
      <trkpt lat="48.79668" lon="2.112">
        <ele>126</ele>
        <time>2022-10-23T09:15:58.528Z</time>
      </trkpt>
      <trkpt lat="48.79665" lon="2.11208">
        <ele>126</ele>
        <time>2022-10-23T09:16:03.534Z</time>
      </trkpt>
      <trkpt lat="48.79663" lon="2.11216">
        <ele>127</ele>
        <time>2022-10-23T09:16:08.523Z</time>
      </trkpt>
      <trkpt lat="48.79662" lon="2.1122">
        <ele>127</ele>
        <time>2022-10-23T09:16:13.541Z</time>
      </trkpt>
      <trkpt lat="48.7966" lon="2.11227">
        <ele>127</ele>
        <time>2022-10-23T09:16:18.513Z</time>
      </trkpt>
      <trkpt lat="48.79657" lon="2.11236">
        <ele>127</ele>
        <time>2022-10-23T09:16:23.556Z</time>
      </trkpt>
      <trkpt lat="48.79654" lon="2.11242">
        <ele>128</ele>
        <time>2022-10-23T09:16:28.525Z</time>
      </trkpt>
      <trkpt lat="48.79649" lon="2.11246">
        <ele>130</ele>
        <time>2022-10-23T09:16:32.525Z</time>
      </trkpt>
      <trkpt lat="48.79644" lon="2.11252">
        <ele>130</ele>
        <time>2022-10-23T09:16:37.519Z</time>
      </trkpt>
      <trkpt lat="48.7964" lon="2.11256">
        <ele>130</ele>
        <time>2022-10-23T09:16:41.530Z</time>
      </trkpt>
      <trkpt lat="48.79635" lon="2.11262">
        <ele>130</ele>
        <time>2022-10-23T09:16:46.508Z</time>
      </trkpt>
      <trkpt lat="48.79631" lon="2.11268">
        <ele>130</ele>
        <time>2022-10-23T09:16:51.528Z</time>
      </trkpt>
      <trkpt lat="48.79626" lon="2.11275">
        <ele>130</ele>
        <time>2022-10-23T09:16:56.491Z</time>
      </trkpt>
      <trkpt lat="48.79621" lon="2.11276">
        <ele>130</ele>
        <time>2022-10-23T09:17:24.483Z</time>
      </trkpt>
      <trkpt lat="48.79617" lon="2.11279">
        <ele>130</ele>
        <time>2022-10-23T09:17:28.495Z</time>
      </trkpt>
      <trkpt lat="48.79613" lon="2.11284">
        <ele>130</ele>
        <time>2022-10-23T09:17:33.498Z</time>
      </trkpt>
      <trkpt lat="48.79611" lon="2.11289">
        <ele>130</ele>
        <time>2022-10-23T09:17:37.497Z</time>
      </trkpt>
      <trkpt lat="48.79606" lon="2.11295">
        <ele>118</ele>
        <time>2022-10-23T09:17:42.486Z</time>
      </trkpt>
      <trkpt lat="48.79603" lon="2.113">
        <ele>118</ele>
        <time>2022-10-23T09:17:46.500Z</time>
      </trkpt>
      <trkpt lat="48.79599" lon="2.11307">
        <ele>118</ele>
        <time>2022-10-23T09:17:51.498Z</time>
      </trkpt>
      <trkpt lat="48.79594" lon="2.11311">
        <ele>118</ele>
        <time>2022-10-23T09:17:56.501Z</time>
      </trkpt>
      <trkpt lat="48.7959" lon="2.11316">
        <ele>118</ele>
        <time>2022-10-23T09:18:00.525Z</time>
      </trkpt>
      <trkpt lat="48.79585" lon="2.11319">
        <ele>118</ele>
        <time>2022-10-23T09:18:05.483Z</time>
      </trkpt>
      <trkpt lat="48.79585" lon="2.11321">
        <ele>118</ele>
        <time>2022-10-23T09:18:09.492Z</time>
      </trkpt>
      <trkpt lat="48.79583" lon="2.1132">
        <ele>118</ele>
        <time>2022-10-23T09:18:14.486Z</time>
      </trkpt>
      <trkpt lat="48.79578" lon="2.11323">
        <ele>118</ele>
        <time>2022-10-23T09:18:18.509Z</time>
      </trkpt>
      <trkpt lat="48.79573" lon="2.11324">
        <ele>118</ele>
        <time>2022-10-23T09:18:23.496Z</time>
      </trkpt>
      <trkpt lat="48.79568" lon="2.11324">
        <ele>118</ele>
        <time>2022-10-23T09:18:28.507Z</time>
      </trkpt>
      <trkpt lat="48.79564" lon="2.11326">
        <ele>118</ele>
        <time>2022-10-23T09:18:32.510Z</time>
      </trkpt>
      <trkpt lat="48.79559" lon="2.11329">
        <ele>118</ele>
        <time>2022-10-23T09:18:37.498Z</time>
      </trkpt>
      <trkpt lat="48.79555" lon="2.11334">
        <ele>118</ele>
        <time>2022-10-23T09:18:42.495Z</time>
      </trkpt>
      <trkpt lat="48.79551" lon="2.11337">
        <ele>118</ele>
        <time>2022-10-23T09:18:47.492Z</time>
      </trkpt>
      <trkpt lat="48.79552" lon="2.11336">
        <ele>118</ele>
        <time>2022-10-23T09:18:52.491Z</time>
      </trkpt>
      <trkpt lat="48.79548" lon="2.11338">
        <ele>118</ele>
        <time>2022-10-23T09:18:57.497Z</time>
      </trkpt>
      <trkpt lat="48.79544" lon="2.11342">
        <ele>118</ele>
        <time>2022-10-23T09:19:01.499Z</time>
      </trkpt>
      <trkpt lat="48.79538" lon="2.11348">
        <ele>119</ele>
        <time>2022-10-23T09:19:06.497Z</time>
      </trkpt>
      <trkpt lat="48.79534" lon="2.11353">
        <ele>119</ele>
        <time>2022-10-23T09:19:11.502Z</time>
      </trkpt>
      <trkpt lat="48.7953" lon="2.11359">
        <ele>119</ele>
        <time>2022-10-23T09:19:15.503Z</time>
      </trkpt>
      <trkpt lat="48.79524" lon="2.11366">
        <ele>119</ele>
        <time>2022-10-23T09:19:20.502Z</time>
      </trkpt>
      <trkpt lat="48.79521" lon="2.11375">
        <ele>118</ele>
        <time>2022-10-23T09:19:25.500Z</time>
      </trkpt>
      <trkpt lat="48.79518" lon="2.11383">
        <ele>118</ele>
        <time>2022-10-23T09:19:29.497Z</time>
      </trkpt>
      <trkpt lat="48.79515" lon="2.11391">
        <ele>118</ele>
        <time>2022-10-23T09:19:34.502Z</time>
      </trkpt>
      <trkpt lat="48.79514" lon="2.11399">
        <ele>119</ele>
        <time>2022-10-23T09:19:38.505Z</time>
      </trkpt>
      <trkpt lat="48.79512" lon="2.11406">
        <ele>119</ele>
        <time>2022-10-23T09:19:43.484Z</time>
      </trkpt>
      <trkpt lat="48.79511" lon="2.11415">
        <ele>119</ele>
        <time>2022-10-23T09:19:47.491Z</time>
      </trkpt>
      <trkpt lat="48.7951" lon="2.11423">
        <ele>119</ele>
        <time>2022-10-23T09:19:52.498Z</time>
      </trkpt>
      <trkpt lat="48.79509" lon="2.11429">
        <ele>119</ele>
        <time>2022-10-23T09:19:57.497Z</time>
      </trkpt>
      <trkpt lat="48.79507" lon="2.1144">
        <ele>119</ele>
        <time>2022-10-23T09:20:02.491Z</time>
      </trkpt>
      <trkpt lat="48.79506" lon="2.11449">
        <ele>119</ele>
        <time>2022-10-23T09:20:06.505Z</time>
      </trkpt>
      <trkpt lat="48.79506" lon="2.11455">
        <ele>119</ele>
        <time>2022-10-23T09:20:11.493Z</time>
      </trkpt>
      <trkpt lat="48.79508" lon="2.11464">
        <ele>118</ele>
        <time>2022-10-23T09:20:15.506Z</time>
      </trkpt>
      <trkpt lat="48.79509" lon="2.11473">
        <ele>118</ele>
        <time>2022-10-23T09:20:20.499Z</time>
      </trkpt>
      <trkpt lat="48.79509" lon="2.11482">
        <ele>118</ele>
        <time>2022-10-23T09:20:25.498Z</time>
      </trkpt>
      <trkpt lat="48.7951" lon="2.11494">
        <ele>118</ele>
        <time>2022-10-23T09:20:30.495Z</time>
      </trkpt>
      <trkpt lat="48.7951" lon="2.11503">
        <ele>118</ele>
        <time>2022-10-23T09:20:34.502Z</time>
      </trkpt>
      <trkpt lat="48.79512" lon="2.11511">
        <ele>118</ele>
        <time>2022-10-23T09:20:39.494Z</time>
      </trkpt>
      <trkpt lat="48.79514" lon="2.11517">
        <ele>118</ele>
        <time>2022-10-23T09:20:44.490Z</time>
      </trkpt>
      <trkpt lat="48.79517" lon="2.11524">
        <ele>118</ele>
        <time>2022-10-23T09:20:48.496Z</time>
      </trkpt>
      <trkpt lat="48.7952" lon="2.11531">
        <ele>118</ele>
        <time>2022-10-23T09:20:52.505Z</time>
      </trkpt>
      <trkpt lat="48.79523" lon="2.1154">
        <ele>118</ele>
        <time>2022-10-23T09:20:57.493Z</time>
      </trkpt>
      <trkpt lat="48.79526" lon="2.11546">
        <ele>118</ele>
        <time>2022-10-23T09:21:02.501Z</time>
      </trkpt>
      <trkpt lat="48.79527" lon="2.11555">
        <ele>118</ele>
        <time>2022-10-23T09:21:07.496Z</time>
      </trkpt>
      <trkpt lat="48.79528" lon="2.11566">
        <ele>118</ele>
        <time>2022-10-23T09:21:12.491Z</time>
      </trkpt>
      <trkpt lat="48.79528" lon="2.11573">
        <ele>118</ele>
        <time>2022-10-23T09:21:16.507Z</time>
      </trkpt>
      <trkpt lat="48.79528" lon="2.11584">
        <ele>118</ele>
        <time>2022-10-23T09:21:21.512Z</time>
      </trkpt>
      <trkpt lat="48.79528" lon="2.11589">
        <ele>118</ele>
        <time>2022-10-23T09:21:25.512Z</time>
      </trkpt>
      <trkpt lat="48.79524" lon="2.11599">
        <ele>124</ele>
        <time>2022-10-23T09:21:30.515Z</time>
      </trkpt>
      <trkpt lat="48.79523" lon="2.11607">
        <ele>124</ele>
        <time>2022-10-23T09:21:35.499Z</time>
      </trkpt>
      <trkpt lat="48.79521" lon="2.11616">
        <ele>124</ele>
        <time>2022-10-23T09:21:40.495Z</time>
      </trkpt>
      <trkpt lat="48.79521" lon="2.11625">
        <ele>128</ele>
        <time>2022-10-23T09:21:45.521Z</time>
      </trkpt>
      <trkpt lat="48.79523" lon="2.11633">
        <ele>128</ele>
        <time>2022-10-23T09:21:50.516Z</time>
      </trkpt>
      <trkpt lat="48.79522" lon="2.1164">
        <ele>128</ele>
        <time>2022-10-23T09:21:55.500Z</time>
      </trkpt>
      <trkpt lat="48.79524" lon="2.11645">
        <ele>128</ele>
        <time>2022-10-23T09:21:59.503Z</time>
      </trkpt>
      <trkpt lat="48.79526" lon="2.11652">
        <ele>128</ele>
        <time>2022-10-23T09:22:03.542Z</time>
      </trkpt>
      <trkpt lat="48.79526" lon="2.11661">
        <ele>131</ele>
        <time>2022-10-23T09:22:08.495Z</time>
      </trkpt>
      <trkpt lat="48.79527" lon="2.11669">
        <ele>131</ele>
        <time>2022-10-23T09:22:12.517Z</time>
      </trkpt>
      <trkpt lat="48.79525" lon="2.11677">
        <ele>131</ele>
        <time>2022-10-23T09:22:17.502Z</time>
      </trkpt>
      <trkpt lat="48.79524" lon="2.11686">
        <ele>132</ele>
        <time>2022-10-23T09:22:21.523Z</time>
      </trkpt>
      <trkpt lat="48.79525" lon="2.11694">
        <ele>132</ele>
        <time>2022-10-23T09:22:26.527Z</time>
      </trkpt>
      <trkpt lat="48.79522" lon="2.11704">
        <ele>132</ele>
        <time>2022-10-23T09:22:31.519Z</time>
      </trkpt>
      <trkpt lat="48.79525" lon="2.11716">
        <ele>133</ele>
        <time>2022-10-23T09:23:43.548Z</time>
      </trkpt>
      <trkpt lat="48.79528" lon="2.11714">
        <ele>133</ele>
        <time>2022-10-23T09:23:48.528Z</time>
      </trkpt>
      <trkpt lat="48.7953" lon="2.11707">
        <ele>132</ele>
        <time>2022-10-23T09:23:53.543Z</time>
      </trkpt>
      <trkpt lat="48.7953" lon="2.11701">
        <ele>132</ele>
        <time>2022-10-23T09:23:57.539Z</time>
      </trkpt>
      <trkpt lat="48.7953" lon="2.11692">
        <ele>132</ele>
        <time>2022-10-23T09:24:02.529Z</time>
      </trkpt>
      <trkpt lat="48.79531" lon="2.11683">
        <ele>132</ele>
        <time>2022-10-23T09:24:07.522Z</time>
      </trkpt>
      <trkpt lat="48.7953" lon="2.11676">
        <ele>131</ele>
        <time>2022-10-23T09:24:11.542Z</time>
      </trkpt>
      <trkpt lat="48.79527" lon="2.11668">
        <ele>131</ele>
        <time>2022-10-23T09:24:16.515Z</time>
      </trkpt>
      <trkpt lat="48.79524" lon="2.11662">
        <ele>131</ele>
        <time>2022-10-23T09:24:20.530Z</time>
      </trkpt>
      <trkpt lat="48.79518" lon="2.11654">
        <ele>131</ele>
        <time>2022-10-23T09:24:25.543Z</time>
      </trkpt>
      <trkpt lat="48.79511" lon="2.11648">
        <ele>127</ele>
        <time>2022-10-23T09:24:30.529Z</time>
      </trkpt>
      <trkpt lat="48.79507" lon="2.11644">
        <ele>127</ele>
        <time>2022-10-23T09:24:34.528Z</time>
      </trkpt>
      <trkpt lat="48.79502" lon="2.11641">
        <ele>127</ele>
        <time>2022-10-23T09:24:38.543Z</time>
      </trkpt>
      <trkpt lat="48.79496" lon="2.11636">
        <ele>127</ele>
        <time>2022-10-23T09:24:43.545Z</time>
      </trkpt>
      <trkpt lat="48.7949" lon="2.11632">
        <ele>127</ele>
        <time>2022-10-23T09:24:48.534Z</time>
      </trkpt>
      <trkpt lat="48.79485" lon="2.11628">
        <ele>131</ele>
        <time>2022-10-23T09:24:53.553Z</time>
      </trkpt>
      <trkpt lat="48.79478" lon="2.11624">
        <ele>131</ele>
        <time>2022-10-23T09:24:58.536Z</time>
      </trkpt>
      <trkpt lat="48.79472" lon="2.11619">
        <ele>131</ele>
        <time>2022-10-23T09:25:03.534Z</time>
      </trkpt>
      <trkpt lat="48.79465" lon="2.11614">
        <ele>131</ele>
        <time>2022-10-23T09:25:08.505Z</time>
      </trkpt>
      <trkpt lat="48.79459" lon="2.11611">
        <ele>131</ele>
        <time>2022-10-23T09:25:12.531Z</time>
      </trkpt>
      <trkpt lat="48.79454" lon="2.11608">
        <ele>134</ele>
        <time>2022-10-23T09:25:16.530Z</time>
      </trkpt>
      <trkpt lat="48.7945" lon="2.11604">
        <ele>134</ele>
        <time>2022-10-23T09:25:21.551Z</time>
      </trkpt>
      <trkpt lat="48.79443" lon="2.11601">
        <ele>134</ele>
        <time>2022-10-23T09:25:26.536Z</time>
      </trkpt>
      <trkpt lat="48.79439" lon="2.11598">
        <ele>134</ele>
        <time>2022-10-23T09:25:30.531Z</time>
      </trkpt>
      <trkpt lat="48.79433" lon="2.11596">
        <ele>132</ele>
        <time>2022-10-23T09:25:35.518Z</time>
      </trkpt>
      <trkpt lat="48.79428" lon="2.11596">
        <ele>137</ele>
        <time>2022-10-23T09:25:39.532Z</time>
      </trkpt>
      <trkpt lat="48.79422" lon="2.11592">
        <ele>137</ele>
        <time>2022-10-23T09:25:44.532Z</time>
      </trkpt>
      <trkpt lat="48.79416" lon="2.11588">
        <ele>137</ele>
        <time>2022-10-23T09:25:49.537Z</time>
      </trkpt>
      <trkpt lat="48.79409" lon="2.11584">
        <ele>137</ele>
        <time>2022-10-23T09:25:54.503Z</time>
      </trkpt>
      <trkpt lat="48.79405" lon="2.1158">
        <ele>137</ele>
        <time>2022-10-23T09:25:58.516Z</time>
      </trkpt>
      <trkpt lat="48.794" lon="2.11577">
        <ele>140</ele>
        <time>2022-10-23T09:26:02.536Z</time>
      </trkpt>
      <trkpt lat="48.79395" lon="2.11574">
        <ele>140</ele>
        <time>2022-10-23T09:26:07.532Z</time>
      </trkpt>
      <trkpt lat="48.7939" lon="2.1157">
        <ele>140</ele>
        <time>2022-10-23T09:26:11.543Z</time>
      </trkpt>
      <trkpt lat="48.79387" lon="2.11566">
        <ele>137</ele>
        <time>2022-10-23T09:26:16.543Z</time>
      </trkpt>
      <trkpt lat="48.79381" lon="2.11561">
        <ele>137</ele>
        <time>2022-10-23T09:26:21.528Z</time>
      </trkpt>
      <trkpt lat="48.79374" lon="2.11556">
        <ele>139</ele>
        <time>2022-10-23T09:26:26.529Z</time>
      </trkpt>
      <trkpt lat="48.79366" lon="2.11553">
        <ele>139</ele>
        <time>2022-10-23T09:26:31.506Z</time>
      </trkpt>
      <trkpt lat="48.79358" lon="2.11549">
        <ele>139</ele>
        <time>2022-10-23T09:26:36.490Z</time>
      </trkpt>
      <trkpt lat="48.79353" lon="2.11547">
        <ele>139</ele>
        <time>2022-10-23T09:26:40.527Z</time>
      </trkpt>
      <trkpt lat="48.79347" lon="2.11543">
        <ele>143</ele>
        <time>2022-10-23T09:26:45.537Z</time>
      </trkpt>
      <trkpt lat="48.7934" lon="2.11539">
        <ele>142</ele>
        <time>2022-10-23T09:26:50.523Z</time>
      </trkpt>
      <trkpt lat="48.79333" lon="2.11536">
        <ele>142</ele>
        <time>2022-10-23T09:26:55.543Z</time>
      </trkpt>
      <trkpt lat="48.79327" lon="2.11534">
        <ele>142</ele>
        <time>2022-10-23T09:26:59.542Z</time>
      </trkpt>
      <trkpt lat="48.7932" lon="2.11531">
        <ele>142</ele>
        <time>2022-10-23T09:27:04.536Z</time>
      </trkpt>
      <trkpt lat="48.79316" lon="2.11528">
        <ele>141</ele>
        <time>2022-10-23T09:27:09.522Z</time>
      </trkpt>
      <trkpt lat="48.79314" lon="2.11528">
        <ele>141</ele>
        <time>2022-10-23T09:27:14.514Z</time>
      </trkpt>
      <trkpt lat="48.79312" lon="2.11522">
        <ele>141</ele>
        <time>2022-10-23T09:27:19.498Z</time>
      </trkpt>
      <trkpt lat="48.79312" lon="2.11521">
        <ele>141</ele>
        <time>2022-10-23T09:27:23.511Z</time>
      </trkpt>
      <trkpt lat="48.7931" lon="2.11518">
        <ele>141</ele>
        <time>2022-10-23T09:27:27.519Z</time>
      </trkpt>
      <trkpt lat="48.79308" lon="2.11517">
        <ele>141</ele>
        <time>2022-10-23T09:27:32.506Z</time>
      </trkpt>
      <trkpt lat="48.79305" lon="2.11527">
        <ele>141</ele>
        <time>2022-10-23T09:30:24.500Z</time>
      </trkpt>
      <trkpt lat="48.79313" lon="2.11531">
        <ele>141</ele>
        <time>2022-10-23T09:30:28.504Z</time>
      </trkpt>
      <trkpt lat="48.79315" lon="2.1153">
        <ele>141</ele>
        <time>2022-10-23T09:30:32.522Z</time>
      </trkpt>
      <trkpt lat="48.79316" lon="2.11529">
        <ele>141</ele>
        <time>2022-10-23T09:30:37.512Z</time>
      </trkpt>
      <trkpt lat="48.79317" lon="2.11527">
        <ele>141</ele>
        <time>2022-10-23T09:30:41.517Z</time>
      </trkpt>
      <trkpt lat="48.79316" lon="2.1153">
        <ele>141</ele>
        <time>2022-10-23T09:31:54.500Z</time>
      </trkpt>
      <trkpt lat="48.79315" lon="2.11529">
        <ele>141</ele>
        <time>2022-10-23T09:31:59.492Z</time>
      </trkpt>
      <trkpt lat="48.79316" lon="2.11531">
        <ele>141</ele>
        <time>2022-10-23T09:32:04.497Z</time>
      </trkpt>
      <trkpt lat="48.79314" lon="2.11529">
        <ele>141</ele>
        <time>2022-10-23T09:32:08.507Z</time>
      </trkpt>
      <trkpt lat="48.79299" lon="2.1153">
        <ele>141</ele>
        <time>2022-10-23T09:32:13.500Z</time>
      </trkpt>
      <trkpt lat="48.79298" lon="2.11538">
        <ele>141</ele>
        <time>2022-10-23T09:33:08.488Z</time>
      </trkpt>
      <trkpt lat="48.79298" lon="2.11538">
        <ele>141</ele>
        <time>2022-10-23T09:33:13.474Z</time>
      </trkpt>
      <trkpt lat="48.79298" lon="2.11538">
        <ele>141</ele>
        <time>2022-10-23T09:33:17.474Z</time>
      </trkpt>
      <trkpt lat="48.79298" lon="2.11537">
        <ele>141</ele>
        <time>2022-10-23T09:33:22.478Z</time>
      </trkpt>
      <trkpt lat="48.79299" lon="2.11538">
        <ele>141</ele>
        <time>2022-10-23T09:33:27.471Z</time>
      </trkpt>
      <trkpt lat="48.79306" lon="2.11531">
        <ele>141</ele>
        <time>2022-10-23T09:35:43.500Z</time>
      </trkpt>
      <trkpt lat="48.79315" lon="2.11532">
        <ele>141</ele>
        <time>2022-10-23T09:35:48.492Z</time>
      </trkpt>
      <trkpt lat="48.79326" lon="2.11535">
        <ele>142</ele>
        <time>2022-10-23T09:35:52.500Z</time>
      </trkpt>
      <trkpt lat="48.79333" lon="2.11542">
        <ele>143</ele>
        <time>2022-10-23T09:35:56.501Z</time>
      </trkpt>
      <trkpt lat="48.79347" lon="2.11553">
        <ele>139</ele>
        <time>2022-10-23T09:36:01.498Z</time>
      </trkpt>
      <trkpt lat="48.79353" lon="2.11554">
        <ele>139</ele>
        <time>2022-10-23T09:36:28.496Z</time>
      </trkpt>
      <trkpt lat="48.79353" lon="2.11554">
        <ele>139</ele>
        <time>2022-10-23T09:36:33.490Z</time>
      </trkpt>
      <trkpt lat="48.79348" lon="2.11555">
        <ele>139</ele>
        <time>2022-10-23T09:36:38.477Z</time>
      </trkpt>
      <trkpt lat="48.79345" lon="2.11554">
        <ele>143</ele>
        <time>2022-10-23T09:36:42.501Z</time>
      </trkpt>
      <trkpt lat="48.79336" lon="2.11549">
        <ele>143</ele>
        <time>2022-10-23T09:36:47.493Z</time>
      </trkpt>
      <trkpt lat="48.79337" lon="2.11554">
        <ele>143</ele>
        <time>2022-10-23T09:36:57.481Z</time>
      </trkpt>
      <trkpt lat="48.79337" lon="2.11553">
        <ele>143</ele>
        <time>2022-10-23T09:37:01.491Z</time>
      </trkpt>
      <trkpt lat="48.79336" lon="2.11553">
        <ele>143</ele>
        <time>2022-10-23T09:37:06.476Z</time>
      </trkpt>
      <trkpt lat="48.79336" lon="2.11546">
        <ele>143</ele>
        <time>2022-10-23T09:37:10.485Z</time>
      </trkpt>
      <trkpt lat="48.79334" lon="2.11541">
        <ele>142</ele>
        <time>2022-10-23T09:37:14.489Z</time>
      </trkpt>
      <trkpt lat="48.79318" lon="2.11539">
        <ele>141</ele>
        <time>2022-10-23T09:37:41.487Z</time>
      </trkpt>
      <trkpt lat="48.79318" lon="2.1154">
        <ele>141</ele>
        <time>2022-10-23T09:37:46.499Z</time>
      </trkpt>
      <trkpt lat="48.79317" lon="2.11541">
        <ele>141</ele>
        <time>2022-10-23T09:37:50.504Z</time>
      </trkpt>
      <trkpt lat="48.79314" lon="2.11546">
        <ele>142</ele>
        <time>2022-10-23T09:37:55.489Z</time>
      </trkpt>
      <trkpt lat="48.79305" lon="2.11545">
        <ele>142</ele>
        <time>2022-10-23T09:38:00.483Z</time>
      </trkpt>
      <trkpt lat="48.79308" lon="2.1155">
        <ele>142</ele>
        <time>2022-10-23T09:38:04.504Z</time>
      </trkpt>
      <trkpt lat="48.79302" lon="2.1154">
        <ele>141</ele>
        <time>2022-10-23T09:38:08.507Z</time>
      </trkpt>
      <trkpt lat="48.79299" lon="2.11534">
        <ele>141</ele>
        <time>2022-10-23T09:38:13.488Z</time>
      </trkpt>
      <trkpt lat="48.793" lon="2.1153">
        <ele>141</ele>
        <time>2022-10-23T09:38:17.497Z</time>
      </trkpt>
      <trkpt lat="48.79298" lon="2.11525">
        <ele>141</ele>
        <time>2022-10-23T09:39:27.488Z</time>
      </trkpt>
      <trkpt lat="48.79297" lon="2.11526">
        <ele>141</ele>
        <time>2022-10-23T09:39:32.510Z</time>
      </trkpt>
      <trkpt lat="48.79296" lon="2.11522">
        <ele>141</ele>
        <time>2022-10-23T09:39:36.514Z</time>
      </trkpt>
      <trkpt lat="48.79289" lon="2.11517">
        <ele>138</ele>
        <time>2022-10-23T09:39:41.507Z</time>
      </trkpt>
      <trkpt lat="48.79286" lon="2.11515">
        <ele>138</ele>
        <time>2022-10-23T09:39:45.513Z</time>
      </trkpt>
      <trkpt lat="48.79285" lon="2.11516">
        <ele>138</ele>
        <time>2022-10-23T09:39:50.525Z</time>
      </trkpt>
      <trkpt lat="48.79284" lon="2.11514">
        <ele>138</ele>
        <time>2022-10-23T09:39:55.482Z</time>
      </trkpt>
      <trkpt lat="48.79282" lon="2.11511">
        <ele>138</ele>
        <time>2022-10-23T09:39:59.503Z</time>
      </trkpt>
      <trkpt lat="48.7928" lon="2.11507">
        <ele>138</ele>
        <time>2022-10-23T09:40:03.521Z</time>
      </trkpt>
      <trkpt lat="48.79273" lon="2.11505">
        <ele>138</ele>
        <time>2022-10-23T09:40:08.499Z</time>
      </trkpt>
      <trkpt lat="48.79269" lon="2.11503">
        <ele>138</ele>
        <time>2022-10-23T09:40:12.512Z</time>
      </trkpt>
      <trkpt lat="48.79263" lon="2.115">
        <ele>138</ele>
        <time>2022-10-23T09:40:17.532Z</time>
      </trkpt>
      <trkpt lat="48.79258" lon="2.11493">
        <ele>138</ele>
        <time>2022-10-23T09:40:22.524Z</time>
      </trkpt>
      <trkpt lat="48.79254" lon="2.11486">
        <ele>139</ele>
        <time>2022-10-23T09:40:27.493Z</time>
      </trkpt>
      <trkpt lat="48.79253" lon="2.11479">
        <ele>139</ele>
        <time>2022-10-23T09:40:31.518Z</time>
      </trkpt>
      <trkpt lat="48.79251" lon="2.1147">
        <ele>139</ele>
        <time>2022-10-23T09:40:36.516Z</time>
      </trkpt>
      <trkpt lat="48.79249" lon="2.11464">
        <ele>139</ele>
        <time>2022-10-23T09:40:40.531Z</time>
      </trkpt>
      <trkpt lat="48.79248" lon="2.11458">
        <ele>141</ele>
        <time>2022-10-23T09:40:44.528Z</time>
      </trkpt>
      <trkpt lat="48.79249" lon="2.11449">
        <ele>141</ele>
        <time>2022-10-23T09:40:49.518Z</time>
      </trkpt>
      <trkpt lat="48.79251" lon="2.11438">
        <ele>141</ele>
        <time>2022-10-23T09:40:54.530Z</time>
      </trkpt>
      <trkpt lat="48.79251" lon="2.1143">
        <ele>143</ele>
        <time>2022-10-23T09:40:58.538Z</time>
      </trkpt>
      <trkpt lat="48.79252" lon="2.11424">
        <ele>143</ele>
        <time>2022-10-23T09:41:03.522Z</time>
      </trkpt>
      <trkpt lat="48.79252" lon="2.11417">
        <ele>143</ele>
        <time>2022-10-23T09:41:07.535Z</time>
      </trkpt>
      <trkpt lat="48.79253" lon="2.11409">
        <ele>143</ele>
        <time>2022-10-23T09:41:12.531Z</time>
      </trkpt>
      <trkpt lat="48.79255" lon="2.114">
        <ele>146</ele>
        <time>2022-10-23T09:41:17.528Z</time>
      </trkpt>
      <trkpt lat="48.79256" lon="2.11393">
        <ele>146</ele>
        <time>2022-10-23T09:41:21.554Z</time>
      </trkpt>
      <trkpt lat="48.79257" lon="2.11384">
        <ele>146</ele>
        <time>2022-10-23T09:41:26.522Z</time>
      </trkpt>
      <trkpt lat="48.79258" lon="2.11377">
        <ele>146</ele>
        <time>2022-10-23T09:41:30.556Z</time>
      </trkpt>
      <trkpt lat="48.7926" lon="2.11369">
        <ele>149</ele>
        <time>2022-10-23T09:41:35.539Z</time>
      </trkpt>
      <trkpt lat="48.79261" lon="2.11362">
        <ele>149</ele>
        <time>2022-10-23T09:41:40.539Z</time>
      </trkpt>
      <trkpt lat="48.79263" lon="2.11352">
        <ele>149</ele>
        <time>2022-10-23T09:41:45.525Z</time>
      </trkpt>
      <trkpt lat="48.79264" lon="2.11345">
        <ele>153</ele>
        <time>2022-10-23T09:41:49.527Z</time>
      </trkpt>
      <trkpt lat="48.79266" lon="2.11337">
        <ele>153</ele>
        <time>2022-10-23T09:41:53.536Z</time>
      </trkpt>
      <trkpt lat="48.79267" lon="2.1133">
        <ele>153</ele>
        <time>2022-10-23T09:41:58.538Z</time>
      </trkpt>
      <trkpt lat="48.79269" lon="2.1132">
        <ele>153</ele>
        <time>2022-10-23T09:42:03.524Z</time>
      </trkpt>
      <trkpt lat="48.79272" lon="2.11313">
        <ele>158</ele>
        <time>2022-10-23T09:42:07.524Z</time>
      </trkpt>
      <trkpt lat="48.79275" lon="2.11307">
        <ele>158</ele>
        <time>2022-10-23T09:42:11.533Z</time>
      </trkpt>
      <trkpt lat="48.79278" lon="2.11298">
        <ele>158</ele>
        <time>2022-10-23T09:42:16.527Z</time>
      </trkpt>
      <trkpt lat="48.79278" lon="2.11293">
        <ele>158</ele>
        <time>2022-10-23T09:42:20.536Z</time>
      </trkpt>
      <trkpt lat="48.7928" lon="2.11288">
        <ele>160</ele>
        <time>2022-10-23T09:42:25.527Z</time>
      </trkpt>
      <trkpt lat="48.79282" lon="2.1128">
        <ele>160</ele>
        <time>2022-10-23T09:42:29.529Z</time>
      </trkpt>
      <trkpt lat="48.79285" lon="2.11272">
        <ele>160</ele>
        <time>2022-10-23T09:42:34.533Z</time>
      </trkpt>
      <trkpt lat="48.79289" lon="2.11264">
        <ele>164</ele>
        <time>2022-10-23T09:42:39.529Z</time>
      </trkpt>
      <trkpt lat="48.79291" lon="2.11256">
        <ele>164</ele>
        <time>2022-10-23T09:42:43.533Z</time>
      </trkpt>
      <trkpt lat="48.79291" lon="2.11249">
        <ele>164</ele>
        <time>2022-10-23T09:42:48.542Z</time>
      </trkpt>
      <trkpt lat="48.79293" lon="2.1124">
        <ele>158</ele>
        <time>2022-10-23T09:42:53.503Z</time>
      </trkpt>
      <trkpt lat="48.79295" lon="2.11233">
        <ele>161</ele>
        <time>2022-10-23T09:42:57.522Z</time>
      </trkpt>
      <trkpt lat="48.79296" lon="2.11227">
        <ele>161</ele>
        <time>2022-10-23T09:43:01.533Z</time>
      </trkpt>
      <trkpt lat="48.79298" lon="2.11218">
        <ele>161</ele>
        <time>2022-10-23T09:43:06.532Z</time>
      </trkpt>
      <trkpt lat="48.793" lon="2.11207">
        <ele>163</ele>
        <time>2022-10-23T09:43:11.532Z</time>
      </trkpt>
      <trkpt lat="48.79303" lon="2.11197">
        <ele>163</ele>
        <time>2022-10-23T09:43:16.528Z</time>
      </trkpt>
      <trkpt lat="48.79304" lon="2.1119">
        <ele>163</ele>
        <time>2022-10-23T09:43:20.537Z</time>
      </trkpt>
      <trkpt lat="48.79307" lon="2.11181">
        <ele>163</ele>
        <time>2022-10-23T09:43:25.535Z</time>
      </trkpt>
      <trkpt lat="48.79308" lon="2.11172">
        <ele>163</ele>
        <time>2022-10-23T09:43:30.526Z</time>
      </trkpt>
      <trkpt lat="48.79307" lon="2.11162">
        <ele>163</ele>
        <time>2022-10-23T09:43:35.520Z</time>
      </trkpt>
      <trkpt lat="48.79307" lon="2.11154">
        <ele>163</ele>
        <time>2022-10-23T09:43:40.545Z</time>
      </trkpt>
      <trkpt lat="48.79307" lon="2.11145">
        <ele>166</ele>
        <time>2022-10-23T09:43:45.511Z</time>
      </trkpt>
      <trkpt lat="48.79308" lon="2.11138">
        <ele>166</ele>
        <time>2022-10-23T09:43:49.531Z</time>
      </trkpt>
      <trkpt lat="48.79311" lon="2.1113">
        <ele>166</ele>
        <time>2022-10-23T09:43:53.539Z</time>
      </trkpt>
      <trkpt lat="48.79315" lon="2.11122">
        <ele>169</ele>
        <time>2022-10-23T09:43:58.538Z</time>
      </trkpt>
      <trkpt lat="48.79318" lon="2.11115">
        <ele>169</ele>
        <time>2022-10-23T09:44:03.527Z</time>
      </trkpt>
      <trkpt lat="48.79322" lon="2.11108">
        <ele>162</ele>
        <time>2022-10-23T09:44:08.540Z</time>
      </trkpt>
      <trkpt lat="48.79326" lon="2.11101">
        <ele>162</ele>
        <time>2022-10-23T09:44:13.534Z</time>
      </trkpt>
      <trkpt lat="48.7933" lon="2.11095">
        <ele>167</ele>
        <time>2022-10-23T09:44:18.533Z</time>
      </trkpt>
      <trkpt lat="48.79334" lon="2.11089">
        <ele>167</ele>
        <time>2022-10-23T09:44:23.510Z</time>
      </trkpt>
      <trkpt lat="48.79337" lon="2.11085">
        <ele>167</ele>
        <time>2022-10-23T09:44:27.526Z</time>
      </trkpt>
      <trkpt lat="48.79342" lon="2.11078">
        <ele>167</ele>
        <time>2022-10-23T09:44:32.522Z</time>
      </trkpt>
      <trkpt lat="48.79345" lon="2.11072">
        <ele>167</ele>
        <time>2022-10-23T09:44:36.524Z</time>
      </trkpt>
      <trkpt lat="48.79348" lon="2.11067">
        <ele>165</ele>
        <time>2022-10-23T09:44:40.542Z</time>
      </trkpt>
      <trkpt lat="48.79352" lon="2.1106">
        <ele>165</ele>
        <time>2022-10-23T09:44:45.528Z</time>
      </trkpt>
      <trkpt lat="48.79354" lon="2.11055">
        <ele>165</ele>
        <time>2022-10-23T09:44:49.539Z</time>
      </trkpt>
      <trkpt lat="48.79356" lon="2.11047">
        <ele>165</ele>
        <time>2022-10-23T09:44:54.546Z</time>
      </trkpt>
      <trkpt lat="48.79357" lon="2.11039">
        <ele>168</ele>
        <time>2022-10-23T09:44:59.536Z</time>
      </trkpt>
      <trkpt lat="48.79356" lon="2.11028">
        <ele>168</ele>
        <time>2022-10-23T09:45:04.531Z</time>
      </trkpt>
      <trkpt lat="48.79353" lon="2.11018">
        <ele>168</ele>
        <time>2022-10-23T09:45:09.524Z</time>
      </trkpt>
      <trkpt lat="48.7935" lon="2.11013">
        <ele>169</ele>
        <time>2022-10-23T09:45:13.541Z</time>
      </trkpt>
      <trkpt lat="48.79347" lon="2.11006">
        <ele>176</ele>
        <time>2022-10-23T09:45:18.533Z</time>
      </trkpt>
      <trkpt lat="48.79344" lon="2.10999">
        <ele>176</ele>
        <time>2022-10-23T09:45:23.532Z</time>
      </trkpt>
      <trkpt lat="48.7934" lon="2.10993">
        <ele>176</ele>
        <time>2022-10-23T09:45:32.510Z</time>
      </trkpt>
      <trkpt lat="48.7934" lon="2.10992">
        <ele>176</ele>
        <time>2022-10-23T09:45:36.518Z</time>
      </trkpt>
      <trkpt lat="48.79339" lon="2.10988">
        <ele>176</ele>
        <time>2022-10-23T09:45:41.523Z</time>
      </trkpt>
      <trkpt lat="48.7934" lon="2.10981">
        <ele>176</ele>
        <time>2022-10-23T09:45:46.545Z</time>
      </trkpt>
      <trkpt lat="48.79342" lon="2.10975">
        <ele>176</ele>
        <time>2022-10-23T09:45:51.503Z</time>
      </trkpt>
      <trkpt lat="48.79345" lon="2.10967">
        <ele>176</ele>
        <time>2022-10-23T09:45:56.525Z</time>
      </trkpt>
      <trkpt lat="48.79348" lon="2.1096">
        <ele>168</ele>
        <time>2022-10-23T09:46:00.535Z</time>
      </trkpt>
      <trkpt lat="48.79352" lon="2.1095">
        <ele>169</ele>
        <time>2022-10-23T09:46:05.500Z</time>
      </trkpt>
      <trkpt lat="48.79356" lon="2.10941">
        <ele>169</ele>
        <time>2022-10-23T09:46:10.505Z</time>
      </trkpt>
      <trkpt lat="48.7936" lon="2.10939">
        <ele>169</ele>
        <time>2022-10-23T09:46:15.499Z</time>
      </trkpt>
      <trkpt lat="48.79363" lon="2.10935">
        <ele>169</ele>
        <time>2022-10-23T09:46:19.503Z</time>
      </trkpt>
      <trkpt lat="48.79368" lon="2.10929">
        <ele>171</ele>
        <time>2022-10-23T09:46:24.489Z</time>
      </trkpt>
      <trkpt lat="48.79371" lon="2.10924">
        <ele>171</ele>
        <time>2022-10-23T09:46:28.524Z</time>
      </trkpt>
      <trkpt lat="48.79374" lon="2.10918">
        <ele>171</ele>
        <time>2022-10-23T09:46:33.516Z</time>
      </trkpt>
      <trkpt lat="48.79379" lon="2.10911">
        <ele>165</ele>
        <time>2022-10-23T09:46:38.503Z</time>
      </trkpt>
      <trkpt lat="48.79384" lon="2.10903">
        <ele>165</ele>
        <time>2022-10-23T09:46:43.511Z</time>
      </trkpt>
      <trkpt lat="48.79389" lon="2.10898">
        <ele>169</ele>
        <time>2022-10-23T09:46:48.523Z</time>
      </trkpt>
      <trkpt lat="48.79393" lon="2.10892">
        <ele>169</ele>
        <time>2022-10-23T09:46:53.499Z</time>
      </trkpt>
      <trkpt lat="48.79397" lon="2.10888">
        <ele>169</ele>
        <time>2022-10-23T09:46:57.536Z</time>
      </trkpt>
      <trkpt lat="48.79402" lon="2.10882">
        <ele>169</ele>
        <time>2022-10-23T09:47:02.540Z</time>
      </trkpt>
      <trkpt lat="48.79405" lon="2.10878">
        <ele>165</ele>
        <time>2022-10-23T09:47:07.533Z</time>
      </trkpt>
      <trkpt lat="48.79412" lon="2.10872">
        <ele>170</ele>
        <time>2022-10-23T09:47:12.529Z</time>
      </trkpt>
      <trkpt lat="48.79417" lon="2.10862">
        <ele>170</ele>
        <time>2022-10-23T09:47:17.500Z</time>
      </trkpt>
      <trkpt lat="48.79421" lon="2.10858">
        <ele>170</ele>
        <time>2022-10-23T09:47:21.527Z</time>
      </trkpt>
      <trkpt lat="48.79425" lon="2.10852">
        <ele>170</ele>
        <time>2022-10-23T09:47:26.517Z</time>
      </trkpt>
      <trkpt lat="48.7943" lon="2.10846">
        <ele>173</ele>
        <time>2022-10-23T09:47:30.545Z</time>
      </trkpt>
      <trkpt lat="48.79436" lon="2.10839">
        <ele>175</ele>
        <time>2022-10-23T09:47:35.529Z</time>
      </trkpt>
      <trkpt lat="48.7944" lon="2.10835">
        <ele>175</ele>
        <time>2022-10-23T09:47:40.507Z</time>
      </trkpt>
      <trkpt lat="48.79445" lon="2.10833">
        <ele>175</ele>
        <time>2022-10-23T09:47:44.517Z</time>
      </trkpt>
      <trkpt lat="48.7945" lon="2.10827">
        <ele>175</ele>
        <time>2022-10-23T09:47:49.492Z</time>
      </trkpt>
      <trkpt lat="48.79454" lon="2.10823">
        <ele>175</ele>
        <time>2022-10-23T09:47:53.496Z</time>
      </trkpt>
      <trkpt lat="48.79455" lon="2.10829">
        <ele>175</ele>
        <time>2022-10-23T09:47:58.496Z</time>
      </trkpt>
      <trkpt lat="48.79462" lon="2.10827">
        <ele>170</ele>
        <time>2022-10-23T09:48:03.495Z</time>
      </trkpt>
      <trkpt lat="48.79478" lon="2.10832">
        <ele>170</ele>
        <time>2022-10-23T09:49:24.497Z</time>
      </trkpt>
      <trkpt lat="48.79479" lon="2.10831">
        <ele>170</ele>
        <time>2022-10-23T09:49:28.504Z</time>
      </trkpt>
      <trkpt lat="48.79479" lon="2.10831">
        <ele>170</ele>
        <time>2022-10-23T09:49:33.498Z</time>
      </trkpt>
      <trkpt lat="48.79479" lon="2.10831">
        <ele>170</ele>
        <time>2022-10-23T09:49:37.496Z</time>
      </trkpt>
      <trkpt lat="48.7948" lon="2.10831">
        <ele>170</ele>
        <time>2022-10-23T09:49:42.499Z</time>
      </trkpt>
      <trkpt lat="48.79482" lon="2.10826">
        <ele>170</ele>
        <time>2022-10-23T09:51:16.497Z</time>
      </trkpt>
      <trkpt lat="48.79478" lon="2.10824">
        <ele>170</ele>
        <time>2022-10-23T09:51:20.506Z</time>
      </trkpt>
      <trkpt lat="48.79478" lon="2.10818">
        <ele>171</ele>
        <time>2022-10-23T09:51:25.492Z</time>
      </trkpt>
      <trkpt lat="48.79476" lon="2.10811">
        <ele>171</ele>
        <time>2022-10-23T09:51:29.501Z</time>
      </trkpt>
      <trkpt lat="48.79474" lon="2.10805">
        <ele>171</ele>
        <time>2022-10-23T09:51:33.494Z</time>
      </trkpt>
      <trkpt lat="48.79471" lon="2.10799">
        <ele>171</ele>
        <time>2022-10-23T09:51:46.513Z</time>
      </trkpt>
      <trkpt lat="48.79464" lon="2.10799">
        <ele>171</ele>
        <time>2022-10-23T09:51:51.503Z</time>
      </trkpt>
      <trkpt lat="48.79461" lon="2.10799">
        <ele>171</ele>
        <time>2022-10-23T09:51:56.498Z</time>
      </trkpt>
      <trkpt lat="48.79458" lon="2.10802">
        <ele>177</ele>
        <time>2022-10-23T09:52:00.511Z</time>
      </trkpt>
      <trkpt lat="48.79453" lon="2.10801">
        <ele>177</ele>
        <time>2022-10-23T09:52:05.511Z</time>
      </trkpt>
      <trkpt lat="48.79449" lon="2.10799">
        <ele>177</ele>
        <time>2022-10-23T09:52:10.500Z</time>
      </trkpt>
      <trkpt lat="48.79447" lon="2.10795">
        <ele>177</ele>
        <time>2022-10-23T09:52:15.499Z</time>
      </trkpt>
      <trkpt lat="48.79442" lon="2.10791">
        <ele>176</ele>
        <time>2022-10-23T09:52:20.496Z</time>
      </trkpt>
      <trkpt lat="48.79438" lon="2.10789">
        <ele>176</ele>
        <time>2022-10-23T09:52:24.503Z</time>
      </trkpt>
      <trkpt lat="48.79436" lon="2.10785">
        <ele>176</ele>
        <time>2022-10-23T09:52:28.521Z</time>
      </trkpt>
      <trkpt lat="48.79431" lon="2.10781">
        <ele>176</ele>
        <time>2022-10-23T09:52:33.526Z</time>
      </trkpt>
      <trkpt lat="48.79425" lon="2.10778">
        <ele>175</ele>
        <time>2022-10-23T09:52:38.522Z</time>
      </trkpt>
      <trkpt lat="48.79421" lon="2.10776">
        <ele>175</ele>
        <time>2022-10-23T09:52:43.499Z</time>
      </trkpt>
      <trkpt lat="48.79415" lon="2.10773">
        <ele>175</ele>
        <time>2022-10-23T09:52:48.514Z</time>
      </trkpt>
      <trkpt lat="48.79409" lon="2.10771">
        <ele>175</ele>
        <time>2022-10-23T09:52:53.517Z</time>
      </trkpt>
      <trkpt lat="48.79404" lon="2.10766">
        <ele>175</ele>
        <time>2022-10-23T09:52:58.498Z</time>
      </trkpt>
      <trkpt lat="48.79401" lon="2.10765">
        <ele>174</ele>
        <time>2022-10-23T09:53:02.511Z</time>
      </trkpt>
      <trkpt lat="48.79396" lon="2.10763">
        <ele>173</ele>
        <time>2022-10-23T09:53:06.523Z</time>
      </trkpt>
      <trkpt lat="48.79389" lon="2.10758">
        <ele>173</ele>
        <time>2022-10-23T09:53:11.498Z</time>
      </trkpt>
      <trkpt lat="48.79385" lon="2.10751">
        <ele>173</ele>
        <time>2022-10-23T09:53:15.505Z</time>
      </trkpt>
      <trkpt lat="48.79381" lon="2.10744">
        <ele>173</ele>
        <time>2022-10-23T09:53:19.516Z</time>
      </trkpt>
      <trkpt lat="48.79373" lon="2.10737">
        <ele>174</ele>
        <time>2022-10-23T09:53:24.496Z</time>
      </trkpt>
      <trkpt lat="48.79367" lon="2.10732">
        <ele>173</ele>
        <time>2022-10-23T09:53:28.519Z</time>
      </trkpt>
      <trkpt lat="48.79363" lon="2.10727">
        <ele>173</ele>
        <time>2022-10-23T09:53:33.506Z</time>
      </trkpt>
      <trkpt lat="48.79358" lon="2.10723">
        <ele>173</ele>
        <time>2022-10-23T09:53:37.517Z</time>
      </trkpt>
      <trkpt lat="48.79352" lon="2.10717">
        <ele>173</ele>
        <time>2022-10-23T09:53:42.530Z</time>
      </trkpt>
      <trkpt lat="48.79347" lon="2.10708">
        <ele>179</ele>
        <time>2022-10-23T09:53:47.523Z</time>
      </trkpt>
      <trkpt lat="48.79344" lon="2.10699">
        <ele>179</ele>
        <time>2022-10-23T09:53:52.518Z</time>
      </trkpt>
      <trkpt lat="48.79343" lon="2.10694">
        <ele>179</ele>
        <time>2022-10-23T09:53:56.532Z</time>
      </trkpt>
      <trkpt lat="48.79347" lon="2.10686">
        <ele>179</ele>
        <time>2022-10-23T09:54:01.510Z</time>
      </trkpt>
      <trkpt lat="48.79352" lon="2.10678">
        <ele>177</ele>
        <time>2022-10-23T09:54:06.510Z</time>
      </trkpt>
      <trkpt lat="48.79356" lon="2.10672">
        <ele>177</ele>
        <time>2022-10-23T09:54:10.530Z</time>
      </trkpt>
      <trkpt lat="48.79359" lon="2.10663">
        <ele>177</ele>
        <time>2022-10-23T09:54:15.503Z</time>
      </trkpt>
      <trkpt lat="48.7936" lon="2.10656">
        <ele>177</ele>
        <time>2022-10-23T09:54:19.511Z</time>
      </trkpt>
      <trkpt lat="48.79358" lon="2.10646">
        <ele>176</ele>
        <time>2022-10-23T09:54:24.524Z</time>
      </trkpt>
      <trkpt lat="48.79354" lon="2.10638">
        <ele>176</ele>
        <time>2022-10-23T09:54:28.527Z</time>
      </trkpt>
      <trkpt lat="48.79353" lon="2.10629">
        <ele>176</ele>
        <time>2022-10-23T09:54:33.513Z</time>
      </trkpt>
      <trkpt lat="48.79354" lon="2.10621">
        <ele>175</ele>
        <time>2022-10-23T09:54:38.550Z</time>
      </trkpt>
      <trkpt lat="48.79356" lon="2.10612">
        <ele>175</ele>
        <time>2022-10-23T09:54:43.517Z</time>
      </trkpt>
      <trkpt lat="48.79359" lon="2.10603">
        <ele>175</ele>
        <time>2022-10-23T09:54:48.520Z</time>
      </trkpt>
      <trkpt lat="48.79362" lon="2.10597">
        <ele>175</ele>
        <time>2022-10-23T09:54:52.550Z</time>
      </trkpt>
      <trkpt lat="48.79365" lon="2.10592">
        <ele>175</ele>
        <time>2022-10-23T09:54:56.555Z</time>
      </trkpt>
      <trkpt lat="48.7937" lon="2.10584">
        <ele>175</ele>
        <time>2022-10-23T09:55:01.503Z</time>
      </trkpt>
      <trkpt lat="48.79373" lon="2.10575">
        <ele>175</ele>
        <time>2022-10-23T09:55:06.547Z</time>
      </trkpt>
      <trkpt lat="48.79376" lon="2.10565">
        <ele>169</ele>
        <time>2022-10-23T09:55:11.508Z</time>
      </trkpt>
      <trkpt lat="48.79378" lon="2.10558">
        <ele>169</ele>
        <time>2022-10-23T09:55:15.517Z</time>
      </trkpt>
      <trkpt lat="48.79383" lon="2.10552">
        <ele>169</ele>
        <time>2022-10-23T09:55:20.541Z</time>
      </trkpt>
      <trkpt lat="48.79387" lon="2.10548">
        <ele>169</ele>
        <time>2022-10-23T09:55:25.510Z</time>
      </trkpt>
      <trkpt lat="48.79392" lon="2.10544">
        <ele>169</ele>
        <time>2022-10-23T09:55:30.555Z</time>
      </trkpt>
      <trkpt lat="48.79397" lon="2.1054">
        <ele>169</ele>
        <time>2022-10-23T09:55:35.506Z</time>
      </trkpt>
      <trkpt lat="48.79401" lon="2.10538">
        <ele>169</ele>
        <time>2022-10-23T09:55:40.516Z</time>
      </trkpt>
      <trkpt lat="48.79406" lon="2.10536">
        <ele>163</ele>
        <time>2022-10-23T09:55:44.542Z</time>
      </trkpt>
      <trkpt lat="48.7941" lon="2.10534">
        <ele>163</ele>
        <time>2022-10-23T09:55:49.496Z</time>
      </trkpt>
      <trkpt lat="48.79415" lon="2.10535">
        <ele>163</ele>
        <time>2022-10-23T09:55:53.498Z</time>
      </trkpt>
      <trkpt lat="48.79419" lon="2.10535">
        <ele>163</ele>
        <time>2022-10-23T09:55:58.542Z</time>
      </trkpt>
      <trkpt lat="48.79424" lon="2.10533">
        <ele>163</ele>
        <time>2022-10-23T09:56:03.499Z</time>
      </trkpt>
      <trkpt lat="48.79426" lon="2.10531">
        <ele>163</ele>
        <time>2022-10-23T09:56:07.511Z</time>
      </trkpt>
      <trkpt lat="48.79431" lon="2.10527">
        <ele>162</ele>
        <time>2022-10-23T09:56:12.536Z</time>
      </trkpt>
      <trkpt lat="48.79435" lon="2.10523">
        <ele>162</ele>
        <time>2022-10-23T09:56:16.543Z</time>
      </trkpt>
      <trkpt lat="48.79441" lon="2.10519">
        <ele>162</ele>
        <time>2022-10-23T09:56:21.500Z</time>
      </trkpt>
      <trkpt lat="48.79445" lon="2.10517">
        <ele>162</ele>
        <time>2022-10-23T09:56:25.508Z</time>
      </trkpt>
      <trkpt lat="48.79451" lon="2.10514">
        <ele>161</ele>
        <time>2022-10-23T09:56:30.553Z</time>
      </trkpt>
      <trkpt lat="48.79457" lon="2.10513">
        <ele>161</ele>
        <time>2022-10-23T09:56:35.515Z</time>
      </trkpt>
      <trkpt lat="48.79462" lon="2.10511">
        <ele>158</ele>
        <time>2022-10-23T09:56:40.529Z</time>
      </trkpt>
      <trkpt lat="48.79467" lon="2.10509">
        <ele>158</ele>
        <time>2022-10-23T09:56:44.544Z</time>
      </trkpt>
      <trkpt lat="48.79473" lon="2.10505">
        <ele>158</ele>
        <time>2022-10-23T09:56:49.524Z</time>
      </trkpt>
      <trkpt lat="48.7948" lon="2.10502">
        <ele>158</ele>
        <time>2022-10-23T09:56:54.544Z</time>
      </trkpt>
      <trkpt lat="48.79485" lon="2.10501">
        <ele>158</ele>
        <time>2022-10-23T09:56:59.521Z</time>
      </trkpt>
      <trkpt lat="48.79491" lon="2.10502">
        <ele>155</ele>
        <time>2022-10-23T09:57:04.543Z</time>
      </trkpt>
      <trkpt lat="48.79497" lon="2.105">
        <ele>155</ele>
        <time>2022-10-23T09:57:09.516Z</time>
      </trkpt>
      <trkpt lat="48.79502" lon="2.10496">
        <ele>155</ele>
        <time>2022-10-23T09:57:13.520Z</time>
      </trkpt>
      <trkpt lat="48.79506" lon="2.10486">
        <ele>155</ele>
        <time>2022-10-23T09:57:18.539Z</time>
      </trkpt>
      <trkpt lat="48.79506" lon="2.10476">
        <ele>154</ele>
        <time>2022-10-23T09:57:23.529Z</time>
      </trkpt>
      <trkpt lat="48.79508" lon="2.10468">
        <ele>154</ele>
        <time>2022-10-23T09:57:28.541Z</time>
      </trkpt>
      <trkpt lat="48.79507" lon="2.10463">
        <ele>154</ele>
        <time>2022-10-23T09:57:32.545Z</time>
      </trkpt>
      <trkpt lat="48.79505" lon="2.10457">
        <ele>152</ele>
        <time>2022-10-23T09:57:37.531Z</time>
      </trkpt>
      <trkpt lat="48.79502" lon="2.10449">
        <ele>152</ele>
        <time>2022-10-23T09:57:42.549Z</time>
      </trkpt>
      <trkpt lat="48.795" lon="2.1044">
        <ele>152</ele>
        <time>2022-10-23T09:57:47.516Z</time>
      </trkpt>
      <trkpt lat="48.79498" lon="2.10434">
        <ele>152</ele>
        <time>2022-10-23T09:57:51.523Z</time>
      </trkpt>
      <trkpt lat="48.79498" lon="2.10426">
        <ele>152</ele>
        <time>2022-10-23T09:57:55.526Z</time>
      </trkpt>
      <trkpt lat="48.79497" lon="2.10418">
        <ele>152</ele>
        <time>2022-10-23T09:58:00.543Z</time>
      </trkpt>
      <trkpt lat="48.79497" lon="2.1041">
        <ele>152</ele>
        <time>2022-10-23T09:58:05.521Z</time>
      </trkpt>
      <trkpt lat="48.79497" lon="2.10401">
        <ele>151</ele>
        <time>2022-10-23T09:58:10.535Z</time>
      </trkpt>
      <trkpt lat="48.79497" lon="2.10395">
        <ele>151</ele>
        <time>2022-10-23T09:58:14.560Z</time>
      </trkpt>
      <trkpt lat="48.79499" lon="2.10386">
        <ele>151</ele>
        <time>2022-10-23T09:58:19.521Z</time>
      </trkpt>
      <trkpt lat="48.79501" lon="2.10377">
        <ele>151</ele>
        <time>2022-10-23T09:58:24.534Z</time>
      </trkpt>
      <trkpt lat="48.79503" lon="2.10371">
        <ele>150</ele>
        <time>2022-10-23T09:58:29.532Z</time>
      </trkpt>
      <trkpt lat="48.79504" lon="2.10364">
        <ele>150</ele>
        <time>2022-10-23T09:58:33.539Z</time>
      </trkpt>
      <trkpt lat="48.79507" lon="2.10357">
        <ele>150</ele>
        <time>2022-10-23T09:58:38.537Z</time>
      </trkpt>
      <trkpt lat="48.7951" lon="2.10346">
        <ele>150</ele>
        <time>2022-10-23T09:58:43.532Z</time>
      </trkpt>
      <trkpt lat="48.79512" lon="2.10339">
        <ele>150</ele>
        <time>2022-10-23T09:58:48.528Z</time>
      </trkpt>
      <trkpt lat="48.79514" lon="2.10331">
        <ele>150</ele>
        <time>2022-10-23T09:58:53.509Z</time>
      </trkpt>
      <trkpt lat="48.79514" lon="2.1032">
        <ele>147</ele>
        <time>2022-10-23T09:58:58.528Z</time>
      </trkpt>
      <trkpt lat="48.79514" lon="2.10311">
        <ele>147</ele>
        <time>2022-10-23T09:59:03.539Z</time>
      </trkpt>
      <trkpt lat="48.7951" lon="2.10303">
        <ele>149</ele>
        <time>2022-10-23T09:59:08.554Z</time>
      </trkpt>
      <trkpt lat="48.79506" lon="2.10295">
        <ele>149</ele>
        <time>2022-10-23T09:59:13.545Z</time>
      </trkpt>
      <trkpt lat="48.795" lon="2.10289">
        <ele>148</ele>
        <time>2022-10-23T09:59:18.524Z</time>
      </trkpt>
      <trkpt lat="48.79495" lon="2.10284">
        <ele>148</ele>
        <time>2022-10-23T09:59:22.549Z</time>
      </trkpt>
      <trkpt lat="48.7949" lon="2.10277">
        <ele>148</ele>
        <time>2022-10-23T09:59:27.523Z</time>
      </trkpt>
      <trkpt lat="48.79485" lon="2.10272">
        <ele>151</ele>
        <time>2022-10-23T09:59:31.539Z</time>
      </trkpt>
      <trkpt lat="48.79481" lon="2.10267">
        <ele>151</ele>
        <time>2022-10-23T09:59:35.534Z</time>
      </trkpt>
      <trkpt lat="48.79476" lon="2.10261">
        <ele>152</ele>
        <time>2022-10-23T09:59:40.543Z</time>
      </trkpt>
      <trkpt lat="48.79471" lon="2.10255">
        <ele>152</ele>
        <time>2022-10-23T09:59:45.523Z</time>
      </trkpt>
      <trkpt lat="48.79466" lon="2.10249">
        <ele>152</ele>
        <time>2022-10-23T09:59:49.529Z</time>
      </trkpt>
      <trkpt lat="48.7946" lon="2.10244">
        <ele>152</ele>
        <time>2022-10-23T09:59:54.546Z</time>
      </trkpt>
      <trkpt lat="48.79455" lon="2.10238">
        <ele>155</ele>
        <time>2022-10-23T09:59:59.536Z</time>
      </trkpt>
      <trkpt lat="48.79449" lon="2.10233">
        <ele>157</ele>
        <time>2022-10-23T10:00:04.495Z</time>
      </trkpt>
      <trkpt lat="48.79446" lon="2.10228">
        <ele>157</ele>
        <time>2022-10-23T10:00:08.514Z</time>
      </trkpt>
      <trkpt lat="48.79443" lon="2.10222">
        <ele>157</ele>
        <time>2022-10-23T10:00:13.516Z</time>
      </trkpt>
      <trkpt lat="48.79438" lon="2.10215">
        <ele>157</ele>
        <time>2022-10-23T10:00:18.513Z</time>
      </trkpt>
      <trkpt lat="48.79436" lon="2.10209">
        <ele>157</ele>
        <time>2022-10-23T10:00:22.526Z</time>
      </trkpt>
      <trkpt lat="48.79434" lon="2.10203">
        <ele>158</ele>
        <time>2022-10-23T10:00:27.500Z</time>
      </trkpt>
      <trkpt lat="48.79434" lon="2.10198">
        <ele>158</ele>
        <time>2022-10-23T10:00:31.520Z</time>
      </trkpt>
      <trkpt lat="48.79436" lon="2.10191">
        <ele>158</ele>
        <time>2022-10-23T10:00:36.531Z</time>
      </trkpt>
      <trkpt lat="48.79437" lon="2.10185">
        <ele>158</ele>
        <time>2022-10-23T10:00:41.513Z</time>
      </trkpt>
      <trkpt lat="48.79438" lon="2.10179">
        <ele>159</ele>
        <time>2022-10-23T10:00:45.529Z</time>
      </trkpt>
      <trkpt lat="48.79439" lon="2.10171">
        <ele>159</ele>
        <time>2022-10-23T10:00:50.550Z</time>
      </trkpt>
      <trkpt lat="48.7944" lon="2.10159">
        <ele>159</ele>
        <time>2022-10-23T10:00:55.523Z</time>
      </trkpt>
      <trkpt lat="48.79441" lon="2.10147">
        <ele>160</ele>
        <time>2022-10-23T10:01:00.536Z</time>
      </trkpt>
      <trkpt lat="48.79443" lon="2.10142">
        <ele>160</ele>
        <time>2022-10-23T10:01:04.537Z</time>
      </trkpt>
      <trkpt lat="48.79443" lon="2.10133">
        <ele>160</ele>
        <time>2022-10-23T10:01:09.534Z</time>
      </trkpt>
      <trkpt lat="48.79442" lon="2.10126">
        <ele>160</ele>
        <time>2022-10-23T10:01:13.543Z</time>
      </trkpt>
      <trkpt lat="48.79441" lon="2.10119">
        <ele>163</ele>
        <time>2022-10-23T10:01:18.533Z</time>
      </trkpt>
      <trkpt lat="48.79441" lon="2.10111">
        <ele>163</ele>
        <time>2022-10-23T10:01:23.522Z</time>
      </trkpt>
      <trkpt lat="48.79441" lon="2.10103">
        <ele>163</ele>
        <time>2022-10-23T10:01:27.532Z</time>
      </trkpt>
      <trkpt lat="48.79441" lon="2.10098">
        <ele>163</ele>
        <time>2022-10-23T10:01:32.539Z</time>
      </trkpt>
      <trkpt lat="48.79444" lon="2.10094">
        <ele>166</ele>
        <time>2022-10-23T10:01:37.505Z</time>
      </trkpt>
      <trkpt lat="48.79444" lon="2.10092">
        <ele>166</ele>
        <time>2022-10-23T10:01:41.532Z</time>
      </trkpt>
      <trkpt lat="48.79446" lon="2.10088">
        <ele>166</ele>
        <time>2022-10-23T10:01:46.553Z</time>
      </trkpt>
      <trkpt lat="48.79443" lon="2.10084">
        <ele>166</ele>
        <time>2022-10-23T10:01:51.529Z</time>
      </trkpt>
      <trkpt lat="48.79444" lon="2.10081">
        <ele>166</ele>
        <time>2022-10-23T10:01:56.546Z</time>
      </trkpt>
      <trkpt lat="48.79448" lon="2.10078">
        <ele>166</ele>
        <time>2022-10-23T10:02:01.526Z</time>
      </trkpt>
      <trkpt lat="48.79448" lon="2.10074">
        <ele>166</ele>
        <time>2022-10-23T10:02:05.532Z</time>
      </trkpt>
      <trkpt lat="48.7945" lon="2.10069">
        <ele>168</ele>
        <time>2022-10-23T10:02:10.505Z</time>
      </trkpt>
      <trkpt lat="48.79452" lon="2.10066">
        <ele>168</ele>
        <time>2022-10-23T10:02:14.552Z</time>
      </trkpt>
      <trkpt lat="48.79453" lon="2.10061">
        <ele>168</ele>
        <time>2022-10-23T10:02:19.540Z</time>
      </trkpt>
      <trkpt lat="48.79454" lon="2.10056">
        <ele>168</ele>
        <time>2022-10-23T10:02:24.544Z</time>
      </trkpt>
      <trkpt lat="48.79456" lon="2.1005">
        <ele>168</ele>
        <time>2022-10-23T10:02:29.544Z</time>
      </trkpt>
      <trkpt lat="48.79459" lon="2.10043">
        <ele>165</ele>
        <time>2022-10-23T10:02:34.540Z</time>
      </trkpt>
      <trkpt lat="48.7946" lon="2.10034">
        <ele>168</ele>
        <time>2022-10-23T10:02:39.489Z</time>
      </trkpt>
      <trkpt lat="48.79461" lon="2.10025">
        <ele>168</ele>
        <time>2022-10-23T10:02:44.498Z</time>
      </trkpt>
      <trkpt lat="48.7946" lon="2.1002">
        <ele>168</ele>
        <time>2022-10-23T10:02:49.491Z</time>
      </trkpt>
      <trkpt lat="48.79462" lon="2.10013">
        <ele>171</ele>
        <time>2022-10-23T10:02:53.492Z</time>
      </trkpt>
      <trkpt lat="48.79463" lon="2.10006">
        <ele>171</ele>
        <time>2022-10-23T10:02:57.493Z</time>
      </trkpt>
      <trkpt lat="48.79468" lon="2.09997">
        <ele>171</ele>
        <time>2022-10-23T10:03:02.489Z</time>
      </trkpt>
      <trkpt lat="48.79472" lon="2.09993">
        <ele>171</ele>
        <time>2022-10-23T10:03:06.518Z</time>
      </trkpt>
      <trkpt lat="48.79476" lon="2.09988">
        <ele>171</ele>
        <time>2022-10-23T10:03:10.531Z</time>
      </trkpt>
      <trkpt lat="48.79478" lon="2.09981">
        <ele>174</ele>
        <time>2022-10-23T10:03:15.496Z</time>
      </trkpt>
      <trkpt lat="48.79481" lon="2.09972">
        <ele>174</ele>
        <time>2022-10-23T10:03:20.500Z</time>
      </trkpt>
      <trkpt lat="48.79483" lon="2.09967">
        <ele>174</ele>
        <time>2022-10-23T10:03:24.507Z</time>
      </trkpt>
      <trkpt lat="48.79485" lon="2.09962">
        <ele>174</ele>
        <time>2022-10-23T10:03:28.537Z</time>
      </trkpt>
      <trkpt lat="48.79487" lon="2.09954">
        <ele>166</ele>
        <time>2022-10-23T10:03:33.526Z</time>
      </trkpt>
      <trkpt lat="48.79488" lon="2.09948">
        <ele>166</ele>
        <time>2022-10-23T10:03:38.524Z</time>
      </trkpt>
      <trkpt lat="48.79488" lon="2.09938">
        <ele>166</ele>
        <time>2022-10-23T10:03:43.524Z</time>
      </trkpt>
      <trkpt lat="48.79488" lon="2.0993">
        <ele>165</ele>
        <time>2022-10-23T10:03:48.521Z</time>
      </trkpt>
      <trkpt lat="48.79489" lon="2.09922">
        <ele>165</ele>
        <time>2022-10-23T10:03:53.525Z</time>
      </trkpt>
      <trkpt lat="48.7949" lon="2.09912">
        <ele>165</ele>
        <time>2022-10-23T10:03:58.544Z</time>
      </trkpt>
      <trkpt lat="48.7949" lon="2.09901">
        <ele>164</ele>
        <time>2022-10-23T10:04:03.533Z</time>
      </trkpt>
      <trkpt lat="48.79488" lon="2.09893">
        <ele>164</ele>
        <time>2022-10-23T10:04:08.522Z</time>
      </trkpt>
      <trkpt lat="48.79488" lon="2.09885">
        <ele>164</ele>
        <time>2022-10-23T10:04:13.516Z</time>
      </trkpt>
      <trkpt lat="48.79486" lon="2.09876">
        <ele>164</ele>
        <time>2022-10-23T10:04:18.514Z</time>
      </trkpt>
      <trkpt lat="48.79487" lon="2.09865">
        <ele>162</ele>
        <time>2022-10-23T10:04:23.513Z</time>
      </trkpt>
      <trkpt lat="48.79484" lon="2.09855">
        <ele>175</ele>
        <time>2022-10-23T10:04:28.527Z</time>
      </trkpt>
      <trkpt lat="48.79482" lon="2.09846">
        <ele>174</ele>
        <time>2022-10-23T10:04:33.496Z</time>
      </trkpt>
      <trkpt lat="48.7948" lon="2.09839">
        <ele>174</ele>
        <time>2022-10-23T10:04:37.524Z</time>
      </trkpt>
      <trkpt lat="48.79479" lon="2.09829">
        <ele>174</ele>
        <time>2022-10-23T10:04:42.506Z</time>
      </trkpt>
      <trkpt lat="48.79479" lon="2.09822">
        <ele>174</ele>
        <time>2022-10-23T10:04:46.516Z</time>
      </trkpt>
      <trkpt lat="48.79478" lon="2.09814">
        <ele>174</ele>
        <time>2022-10-23T10:04:51.502Z</time>
      </trkpt>
      <trkpt lat="48.79478" lon="2.09805">
        <ele>174</ele>
        <time>2022-10-23T10:04:56.516Z</time>
      </trkpt>
      <trkpt lat="48.79479" lon="2.09794">
        <ele>174</ele>
        <time>2022-10-23T10:05:01.510Z</time>
      </trkpt>
      <trkpt lat="48.7948" lon="2.09787">
        <ele>171</ele>
        <time>2022-10-23T10:05:05.512Z</time>
      </trkpt>
      <trkpt lat="48.79479" lon="2.09778">
        <ele>171</ele>
        <time>2022-10-23T10:05:10.504Z</time>
      </trkpt>
      <trkpt lat="48.79478" lon="2.09773">
        <ele>171</ele>
        <time>2022-10-23T10:05:14.501Z</time>
      </trkpt>
      <trkpt lat="48.79477" lon="2.09767">
        <ele>171</ele>
        <time>2022-10-23T10:05:18.520Z</time>
      </trkpt>
      <trkpt lat="48.79475" lon="2.09759">
        <ele>169</ele>
        <time>2022-10-23T10:05:23.493Z</time>
      </trkpt>
      <trkpt lat="48.79472" lon="2.09751">
        <ele>169</ele>
        <time>2022-10-23T10:05:27.501Z</time>
      </trkpt>
      <trkpt lat="48.79471" lon="2.09742">
        <ele>169</ele>
        <time>2022-10-23T10:05:32.530Z</time>
      </trkpt>
      <trkpt lat="48.79471" lon="2.09733">
        <ele>167</ele>
        <time>2022-10-23T10:05:37.516Z</time>
      </trkpt>
      <trkpt lat="48.79469" lon="2.09724">
        <ele>167</ele>
        <time>2022-10-23T10:05:42.495Z</time>
      </trkpt>
      <trkpt lat="48.79467" lon="2.09719">
        <ele>167</ele>
        <time>2022-10-23T10:05:46.516Z</time>
      </trkpt>
      <trkpt lat="48.79463" lon="2.09709">
        <ele>167</ele>
        <time>2022-10-23T10:05:51.507Z</time>
      </trkpt>
      <trkpt lat="48.7946" lon="2.09701">
        <ele>164</ele>
        <time>2022-10-23T10:05:56.515Z</time>
      </trkpt>
      <trkpt lat="48.79456" lon="2.09696">
        <ele>172</ele>
        <time>2022-10-23T10:06:00.547Z</time>
      </trkpt>
      <trkpt lat="48.7945" lon="2.0969">
        <ele>172</ele>
        <time>2022-10-23T10:06:05.547Z</time>
      </trkpt>
      <trkpt lat="48.79445" lon="2.09686">
        <ele>172</ele>
        <time>2022-10-23T10:06:10.549Z</time>
      </trkpt>
      <trkpt lat="48.7944" lon="2.0968">
        <ele>168</ele>
        <time>2022-10-23T10:06:15.525Z</time>
      </trkpt>
      <trkpt lat="48.79435" lon="2.09677">
        <ele>168</ele>
        <time>2022-10-23T10:06:20.544Z</time>
      </trkpt>
      <trkpt lat="48.79428" lon="2.09677">
        <ele>174</ele>
        <time>2022-10-23T10:06:25.533Z</time>
      </trkpt>
      <trkpt lat="48.79423" lon="2.09676">
        <ele>174</ele>
        <time>2022-10-23T10:06:30.522Z</time>
      </trkpt>
      <trkpt lat="48.79419" lon="2.09673">
        <ele>174</ele>
        <time>2022-10-23T10:06:34.525Z</time>
      </trkpt>
      <trkpt lat="48.79418" lon="2.09667">
        <ele>174</ele>
        <time>2022-10-23T10:06:38.537Z</time>
      </trkpt>
      <trkpt lat="48.79417" lon="2.09661">
        <ele>174</ele>
        <time>2022-10-23T10:06:43.514Z</time>
      </trkpt>
      <trkpt lat="48.79417" lon="2.09655">
        <ele>174</ele>
        <time>2022-10-23T10:06:47.525Z</time>
      </trkpt>
      <trkpt lat="48.79416" lon="2.09648">
        <ele>172</ele>
        <time>2022-10-23T10:06:52.530Z</time>
      </trkpt>
      <trkpt lat="48.79416" lon="2.09641">
        <ele>172</ele>
        <time>2022-10-23T10:06:56.536Z</time>
      </trkpt>
      <trkpt lat="48.79416" lon="2.09637">
        <ele>172</ele>
        <time>2022-10-23T10:07:00.548Z</time>
      </trkpt>
      <trkpt lat="48.79415" lon="2.09631">
        <ele>172</ele>
        <time>2022-10-23T10:07:04.563Z</time>
      </trkpt>
      <trkpt lat="48.79414" lon="2.0962">
        <ele>169</ele>
        <time>2022-10-23T10:07:09.547Z</time>
      </trkpt>
      <trkpt lat="48.79413" lon="2.0961">
        <ele>169</ele>
        <time>2022-10-23T10:07:14.532Z</time>
      </trkpt>
      <trkpt lat="48.79412" lon="2.09601">
        <ele>169</ele>
        <time>2022-10-23T10:07:19.525Z</time>
      </trkpt>
      <trkpt lat="48.79411" lon="2.09594">
        <ele>166</ele>
        <time>2022-10-23T10:07:23.541Z</time>
      </trkpt>
      <trkpt lat="48.79408" lon="2.09585">
        <ele>166</ele>
        <time>2022-10-23T10:07:28.546Z</time>
      </trkpt>
      <trkpt lat="48.79407" lon="2.09578">
        <ele>166</ele>
        <time>2022-10-23T10:07:32.556Z</time>
      </trkpt>
      <trkpt lat="48.79407" lon="2.09569">
        <ele>165</ele>
        <time>2022-10-23T10:07:37.532Z</time>
      </trkpt>
      <trkpt lat="48.79408" lon="2.09558">
        <ele>165</ele>
        <time>2022-10-23T10:07:42.534Z</time>
      </trkpt>
      <trkpt lat="48.79409" lon="2.09548">
        <ele>165</ele>
        <time>2022-10-23T10:07:47.529Z</time>
      </trkpt>
      <trkpt lat="48.79409" lon="2.09539">
        <ele>165</ele>
        <time>2022-10-23T10:07:51.541Z</time>
      </trkpt>
      <trkpt lat="48.79411" lon="2.09531">
        <ele>165</ele>
        <time>2022-10-23T10:07:55.542Z</time>
      </trkpt>
      <trkpt lat="48.79411" lon="2.09521">
        <ele>165</ele>
        <time>2022-10-23T10:08:00.521Z</time>
      </trkpt>
      <trkpt lat="48.7941" lon="2.09515">
        <ele>165</ele>
        <time>2022-10-23T10:08:04.537Z</time>
      </trkpt>
      <trkpt lat="48.7941" lon="2.09507">
        <ele>165</ele>
        <time>2022-10-23T10:08:08.555Z</time>
      </trkpt>
      <trkpt lat="48.79408" lon="2.09497">
        <ele>165</ele>
        <time>2022-10-23T10:08:13.519Z</time>
      </trkpt>
      <trkpt lat="48.79405" lon="2.09489">
        <ele>165</ele>
        <time>2022-10-23T10:08:17.536Z</time>
      </trkpt>
      <trkpt lat="48.79398" lon="2.09479">
        <ele>177</ele>
        <time>2022-10-23T10:08:22.515Z</time>
      </trkpt>
      <trkpt lat="48.79395" lon="2.0947">
        <ele>177</ele>
        <time>2022-10-23T10:08:26.518Z</time>
      </trkpt>
      <trkpt lat="48.79391" lon="2.09457">
        <ele>177</ele>
        <time>2022-10-23T10:08:31.522Z</time>
      </trkpt>
      <trkpt lat="48.79388" lon="2.09449">
        <ele>177</ele>
        <time>2022-10-23T10:08:35.538Z</time>
      </trkpt>
      <trkpt lat="48.79384" lon="2.09441">
        <ele>177</ele>
        <time>2022-10-23T10:08:40.534Z</time>
      </trkpt>
      <trkpt lat="48.79381" lon="2.09435">
        <ele>177</ele>
        <time>2022-10-23T10:08:45.539Z</time>
      </trkpt>
      <trkpt lat="48.79379" lon="2.09428">
        <ele>177</ele>
        <time>2022-10-23T10:08:50.542Z</time>
      </trkpt>
      <trkpt lat="48.79377" lon="2.09419">
        <ele>177</ele>
        <time>2022-10-23T10:08:55.524Z</time>
      </trkpt>
      <trkpt lat="48.79376" lon="2.09412">
        <ele>177</ele>
        <time>2022-10-23T10:08:59.553Z</time>
      </trkpt>
      <trkpt lat="48.79373" lon="2.09401">
        <ele>182</ele>
        <time>2022-10-23T10:09:04.546Z</time>
      </trkpt>
      <trkpt lat="48.79372" lon="2.09391">
        <ele>182</ele>
        <time>2022-10-23T10:09:09.526Z</time>
      </trkpt>
      <trkpt lat="48.79371" lon="2.09384">
        <ele>182</ele>
        <time>2022-10-23T10:09:13.531Z</time>
      </trkpt>
      <trkpt lat="48.79371" lon="2.09373">
        <ele>182</ele>
        <time>2022-10-23T10:09:18.542Z</time>
      </trkpt>
      <trkpt lat="48.79372" lon="2.09363">
        <ele>182</ele>
        <time>2022-10-23T10:09:23.534Z</time>
      </trkpt>
      <trkpt lat="48.79371" lon="2.09353">
        <ele>182</ele>
        <time>2022-10-23T10:09:28.512Z</time>
      </trkpt>
      <trkpt lat="48.79371" lon="2.09345">
        <ele>182</ele>
        <time>2022-10-23T10:09:32.525Z</time>
      </trkpt>
      <trkpt lat="48.79371" lon="2.09338">
        <ele>182</ele>
        <time>2022-10-23T10:09:36.536Z</time>
      </trkpt>
      <trkpt lat="48.79369" lon="2.09327">
        <ele>182</ele>
        <time>2022-10-23T10:09:41.530Z</time>
      </trkpt>
      <trkpt lat="48.79369" lon="2.09319">
        <ele>181</ele>
        <time>2022-10-23T10:09:45.554Z</time>
      </trkpt>
      <trkpt lat="48.79368" lon="2.0931">
        <ele>181</ele>
        <time>2022-10-23T10:09:50.549Z</time>
      </trkpt>
      <trkpt lat="48.79369" lon="2.09301">
        <ele>181</ele>
        <time>2022-10-23T10:09:55.545Z</time>
      </trkpt>
      <trkpt lat="48.79367" lon="2.09291">
        <ele>180</ele>
        <time>2022-10-23T10:10:00.554Z</time>
      </trkpt>
      <trkpt lat="48.79366" lon="2.09283">
        <ele>180</ele>
        <time>2022-10-23T10:10:05.545Z</time>
      </trkpt>
      <trkpt lat="48.79364" lon="2.09276">
        <ele>180</ele>
        <time>2022-10-23T10:10:09.552Z</time>
      </trkpt>
      <trkpt lat="48.79362" lon="2.09267">
        <ele>180</ele>
        <time>2022-10-23T10:10:14.535Z</time>
      </trkpt>
      <trkpt lat="48.79362" lon="2.09259">
        <ele>177</ele>
        <time>2022-10-23T10:10:18.557Z</time>
      </trkpt>
      <trkpt lat="48.79363" lon="2.09248">
        <ele>177</ele>
        <time>2022-10-23T10:10:23.547Z</time>
      </trkpt>
      <trkpt lat="48.79364" lon="2.09241">
        <ele>177</ele>
        <time>2022-10-23T10:10:27.551Z</time>
      </trkpt>
      <trkpt lat="48.79365" lon="2.09232">
        <ele>175</ele>
        <time>2022-10-23T10:10:32.547Z</time>
      </trkpt>
      <trkpt lat="48.79365" lon="2.09223">
        <ele>175</ele>
        <time>2022-10-23T10:10:37.530Z</time>
      </trkpt>
      <trkpt lat="48.79365" lon="2.09214">
        <ele>175</ele>
        <time>2022-10-23T10:10:41.538Z</time>
      </trkpt>
      <trkpt lat="48.79366" lon="2.09206">
        <ele>173</ele>
        <time>2022-10-23T10:10:46.523Z</time>
      </trkpt>
      <trkpt lat="48.79367" lon="2.09199">
        <ele>173</ele>
        <time>2022-10-23T10:10:50.527Z</time>
      </trkpt>
      <trkpt lat="48.7937" lon="2.09188">
        <ele>173</ele>
        <time>2022-10-23T10:10:55.528Z</time>
      </trkpt>
      <trkpt lat="48.79373" lon="2.09179">
        <ele>171</ele>
        <time>2022-10-23T10:11:00.546Z</time>
      </trkpt>
      <trkpt lat="48.79373" lon="2.09171">
        <ele>171</ele>
        <time>2022-10-23T10:11:05.528Z</time>
      </trkpt>
      <trkpt lat="48.79373" lon="2.09163">
        <ele>171</ele>
        <time>2022-10-23T10:11:09.545Z</time>
      </trkpt>
      <trkpt lat="48.79373" lon="2.09156">
        <ele>171</ele>
        <time>2022-10-23T10:11:13.535Z</time>
      </trkpt>
      <trkpt lat="48.79371" lon="2.09145">
        <ele>169</ele>
        <time>2022-10-23T10:11:18.539Z</time>
      </trkpt>
      <trkpt lat="48.79369" lon="2.09134">
        <ele>169</ele>
        <time>2022-10-23T10:11:23.550Z</time>
      </trkpt>
      <trkpt lat="48.79368" lon="2.09126">
        <ele>169</ele>
        <time>2022-10-23T10:11:28.553Z</time>
      </trkpt>
      <trkpt lat="48.79366" lon="2.09117">
        <ele>167</ele>
        <time>2022-10-23T10:11:33.555Z</time>
      </trkpt>
      <trkpt lat="48.79367" lon="2.09109">
        <ele>167</ele>
        <time>2022-10-23T10:11:38.532Z</time>
      </trkpt>
      <trkpt lat="48.7937" lon="2.09098">
        <ele>167</ele>
        <time>2022-10-23T10:11:43.554Z</time>
      </trkpt>
      <trkpt lat="48.79371" lon="2.09086">
        <ele>167</ele>
        <time>2022-10-23T10:11:48.550Z</time>
      </trkpt>
      <trkpt lat="48.7937" lon="2.09076">
        <ele>167</ele>
        <time>2022-10-23T10:11:53.548Z</time>
      </trkpt>
      <trkpt lat="48.79372" lon="2.09064">
        <ele>168</ele>
        <time>2022-10-23T10:11:58.549Z</time>
      </trkpt>
      <trkpt lat="48.7937" lon="2.09051">
        <ele>168</ele>
        <time>2022-10-23T10:12:03.527Z</time>
      </trkpt>
      <trkpt lat="48.79367" lon="2.09041">
        <ele>168</ele>
        <time>2022-10-23T10:12:08.545Z</time>
      </trkpt>
      <trkpt lat="48.79363" lon="2.09031">
        <ele>168</ele>
        <time>2022-10-23T10:12:13.532Z</time>
      </trkpt>
      <trkpt lat="48.79361" lon="2.09022">
        <ele>168</ele>
        <time>2022-10-23T10:12:18.533Z</time>
      </trkpt>
      <trkpt lat="48.79359" lon="2.09015">
        <ele>168</ele>
        <time>2022-10-23T10:12:22.544Z</time>
      </trkpt>
      <trkpt lat="48.79356" lon="2.09008">
        <ele>168</ele>
        <time>2022-10-23T10:12:27.530Z</time>
      </trkpt>
      <trkpt lat="48.79352" lon="2.09">
        <ele>168</ele>
        <time>2022-10-23T10:12:32.539Z</time>
      </trkpt>
      <trkpt lat="48.79346" lon="2.08993">
        <ele>173</ele>
        <time>2022-10-23T10:12:37.523Z</time>
      </trkpt>
      <trkpt lat="48.7934" lon="2.08987">
        <ele>173</ele>
        <time>2022-10-23T10:12:42.535Z</time>
      </trkpt>
      <trkpt lat="48.79335" lon="2.08985">
        <ele>174</ele>
        <time>2022-10-23T10:12:46.547Z</time>
      </trkpt>
      <trkpt lat="48.79331" lon="2.08982">
        <ele>174</ele>
        <time>2022-10-23T10:12:50.568Z</time>
      </trkpt>
      <trkpt lat="48.79324" lon="2.08977">
        <ele>174</ele>
        <time>2022-10-23T10:12:55.561Z</time>
      </trkpt>
      <trkpt lat="48.79318" lon="2.08974">
        <ele>176</ele>
        <time>2022-10-23T10:13:00.536Z</time>
      </trkpt>
      <trkpt lat="48.79313" lon="2.08968">
        <ele>176</ele>
        <time>2022-10-23T10:13:05.538Z</time>
      </trkpt>
      <trkpt lat="48.79309" lon="2.08963">
        <ele>176</ele>
        <time>2022-10-23T10:13:09.538Z</time>
      </trkpt>
      <trkpt lat="48.79305" lon="2.08955">
        <ele>175</ele>
        <time>2022-10-23T10:13:14.541Z</time>
      </trkpt>
      <trkpt lat="48.79303" lon="2.08947">
        <ele>175</ele>
        <time>2022-10-23T10:13:19.534Z</time>
      </trkpt>
      <trkpt lat="48.793" lon="2.08937">
        <ele>175</ele>
        <time>2022-10-23T10:13:24.521Z</time>
      </trkpt>
      <trkpt lat="48.79299" lon="2.08926">
        <ele>174</ele>
        <time>2022-10-23T10:13:29.523Z</time>
      </trkpt>
      <trkpt lat="48.79298" lon="2.08915">
        <ele>174</ele>
        <time>2022-10-23T10:13:34.532Z</time>
      </trkpt>
      <trkpt lat="48.79296" lon="2.08906">
        <ele>174</ele>
        <time>2022-10-23T10:13:39.516Z</time>
      </trkpt>
      <trkpt lat="48.79295" lon="2.08898">
        <ele>173</ele>
        <time>2022-10-23T10:13:43.547Z</time>
      </trkpt>
      <trkpt lat="48.79295" lon="2.08889">
        <ele>173</ele>
        <time>2022-10-23T10:13:48.545Z</time>
      </trkpt>
      <trkpt lat="48.79294" lon="2.08879">
        <ele>173</ele>
        <time>2022-10-23T10:13:53.525Z</time>
      </trkpt>
      <trkpt lat="48.79295" lon="2.0887">
        <ele>173</ele>
        <time>2022-10-23T10:13:57.527Z</time>
      </trkpt>
      <trkpt lat="48.79297" lon="2.08859">
        <ele>173</ele>
        <time>2022-10-23T10:14:02.557Z</time>
      </trkpt>
      <trkpt lat="48.79296" lon="2.0885">
        <ele>173</ele>
        <time>2022-10-23T10:14:07.539Z</time>
      </trkpt>
      <trkpt lat="48.79297" lon="2.08839">
        <ele>172</ele>
        <time>2022-10-23T10:14:12.564Z</time>
      </trkpt>
      <trkpt lat="48.79299" lon="2.08831">
        <ele>172</ele>
        <time>2022-10-23T10:14:17.546Z</time>
      </trkpt>
      <trkpt lat="48.79302" lon="2.08823">
        <ele>172</ele>
        <time>2022-10-23T10:14:22.562Z</time>
      </trkpt>
      <trkpt lat="48.79306" lon="2.08817">
        <ele>171</ele>
        <time>2022-10-23T10:14:27.544Z</time>
      </trkpt>
      <trkpt lat="48.7931" lon="2.08811">
        <ele>171</ele>
        <time>2022-10-23T10:14:31.542Z</time>
      </trkpt>
      <trkpt lat="48.79313" lon="2.08805">
        <ele>171</ele>
        <time>2022-10-23T10:14:35.551Z</time>
      </trkpt>
      <trkpt lat="48.79316" lon="2.08796">
        <ele>171</ele>
        <time>2022-10-23T10:14:40.557Z</time>
      </trkpt>
      <trkpt lat="48.79321" lon="2.08786">
        <ele>169</ele>
        <time>2022-10-23T10:14:45.542Z</time>
      </trkpt>
      <trkpt lat="48.79327" lon="2.08778">
        <ele>169</ele>
        <time>2022-10-23T10:14:50.543Z</time>
      </trkpt>
      <trkpt lat="48.79332" lon="2.08769">
        <ele>169</ele>
        <time>2022-10-23T10:14:55.549Z</time>
      </trkpt>
      <trkpt lat="48.79336" lon="2.08761">
        <ele>170</ele>
        <time>2022-10-23T10:15:00.551Z</time>
      </trkpt>
      <trkpt lat="48.79339" lon="2.08753">
        <ele>170</ele>
        <time>2022-10-23T10:15:05.561Z</time>
      </trkpt>
      <trkpt lat="48.79343" lon="2.08746">
        <ele>170</ele>
        <time>2022-10-23T10:15:10.525Z</time>
      </trkpt>
      <trkpt lat="48.79346" lon="2.08739">
        <ele>170</ele>
        <time>2022-10-23T10:15:14.540Z</time>
      </trkpt>
      <trkpt lat="48.79349" lon="2.08732">
        <ele>172</ele>
        <time>2022-10-23T10:15:19.498Z</time>
      </trkpt>
      <trkpt lat="48.79352" lon="2.08723">
        <ele>172</ele>
        <time>2022-10-23T10:15:23.552Z</time>
      </trkpt>
      <trkpt lat="48.79355" lon="2.08716">
        <ele>172</ele>
        <time>2022-10-23T10:15:28.543Z</time>
      </trkpt>
      <trkpt lat="48.7936" lon="2.08708">
        <ele>174</ele>
        <time>2022-10-23T10:15:33.538Z</time>
      </trkpt>
      <trkpt lat="48.79365" lon="2.08701">
        <ele>174</ele>
        <time>2022-10-23T10:15:38.531Z</time>
      </trkpt>
      <trkpt lat="48.79368" lon="2.08693">
        <ele>174</ele>
        <time>2022-10-23T10:15:42.554Z</time>
      </trkpt>
      <trkpt lat="48.79372" lon="2.08685">
        <ele>174</ele>
        <time>2022-10-23T10:15:47.540Z</time>
      </trkpt>
      <trkpt lat="48.79375" lon="2.08678">
        <ele>177</ele>
        <time>2022-10-23T10:15:51.553Z</time>
      </trkpt>
      <trkpt lat="48.79379" lon="2.08668">
        <ele>177</ele>
        <time>2022-10-23T10:15:56.527Z</time>
      </trkpt>
      <trkpt lat="48.79381" lon="2.08662">
        <ele>177</ele>
        <time>2022-10-23T10:16:00.557Z</time>
      </trkpt>
      <trkpt lat="48.79385" lon="2.08652">
        <ele>179</ele>
        <time>2022-10-23T10:16:05.549Z</time>
      </trkpt>
      <trkpt lat="48.79388" lon="2.08644">
        <ele>179</ele>
        <time>2022-10-23T10:16:10.548Z</time>
      </trkpt>
      <trkpt lat="48.79394" lon="2.08637">
        <ele>179</ele>
        <time>2022-10-23T10:16:15.543Z</time>
      </trkpt>
      <trkpt lat="48.79399" lon="2.08633">
        <ele>179</ele>
        <time>2022-10-23T10:16:20.558Z</time>
      </trkpt>
      <trkpt lat="48.79405" lon="2.0863">
        <ele>175</ele>
        <time>2022-10-23T10:16:25.557Z</time>
      </trkpt>
      <trkpt lat="48.79411" lon="2.08628">
        <ele>175</ele>
        <time>2022-10-23T10:16:30.545Z</time>
      </trkpt>
      <trkpt lat="48.79417" lon="2.08625">
        <ele>175</ele>
        <time>2022-10-23T10:16:34.553Z</time>
      </trkpt>
      <trkpt lat="48.79423" lon="2.08623">
        <ele>177</ele>
        <time>2022-10-23T10:16:39.537Z</time>
      </trkpt>
      <trkpt lat="48.79429" lon="2.08619">
        <ele>177</ele>
        <time>2022-10-23T10:16:44.547Z</time>
      </trkpt>
      <trkpt lat="48.79434" lon="2.08615">
        <ele>173</ele>
        <time>2022-10-23T10:16:49.536Z</time>
      </trkpt>
      <trkpt lat="48.7944" lon="2.08612">
        <ele>173</ele>
        <time>2022-10-23T10:16:53.552Z</time>
      </trkpt>
      <trkpt lat="48.79445" lon="2.0861">
        <ele>173</ele>
        <time>2022-10-23T10:16:58.553Z</time>
      </trkpt>
      <trkpt lat="48.79453" lon="2.08603">
        <ele>173</ele>
        <time>2022-10-23T10:17:03.557Z</time>
      </trkpt>
      <trkpt lat="48.79458" lon="2.08599">
        <ele>173</ele>
        <time>2022-10-23T10:17:08.551Z</time>
      </trkpt>
      <trkpt lat="48.79463" lon="2.08594">
        <ele>175</ele>
        <time>2022-10-23T10:17:13.554Z</time>
      </trkpt>
      <trkpt lat="48.79469" lon="2.08589">
        <ele>175</ele>
        <time>2022-10-23T10:17:18.550Z</time>
      </trkpt>
      <trkpt lat="48.79476" lon="2.08582">
        <ele>175</ele>
        <time>2022-10-23T10:17:23.547Z</time>
      </trkpt>
      <trkpt lat="48.79481" lon="2.08574">
        <ele>175</ele>
        <time>2022-10-23T10:17:28.533Z</time>
      </trkpt>
      <trkpt lat="48.79486" lon="2.08564">
        <ele>175</ele>
        <time>2022-10-23T10:17:33.525Z</time>
      </trkpt>
      <trkpt lat="48.79488" lon="2.08555">
        <ele>174</ele>
        <time>2022-10-23T10:17:38.542Z</time>
      </trkpt>
      <trkpt lat="48.7949" lon="2.08546">
        <ele>174</ele>
        <time>2022-10-23T10:17:43.523Z</time>
      </trkpt>
      <trkpt lat="48.79494" lon="2.08538">
        <ele>172</ele>
        <time>2022-10-23T10:17:48.542Z</time>
      </trkpt>
      <trkpt lat="48.79498" lon="2.08529">
        <ele>172</ele>
        <time>2022-10-23T10:17:53.522Z</time>
      </trkpt>
      <trkpt lat="48.79501" lon="2.08522">
        <ele>172</ele>
        <time>2022-10-23T10:17:57.539Z</time>
      </trkpt>
      <trkpt lat="48.79505" lon="2.08513">
        <ele>171</ele>
        <time>2022-10-23T10:18:02.531Z</time>
      </trkpt>
      <trkpt lat="48.79508" lon="2.08503">
        <ele>171</ele>
        <time>2022-10-23T10:18:07.523Z</time>
      </trkpt>
      <trkpt lat="48.79511" lon="2.08496">
        <ele>171</ele>
        <time>2022-10-23T10:18:11.537Z</time>
      </trkpt>
      <trkpt lat="48.79516" lon="2.08487">
        <ele>169</ele>
        <time>2022-10-23T10:18:16.540Z</time>
      </trkpt>
      <trkpt lat="48.7952" lon="2.08478">
        <ele>171</ele>
        <time>2022-10-23T10:18:21.525Z</time>
      </trkpt>
      <trkpt lat="48.79523" lon="2.08468">
        <ele>171</ele>
        <time>2022-10-23T10:18:26.523Z</time>
      </trkpt>
      <trkpt lat="48.79524" lon="2.08457">
        <ele>174</ele>
        <time>2022-10-23T10:18:31.534Z</time>
      </trkpt>
      <trkpt lat="48.79525" lon="2.08444">
        <ele>174</ele>
        <time>2022-10-23T10:18:36.538Z</time>
      </trkpt>
      <trkpt lat="48.79526" lon="2.08435">
        <ele>174</ele>
        <time>2022-10-23T10:18:41.533Z</time>
      </trkpt>
      <trkpt lat="48.79527" lon="2.08426">
        <ele>175</ele>
        <time>2022-10-23T10:18:46.533Z</time>
      </trkpt>
      <trkpt lat="48.79528" lon="2.08416">
        <ele>175</ele>
        <time>2022-10-23T10:18:51.530Z</time>
      </trkpt>
      <trkpt lat="48.79528" lon="2.08407">
        <ele>175</ele>
        <time>2022-10-23T10:18:55.543Z</time>
      </trkpt>
      <trkpt lat="48.79527" lon="2.08396">
        <ele>175</ele>
        <time>2022-10-23T10:19:00.541Z</time>
      </trkpt>
      <trkpt lat="48.79529" lon="2.08387">
        <ele>175</ele>
        <time>2022-10-23T10:19:05.516Z</time>
      </trkpt>
      <trkpt lat="48.79531" lon="2.08379">
        <ele>175</ele>
        <time>2022-10-23T10:19:09.532Z</time>
      </trkpt>
      <trkpt lat="48.79532" lon="2.08369">
        <ele>175</ele>
        <time>2022-10-23T10:19:14.556Z</time>
      </trkpt>
      <trkpt lat="48.79533" lon="2.08359">
        <ele>175</ele>
        <time>2022-10-23T10:19:19.557Z</time>
      </trkpt>
      <trkpt lat="48.79533" lon="2.0835">
        <ele>175</ele>
        <time>2022-10-23T10:19:24.531Z</time>
      </trkpt>
      <trkpt lat="48.79532" lon="2.08341">
        <ele>176</ele>
        <time>2022-10-23T10:19:29.558Z</time>
      </trkpt>
      <trkpt lat="48.79533" lon="2.08331">
        <ele>176</ele>
        <time>2022-10-23T10:19:34.572Z</time>
      </trkpt>
      <trkpt lat="48.79535" lon="2.0832">
        <ele>176</ele>
        <time>2022-10-23T10:19:39.559Z</time>
      </trkpt>
      <trkpt lat="48.79536" lon="2.0831">
        <ele>175</ele>
        <time>2022-10-23T10:19:44.541Z</time>
      </trkpt>
      <trkpt lat="48.79536" lon="2.08299">
        <ele>175</ele>
        <time>2022-10-23T10:19:49.501Z</time>
      </trkpt>
      <trkpt lat="48.79539" lon="2.08284">
        <ele>174</ele>
        <time>2022-10-23T10:20:08.492Z</time>
      </trkpt>
      <trkpt lat="48.79545" lon="2.08278">
        <ele>169</ele>
        <time>2022-10-23T10:20:12.504Z</time>
      </trkpt>
      <trkpt lat="48.79547" lon="2.08268">
        <ele>169</ele>
        <time>2022-10-23T10:20:17.496Z</time>
      </trkpt>
      <trkpt lat="48.7955" lon="2.08262">
        <ele>170</ele>
        <time>2022-10-23T10:20:21.513Z</time>
      </trkpt>
      <trkpt lat="48.79554" lon="2.08252">
        <ele>170</ele>
        <time>2022-10-23T10:20:26.529Z</time>
      </trkpt>
      <trkpt lat="48.79561" lon="2.08243">
        <ele>170</ele>
        <time>2022-10-23T10:20:31.498Z</time>
      </trkpt>
      <trkpt lat="48.79563" lon="2.08236">
        <ele>172</ele>
        <time>2022-10-23T10:20:35.519Z</time>
      </trkpt>
      <trkpt lat="48.79567" lon="2.08228">
        <ele>172</ele>
        <time>2022-10-23T10:20:40.497Z</time>
      </trkpt>
      <trkpt lat="48.79571" lon="2.08222">
        <ele>172</ele>
        <time>2022-10-23T10:20:44.509Z</time>
      </trkpt>
      <trkpt lat="48.79575" lon="2.08212">
        <ele>172</ele>
        <time>2022-10-23T10:20:49.492Z</time>
      </trkpt>
      <trkpt lat="48.79579" lon="2.08206">
        <ele>174</ele>
        <time>2022-10-23T10:20:53.493Z</time>
      </trkpt>
      <trkpt lat="48.79582" lon="2.08199">
        <ele>174</ele>
        <time>2022-10-23T10:20:57.503Z</time>
      </trkpt>
      <trkpt lat="48.79586" lon="2.08193">
        <ele>174</ele>
        <time>2022-10-23T10:21:01.518Z</time>
      </trkpt>
      <trkpt lat="48.79589" lon="2.08183">
        <ele>174</ele>
        <time>2022-10-23T10:21:06.520Z</time>
      </trkpt>
      <trkpt lat="48.79592" lon="2.08175">
        <ele>176</ele>
        <time>2022-10-23T10:21:10.533Z</time>
      </trkpt>
      <trkpt lat="48.79597" lon="2.08163">
        <ele>175</ele>
        <time>2022-10-23T10:21:15.550Z</time>
      </trkpt>
      <trkpt lat="48.79601" lon="2.08152">
        <ele>176</ele>
        <time>2022-10-23T10:21:20.498Z</time>
      </trkpt>
      <trkpt lat="48.79602" lon="2.08145">
        <ele>176</ele>
        <time>2022-10-23T10:21:24.530Z</time>
      </trkpt>
      <trkpt lat="48.79605" lon="2.08139">
        <ele>176</ele>
        <time>2022-10-23T10:21:28.547Z</time>
      </trkpt>
      <trkpt lat="48.79607" lon="2.08127">
        <ele>176</ele>
        <time>2022-10-23T10:21:33.553Z</time>
      </trkpt>
      <trkpt lat="48.79611" lon="2.08117">
        <ele>178</ele>
        <time>2022-10-23T10:21:38.559Z</time>
      </trkpt>
      <trkpt lat="48.79613" lon="2.08109">
        <ele>178</ele>
        <time>2022-10-23T10:21:43.535Z</time>
      </trkpt>
      <trkpt lat="48.79615" lon="2.081">
        <ele>178</ele>
        <time>2022-10-23T10:21:48.542Z</time>
      </trkpt>
      <trkpt lat="48.79617" lon="2.08088">
        <ele>178</ele>
        <time>2022-10-23T10:21:53.507Z</time>
      </trkpt>
      <trkpt lat="48.7962" lon="2.08077">
        <ele>178</ele>
        <time>2022-10-23T10:21:58.512Z</time>
      </trkpt>
      <trkpt lat="48.79624" lon="2.08067">
        <ele>177</ele>
        <time>2022-10-23T10:22:03.529Z</time>
      </trkpt>
      <trkpt lat="48.79626" lon="2.08058">
        <ele>177</ele>
        <time>2022-10-23T10:22:08.519Z</time>
      </trkpt>
      <trkpt lat="48.79628" lon="2.08047">
        <ele>177</ele>
        <time>2022-10-23T10:22:13.529Z</time>
      </trkpt>
      <trkpt lat="48.7963" lon="2.08036">
        <ele>177</ele>
        <time>2022-10-23T10:22:18.535Z</time>
      </trkpt>
      <trkpt lat="48.79633" lon="2.08024">
        <ele>177</ele>
        <time>2022-10-23T10:22:23.542Z</time>
      </trkpt>
      <trkpt lat="48.79635" lon="2.08016">
        <ele>177</ele>
        <time>2022-10-23T10:22:28.521Z</time>
      </trkpt>
      <trkpt lat="48.79636" lon="2.08007">
        <ele>178</ele>
        <time>2022-10-23T10:22:32.551Z</time>
      </trkpt>
      <trkpt lat="48.79639" lon="2.07997">
        <ele>178</ele>
        <time>2022-10-23T10:22:37.517Z</time>
      </trkpt>
      <trkpt lat="48.79641" lon="2.07987">
        <ele>178</ele>
        <time>2022-10-23T10:22:42.500Z</time>
      </trkpt>
      <trkpt lat="48.79645" lon="2.07978">
        <ele>179</ele>
        <time>2022-10-23T10:22:47.519Z</time>
      </trkpt>
      <trkpt lat="48.79647" lon="2.07967">
        <ele>179</ele>
        <time>2022-10-23T10:22:52.533Z</time>
      </trkpt>
      <trkpt lat="48.79649" lon="2.07955">
        <ele>180</ele>
        <time>2022-10-23T10:22:57.511Z</time>
      </trkpt>
      <trkpt lat="48.79652" lon="2.07948">
        <ele>180</ele>
        <time>2022-10-23T10:23:01.529Z</time>
      </trkpt>
      <trkpt lat="48.79655" lon="2.07939">
        <ele>180</ele>
        <time>2022-10-23T10:23:06.530Z</time>
      </trkpt>
      <trkpt lat="48.79657" lon="2.07931">
        <ele>180</ele>
        <time>2022-10-23T10:23:10.542Z</time>
      </trkpt>
      <trkpt lat="48.7966" lon="2.0792">
        <ele>179</ele>
        <time>2022-10-23T10:23:15.543Z</time>
      </trkpt>
      <trkpt lat="48.79662" lon="2.0791">
        <ele>179</ele>
        <time>2022-10-23T10:23:20.541Z</time>
      </trkpt>
      <trkpt lat="48.79665" lon="2.07899">
        <ele>178</ele>
        <time>2022-10-23T10:23:25.526Z</time>
      </trkpt>
      <trkpt lat="48.79667" lon="2.07889">
        <ele>178</ele>
        <time>2022-10-23T10:23:30.529Z</time>
      </trkpt>
      <trkpt lat="48.79672" lon="2.07881">
        <ele>178</ele>
        <time>2022-10-23T10:23:35.533Z</time>
      </trkpt>
      <trkpt lat="48.79674" lon="2.07874">
        <ele>177</ele>
        <time>2022-10-23T10:23:40.526Z</time>
      </trkpt>
      <trkpt lat="48.79677" lon="2.07863">
        <ele>177</ele>
        <time>2022-10-23T10:23:45.509Z</time>
      </trkpt>
      <trkpt lat="48.79679" lon="2.07853">
        <ele>177</ele>
        <time>2022-10-23T10:23:50.502Z</time>
      </trkpt>
      <trkpt lat="48.79681" lon="2.07845">
        <ele>177</ele>
        <time>2022-10-23T10:23:55.519Z</time>
      </trkpt>
      <trkpt lat="48.79683" lon="2.07837">
        <ele>177</ele>
        <time>2022-10-23T10:24:00.527Z</time>
      </trkpt>
      <trkpt lat="48.79687" lon="2.07827">
        <ele>177</ele>
        <time>2022-10-23T10:24:05.511Z</time>
      </trkpt>
      <trkpt lat="48.79689" lon="2.0782">
        <ele>177</ele>
        <time>2022-10-23T10:24:09.529Z</time>
      </trkpt>
      <trkpt lat="48.7969" lon="2.07811">
        <ele>178</ele>
        <time>2022-10-23T10:24:13.529Z</time>
      </trkpt>
      <trkpt lat="48.79692" lon="2.07802">
        <ele>178</ele>
        <time>2022-10-23T10:24:17.533Z</time>
      </trkpt>
      <trkpt lat="48.79695" lon="2.07791">
        <ele>178</ele>
        <time>2022-10-23T10:24:22.554Z</time>
      </trkpt>
      <trkpt lat="48.79698" lon="2.07781">
        <ele>178</ele>
        <time>2022-10-23T10:24:27.512Z</time>
      </trkpt>
      <trkpt lat="48.79699" lon="2.07772">
        <ele>178</ele>
        <time>2022-10-23T10:24:31.536Z</time>
      </trkpt>
      <trkpt lat="48.79701" lon="2.07764">
        <ele>178</ele>
        <time>2022-10-23T10:24:35.539Z</time>
      </trkpt>
      <trkpt lat="48.79703" lon="2.07753">
        <ele>178</ele>
        <time>2022-10-23T10:24:40.544Z</time>
      </trkpt>
      <trkpt lat="48.79707" lon="2.07744">
        <ele>178</ele>
        <time>2022-10-23T10:24:45.523Z</time>
      </trkpt>
      <trkpt lat="48.7971" lon="2.07737">
        <ele>176</ele>
        <time>2022-10-23T10:24:49.540Z</time>
      </trkpt>
      <trkpt lat="48.79713" lon="2.07728">
        <ele>177</ele>
        <time>2022-10-23T10:24:54.537Z</time>
      </trkpt>
      <trkpt lat="48.79715" lon="2.07718">
        <ele>177</ele>
        <time>2022-10-23T10:24:59.532Z</time>
      </trkpt>
      <trkpt lat="48.79717" lon="2.07709">
        <ele>177</ele>
        <time>2022-10-23T10:25:04.534Z</time>
      </trkpt>
      <trkpt lat="48.79719" lon="2.07699">
        <ele>177</ele>
        <time>2022-10-23T10:25:09.550Z</time>
      </trkpt>
      <trkpt lat="48.79721" lon="2.07688">
        <ele>177</ele>
        <time>2022-10-23T10:25:14.555Z</time>
      </trkpt>
      <trkpt lat="48.79723" lon="2.07679">
        <ele>177</ele>
        <time>2022-10-23T10:25:19.511Z</time>
      </trkpt>
      <trkpt lat="48.79725" lon="2.07671">
        <ele>177</ele>
        <time>2022-10-23T10:25:23.529Z</time>
      </trkpt>
      <trkpt lat="48.79727" lon="2.07663">
        <ele>177</ele>
        <time>2022-10-23T10:25:27.540Z</time>
      </trkpt>
      <trkpt lat="48.7973" lon="2.07655">
        <ele>177</ele>
        <time>2022-10-23T10:25:32.539Z</time>
      </trkpt>
      <trkpt lat="48.79731" lon="2.07645">
        <ele>177</ele>
        <time>2022-10-23T10:25:37.517Z</time>
      </trkpt>
      <trkpt lat="48.79734" lon="2.07638">
        <ele>177</ele>
        <time>2022-10-23T10:25:41.533Z</time>
      </trkpt>
      <trkpt lat="48.79736" lon="2.07629">
        <ele>177</ele>
        <time>2022-10-23T10:25:46.531Z</time>
      </trkpt>
      <trkpt lat="48.79738" lon="2.07621">
        <ele>179</ele>
        <time>2022-10-23T10:25:50.534Z</time>
      </trkpt>
      <trkpt lat="48.79739" lon="2.07612">
        <ele>179</ele>
        <time>2022-10-23T10:25:54.547Z</time>
      </trkpt>
      <trkpt lat="48.7974" lon="2.07605">
        <ele>179</ele>
        <time>2022-10-23T10:25:59.541Z</time>
      </trkpt>
      <trkpt lat="48.79742" lon="2.07594">
        <ele>179</ele>
        <time>2022-10-23T10:26:04.550Z</time>
      </trkpt>
      <trkpt lat="48.79745" lon="2.07584">
        <ele>179</ele>
        <time>2022-10-23T10:26:09.542Z</time>
      </trkpt>
      <trkpt lat="48.79746" lon="2.07576">
        <ele>179</ele>
        <time>2022-10-23T10:26:13.569Z</time>
      </trkpt>
      <trkpt lat="48.79744" lon="2.07568">
        <ele>179</ele>
        <time>2022-10-23T10:26:18.538Z</time>
      </trkpt>
      <trkpt lat="48.7974" lon="2.07558">
        <ele>179</ele>
        <time>2022-10-23T10:26:23.496Z</time>
      </trkpt>
      <trkpt lat="48.79736" lon="2.07552">
        <ele>179</ele>
        <time>2022-10-23T10:26:27.515Z</time>
      </trkpt>
      <trkpt lat="48.79731" lon="2.07547">
        <ele>179</ele>
        <time>2022-10-23T10:26:31.523Z</time>
      </trkpt>
      <trkpt lat="48.79725" lon="2.07541">
        <ele>179</ele>
        <time>2022-10-23T10:26:36.538Z</time>
      </trkpt>
      <trkpt lat="48.79719" lon="2.07536">
        <ele>179</ele>
        <time>2022-10-23T10:26:41.527Z</time>
      </trkpt>
      <trkpt lat="48.79714" lon="2.07532">
        <ele>179</ele>
        <time>2022-10-23T10:26:45.540Z</time>
      </trkpt>
      <trkpt lat="48.79707" lon="2.07527">
        <ele>178</ele>
        <time>2022-10-23T10:26:50.534Z</time>
      </trkpt>
      <trkpt lat="48.797" lon="2.07524">
        <ele>178</ele>
        <time>2022-10-23T10:26:55.536Z</time>
      </trkpt>
      <trkpt lat="48.79695" lon="2.0752">
        <ele>178</ele>
        <time>2022-10-23T10:27:00.534Z</time>
      </trkpt>
      <trkpt lat="48.79691" lon="2.07516">
        <ele>178</ele>
        <time>2022-10-23T10:27:05.532Z</time>
      </trkpt>
      <trkpt lat="48.79686" lon="2.07511">
        <ele>178</ele>
        <time>2022-10-23T10:27:10.538Z</time>
      </trkpt>
      <trkpt lat="48.7968" lon="2.07505">
        <ele>177</ele>
        <time>2022-10-23T10:27:15.545Z</time>
      </trkpt>
      <trkpt lat="48.79673" lon="2.07499">
        <ele>177</ele>
        <time>2022-10-23T10:27:20.526Z</time>
      </trkpt>
      <trkpt lat="48.79668" lon="2.07495">
        <ele>177</ele>
        <time>2022-10-23T10:27:24.531Z</time>
      </trkpt>
      <trkpt lat="48.79661" lon="2.07489">
        <ele>177</ele>
        <time>2022-10-23T10:27:29.532Z</time>
      </trkpt>
      <trkpt lat="48.79654" lon="2.07483">
        <ele>177</ele>
        <time>2022-10-23T10:27:34.529Z</time>
      </trkpt>
      <trkpt lat="48.79646" lon="2.07478">
        <ele>176</ele>
        <time>2022-10-23T10:27:39.535Z</time>
      </trkpt>
      <trkpt lat="48.7964" lon="2.07474">
        <ele>176</ele>
        <time>2022-10-23T10:27:44.519Z</time>
      </trkpt>
      <trkpt lat="48.79635" lon="2.07472">
        <ele>176</ele>
        <time>2022-10-23T10:27:48.531Z</time>
      </trkpt>
      <trkpt lat="48.79629" lon="2.07469">
        <ele>176</ele>
        <time>2022-10-23T10:27:52.535Z</time>
      </trkpt>
      <trkpt lat="48.79624" lon="2.07464">
        <ele>175</ele>
        <time>2022-10-23T10:27:57.548Z</time>
      </trkpt>
      <trkpt lat="48.79616" lon="2.07459">
        <ele>175</ele>
        <time>2022-10-23T10:28:02.533Z</time>
      </trkpt>
      <trkpt lat="48.7961" lon="2.07453">
        <ele>177</ele>
        <time>2022-10-23T10:28:07.524Z</time>
      </trkpt>
      <trkpt lat="48.79605" lon="2.07448">
        <ele>177</ele>
        <time>2022-10-23T10:28:11.538Z</time>
      </trkpt>
      <trkpt lat="48.79598" lon="2.07444">
        <ele>177</ele>
        <time>2022-10-23T10:28:16.553Z</time>
      </trkpt>
      <trkpt lat="48.7959" lon="2.0744">
        <ele>176</ele>
        <time>2022-10-23T10:28:21.529Z</time>
      </trkpt>
      <trkpt lat="48.79585" lon="2.07437">
        <ele>176</ele>
        <time>2022-10-23T10:28:25.532Z</time>
      </trkpt>
      <trkpt lat="48.79578" lon="2.07433">
        <ele>176</ele>
        <time>2022-10-23T10:28:30.534Z</time>
      </trkpt>
      <trkpt lat="48.79572" lon="2.0743">
        <ele>176</ele>
        <time>2022-10-23T10:28:35.548Z</time>
      </trkpt>
      <trkpt lat="48.79566" lon="2.07426">
        <ele>174</ele>
        <time>2022-10-23T10:28:40.535Z</time>
      </trkpt>
      <trkpt lat="48.79559" lon="2.07422">
        <ele>174</ele>
        <time>2022-10-23T10:28:45.528Z</time>
      </trkpt>
      <trkpt lat="48.79553" lon="2.07417">
        <ele>174</ele>
        <time>2022-10-23T10:28:50.516Z</time>
      </trkpt>
      <trkpt lat="48.7955" lon="2.07414">
        <ele>174</ele>
        <time>2022-10-23T10:28:54.527Z</time>
      </trkpt>
      <trkpt lat="48.79544" lon="2.07408">
        <ele>174</ele>
        <time>2022-10-23T10:28:59.541Z</time>
      </trkpt>
      <trkpt lat="48.79539" lon="2.07404">
        <ele>173</ele>
        <time>2022-10-23T10:29:04.544Z</time>
      </trkpt>
      <trkpt lat="48.79532" lon="2.07399">
        <ele>174</ele>
        <time>2022-10-23T10:29:09.525Z</time>
      </trkpt>
      <trkpt lat="48.79527" lon="2.07396">
        <ele>174</ele>
        <time>2022-10-23T10:29:13.537Z</time>
      </trkpt>
      <trkpt lat="48.79521" lon="2.0739">
        <ele>174</ele>
        <time>2022-10-23T10:29:18.536Z</time>
      </trkpt>
      <trkpt lat="48.79516" lon="2.07387">
        <ele>174</ele>
        <time>2022-10-23T10:29:23.527Z</time>
      </trkpt>
      <trkpt lat="48.79511" lon="2.07383">
        <ele>174</ele>
        <time>2022-10-23T10:29:28.529Z</time>
      </trkpt>
      <trkpt lat="48.79505" lon="2.07378">
        <ele>174</ele>
        <time>2022-10-23T10:29:33.530Z</time>
      </trkpt>
      <trkpt lat="48.79499" lon="2.07375">
        <ele>174</ele>
        <time>2022-10-23T10:29:37.540Z</time>
      </trkpt>
      <trkpt lat="48.79493" lon="2.07371">
        <ele>174</ele>
        <time>2022-10-23T10:29:42.512Z</time>
      </trkpt>
      <trkpt lat="48.79488" lon="2.07367">
        <ele>174</ele>
        <time>2022-10-23T10:29:46.524Z</time>
      </trkpt>
      <trkpt lat="48.79483" lon="2.07364">
        <ele>173</ele>
        <time>2022-10-23T10:29:50.545Z</time>
      </trkpt>
      <trkpt lat="48.79478" lon="2.07359">
        <ele>173</ele>
        <time>2022-10-23T10:29:55.509Z</time>
      </trkpt>
      <trkpt lat="48.79473" lon="2.07355">
        <ele>173</ele>
        <time>2022-10-23T10:29:59.536Z</time>
      </trkpt>
      <trkpt lat="48.79465" lon="2.07351">
        <ele>173</ele>
        <time>2022-10-23T10:30:04.542Z</time>
      </trkpt>
      <trkpt lat="48.79457" lon="2.07346">
        <ele>170</ele>
        <time>2022-10-23T10:30:09.537Z</time>
      </trkpt>
      <trkpt lat="48.79448" lon="2.07344">
        <ele>170</ele>
        <time>2022-10-23T10:30:14.493Z</time>
      </trkpt>
      <trkpt lat="48.79442" lon="2.07342">
        <ele>170</ele>
        <time>2022-10-23T10:30:18.532Z</time>
      </trkpt>
      <trkpt lat="48.79437" lon="2.07338">
        <ele>170</ele>
        <time>2022-10-23T10:30:23.513Z</time>
      </trkpt>
      <trkpt lat="48.79432" lon="2.07332">
        <ele>170</ele>
        <time>2022-10-23T10:30:27.537Z</time>
      </trkpt>
      <trkpt lat="48.79425" lon="2.07326">
        <ele>171</ele>
        <time>2022-10-23T10:30:32.534Z</time>
      </trkpt>
      <trkpt lat="48.79418" lon="2.07326">
        <ele>171</ele>
        <time>2022-10-23T10:30:37.523Z</time>
      </trkpt>
      <trkpt lat="48.79416" lon="2.07323">
        <ele>171</ele>
        <time>2022-10-23T10:30:41.523Z</time>
      </trkpt>
      <trkpt lat="48.79413" lon="2.07319">
        <ele>170</ele>
        <time>2022-10-23T10:30:45.556Z</time>
      </trkpt>
      <trkpt lat="48.79414" lon="2.07314">
        <ele>170</ele>
        <time>2022-10-23T10:30:50.533Z</time>
      </trkpt>
      <trkpt lat="48.79415" lon="2.07307">
        <ele>170</ele>
        <time>2022-10-23T10:30:55.515Z</time>
      </trkpt>
      <trkpt lat="48.79416" lon="2.07299">
        <ele>170</ele>
        <time>2022-10-23T10:30:59.530Z</time>
      </trkpt>
      <trkpt lat="48.79417" lon="2.07288">
        <ele>169</ele>
        <time>2022-10-23T10:31:04.516Z</time>
      </trkpt>
      <trkpt lat="48.79416" lon="2.0728">
        <ele>169</ele>
        <time>2022-10-23T10:31:08.526Z</time>
      </trkpt>
      <trkpt lat="48.79416" lon="2.0727">
        <ele>169</ele>
        <time>2022-10-23T10:31:13.543Z</time>
      </trkpt>
      <trkpt lat="48.79417" lon="2.07261">
        <ele>167</ele>
        <time>2022-10-23T10:31:18.526Z</time>
      </trkpt>
      <trkpt lat="48.79417" lon="2.07252">
        <ele>167</ele>
        <time>2022-10-23T10:31:23.535Z</time>
      </trkpt>
      <trkpt lat="48.79419" lon="2.07245">
        <ele>167</ele>
        <time>2022-10-23T10:31:27.541Z</time>
      </trkpt>
      <trkpt lat="48.7942" lon="2.07238">
        <ele>167</ele>
        <time>2022-10-23T10:31:31.535Z</time>
      </trkpt>
      <trkpt lat="48.79422" lon="2.07227">
        <ele>165</ele>
        <time>2022-10-23T10:31:36.542Z</time>
      </trkpt>
      <trkpt lat="48.79423" lon="2.0722">
        <ele>165</ele>
        <time>2022-10-23T10:31:40.554Z</time>
      </trkpt>
      <trkpt lat="48.79426" lon="2.07213">
        <ele>165</ele>
        <time>2022-10-23T10:31:45.550Z</time>
      </trkpt>
      <trkpt lat="48.7943" lon="2.07208">
        <ele>166</ele>
        <time>2022-10-23T10:31:50.529Z</time>
      </trkpt>
      <trkpt lat="48.79432" lon="2.07203">
        <ele>166</ele>
        <time>2022-10-23T10:31:55.542Z</time>
      </trkpt>
      <trkpt lat="48.79434" lon="2.07196">
        <ele>166</ele>
        <time>2022-10-23T10:32:00.533Z</time>
      </trkpt>
      <trkpt lat="48.79435" lon="2.07187">
        <ele>166</ele>
        <time>2022-10-23T10:32:04.534Z</time>
      </trkpt>
      <trkpt lat="48.79432" lon="2.07179">
        <ele>166</ele>
        <time>2022-10-23T10:32:09.543Z</time>
      </trkpt>
      <trkpt lat="48.7943" lon="2.07174">
        <ele>166</ele>
        <time>2022-10-23T10:32:13.546Z</time>
      </trkpt>
      <trkpt lat="48.79428" lon="2.07169">
        <ele>166</ele>
        <time>2022-10-23T10:32:18.531Z</time>
      </trkpt>
      <trkpt lat="48.79421" lon="2.07167">
        <ele>166</ele>
        <time>2022-10-23T10:32:23.549Z</time>
      </trkpt>
      <trkpt lat="48.79414" lon="2.07165">
        <ele>166</ele>
        <time>2022-10-23T10:32:28.535Z</time>
      </trkpt>
      <trkpt lat="48.79408" lon="2.07168">
        <ele>166</ele>
        <time>2022-10-23T10:32:33.558Z</time>
      </trkpt>
      <trkpt lat="48.79403" lon="2.0717">
        <ele>166</ele>
        <time>2022-10-23T10:32:38.538Z</time>
      </trkpt>
      <trkpt lat="48.79397" lon="2.07169">
        <ele>165</ele>
        <time>2022-10-23T10:32:43.556Z</time>
      </trkpt>
      <trkpt lat="48.79392" lon="2.07167">
        <ele>165</ele>
        <time>2022-10-23T10:32:48.528Z</time>
      </trkpt>
      <trkpt lat="48.79385" lon="2.07165">
        <ele>165</ele>
        <time>2022-10-23T10:32:53.546Z</time>
      </trkpt>
      <trkpt lat="48.79379" lon="2.07165">
        <ele>165</ele>
        <time>2022-10-23T10:32:58.516Z</time>
      </trkpt>
      <trkpt lat="48.79373" lon="2.07162">
        <ele>165</ele>
        <time>2022-10-23T10:33:03.506Z</time>
      </trkpt>
      <trkpt lat="48.79368" lon="2.07162">
        <ele>165</ele>
        <time>2022-10-23T10:33:07.512Z</time>
      </trkpt>
      <trkpt lat="48.79363" lon="2.0716">
        <ele>165</ele>
        <time>2022-10-23T10:33:11.523Z</time>
      </trkpt>
      <trkpt lat="48.79355" lon="2.07158">
        <ele>165</ele>
        <time>2022-10-23T10:33:16.528Z</time>
      </trkpt>
      <trkpt lat="48.79351" lon="2.07154">
        <ele>165</ele>
        <time>2022-10-23T10:33:21.524Z</time>
      </trkpt>
      <trkpt lat="48.79346" lon="2.07152">
        <ele>165</ele>
        <time>2022-10-23T10:33:26.534Z</time>
      </trkpt>
      <trkpt lat="48.7934" lon="2.07149">
        <ele>165</ele>
        <time>2022-10-23T10:33:31.507Z</time>
      </trkpt>
      <trkpt lat="48.79336" lon="2.07148">
        <ele>165</ele>
        <time>2022-10-23T10:33:35.523Z</time>
      </trkpt>
      <trkpt lat="48.7933" lon="2.07145">
        <ele>165</ele>
        <time>2022-10-23T10:33:40.530Z</time>
      </trkpt>
      <trkpt lat="48.79324" lon="2.0714">
        <ele>165</ele>
        <time>2022-10-23T10:33:45.543Z</time>
      </trkpt>
      <trkpt lat="48.79319" lon="2.07139">
        <ele>165</ele>
        <time>2022-10-23T10:33:50.537Z</time>
      </trkpt>
      <trkpt lat="48.79313" lon="2.07136">
        <ele>165</ele>
        <time>2022-10-23T10:33:55.521Z</time>
      </trkpt>
      <trkpt lat="48.79309" lon="2.07135">
        <ele>165</ele>
        <time>2022-10-23T10:33:59.520Z</time>
      </trkpt>
      <trkpt lat="48.79304" lon="2.07131">
        <ele>165</ele>
        <time>2022-10-23T10:34:04.513Z</time>
      </trkpt>
      <trkpt lat="48.79299" lon="2.07129">
        <ele>165</ele>
        <time>2022-10-23T10:34:08.527Z</time>
      </trkpt>
      <trkpt lat="48.79293" lon="2.07127">
        <ele>165</ele>
        <time>2022-10-23T10:34:13.520Z</time>
      </trkpt>
      <trkpt lat="48.79288" lon="2.07123">
        <ele>164</ele>
        <time>2022-10-23T10:34:18.515Z</time>
      </trkpt>
      <trkpt lat="48.79282" lon="2.07123">
        <ele>164</ele>
        <time>2022-10-23T10:34:23.521Z</time>
      </trkpt>
      <trkpt lat="48.79275" lon="2.07122">
        <ele>164</ele>
        <time>2022-10-23T10:34:28.516Z</time>
      </trkpt>
      <trkpt lat="48.7927" lon="2.0712">
        <ele>164</ele>
        <time>2022-10-23T10:34:32.517Z</time>
      </trkpt>
      <trkpt lat="48.79263" lon="2.07116">
        <ele>163</ele>
        <time>2022-10-23T10:34:37.518Z</time>
      </trkpt>
      <trkpt lat="48.79258" lon="2.07115">
        <ele>163</ele>
        <time>2022-10-23T10:34:41.534Z</time>
      </trkpt>
      <trkpt lat="48.79252" lon="2.07112">
        <ele>163</ele>
        <time>2022-10-23T10:34:46.538Z</time>
      </trkpt>
      <trkpt lat="48.79245" lon="2.0711">
        <ele>163</ele>
        <time>2022-10-23T10:34:51.539Z</time>
      </trkpt>
      <trkpt lat="48.79239" lon="2.07109">
        <ele>163</ele>
        <time>2022-10-23T10:34:55.557Z</time>
      </trkpt>
      <trkpt lat="48.79231" lon="2.07107">
        <ele>164</ele>
        <time>2022-10-23T10:35:00.519Z</time>
      </trkpt>
      <trkpt lat="48.79224" lon="2.07104">
        <ele>164</ele>
        <time>2022-10-23T10:35:05.534Z</time>
      </trkpt>
      <trkpt lat="48.79217" lon="2.07101">
        <ele>164</ele>
        <time>2022-10-23T10:35:10.514Z</time>
      </trkpt>
      <trkpt lat="48.79211" lon="2.07099">
        <ele>164</ele>
        <time>2022-10-23T10:35:15.496Z</time>
      </trkpt>
      <trkpt lat="48.79205" lon="2.07099">
        <ele>165</ele>
        <time>2022-10-23T10:35:19.505Z</time>
      </trkpt>
      <trkpt lat="48.79199" lon="2.07097">
        <ele>165</ele>
        <time>2022-10-23T10:35:23.526Z</time>
      </trkpt>
      <trkpt lat="48.79191" lon="2.07094">
        <ele>165</ele>
        <time>2022-10-23T10:35:28.513Z</time>
      </trkpt>
      <trkpt lat="48.79186" lon="2.07091">
        <ele>165</ele>
        <time>2022-10-23T10:35:33.526Z</time>
      </trkpt>
      <trkpt lat="48.79179" lon="2.0709">
        <ele>166</ele>
        <time>2022-10-23T10:35:38.528Z</time>
      </trkpt>
      <trkpt lat="48.79173" lon="2.07087">
        <ele>166</ele>
        <time>2022-10-23T10:35:43.519Z</time>
      </trkpt>
      <trkpt lat="48.79168" lon="2.07086">
        <ele>166</ele>
        <time>2022-10-23T10:35:48.512Z</time>
      </trkpt>
      <trkpt lat="48.79161" lon="2.07084">
        <ele>166</ele>
        <time>2022-10-23T10:35:53.526Z</time>
      </trkpt>
      <trkpt lat="48.79155" lon="2.07083">
        <ele>166</ele>
        <time>2022-10-23T10:35:58.518Z</time>
      </trkpt>
      <trkpt lat="48.79152" lon="2.07081">
        <ele>167</ele>
        <time>2022-10-23T10:36:03.513Z</time>
      </trkpt>
      <trkpt lat="48.79147" lon="2.07084">
        <ele>167</ele>
        <time>2022-10-23T10:36:08.510Z</time>
      </trkpt>
      <trkpt lat="48.79144" lon="2.07087">
        <ele>167</ele>
        <time>2022-10-23T10:36:12.519Z</time>
      </trkpt>
      <trkpt lat="48.7914" lon="2.0709">
        <ele>167</ele>
        <time>2022-10-23T10:36:17.523Z</time>
      </trkpt>
      <trkpt lat="48.79138" lon="2.07095">
        <ele>167</ele>
        <time>2022-10-23T10:36:22.513Z</time>
      </trkpt>
      <trkpt lat="48.79135" lon="2.071">
        <ele>168</ele>
        <time>2022-10-23T10:36:26.517Z</time>
      </trkpt>
      <trkpt lat="48.79132" lon="2.07103">
        <ele>168</ele>
        <time>2022-10-23T10:36:30.530Z</time>
      </trkpt>
      <trkpt lat="48.79129" lon="2.07105">
        <ele>168</ele>
        <time>2022-10-23T10:36:35.537Z</time>
      </trkpt>
      <trkpt lat="48.79125" lon="2.07111">
        <ele>167</ele>
        <time>2022-10-23T10:36:40.522Z</time>
      </trkpt>
      <trkpt lat="48.79122" lon="2.07113">
        <ele>167</ele>
        <time>2022-10-23T10:36:44.533Z</time>
      </trkpt>
      <trkpt lat="48.79118" lon="2.07114">
        <ele>167</ele>
        <time>2022-10-23T10:36:49.548Z</time>
      </trkpt>
      <trkpt lat="48.79114" lon="2.07114">
        <ele>167</ele>
        <time>2022-10-23T10:36:54.532Z</time>
      </trkpt>
      <trkpt lat="48.79109" lon="2.07112">
        <ele>167</ele>
        <time>2022-10-23T10:36:59.552Z</time>
      </trkpt>
      <trkpt lat="48.79104" lon="2.07111">
        <ele>167</ele>
        <time>2022-10-23T10:37:04.500Z</time>
      </trkpt>
      <trkpt lat="48.79098" lon="2.07114">
        <ele>167</ele>
        <time>2022-10-23T10:37:09.494Z</time>
      </trkpt>
      <trkpt lat="48.79092" lon="2.0712">
        <ele>165</ele>
        <time>2022-10-23T10:37:13.513Z</time>
      </trkpt>
      <trkpt lat="48.79089" lon="2.07127">
        <ele>164</ele>
        <time>2022-10-23T10:37:17.555Z</time>
      </trkpt>
      <trkpt lat="48.79086" lon="2.07137">
        <ele>164</ele>
        <time>2022-10-23T10:37:22.515Z</time>
      </trkpt>
      <trkpt lat="48.79085" lon="2.07145">
        <ele>164</ele>
        <time>2022-10-23T10:37:26.521Z</time>
      </trkpt>
      <trkpt lat="48.79081" lon="2.07155">
        <ele>164</ele>
        <time>2022-10-23T10:37:31.540Z</time>
      </trkpt>
      <trkpt lat="48.79076" lon="2.07159">
        <ele>164</ele>
        <time>2022-10-23T10:37:36.529Z</time>
      </trkpt>
      <trkpt lat="48.79072" lon="2.07161">
        <ele>164</ele>
        <time>2022-10-23T10:37:40.533Z</time>
      </trkpt>
      <trkpt lat="48.79066" lon="2.07162">
        <ele>163</ele>
        <time>2022-10-23T10:37:45.523Z</time>
      </trkpt>
      <trkpt lat="48.7906" lon="2.07158">
        <ele>163</ele>
        <time>2022-10-23T10:37:50.525Z</time>
      </trkpt>
      <trkpt lat="48.79056" lon="2.07155">
        <ele>163</ele>
        <time>2022-10-23T10:37:54.524Z</time>
      </trkpt>
      <trkpt lat="48.79051" lon="2.07148">
        <ele>163</ele>
        <time>2022-10-23T10:37:59.547Z</time>
      </trkpt>
      <trkpt lat="48.79045" lon="2.07142">
        <ele>163</ele>
        <time>2022-10-23T10:38:04.534Z</time>
      </trkpt>
      <trkpt lat="48.79039" lon="2.07131">
        <ele>164</ele>
        <time>2022-10-23T10:38:09.536Z</time>
      </trkpt>
      <trkpt lat="48.79036" lon="2.07126">
        <ele>164</ele>
        <time>2022-10-23T10:38:13.551Z</time>
      </trkpt>
      <trkpt lat="48.79029" lon="2.07118">
        <ele>163</ele>
        <time>2022-10-23T10:38:18.529Z</time>
      </trkpt>
      <trkpt lat="48.79023" lon="2.07111">
        <ele>163</ele>
        <time>2022-10-23T10:38:23.511Z</time>
      </trkpt>
      <trkpt lat="48.79019" lon="2.07106">
        <ele>163</ele>
        <time>2022-10-23T10:38:27.543Z</time>
      </trkpt>
      <trkpt lat="48.79013" lon="2.07098">
        <ele>166</ele>
        <time>2022-10-23T10:38:32.530Z</time>
      </trkpt>
      <trkpt lat="48.79007" lon="2.07091">
        <ele>163</ele>
        <time>2022-10-23T10:38:37.551Z</time>
      </trkpt>
      <trkpt lat="48.79002" lon="2.07085">
        <ele>163</ele>
        <time>2022-10-23T10:38:42.524Z</time>
      </trkpt>
      <trkpt lat="48.78997" lon="2.0708">
        <ele>163</ele>
        <time>2022-10-23T10:38:47.543Z</time>
      </trkpt>
      <trkpt lat="48.7899" lon="2.07071">
        <ele>163</ele>
        <time>2022-10-23T10:38:52.515Z</time>
      </trkpt>
      <trkpt lat="48.78986" lon="2.07064">
        <ele>161</ele>
        <time>2022-10-23T10:38:56.517Z</time>
      </trkpt>
      <trkpt lat="48.78981" lon="2.07055">
        <ele>161</ele>
        <time>2022-10-23T10:39:01.537Z</time>
      </trkpt>
      <trkpt lat="48.78976" lon="2.07049">
        <ele>161</ele>
        <time>2022-10-23T10:39:05.539Z</time>
      </trkpt>
      <trkpt lat="48.78971" lon="2.07042">
        <ele>161</ele>
        <time>2022-10-23T10:39:10.543Z</time>
      </trkpt>
      <trkpt lat="48.78965" lon="2.07035">
        <ele>160</ele>
        <time>2022-10-23T10:39:15.520Z</time>
      </trkpt>
      <trkpt lat="48.78961" lon="2.07029">
        <ele>160</ele>
        <time>2022-10-23T10:39:19.531Z</time>
      </trkpt>
      <trkpt lat="48.78955" lon="2.07021">
        <ele>160</ele>
        <time>2022-10-23T10:39:24.520Z</time>
      </trkpt>
      <trkpt lat="48.78951" lon="2.07016">
        <ele>160</ele>
        <time>2022-10-23T10:39:28.535Z</time>
      </trkpt>
      <trkpt lat="48.78945" lon="2.0701">
        <ele>159</ele>
        <time>2022-10-23T10:39:33.535Z</time>
      </trkpt>
      <trkpt lat="48.7894" lon="2.07004">
        <ele>159</ele>
        <time>2022-10-23T10:39:38.552Z</time>
      </trkpt>
      <trkpt lat="48.78932" lon="2.06999">
        <ele>159</ele>
        <time>2022-10-23T10:39:43.514Z</time>
      </trkpt>
      <trkpt lat="48.78926" lon="2.06998">
        <ele>159</ele>
        <time>2022-10-23T10:39:47.543Z</time>
      </trkpt>
      <trkpt lat="48.78918" lon="2.06995">
        <ele>159</ele>
        <time>2022-10-23T10:39:52.542Z</time>
      </trkpt>
      <trkpt lat="48.78911" lon="2.0699">
        <ele>159</ele>
        <time>2022-10-23T10:39:57.551Z</time>
      </trkpt>
      <trkpt lat="48.78905" lon="2.06987">
        <ele>159</ele>
        <time>2022-10-23T10:40:01.559Z</time>
      </trkpt>
      <trkpt lat="48.78898" lon="2.06984">
        <ele>157</ele>
        <time>2022-10-23T10:40:06.537Z</time>
      </trkpt>
      <trkpt lat="48.78892" lon="2.06982">
        <ele>157</ele>
        <time>2022-10-23T10:40:10.559Z</time>
      </trkpt>
      <trkpt lat="48.78883" lon="2.06981">
        <ele>157</ele>
        <time>2022-10-23T10:40:15.541Z</time>
      </trkpt>
      <trkpt lat="48.78876" lon="2.0698">
        <ele>157</ele>
        <time>2022-10-23T10:40:20.549Z</time>
      </trkpt>
      <trkpt lat="48.7887" lon="2.06979">
        <ele>158</ele>
        <time>2022-10-23T10:40:25.535Z</time>
      </trkpt>
      <trkpt lat="48.78864" lon="2.06978">
        <ele>158</ele>
        <time>2022-10-23T10:40:30.567Z</time>
      </trkpt>
      <trkpt lat="48.78858" lon="2.06976">
        <ele>158</ele>
        <time>2022-10-23T10:40:35.534Z</time>
      </trkpt>
      <trkpt lat="48.78851" lon="2.06973">
        <ele>158</ele>
        <time>2022-10-23T10:40:40.558Z</time>
      </trkpt>
      <trkpt lat="48.78844" lon="2.06971">
        <ele>162</ele>
        <time>2022-10-23T10:40:45.529Z</time>
      </trkpt>
      <trkpt lat="48.78837" lon="2.0697">
        <ele>162</ele>
        <time>2022-10-23T10:40:50.562Z</time>
      </trkpt>
      <trkpt lat="48.78832" lon="2.06973">
        <ele>162</ele>
        <time>2022-10-23T10:40:54.561Z</time>
      </trkpt>
      <trkpt lat="48.78826" lon="2.06976">
        <ele>162</ele>
        <time>2022-10-23T10:40:59.563Z</time>
      </trkpt>
      <trkpt lat="48.78819" lon="2.06978">
        <ele>164</ele>
        <time>2022-10-23T10:41:04.545Z</time>
      </trkpt>
      <trkpt lat="48.78815" lon="2.06983">
        <ele>164</ele>
        <time>2022-10-23T10:41:09.541Z</time>
      </trkpt>
      <trkpt lat="48.78811" lon="2.06986">
        <ele>163</ele>
        <time>2022-10-23T10:41:13.556Z</time>
      </trkpt>
      <trkpt lat="48.78807" lon="2.06996">
        <ele>163</ele>
        <time>2022-10-23T10:41:18.524Z</time>
      </trkpt>
      <trkpt lat="48.78805" lon="2.07005">
        <ele>163</ele>
        <time>2022-10-23T10:41:23.503Z</time>
      </trkpt>
      <trkpt lat="48.78802" lon="2.07012">
        <ele>163</ele>
        <time>2022-10-23T10:41:27.556Z</time>
      </trkpt>
      <trkpt lat="48.78798" lon="2.07021">
        <ele>162</ele>
        <time>2022-10-23T10:41:32.533Z</time>
      </trkpt>
      <trkpt lat="48.78795" lon="2.07027">
        <ele>162</ele>
        <time>2022-10-23T10:41:36.529Z</time>
      </trkpt>
      <trkpt lat="48.78791" lon="2.07037">
        <ele>162</ele>
        <time>2022-10-23T10:41:41.523Z</time>
      </trkpt>
      <trkpt lat="48.7879" lon="2.07045">
        <ele>161</ele>
        <time>2022-10-23T10:41:45.529Z</time>
      </trkpt>
      <trkpt lat="48.78788" lon="2.07052">
        <ele>161</ele>
        <time>2022-10-23T10:41:49.531Z</time>
      </trkpt>
      <trkpt lat="48.78788" lon="2.07059">
        <ele>161</ele>
        <time>2022-10-23T10:41:53.548Z</time>
      </trkpt>
      <trkpt lat="48.78786" lon="2.07071">
        <ele>162</ele>
        <time>2022-10-23T10:41:58.522Z</time>
      </trkpt>
      <trkpt lat="48.78786" lon="2.0708">
        <ele>162</ele>
        <time>2022-10-23T10:42:02.532Z</time>
      </trkpt>
      <trkpt lat="48.78785" lon="2.07089">
        <ele>162</ele>
        <time>2022-10-23T10:42:07.542Z</time>
      </trkpt>
      <trkpt lat="48.78784" lon="2.07101">
        <ele>161</ele>
        <time>2022-10-23T10:42:12.538Z</time>
      </trkpt>
      <trkpt lat="48.78784" lon="2.07109">
        <ele>161</ele>
        <time>2022-10-23T10:42:16.556Z</time>
      </trkpt>
      <trkpt lat="48.78783" lon="2.0712">
        <ele>161</ele>
        <time>2022-10-23T10:42:21.551Z</time>
      </trkpt>
      <trkpt lat="48.78782" lon="2.07127">
        <ele>161</ele>
        <time>2022-10-23T10:42:25.553Z</time>
      </trkpt>
      <trkpt lat="48.78783" lon="2.07137">
        <ele>161</ele>
        <time>2022-10-23T10:42:30.547Z</time>
      </trkpt>
      <trkpt lat="48.78782" lon="2.07145">
        <ele>161</ele>
        <time>2022-10-23T10:42:34.537Z</time>
      </trkpt>
      <trkpt lat="48.7878" lon="2.07155">
        <ele>161</ele>
        <time>2022-10-23T10:42:39.534Z</time>
      </trkpt>
      <trkpt lat="48.78779" lon="2.07164">
        <ele>161</ele>
        <time>2022-10-23T10:42:44.544Z</time>
      </trkpt>
      <trkpt lat="48.78777" lon="2.07173">
        <ele>161</ele>
        <time>2022-10-23T10:42:49.550Z</time>
      </trkpt>
      <trkpt lat="48.78776" lon="2.0718">
        <ele>161</ele>
        <time>2022-10-23T10:42:53.560Z</time>
      </trkpt>
      <trkpt lat="48.78774" lon="2.07189">
        <ele>160</ele>
        <time>2022-10-23T10:42:58.537Z</time>
      </trkpt>
      <trkpt lat="48.78771" lon="2.07199">
        <ele>160</ele>
        <time>2022-10-23T10:43:03.548Z</time>
      </trkpt>
      <trkpt lat="48.78768" lon="2.07207">
        <ele>160</ele>
        <time>2022-10-23T10:43:08.528Z</time>
      </trkpt>
      <trkpt lat="48.78766" lon="2.07213">
        <ele>160</ele>
        <time>2022-10-23T10:43:12.555Z</time>
      </trkpt>
      <trkpt lat="48.78764" lon="2.07222">
        <ele>160</ele>
        <time>2022-10-23T10:43:17.556Z</time>
      </trkpt>
      <trkpt lat="48.78762" lon="2.0723">
        <ele>160</ele>
        <time>2022-10-23T10:43:21.559Z</time>
      </trkpt>
      <trkpt lat="48.78759" lon="2.07239">
        <ele>159</ele>
        <time>2022-10-23T10:43:26.511Z</time>
      </trkpt>
      <trkpt lat="48.78755" lon="2.07246">
        <ele>159</ele>
        <time>2022-10-23T10:43:30.539Z</time>
      </trkpt>
      <trkpt lat="48.78752" lon="2.07257">
        <ele>159</ele>
        <time>2022-10-23T10:43:35.543Z</time>
      </trkpt>
      <trkpt lat="48.78748" lon="2.07267">
        <ele>159</ele>
        <time>2022-10-23T10:43:40.537Z</time>
      </trkpt>
      <trkpt lat="48.78743" lon="2.07277">
        <ele>159</ele>
        <time>2022-10-23T10:43:45.526Z</time>
      </trkpt>
      <trkpt lat="48.7874" lon="2.07287">
        <ele>159</ele>
        <time>2022-10-23T10:43:49.529Z</time>
      </trkpt>
      <trkpt lat="48.78738" lon="2.07298">
        <ele>158</ele>
        <time>2022-10-23T10:43:54.513Z</time>
      </trkpt>
      <trkpt lat="48.78735" lon="2.07307">
        <ele>157</ele>
        <time>2022-10-23T10:43:59.540Z</time>
      </trkpt>
      <trkpt lat="48.78732" lon="2.07318">
        <ele>157</ele>
        <time>2022-10-23T10:44:04.533Z</time>
      </trkpt>
      <trkpt lat="48.78729" lon="2.07327">
        <ele>156</ele>
        <time>2022-10-23T10:44:09.535Z</time>
      </trkpt>
      <trkpt lat="48.78727" lon="2.07338">
        <ele>156</ele>
        <time>2022-10-23T10:44:14.520Z</time>
      </trkpt>
      <trkpt lat="48.78725" lon="2.07347">
        <ele>156</ele>
        <time>2022-10-23T10:44:18.528Z</time>
      </trkpt>
      <trkpt lat="48.78724" lon="2.07355">
        <ele>155</ele>
        <time>2022-10-23T10:44:22.535Z</time>
      </trkpt>
      <trkpt lat="48.78722" lon="2.07365">
        <ele>155</ele>
        <time>2022-10-23T10:44:27.567Z</time>
      </trkpt>
      <trkpt lat="48.78721" lon="2.07374">
        <ele>155</ele>
        <time>2022-10-23T10:44:32.535Z</time>
      </trkpt>
      <trkpt lat="48.7872" lon="2.07381">
        <ele>155</ele>
        <time>2022-10-23T10:44:37.537Z</time>
      </trkpt>
      <trkpt lat="48.78719" lon="2.07388">
        <ele>155</ele>
        <time>2022-10-23T10:44:41.554Z</time>
      </trkpt>
      <trkpt lat="48.78716" lon="2.074">
        <ele>155</ele>
        <time>2022-10-23T10:44:46.528Z</time>
      </trkpt>
      <trkpt lat="48.78714" lon="2.07408">
        <ele>155</ele>
        <time>2022-10-23T10:44:50.539Z</time>
      </trkpt>
      <trkpt lat="48.78713" lon="2.07417">
        <ele>155</ele>
        <time>2022-10-23T10:44:55.554Z</time>
      </trkpt>
      <trkpt lat="48.78712" lon="2.07425">
        <ele>155</ele>
        <time>2022-10-23T10:45:00.532Z</time>
      </trkpt>
      <trkpt lat="48.78712" lon="2.07433">
        <ele>156</ele>
        <time>2022-10-23T10:45:04.543Z</time>
      </trkpt>
      <trkpt lat="48.7871" lon="2.07443">
        <ele>156</ele>
        <time>2022-10-23T10:45:09.549Z</time>
      </trkpt>
      <trkpt lat="48.78709" lon="2.0745">
        <ele>156</ele>
        <time>2022-10-23T10:45:13.546Z</time>
      </trkpt>
      <trkpt lat="48.78709" lon="2.07462">
        <ele>158</ele>
        <time>2022-10-23T10:45:18.530Z</time>
      </trkpt>
      <trkpt lat="48.78708" lon="2.07472">
        <ele>158</ele>
        <time>2022-10-23T10:45:23.551Z</time>
      </trkpt>
      <trkpt lat="48.78707" lon="2.07482">
        <ele>160</ele>
        <time>2022-10-23T10:45:27.553Z</time>
      </trkpt>
      <trkpt lat="48.78705" lon="2.07494">
        <ele>162</ele>
        <time>2022-10-23T10:45:32.510Z</time>
      </trkpt>
      <trkpt lat="48.78706" lon="2.07503">
        <ele>162</ele>
        <time>2022-10-23T10:45:36.527Z</time>
      </trkpt>
      <trkpt lat="48.78705" lon="2.0751">
        <ele>162</ele>
        <time>2022-10-23T10:45:40.535Z</time>
      </trkpt>
      <trkpt lat="48.78706" lon="2.07518">
        <ele>162</ele>
        <time>2022-10-23T10:45:44.542Z</time>
      </trkpt>
      <trkpt lat="48.78706" lon="2.07525">
        <ele>162</ele>
        <time>2022-10-23T10:45:49.525Z</time>
      </trkpt>
      <trkpt lat="48.78706" lon="2.07532">
        <ele>162</ele>
        <time>2022-10-23T10:45:53.557Z</time>
      </trkpt>
      <trkpt lat="48.78706" lon="2.07542">
        <ele>162</ele>
        <time>2022-10-23T10:45:58.533Z</time>
      </trkpt>
      <trkpt lat="48.78707" lon="2.0755">
        <ele>162</ele>
        <time>2022-10-23T10:46:03.547Z</time>
      </trkpt>
      <trkpt lat="48.78708" lon="2.07561">
        <ele>162</ele>
        <time>2022-10-23T10:46:08.534Z</time>
      </trkpt>
      <trkpt lat="48.78707" lon="2.0757">
        <ele>163</ele>
        <time>2022-10-23T10:46:13.541Z</time>
      </trkpt>
      <trkpt lat="48.78707" lon="2.07579">
        <ele>163</ele>
        <time>2022-10-23T10:46:17.543Z</time>
      </trkpt>
      <trkpt lat="48.78707" lon="2.07588">
        <ele>163</ele>
        <time>2022-10-23T10:46:22.526Z</time>
      </trkpt>
      <trkpt lat="48.78707" lon="2.07598">
        <ele>164</ele>
        <time>2022-10-23T10:46:26.529Z</time>
      </trkpt>
      <trkpt lat="48.78707" lon="2.07606">
        <ele>164</ele>
        <time>2022-10-23T10:46:30.541Z</time>
      </trkpt>
      <trkpt lat="48.78708" lon="2.07616">
        <ele>159</ele>
        <time>2022-10-23T10:46:35.550Z</time>
      </trkpt>
      <trkpt lat="48.7871" lon="2.07625">
        <ele>160</ele>
        <time>2022-10-23T10:46:39.556Z</time>
      </trkpt>
      <trkpt lat="48.7871" lon="2.07637">
        <ele>160</ele>
        <time>2022-10-23T10:46:44.540Z</time>
      </trkpt>
      <trkpt lat="48.78711" lon="2.07645">
        <ele>160</ele>
        <time>2022-10-23T10:46:48.542Z</time>
      </trkpt>
      <trkpt lat="48.78711" lon="2.07654">
        <ele>162</ele>
        <time>2022-10-23T10:46:53.553Z</time>
      </trkpt>
      <trkpt lat="48.7871" lon="2.07663">
        <ele>162</ele>
        <time>2022-10-23T10:46:58.541Z</time>
      </trkpt>
      <trkpt lat="48.7871" lon="2.07676">
        <ele>162</ele>
        <time>2022-10-23T10:47:03.547Z</time>
      </trkpt>
      <trkpt lat="48.78709" lon="2.07685">
        <ele>162</ele>
        <time>2022-10-23T10:47:07.562Z</time>
      </trkpt>
      <trkpt lat="48.78707" lon="2.07698">
        <ele>164</ele>
        <time>2022-10-23T10:47:12.537Z</time>
      </trkpt>
      <trkpt lat="48.78708" lon="2.07706">
        <ele>164</ele>
        <time>2022-10-23T10:47:16.552Z</time>
      </trkpt>
      <trkpt lat="48.78709" lon="2.07715">
        <ele>162</ele>
        <time>2022-10-23T10:47:20.552Z</time>
      </trkpt>
      <trkpt lat="48.78709" lon="2.07727">
        <ele>162</ele>
        <time>2022-10-23T10:47:25.560Z</time>
      </trkpt>
      <trkpt lat="48.78709" lon="2.07737">
        <ele>162</ele>
        <time>2022-10-23T10:47:30.530Z</time>
      </trkpt>
      <trkpt lat="48.78709" lon="2.07748">
        <ele>162</ele>
        <time>2022-10-23T10:47:35.547Z</time>
      </trkpt>
      <trkpt lat="48.78709" lon="2.07759">
        <ele>162</ele>
        <time>2022-10-23T10:47:40.543Z</time>
      </trkpt>
      <trkpt lat="48.78708" lon="2.07768">
        <ele>165</ele>
        <time>2022-10-23T10:47:45.553Z</time>
      </trkpt>
      <trkpt lat="48.78708" lon="2.07777">
        <ele>165</ele>
        <time>2022-10-23T10:47:49.549Z</time>
      </trkpt>
      <trkpt lat="48.78708" lon="2.07786">
        <ele>165</ele>
        <time>2022-10-23T10:47:54.534Z</time>
      </trkpt>
      <trkpt lat="48.78707" lon="2.07794">
        <ele>165</ele>
        <time>2022-10-23T10:47:59.565Z</time>
      </trkpt>
      <trkpt lat="48.78708" lon="2.07806">
        <ele>165</ele>
        <time>2022-10-23T10:48:04.545Z</time>
      </trkpt>
      <trkpt lat="48.78707" lon="2.07815">
        <ele>165</ele>
        <time>2022-10-23T10:48:09.545Z</time>
      </trkpt>
      <trkpt lat="48.78707" lon="2.07824">
        <ele>165</ele>
        <time>2022-10-23T10:48:13.555Z</time>
      </trkpt>
      <trkpt lat="48.78706" lon="2.07833">
        <ele>165</ele>
        <time>2022-10-23T10:48:18.542Z</time>
      </trkpt>
      <trkpt lat="48.78705" lon="2.07838">
        <ele>165</ele>
        <time>2022-10-23T10:48:22.543Z</time>
      </trkpt>
      <trkpt lat="48.78704" lon="2.07848">
        <ele>165</ele>
        <time>2022-10-23T10:48:27.565Z</time>
      </trkpt>
      <trkpt lat="48.78703" lon="2.07859">
        <ele>165</ele>
        <time>2022-10-23T10:48:32.559Z</time>
      </trkpt>
      <trkpt lat="48.78701" lon="2.07871">
        <ele>165</ele>
        <time>2022-10-23T10:48:37.549Z</time>
      </trkpt>
      <trkpt lat="48.787" lon="2.07882">
        <ele>165</ele>
        <time>2022-10-23T10:48:42.568Z</time>
      </trkpt>
      <trkpt lat="48.787" lon="2.07894">
        <ele>165</ele>
        <time>2022-10-23T10:48:47.506Z</time>
      </trkpt>
      <trkpt lat="48.78701" lon="2.07903">
        <ele>166</ele>
        <time>2022-10-23T10:48:51.511Z</time>
      </trkpt>
      <trkpt lat="48.78701" lon="2.0791">
        <ele>166</ele>
        <time>2022-10-23T10:48:55.539Z</time>
      </trkpt>
      <trkpt lat="48.78702" lon="2.07915">
        <ele>166</ele>
        <time>2022-10-23T10:48:59.547Z</time>
      </trkpt>
      <trkpt lat="48.78703" lon="2.07917">
        <ele>166</ele>
        <time>2022-10-23T10:49:04.549Z</time>
      </trkpt>
      <trkpt lat="48.78702" lon="2.07927">
        <ele>166</ele>
        <time>2022-10-23T10:49:09.521Z</time>
      </trkpt>
      <trkpt lat="48.78702" lon="2.07933">
        <ele>165</ele>
        <time>2022-10-23T10:49:13.524Z</time>
      </trkpt>
      <trkpt lat="48.78701" lon="2.0794">
        <ele>165</ele>
        <time>2022-10-23T10:49:18.528Z</time>
      </trkpt>
      <trkpt lat="48.787" lon="2.0795">
        <ele>165</ele>
        <time>2022-10-23T10:49:23.505Z</time>
      </trkpt>
      <trkpt lat="48.78699" lon="2.07956">
        <ele>165</ele>
        <time>2022-10-23T10:49:27.529Z</time>
      </trkpt>
      <trkpt lat="48.78699" lon="2.07965">
        <ele>164</ele>
        <time>2022-10-23T10:49:32.555Z</time>
      </trkpt>
      <trkpt lat="48.78701" lon="2.07976">
        <ele>164</ele>
        <time>2022-10-23T10:49:37.502Z</time>
      </trkpt>
      <trkpt lat="48.78704" lon="2.07981">
        <ele>164</ele>
        <time>2022-10-23T10:49:41.521Z</time>
      </trkpt>
      <trkpt lat="48.78707" lon="2.07988">
        <ele>162</ele>
        <time>2022-10-23T10:49:46.522Z</time>
      </trkpt>
      <trkpt lat="48.7871" lon="2.07993">
        <ele>163</ele>
        <time>2022-10-23T10:49:50.516Z</time>
      </trkpt>
      <trkpt lat="48.78714" lon="2.07999">
        <ele>163</ele>
        <time>2022-10-23T10:49:55.510Z</time>
      </trkpt>
      <trkpt lat="48.78717" lon="2.08003">
        <ele>163</ele>
        <time>2022-10-23T10:49:59.517Z</time>
      </trkpt>
      <trkpt lat="48.78721" lon="2.08008">
        <ele>163</ele>
        <time>2022-10-23T10:50:04.526Z</time>
      </trkpt>
      <trkpt lat="48.78726" lon="2.08013">
        <ele>163</ele>
        <time>2022-10-23T10:50:09.527Z</time>
      </trkpt>
      <trkpt lat="48.78729" lon="2.08019">
        <ele>158</ele>
        <time>2022-10-23T10:50:14.536Z</time>
      </trkpt>
      <trkpt lat="48.78734" lon="2.08022">
        <ele>158</ele>
        <time>2022-10-23T10:50:19.506Z</time>
      </trkpt>
      <trkpt lat="48.78738" lon="2.08028">
        <ele>154</ele>
        <time>2022-10-23T10:50:24.534Z</time>
      </trkpt>
      <trkpt lat="48.78743" lon="2.08033">
        <ele>154</ele>
        <time>2022-10-23T10:50:29.521Z</time>
      </trkpt>
      <trkpt lat="48.78747" lon="2.08039">
        <ele>154</ele>
        <time>2022-10-23T10:50:34.506Z</time>
      </trkpt>
      <trkpt lat="48.78749" lon="2.08045">
        <ele>150</ele>
        <time>2022-10-23T10:50:38.509Z</time>
      </trkpt>
      <trkpt lat="48.78753" lon="2.08052">
        <ele>150</ele>
        <time>2022-10-23T10:50:43.526Z</time>
      </trkpt>
      <trkpt lat="48.78757" lon="2.08059">
        <ele>150</ele>
        <time>2022-10-23T10:50:48.501Z</time>
      </trkpt>
      <trkpt lat="48.7876" lon="2.08063">
        <ele>150</ele>
        <time>2022-10-23T10:50:52.528Z</time>
      </trkpt>
      <trkpt lat="48.78763" lon="2.08069">
        <ele>150</ele>
        <time>2022-10-23T10:50:56.564Z</time>
      </trkpt>
      <trkpt lat="48.78766" lon="2.08078">
        <ele>142</ele>
        <time>2022-10-23T10:51:01.556Z</time>
      </trkpt>
      <trkpt lat="48.78769" lon="2.08085">
        <ele>142</ele>
        <time>2022-10-23T10:51:06.550Z</time>
      </trkpt>
      <trkpt lat="48.78772" lon="2.08091">
        <ele>142</ele>
        <time>2022-10-23T10:51:11.543Z</time>
      </trkpt>
      <trkpt lat="48.78777" lon="2.08101">
        <ele>143</ele>
        <time>2022-10-23T10:51:16.505Z</time>
      </trkpt>
      <trkpt lat="48.78778" lon="2.08108">
        <ele>143</ele>
        <time>2022-10-23T10:51:20.549Z</time>
      </trkpt>
      <trkpt lat="48.78779" lon="2.08115">
        <ele>143</ele>
        <time>2022-10-23T10:51:24.554Z</time>
      </trkpt>
      <trkpt lat="48.78781" lon="2.08121">
        <ele>143</ele>
        <time>2022-10-23T10:51:29.546Z</time>
      </trkpt>
      <trkpt lat="48.78783" lon="2.08127">
        <ele>141</ele>
        <time>2022-10-23T10:51:34.561Z</time>
      </trkpt>
      <trkpt lat="48.78784" lon="2.08128">
        <ele>141</ele>
        <time>2022-10-23T10:51:39.542Z</time>
      </trkpt>
      <trkpt lat="48.78785" lon="2.08132">
        <ele>141</ele>
        <time>2022-10-23T10:51:43.538Z</time>
      </trkpt>
      <trkpt lat="48.78786" lon="2.08138">
        <ele>141</ele>
        <time>2022-10-23T10:51:47.541Z</time>
      </trkpt>
      <trkpt lat="48.78786" lon="2.08147">
        <ele>141</ele>
        <time>2022-10-23T10:51:52.531Z</time>
      </trkpt>
      <trkpt lat="48.78788" lon="2.08156">
        <ele>140</ele>
        <time>2022-10-23T10:51:56.552Z</time>
      </trkpt>
      <trkpt lat="48.7879" lon="2.08165">
        <ele>140</ele>
        <time>2022-10-23T10:52:01.549Z</time>
      </trkpt>
      <trkpt lat="48.78792" lon="2.08176">
        <ele>140</ele>
        <time>2022-10-23T10:52:06.549Z</time>
      </trkpt>
      <trkpt lat="48.78795" lon="2.08184">
        <ele>142</ele>
        <time>2022-10-23T10:52:11.544Z</time>
      </trkpt>
      <trkpt lat="48.78796" lon="2.08191">
        <ele>142</ele>
        <time>2022-10-23T10:52:16.548Z</time>
      </trkpt>
      <trkpt lat="48.78792" lon="2.08193">
        <ele>141</ele>
        <time>2022-10-23T10:52:21.533Z</time>
      </trkpt>
      <trkpt lat="48.78788" lon="2.08195">
        <ele>141</ele>
        <time>2022-10-23T10:52:25.537Z</time>
      </trkpt>
      <trkpt lat="48.78784" lon="2.08197">
        <ele>141</ele>
        <time>2022-10-23T10:52:30.534Z</time>
      </trkpt>
      <trkpt lat="48.78779" lon="2.08201">
        <ele>141</ele>
        <time>2022-10-23T10:52:35.499Z</time>
      </trkpt>
      <trkpt lat="48.78775" lon="2.08201">
        <ele>141</ele>
        <time>2022-10-23T10:52:39.506Z</time>
      </trkpt>
      <trkpt lat="48.78771" lon="2.08202">
        <ele>141</ele>
        <time>2022-10-23T10:52:44.500Z</time>
      </trkpt>
      <trkpt lat="48.78768" lon="2.08206">
        <ele>141</ele>
        <time>2022-10-23T10:52:49.501Z</time>
      </trkpt>
      <trkpt lat="48.78761" lon="2.08212">
        <ele>147</ele>
        <time>2022-10-23T10:52:54.498Z</time>
      </trkpt>
      <trkpt lat="48.78754" lon="2.08214">
        <ele>147</ele>
        <time>2022-10-23T10:52:59.496Z</time>
      </trkpt>
      <trkpt lat="48.78749" lon="2.08215">
        <ele>147</ele>
        <time>2022-10-23T10:53:04.513Z</time>
      </trkpt>
      <trkpt lat="48.78742" lon="2.08213">
        <ele>147</ele>
        <time>2022-10-23T10:53:09.500Z</time>
      </trkpt>
      <trkpt lat="48.78737" lon="2.08212">
        <ele>147</ele>
        <time>2022-10-23T10:53:14.502Z</time>
      </trkpt>
      <trkpt lat="48.78733" lon="2.08212">
        <ele>145</ele>
        <time>2022-10-23T10:53:18.506Z</time>
      </trkpt>
      <trkpt lat="48.78726" lon="2.08212">
        <ele>145</ele>
        <time>2022-10-23T10:53:23.511Z</time>
      </trkpt>
      <trkpt lat="48.78719" lon="2.08211">
        <ele>145</ele>
        <time>2022-10-23T10:53:28.510Z</time>
      </trkpt>
      <trkpt lat="48.78715" lon="2.0821">
        <ele>145</ele>
        <time>2022-10-23T10:53:33.506Z</time>
      </trkpt>
      <trkpt lat="48.78709" lon="2.08212">
        <ele>145</ele>
        <time>2022-10-23T10:53:38.501Z</time>
      </trkpt>
      <trkpt lat="48.78705" lon="2.08214">
        <ele>143</ele>
        <time>2022-10-23T10:53:42.504Z</time>
      </trkpt>
      <trkpt lat="48.78697" lon="2.08217">
        <ele>143</ele>
        <time>2022-10-23T10:53:47.501Z</time>
      </trkpt>
      <trkpt lat="48.78691" lon="2.08218">
        <ele>143</ele>
        <time>2022-10-23T10:53:51.518Z</time>
      </trkpt>
      <trkpt lat="48.78684" lon="2.08223">
        <ele>143</ele>
        <time>2022-10-23T10:53:56.517Z</time>
      </trkpt>
      <trkpt lat="48.78676" lon="2.08222">
        <ele>142</ele>
        <time>2022-10-23T10:54:01.500Z</time>
      </trkpt>
      <trkpt lat="48.78671" lon="2.08227">
        <ele>142</ele>
        <time>2022-10-23T10:54:05.513Z</time>
      </trkpt>
      <trkpt lat="48.78665" lon="2.08232">
        <ele>142</ele>
        <time>2022-10-23T10:54:10.502Z</time>
      </trkpt>
      <trkpt lat="48.78659" lon="2.08236">
        <ele>142</ele>
        <time>2022-10-23T10:54:14.527Z</time>
      </trkpt>
      <trkpt lat="48.78653" lon="2.08241">
        <ele>145</ele>
        <time>2022-10-23T10:54:19.498Z</time>
      </trkpt>
      <trkpt lat="48.78648" lon="2.08246">
        <ele>140</ele>
        <time>2022-10-23T10:54:23.533Z</time>
      </trkpt>
      <trkpt lat="48.78642" lon="2.08252">
        <ele>140</ele>
        <time>2022-10-23T10:54:28.547Z</time>
      </trkpt>
      <trkpt lat="48.78635" lon="2.08265">
        <ele>143</ele>
        <time>2022-10-23T10:55:10.543Z</time>
      </trkpt>
      <trkpt lat="48.78635" lon="2.08265">
        <ele>143</ele>
        <time>2022-10-23T10:55:15.526Z</time>
      </trkpt>
      <trkpt lat="48.78636" lon="2.08267">
        <ele>143</ele>
        <time>2022-10-23T10:55:20.520Z</time>
      </trkpt>
      <trkpt lat="48.78635" lon="2.0827">
        <ele>143</ele>
        <time>2022-10-23T10:55:24.531Z</time>
      </trkpt>
      <trkpt lat="48.78635" lon="2.08274">
        <ele>143</ele>
        <time>2022-10-23T10:55:29.520Z</time>
      </trkpt>
      <trkpt lat="48.78637" lon="2.08273">
        <ele>143</ele>
        <time>2022-10-23T11:29:33.534Z</time>
      </trkpt>
      <trkpt lat="48.78637" lon="2.08273">
        <ele>143</ele>
        <time>2022-10-23T11:29:37.541Z</time>
      </trkpt>
      <trkpt lat="48.78637" lon="2.08271">
        <ele>143</ele>
        <time>2022-10-23T11:29:42.541Z</time>
      </trkpt>
      <trkpt lat="48.78638" lon="2.08272">
        <ele>143</ele>
        <time>2022-10-23T11:29:47.519Z</time>
      </trkpt>
      <trkpt lat="48.78642" lon="2.08281">
        <ele>143</ele>
        <time>2022-10-23T11:29:52.549Z</time>
      </trkpt>
      <trkpt lat="48.78642" lon="2.08274">
        <ele>143</ele>
        <time>2022-10-23T11:30:34.497Z</time>
      </trkpt>
      <trkpt lat="48.78642" lon="2.08273">
        <ele>143</ele>
        <time>2022-10-23T11:30:38.526Z</time>
      </trkpt>
      <trkpt lat="48.78641" lon="2.08273">
        <ele>143</ele>
        <time>2022-10-23T11:30:42.528Z</time>
      </trkpt>
      <trkpt lat="48.78641" lon="2.08272">
        <ele>143</ele>
        <time>2022-10-23T11:30:46.547Z</time>
      </trkpt>
      <trkpt lat="48.78641" lon="2.08272">
        <ele>143</ele>
        <time>2022-10-23T11:30:51.531Z</time>
      </trkpt>
      <trkpt lat="48.78634" lon="2.08273">
        <ele>143</ele>
        <time>2022-10-23T11:41:09.513Z</time>
      </trkpt>
      <trkpt lat="48.78633" lon="2.08273">
        <ele>143</ele>
        <time>2022-10-23T11:41:13.511Z</time>
      </trkpt>
      <trkpt lat="48.78633" lon="2.08274">
        <ele>143</ele>
        <time>2022-10-23T11:41:18.521Z</time>
      </trkpt>
      <trkpt lat="48.78633" lon="2.08275">
        <ele>143</ele>
        <time>2022-10-23T11:41:22.519Z</time>
      </trkpt>
      <trkpt lat="48.78632" lon="2.08274">
        <ele>143</ele>
        <time>2022-10-23T11:41:26.539Z</time>
      </trkpt>
      <trkpt lat="48.78633" lon="2.08271">
        <ele>143</ele>
        <time>2022-10-23T11:42:37.524Z</time>
      </trkpt>
      <trkpt lat="48.78631" lon="2.08269">
        <ele>143</ele>
        <time>2022-10-23T11:42:41.524Z</time>
      </trkpt>
      <trkpt lat="48.78628" lon="2.08268">
        <ele>143</ele>
        <time>2022-10-23T11:42:45.525Z</time>
      </trkpt>
      <trkpt lat="48.78625" lon="2.08269">
        <ele>143</ele>
        <time>2022-10-23T11:42:49.530Z</time>
      </trkpt>
      <trkpt lat="48.78622" lon="2.08273">
        <ele>139</ele>
        <time>2022-10-23T11:42:54.546Z</time>
      </trkpt>
      <trkpt lat="48.78619" lon="2.08274">
        <ele>139</ele>
        <time>2022-10-23T11:42:58.548Z</time>
      </trkpt>
      <trkpt lat="48.78614" lon="2.08276">
        <ele>139</ele>
        <time>2022-10-23T11:43:03.534Z</time>
      </trkpt>
      <trkpt lat="48.78609" lon="2.08275">
        <ele>139</ele>
        <time>2022-10-23T11:43:08.532Z</time>
      </trkpt>
      <trkpt lat="48.78605" lon="2.08276">
        <ele>139</ele>
        <time>2022-10-23T11:43:12.536Z</time>
      </trkpt>
      <trkpt lat="48.78599" lon="2.08277">
        <ele>139</ele>
        <time>2022-10-23T11:43:17.529Z</time>
      </trkpt>
      <trkpt lat="48.78593" lon="2.08279">
        <ele>139</ele>
        <time>2022-10-23T11:43:22.559Z</time>
      </trkpt>
      <trkpt lat="48.78587" lon="2.0828">
        <ele>139</ele>
        <time>2022-10-23T11:43:27.553Z</time>
      </trkpt>
      <trkpt lat="48.78581" lon="2.08282">
        <ele>139</ele>
        <time>2022-10-23T11:43:32.534Z</time>
      </trkpt>
      <trkpt lat="48.78577" lon="2.08285">
        <ele>139</ele>
        <time>2022-10-23T11:43:36.545Z</time>
      </trkpt>
      <trkpt lat="48.7857" lon="2.08288">
        <ele>139</ele>
        <time>2022-10-23T11:43:41.525Z</time>
      </trkpt>
      <trkpt lat="48.78565" lon="2.08292">
        <ele>143</ele>
        <time>2022-10-23T11:43:45.545Z</time>
      </trkpt>
      <trkpt lat="48.78559" lon="2.08297">
        <ele>143</ele>
        <time>2022-10-23T11:43:50.560Z</time>
      </trkpt>
      <trkpt lat="48.78553" lon="2.08301">
        <ele>143</ele>
        <time>2022-10-23T11:43:55.545Z</time>
      </trkpt>
      <trkpt lat="48.78547" lon="2.08304">
        <ele>143</ele>
        <time>2022-10-23T11:44:00.536Z</time>
      </trkpt>
      <trkpt lat="48.78541" lon="2.08307">
        <ele>139</ele>
        <time>2022-10-23T11:44:05.567Z</time>
      </trkpt>
      <trkpt lat="48.78535" lon="2.08309">
        <ele>139</ele>
        <time>2022-10-23T11:44:10.543Z</time>
      </trkpt>
      <trkpt lat="48.7853" lon="2.0831">
        <ele>139</ele>
        <time>2022-10-23T11:44:14.555Z</time>
      </trkpt>
      <trkpt lat="48.78523" lon="2.08314">
        <ele>139</ele>
        <time>2022-10-23T11:44:19.549Z</time>
      </trkpt>
      <trkpt lat="48.78516" lon="2.08314">
        <ele>139</ele>
        <time>2022-10-23T11:44:24.558Z</time>
      </trkpt>
      <trkpt lat="48.7851" lon="2.08316">
        <ele>131</ele>
        <time>2022-10-23T11:44:29.538Z</time>
      </trkpt>
      <trkpt lat="48.78503" lon="2.08318">
        <ele>131</ele>
        <time>2022-10-23T11:44:34.542Z</time>
      </trkpt>
      <trkpt lat="48.78497" lon="2.08318">
        <ele>131</ele>
        <time>2022-10-23T11:44:39.517Z</time>
      </trkpt>
      <trkpt lat="48.78491" lon="2.0832">
        <ele>140</ele>
        <time>2022-10-23T11:44:43.545Z</time>
      </trkpt>
      <trkpt lat="48.78485" lon="2.08322">
        <ele>137</ele>
        <time>2022-10-23T11:44:48.547Z</time>
      </trkpt>
      <trkpt lat="48.7848" lon="2.08325">
        <ele>137</ele>
        <time>2022-10-23T11:44:52.551Z</time>
      </trkpt>
      <trkpt lat="48.78474" lon="2.08327">
        <ele>137</ele>
        <time>2022-10-23T11:44:57.527Z</time>
      </trkpt>
      <trkpt lat="48.78469" lon="2.0833">
        <ele>137</ele>
        <time>2022-10-23T11:45:01.523Z</time>
      </trkpt>
      <trkpt lat="48.78464" lon="2.08332">
        <ele>137</ele>
        <time>2022-10-23T11:45:05.546Z</time>
      </trkpt>
      <trkpt lat="48.78458" lon="2.08335">
        <ele>138</ele>
        <time>2022-10-23T11:45:10.513Z</time>
      </trkpt>
      <trkpt lat="48.78452" lon="2.08337">
        <ele>138</ele>
        <time>2022-10-23T11:45:15.535Z</time>
      </trkpt>
      <trkpt lat="48.78447" lon="2.08339">
        <ele>138</ele>
        <time>2022-10-23T11:45:20.532Z</time>
      </trkpt>
      <trkpt lat="48.78443" lon="2.08342">
        <ele>138</ele>
        <time>2022-10-23T11:45:24.533Z</time>
      </trkpt>
      <trkpt lat="48.78439" lon="2.08344">
        <ele>138</ele>
        <time>2022-10-23T11:45:28.540Z</time>
      </trkpt>
      <trkpt lat="48.78434" lon="2.08346">
        <ele>138</ele>
        <time>2022-10-23T11:45:32.572Z</time>
      </trkpt>
      <trkpt lat="48.78428" lon="2.08348">
        <ele>136</ele>
        <time>2022-10-23T11:45:37.549Z</time>
      </trkpt>
      <trkpt lat="48.78421" lon="2.08354">
        <ele>136</ele>
        <time>2022-10-23T11:45:42.549Z</time>
      </trkpt>
      <trkpt lat="48.78415" lon="2.08363">
        <ele>136</ele>
        <time>2022-10-23T11:45:47.538Z</time>
      </trkpt>
      <trkpt lat="48.78411" lon="2.08368">
        <ele>136</ele>
        <time>2022-10-23T11:45:51.553Z</time>
      </trkpt>
      <trkpt lat="48.78407" lon="2.08376">
        <ele>140</ele>
        <time>2022-10-23T11:45:56.526Z</time>
      </trkpt>
      <trkpt lat="48.78402" lon="2.08386">
        <ele>136</ele>
        <time>2022-10-23T11:46:01.542Z</time>
      </trkpt>
      <trkpt lat="48.78399" lon="2.08395">
        <ele>136</ele>
        <time>2022-10-23T11:46:06.522Z</time>
      </trkpt>
      <trkpt lat="48.78396" lon="2.08403">
        <ele>136</ele>
        <time>2022-10-23T11:46:10.529Z</time>
      </trkpt>
      <trkpt lat="48.78392" lon="2.0841">
        <ele>139</ele>
        <time>2022-10-23T11:46:15.529Z</time>
      </trkpt>
      <trkpt lat="48.78389" lon="2.08416">
        <ele>139</ele>
        <time>2022-10-23T11:46:19.539Z</time>
      </trkpt>
      <trkpt lat="48.78385" lon="2.08422">
        <ele>139</ele>
        <time>2022-10-23T11:46:23.543Z</time>
      </trkpt>
      <trkpt lat="48.78381" lon="2.0843">
        <ele>139</ele>
        <time>2022-10-23T11:46:28.537Z</time>
      </trkpt>
      <trkpt lat="48.78378" lon="2.08437">
        <ele>141</ele>
        <time>2022-10-23T11:46:32.538Z</time>
      </trkpt>
      <trkpt lat="48.78374" lon="2.08444">
        <ele>132</ele>
        <time>2022-10-23T11:46:37.534Z</time>
      </trkpt>
      <trkpt lat="48.78371" lon="2.08453">
        <ele>132</ele>
        <time>2022-10-23T11:46:42.532Z</time>
      </trkpt>
      <trkpt lat="48.78367" lon="2.08463">
        <ele>133</ele>
        <time>2022-10-23T11:46:47.531Z</time>
      </trkpt>
      <trkpt lat="48.78363" lon="2.08471">
        <ele>133</ele>
        <time>2022-10-23T11:46:52.533Z</time>
      </trkpt>
      <trkpt lat="48.78361" lon="2.0848">
        <ele>133</ele>
        <time>2022-10-23T11:46:57.539Z</time>
      </trkpt>
      <trkpt lat="48.78356" lon="2.0849">
        <ele>134</ele>
        <time>2022-10-23T11:47:15.517Z</time>
      </trkpt>
      <trkpt lat="48.78352" lon="2.0849">
        <ele>134</ele>
        <time>2022-10-23T11:47:19.530Z</time>
      </trkpt>
      <trkpt lat="48.78346" lon="2.08488">
        <ele>132</ele>
        <time>2022-10-23T11:47:24.526Z</time>
      </trkpt>
      <trkpt lat="48.78341" lon="2.0848">
        <ele>131</ele>
        <time>2022-10-23T11:47:29.540Z</time>
      </trkpt>
      <trkpt lat="48.78337" lon="2.08474">
        <ele>131</ele>
        <time>2022-10-23T11:47:34.536Z</time>
      </trkpt>
      <trkpt lat="48.78332" lon="2.0847">
        <ele>131</ele>
        <time>2022-10-23T11:47:38.549Z</time>
      </trkpt>
      <trkpt lat="48.78327" lon="2.08465">
        <ele>131</ele>
        <time>2022-10-23T11:47:42.568Z</time>
      </trkpt>
      <trkpt lat="48.78323" lon="2.08459">
        <ele>131</ele>
        <time>2022-10-23T11:47:47.537Z</time>
      </trkpt>
      <trkpt lat="48.78317" lon="2.08451">
        <ele>132</ele>
        <time>2022-10-23T11:47:52.516Z</time>
      </trkpt>
      <trkpt lat="48.78312" lon="2.08444">
        <ele>132</ele>
        <time>2022-10-23T11:47:56.526Z</time>
      </trkpt>
      <trkpt lat="48.78308" lon="2.08438">
        <ele>132</ele>
        <time>2022-10-23T11:48:01.557Z</time>
      </trkpt>
      <trkpt lat="48.78302" lon="2.08433">
        <ele>132</ele>
        <time>2022-10-23T11:48:06.544Z</time>
      </trkpt>
      <trkpt lat="48.78296" lon="2.08425">
        <ele>130</ele>
        <time>2022-10-23T11:48:11.542Z</time>
      </trkpt>
      <trkpt lat="48.78292" lon="2.08419">
        <ele>130</ele>
        <time>2022-10-23T11:48:16.536Z</time>
      </trkpt>
      <trkpt lat="48.78287" lon="2.08412">
        <ele>133</ele>
        <time>2022-10-23T11:48:21.531Z</time>
      </trkpt>
      <trkpt lat="48.78281" lon="2.08404">
        <ele>133</ele>
        <time>2022-10-23T11:48:26.537Z</time>
      </trkpt>
      <trkpt lat="48.78276" lon="2.08398">
        <ele>133</ele>
        <time>2022-10-23T11:48:31.532Z</time>
      </trkpt>
      <trkpt lat="48.78271" lon="2.08393">
        <ele>133</ele>
        <time>2022-10-23T11:48:35.539Z</time>
      </trkpt>
      <trkpt lat="48.78267" lon="2.08388">
        <ele>133</ele>
        <time>2022-10-23T11:48:40.515Z</time>
      </trkpt>
      <trkpt lat="48.78264" lon="2.08385">
        <ele>133</ele>
        <time>2022-10-23T11:48:44.532Z</time>
      </trkpt>
      <trkpt lat="48.78262" lon="2.08381">
        <ele>136</ele>
        <time>2022-10-23T11:48:48.551Z</time>
      </trkpt>
      <trkpt lat="48.78258" lon="2.08375">
        <ele>138</ele>
        <time>2022-10-23T11:48:53.526Z</time>
      </trkpt>
      <trkpt lat="48.78257" lon="2.08374">
        <ele>138</ele>
        <time>2022-10-23T11:48:57.523Z</time>
      </trkpt>
      <trkpt lat="48.78252" lon="2.08367">
        <ele>138</ele>
        <time>2022-10-23T11:49:02.540Z</time>
      </trkpt>
      <trkpt lat="48.78246" lon="2.08368">
        <ele>138</ele>
        <time>2022-10-23T11:49:07.513Z</time>
      </trkpt>
      <trkpt lat="48.78244" lon="2.08369">
        <ele>138</ele>
        <time>2022-10-23T11:49:11.520Z</time>
      </trkpt>
      <trkpt lat="48.78241" lon="2.08374">
        <ele>138</ele>
        <time>2022-10-23T11:49:15.531Z</time>
      </trkpt>
      <trkpt lat="48.78238" lon="2.08379">
        <ele>136</ele>
        <time>2022-10-23T11:49:20.524Z</time>
      </trkpt>
      <trkpt lat="48.78237" lon="2.08385">
        <ele>136</ele>
        <time>2022-10-23T11:49:25.511Z</time>
      </trkpt>
      <trkpt lat="48.78235" lon="2.08386">
        <ele>137</ele>
        <time>2022-10-23T11:49:38.533Z</time>
      </trkpt>
      <trkpt lat="48.78235" lon="2.08387">
        <ele>137</ele>
        <time>2022-10-23T11:49:42.545Z</time>
      </trkpt>
      <trkpt lat="48.78232" lon="2.08391">
        <ele>137</ele>
        <time>2022-10-23T11:49:47.548Z</time>
      </trkpt>
      <trkpt lat="48.7823" lon="2.08394">
        <ele>137</ele>
        <time>2022-10-23T11:49:51.554Z</time>
      </trkpt>
      <trkpt lat="48.78225" lon="2.08399">
        <ele>137</ele>
        <time>2022-10-23T11:49:56.507Z</time>
      </trkpt>
      <trkpt lat="48.78225" lon="2.08403">
        <ele>137</ele>
        <time>2022-10-23T11:50:08.524Z</time>
      </trkpt>
      <trkpt lat="48.78225" lon="2.08403">
        <ele>137</ele>
        <time>2022-10-23T11:50:12.524Z</time>
      </trkpt>
      <trkpt lat="48.78224" lon="2.08404">
        <ele>135</ele>
        <time>2022-10-23T11:50:17.519Z</time>
      </trkpt>
      <trkpt lat="48.7822" lon="2.08408">
        <ele>135</ele>
        <time>2022-10-23T11:50:21.528Z</time>
      </trkpt>
      <trkpt lat="48.78216" lon="2.08414">
        <ele>135</ele>
        <time>2022-10-23T11:50:26.534Z</time>
      </trkpt>
      <trkpt lat="48.78213" lon="2.08421">
        <ele>135</ele>
        <time>2022-10-23T11:50:31.502Z</time>
      </trkpt>
      <trkpt lat="48.78208" lon="2.08427">
        <ele>137</ele>
        <time>2022-10-23T11:50:36.515Z</time>
      </trkpt>
      <trkpt lat="48.78205" lon="2.08435">
        <ele>134</ele>
        <time>2022-10-23T11:50:41.515Z</time>
      </trkpt>
      <trkpt lat="48.78201" lon="2.08441">
        <ele>134</ele>
        <time>2022-10-23T11:50:46.514Z</time>
      </trkpt>
      <trkpt lat="48.78198" lon="2.08446">
        <ele>134</ele>
        <time>2022-10-23T11:50:50.525Z</time>
      </trkpt>
      <trkpt lat="48.78193" lon="2.08452">
        <ele>134</ele>
        <time>2022-10-23T11:50:55.514Z</time>
      </trkpt>
      <trkpt lat="48.78191" lon="2.0846">
        <ele>132</ele>
        <time>2022-10-23T11:50:59.524Z</time>
      </trkpt>
      <trkpt lat="48.78189" lon="2.08467">
        <ele>132</ele>
        <time>2022-10-23T11:51:04.505Z</time>
      </trkpt>
      <trkpt lat="48.78186" lon="2.08474">
        <ele>132</ele>
        <time>2022-10-23T11:51:08.515Z</time>
      </trkpt>
      <trkpt lat="48.78181" lon="2.08481">
        <ele>132</ele>
        <time>2022-10-23T11:51:13.528Z</time>
      </trkpt>
      <trkpt lat="48.78176" lon="2.08489">
        <ele>132</ele>
        <time>2022-10-23T11:51:18.515Z</time>
      </trkpt>
      <trkpt lat="48.78172" lon="2.08498">
        <ele>132</ele>
        <time>2022-10-23T11:51:23.513Z</time>
      </trkpt>
      <trkpt lat="48.78169" lon="2.08503">
        <ele>132</ele>
        <time>2022-10-23T11:51:27.519Z</time>
      </trkpt>
      <trkpt lat="48.78167" lon="2.08509">
        <ele>132</ele>
        <time>2022-10-23T11:51:32.526Z</time>
      </trkpt>
      <trkpt lat="48.78163" lon="2.08516">
        <ele>131</ele>
        <time>2022-10-23T11:51:36.541Z</time>
      </trkpt>
      <trkpt lat="48.78159" lon="2.08524">
        <ele>131</ele>
        <time>2022-10-23T11:51:41.528Z</time>
      </trkpt>
      <trkpt lat="48.78154" lon="2.0853">
        <ele>131</ele>
        <time>2022-10-23T11:51:46.531Z</time>
      </trkpt>
      <trkpt lat="48.78148" lon="2.08536">
        <ele>136</ele>
        <time>2022-10-23T11:51:51.526Z</time>
      </trkpt>
      <trkpt lat="48.78143" lon="2.08542">
        <ele>135</ele>
        <time>2022-10-23T11:51:55.535Z</time>
      </trkpt>
      <trkpt lat="48.78138" lon="2.08549">
        <ele>135</ele>
        <time>2022-10-23T11:52:00.536Z</time>
      </trkpt>
      <trkpt lat="48.78133" lon="2.08555">
        <ele>135</ele>
        <time>2022-10-23T11:52:05.544Z</time>
      </trkpt>
      <trkpt lat="48.78129" lon="2.08562">
        <ele>135</ele>
        <time>2022-10-23T11:52:10.563Z</time>
      </trkpt>
      <trkpt lat="48.78124" lon="2.0857">
        <ele>140</ele>
        <time>2022-10-23T11:52:15.551Z</time>
      </trkpt>
      <trkpt lat="48.78121" lon="2.08575">
        <ele>140</ele>
        <time>2022-10-23T11:52:20.541Z</time>
      </trkpt>
      <trkpt lat="48.78118" lon="2.08579">
        <ele>140</ele>
        <time>2022-10-23T11:52:24.561Z</time>
      </trkpt>
      <trkpt lat="48.78113" lon="2.08587">
        <ele>140</ele>
        <time>2022-10-23T11:52:29.546Z</time>
      </trkpt>
      <trkpt lat="48.78109" lon="2.08591">
        <ele>140</ele>
        <time>2022-10-23T11:52:34.551Z</time>
      </trkpt>
      <trkpt lat="48.78105" lon="2.08596">
        <ele>140</ele>
        <time>2022-10-23T11:52:39.538Z</time>
      </trkpt>
      <trkpt lat="48.781" lon="2.08601">
        <ele>136</ele>
        <time>2022-10-23T11:52:44.512Z</time>
      </trkpt>
      <trkpt lat="48.78096" lon="2.08607">
        <ele>142</ele>
        <time>2022-10-23T11:52:48.542Z</time>
      </trkpt>
      <trkpt lat="48.78091" lon="2.08612">
        <ele>142</ele>
        <time>2022-10-23T11:52:53.554Z</time>
      </trkpt>
      <trkpt lat="48.78086" lon="2.08619">
        <ele>142</ele>
        <time>2022-10-23T11:52:58.531Z</time>
      </trkpt>
      <trkpt lat="48.78082" lon="2.08624">
        <ele>142</ele>
        <time>2022-10-23T11:53:02.563Z</time>
      </trkpt>
      <trkpt lat="48.78077" lon="2.08633">
        <ele>138</ele>
        <time>2022-10-23T11:53:07.565Z</time>
      </trkpt>
      <trkpt lat="48.78072" lon="2.08639">
        <ele>138</ele>
        <time>2022-10-23T11:53:12.553Z</time>
      </trkpt>
      <trkpt lat="48.78066" lon="2.08646">
        <ele>147</ele>
        <time>2022-10-23T11:53:17.535Z</time>
      </trkpt>
      <trkpt lat="48.78063" lon="2.08652">
        <ele>147</ele>
        <time>2022-10-23T11:53:21.550Z</time>
      </trkpt>
      <trkpt lat="48.78059" lon="2.08662">
        <ele>144</ele>
        <time>2022-10-23T11:53:26.518Z</time>
      </trkpt>
      <trkpt lat="48.78056" lon="2.0867">
        <ele>144</ele>
        <time>2022-10-23T11:53:30.545Z</time>
      </trkpt>
      <trkpt lat="48.78051" lon="2.08679">
        <ele>144</ele>
        <time>2022-10-23T11:53:35.568Z</time>
      </trkpt>
      <trkpt lat="48.78047" lon="2.08688">
        <ele>141</ele>
        <time>2022-10-23T11:53:40.506Z</time>
      </trkpt>
      <trkpt lat="48.78045" lon="2.08695">
        <ele>141</ele>
        <time>2022-10-23T11:53:44.537Z</time>
      </trkpt>
      <trkpt lat="48.78047" lon="2.08707">
        <ele>141</ele>
        <time>2022-10-23T11:53:49.528Z</time>
      </trkpt>
      <trkpt lat="48.78046" lon="2.08716">
        <ele>140</ele>
        <time>2022-10-23T11:53:53.550Z</time>
      </trkpt>
      <trkpt lat="48.78049" lon="2.08725">
        <ele>140</ele>
        <time>2022-10-23T11:53:58.536Z</time>
      </trkpt>
      <trkpt lat="48.78053" lon="2.08733">
        <ele>140</ele>
        <time>2022-10-23T11:54:02.546Z</time>
      </trkpt>
      <trkpt lat="48.78059" lon="2.08739">
        <ele>139</ele>
        <time>2022-10-23T11:54:07.533Z</time>
      </trkpt>
      <trkpt lat="48.78063" lon="2.08744">
        <ele>139</ele>
        <time>2022-10-23T11:54:12.542Z</time>
      </trkpt>
      <trkpt lat="48.78069" lon="2.08752">
        <ele>135</ele>
        <time>2022-10-23T11:54:17.527Z</time>
      </trkpt>
      <trkpt lat="48.78075" lon="2.08758">
        <ele>135</ele>
        <time>2022-10-23T11:54:21.549Z</time>
      </trkpt>
      <trkpt lat="48.78079" lon="2.08765">
        <ele>135</ele>
        <time>2022-10-23T11:54:26.510Z</time>
      </trkpt>
      <trkpt lat="48.78081" lon="2.08772">
        <ele>135</ele>
        <time>2022-10-23T11:54:30.558Z</time>
      </trkpt>
      <trkpt lat="48.78083" lon="2.08781">
        <ele>135</ele>
        <time>2022-10-23T11:54:35.552Z</time>
      </trkpt>
      <trkpt lat="48.78084" lon="2.0879">
        <ele>135</ele>
        <time>2022-10-23T11:54:40.524Z</time>
      </trkpt>
      <trkpt lat="48.78085" lon="2.08798">
        <ele>134</ele>
        <time>2022-10-23T11:54:44.537Z</time>
      </trkpt>
      <trkpt lat="48.78087" lon="2.08807">
        <ele>134</ele>
        <time>2022-10-23T11:54:48.551Z</time>
      </trkpt>
      <trkpt lat="48.78088" lon="2.08816">
        <ele>134</ele>
        <time>2022-10-23T11:54:53.556Z</time>
      </trkpt>
      <trkpt lat="48.78091" lon="2.08825">
        <ele>133</ele>
        <time>2022-10-23T11:54:58.555Z</time>
      </trkpt>
      <trkpt lat="48.78093" lon="2.08837">
        <ele>133</ele>
        <time>2022-10-23T11:55:03.507Z</time>
      </trkpt>
      <trkpt lat="48.78094" lon="2.08847">
        <ele>133</ele>
        <time>2022-10-23T11:55:07.531Z</time>
      </trkpt>
      <trkpt lat="48.78094" lon="2.08853">
        <ele>131</ele>
        <time>2022-10-23T11:55:12.549Z</time>
      </trkpt>
      <trkpt lat="48.78096" lon="2.08863">
        <ele>131</ele>
        <time>2022-10-23T11:55:17.510Z</time>
      </trkpt>
      <trkpt lat="48.78098" lon="2.08871">
        <ele>128</ele>
        <time>2022-10-23T11:55:21.539Z</time>
      </trkpt>
      <trkpt lat="48.78101" lon="2.08882">
        <ele>127</ele>
        <time>2022-10-23T11:55:26.508Z</time>
      </trkpt>
      <trkpt lat="48.78107" lon="2.08891">
        <ele>127</ele>
        <time>2022-10-23T11:55:31.527Z</time>
      </trkpt>
      <trkpt lat="48.78111" lon="2.089">
        <ele>127</ele>
        <time>2022-10-23T11:55:36.525Z</time>
      </trkpt>
      <trkpt lat="48.78114" lon="2.08909">
        <ele>126</ele>
        <time>2022-10-23T11:55:41.534Z</time>
      </trkpt>
      <trkpt lat="48.78117" lon="2.08915">
        <ele>126</ele>
        <time>2022-10-23T11:55:46.531Z</time>
      </trkpt>
      <trkpt lat="48.78115" lon="2.08922">
        <ele>126</ele>
        <time>2022-10-23T11:55:50.532Z</time>
      </trkpt>
      <trkpt lat="48.78112" lon="2.08928">
        <ele>126</ele>
        <time>2022-10-23T11:55:55.533Z</time>
      </trkpt>
      <trkpt lat="48.78107" lon="2.08932">
        <ele>125</ele>
        <time>2022-10-23T11:56:00.539Z</time>
      </trkpt>
      <trkpt lat="48.78104" lon="2.08936">
        <ele>125</ele>
        <time>2022-10-23T11:56:04.537Z</time>
      </trkpt>
      <trkpt lat="48.781" lon="2.08942">
        <ele>125</ele>
        <time>2022-10-23T11:56:09.512Z</time>
      </trkpt>
      <trkpt lat="48.78096" lon="2.08946">
        <ele>127</ele>
        <time>2022-10-23T11:56:13.555Z</time>
      </trkpt>
      <trkpt lat="48.78091" lon="2.0895">
        <ele>127</ele>
        <time>2022-10-23T11:56:18.542Z</time>
      </trkpt>
      <trkpt lat="48.78089" lon="2.08953">
        <ele>127</ele>
        <time>2022-10-23T11:56:22.552Z</time>
      </trkpt>
      <trkpt lat="48.78084" lon="2.08957">
        <ele>127</ele>
        <time>2022-10-23T11:56:27.531Z</time>
      </trkpt>
      <trkpt lat="48.7808" lon="2.08961">
        <ele>127</ele>
        <time>2022-10-23T11:56:31.534Z</time>
      </trkpt>
      <trkpt lat="48.78077" lon="2.08965">
        <ele>127</ele>
        <time>2022-10-23T11:56:35.541Z</time>
      </trkpt>
      <trkpt lat="48.78072" lon="2.08969">
        <ele>127</ele>
        <time>2022-10-23T11:56:39.553Z</time>
      </trkpt>
      <trkpt lat="48.78066" lon="2.08976">
        <ele>130</ele>
        <time>2022-10-23T11:56:44.538Z</time>
      </trkpt>
      <trkpt lat="48.78062" lon="2.08982">
        <ele>130</ele>
        <time>2022-10-23T11:56:49.555Z</time>
      </trkpt>
      <trkpt lat="48.78058" lon="2.08989">
        <ele>130</ele>
        <time>2022-10-23T11:56:54.540Z</time>
      </trkpt>
      <trkpt lat="48.78054" lon="2.08993">
        <ele>130</ele>
        <time>2022-10-23T11:56:58.558Z</time>
      </trkpt>
      <trkpt lat="48.7805" lon="2.08997">
        <ele>130</ele>
        <time>2022-10-23T11:57:02.561Z</time>
      </trkpt>
      <trkpt lat="48.78045" lon="2.09002">
        <ele>130</ele>
        <time>2022-10-23T11:57:07.553Z</time>
      </trkpt>
      <trkpt lat="48.78039" lon="2.09008">
        <ele>132</ele>
        <time>2022-10-23T11:57:12.523Z</time>
      </trkpt>
      <trkpt lat="48.78035" lon="2.09014">
        <ele>132</ele>
        <time>2022-10-23T11:57:17.536Z</time>
      </trkpt>
      <trkpt lat="48.78032" lon="2.09018">
        <ele>132</ele>
        <time>2022-10-23T11:57:22.524Z</time>
      </trkpt>
      <trkpt lat="48.78028" lon="2.09025">
        <ele>132</ele>
        <time>2022-10-23T11:57:26.528Z</time>
      </trkpt>
      <trkpt lat="48.78025" lon="2.09031">
        <ele>132</ele>
        <time>2022-10-23T11:57:30.530Z</time>
      </trkpt>
      <trkpt lat="48.7802" lon="2.09039">
        <ele>132</ele>
        <time>2022-10-23T11:57:35.519Z</time>
      </trkpt>
      <trkpt lat="48.78016" lon="2.09045">
        <ele>130</ele>
        <time>2022-10-23T11:57:39.543Z</time>
      </trkpt>
      <trkpt lat="48.78011" lon="2.09053">
        <ele>132</ele>
        <time>2022-10-23T11:57:44.524Z</time>
      </trkpt>
      <trkpt lat="48.78009" lon="2.09058">
        <ele>132</ele>
        <time>2022-10-23T11:57:48.527Z</time>
      </trkpt>
      <trkpt lat="48.78004" lon="2.09065">
        <ele>132</ele>
        <time>2022-10-23T11:57:53.521Z</time>
      </trkpt>
      <trkpt lat="48.78" lon="2.0907">
        <ele>131</ele>
        <time>2022-10-23T11:57:57.532Z</time>
      </trkpt>
      <trkpt lat="48.77996" lon="2.09076">
        <ele>131</ele>
        <time>2022-10-23T11:58:01.540Z</time>
      </trkpt>
      <trkpt lat="48.77994" lon="2.09081">
        <ele>131</ele>
        <time>2022-10-23T11:58:05.548Z</time>
      </trkpt>
      <trkpt lat="48.7799" lon="2.09087">
        <ele>131</ele>
        <time>2022-10-23T11:58:10.553Z</time>
      </trkpt>
      <trkpt lat="48.77986" lon="2.09094">
        <ele>131</ele>
        <time>2022-10-23T11:58:14.545Z</time>
      </trkpt>
      <trkpt lat="48.77983" lon="2.09102">
        <ele>134</ele>
        <time>2022-10-23T11:58:19.545Z</time>
      </trkpt>
      <trkpt lat="48.77981" lon="2.09111">
        <ele>134</ele>
        <time>2022-10-23T11:58:24.541Z</time>
      </trkpt>
      <trkpt lat="48.77979" lon="2.09117">
        <ele>134</ele>
        <time>2022-10-23T11:58:28.543Z</time>
      </trkpt>
      <trkpt lat="48.77975" lon="2.09124">
        <ele>134</ele>
        <time>2022-10-23T11:58:33.537Z</time>
      </trkpt>
      <trkpt lat="48.77973" lon="2.0913">
        <ele>133</ele>
        <time>2022-10-23T11:58:37.543Z</time>
      </trkpt>
      <trkpt lat="48.77969" lon="2.09138">
        <ele>133</ele>
        <time>2022-10-23T11:58:42.543Z</time>
      </trkpt>
      <trkpt lat="48.77968" lon="2.09145">
        <ele>133</ele>
        <time>2022-10-23T11:58:46.552Z</time>
      </trkpt>
      <trkpt lat="48.77968" lon="2.09154">
        <ele>131</ele>
        <time>2022-10-23T11:58:51.545Z</time>
      </trkpt>
      <trkpt lat="48.77967" lon="2.09162">
        <ele>131</ele>
        <time>2022-10-23T11:58:56.536Z</time>
      </trkpt>
      <trkpt lat="48.77965" lon="2.09169">
        <ele>131</ele>
        <time>2022-10-23T11:59:00.532Z</time>
      </trkpt>
      <trkpt lat="48.77962" lon="2.09175">
        <ele>131</ele>
        <time>2022-10-23T11:59:04.573Z</time>
      </trkpt>
      <trkpt lat="48.77959" lon="2.09182">
        <ele>129</ele>
        <time>2022-10-23T11:59:09.543Z</time>
      </trkpt>
      <trkpt lat="48.77956" lon="2.09188">
        <ele>132</ele>
        <time>2022-10-23T11:59:13.562Z</time>
      </trkpt>
      <trkpt lat="48.77953" lon="2.09195">
        <ele>132</ele>
        <time>2022-10-23T11:59:18.546Z</time>
      </trkpt>
      <trkpt lat="48.77948" lon="2.09199">
        <ele>132</ele>
        <time>2022-10-23T11:59:22.547Z</time>
      </trkpt>
      <trkpt lat="48.77943" lon="2.09202">
        <ele>132</ele>
        <time>2022-10-23T11:59:27.554Z</time>
      </trkpt>
      <trkpt lat="48.77939" lon="2.09204">
        <ele>132</ele>
        <time>2022-10-23T11:59:32.547Z</time>
      </trkpt>
      <trkpt lat="48.77933" lon="2.09206">
        <ele>132</ele>
        <time>2022-10-23T11:59:37.556Z</time>
      </trkpt>
      <trkpt lat="48.77926" lon="2.09209">
        <ele>134</ele>
        <time>2022-10-23T11:59:42.539Z</time>
      </trkpt>
      <trkpt lat="48.77921" lon="2.09213">
        <ele>134</ele>
        <time>2022-10-23T11:59:47.541Z</time>
      </trkpt>
      <trkpt lat="48.77916" lon="2.09216">
        <ele>134</ele>
        <time>2022-10-23T11:59:52.544Z</time>
      </trkpt>
      <trkpt lat="48.77912" lon="2.09223">
        <ele>134</ele>
        <time>2022-10-23T11:59:57.553Z</time>
      </trkpt>
      <trkpt lat="48.77908" lon="2.09231">
        <ele>134</ele>
        <time>2022-10-23T12:00:02.538Z</time>
      </trkpt>
      <trkpt lat="48.77907" lon="2.09241">
        <ele>133</ele>
        <time>2022-10-23T12:00:07.537Z</time>
      </trkpt>
      <trkpt lat="48.77907" lon="2.09251">
        <ele>133</ele>
        <time>2022-10-23T12:00:12.546Z</time>
      </trkpt>
      <trkpt lat="48.77908" lon="2.0926">
        <ele>133</ele>
        <time>2022-10-23T12:00:17.567Z</time>
      </trkpt>
      <trkpt lat="48.77908" lon="2.0927">
        <ele>133</ele>
        <time>2022-10-23T12:00:22.560Z</time>
      </trkpt>
      <trkpt lat="48.77908" lon="2.09278">
        <ele>133</ele>
        <time>2022-10-23T12:00:27.545Z</time>
      </trkpt>
      <trkpt lat="48.77907" lon="2.09287">
        <ele>133</ele>
        <time>2022-10-23T12:00:32.528Z</time>
      </trkpt>
      <trkpt lat="48.77906" lon="2.09293">
        <ele>133</ele>
        <time>2022-10-23T12:00:36.528Z</time>
      </trkpt>
      <trkpt lat="48.77905" lon="2.093">
        <ele>133</ele>
        <time>2022-10-23T12:00:40.556Z</time>
      </trkpt>
      <trkpt lat="48.77904" lon="2.09307">
        <ele>133</ele>
        <time>2022-10-23T12:00:45.559Z</time>
      </trkpt>
      <trkpt lat="48.77904" lon="2.09315">
        <ele>133</ele>
        <time>2022-10-23T12:00:50.557Z</time>
      </trkpt>
      <trkpt lat="48.77906" lon="2.09326">
        <ele>134</ele>
        <time>2022-10-23T12:00:55.526Z</time>
      </trkpt>
      <trkpt lat="48.77907" lon="2.09334">
        <ele>134</ele>
        <time>2022-10-23T12:00:59.557Z</time>
      </trkpt>
      <trkpt lat="48.77909" lon="2.09341">
        <ele>134</ele>
        <time>2022-10-23T12:01:03.561Z</time>
      </trkpt>
      <trkpt lat="48.7791" lon="2.0935">
        <ele>135</ele>
        <time>2022-10-23T12:01:08.554Z</time>
      </trkpt>
      <trkpt lat="48.77909" lon="2.09359">
        <ele>135</ele>
        <time>2022-10-23T12:01:13.549Z</time>
      </trkpt>
      <trkpt lat="48.77911" lon="2.09368">
        <ele>135</ele>
        <time>2022-10-23T12:01:18.546Z</time>
      </trkpt>
      <trkpt lat="48.77913" lon="2.09377">
        <ele>139</ele>
        <time>2022-10-23T12:01:23.552Z</time>
      </trkpt>
      <trkpt lat="48.77914" lon="2.09385">
        <ele>139</ele>
        <time>2022-10-23T12:01:28.531Z</time>
      </trkpt>
      <trkpt lat="48.77917" lon="2.09393">
        <ele>139</ele>
        <time>2022-10-23T12:01:32.555Z</time>
      </trkpt>
      <trkpt lat="48.77919" lon="2.09399">
        <ele>139</ele>
        <time>2022-10-23T12:01:37.524Z</time>
      </trkpt>
      <trkpt lat="48.77921" lon="2.09405">
        <ele>142</ele>
        <time>2022-10-23T12:01:41.541Z</time>
      </trkpt>
      <trkpt lat="48.77922" lon="2.09411">
        <ele>142</ele>
        <time>2022-10-23T12:01:45.562Z</time>
      </trkpt>
      <trkpt lat="48.77923" lon="2.09421">
        <ele>142</ele>
        <time>2022-10-23T12:01:50.547Z</time>
      </trkpt>
      <trkpt lat="48.77926" lon="2.0943">
        <ele>142</ele>
        <time>2022-10-23T12:01:55.526Z</time>
      </trkpt>
      <trkpt lat="48.77929" lon="2.09436">
        <ele>139</ele>
        <time>2022-10-23T12:01:59.560Z</time>
      </trkpt>
      <trkpt lat="48.77932" lon="2.09446">
        <ele>136</ele>
        <time>2022-10-23T12:02:04.546Z</time>
      </trkpt>
      <trkpt lat="48.77933" lon="2.09452">
        <ele>136</ele>
        <time>2022-10-23T12:02:08.559Z</time>
      </trkpt>
      <trkpt lat="48.77934" lon="2.09463">
        <ele>131</ele>
        <time>2022-10-23T12:02:13.525Z</time>
      </trkpt>
      <trkpt lat="48.77934" lon="2.09468">
        <ele>131</ele>
        <time>2022-10-23T12:02:17.548Z</time>
      </trkpt>
      <trkpt lat="48.77936" lon="2.09476">
        <ele>131</ele>
        <time>2022-10-23T12:02:21.555Z</time>
      </trkpt>
      <trkpt lat="48.77936" lon="2.09483">
        <ele>131</ele>
        <time>2022-10-23T12:02:26.548Z</time>
      </trkpt>
      <trkpt lat="48.77937" lon="2.0949">
        <ele>129</ele>
        <time>2022-10-23T12:02:30.552Z</time>
      </trkpt>
      <trkpt lat="48.77938" lon="2.09501">
        <ele>129</ele>
        <time>2022-10-23T12:02:35.527Z</time>
      </trkpt>
      <trkpt lat="48.77941" lon="2.09507">
        <ele>129</ele>
        <time>2022-10-23T12:02:39.541Z</time>
      </trkpt>
      <trkpt lat="48.77944" lon="2.09514">
        <ele>128</ele>
        <time>2022-10-23T12:02:44.519Z</time>
      </trkpt>
      <trkpt lat="48.77946" lon="2.09519">
        <ele>128</ele>
        <time>2022-10-23T12:02:48.557Z</time>
      </trkpt>
      <trkpt lat="48.77951" lon="2.09525">
        <ele>128</ele>
        <time>2022-10-23T12:02:53.561Z</time>
      </trkpt>
      <trkpt lat="48.77954" lon="2.09526">
        <ele>128</ele>
        <time>2022-10-23T12:02:58.514Z</time>
      </trkpt>
      <trkpt lat="48.77958" lon="2.09532">
        <ele>128</ele>
        <time>2022-10-23T12:03:03.513Z</time>
      </trkpt>
      <trkpt lat="48.77963" lon="2.09534">
        <ele>126</ele>
        <time>2022-10-23T12:03:07.531Z</time>
      </trkpt>
      <trkpt lat="48.77971" lon="2.09539">
        <ele>126</ele>
        <time>2022-10-23T12:03:12.516Z</time>
      </trkpt>
      <trkpt lat="48.77976" lon="2.09541">
        <ele>126</ele>
        <time>2022-10-23T12:03:16.541Z</time>
      </trkpt>
      <trkpt lat="48.77982" lon="2.09539">
        <ele>126</ele>
        <time>2022-10-23T12:03:21.544Z</time>
      </trkpt>
      <trkpt lat="48.77988" lon="2.09537">
        <ele>127</ele>
        <time>2022-10-23T12:03:26.536Z</time>
      </trkpt>
      <trkpt lat="48.77991" lon="2.09538">
        <ele>127</ele>
        <time>2022-10-23T12:03:30.546Z</time>
      </trkpt>
      <trkpt lat="48.77997" lon="2.09536">
        <ele>127</ele>
        <time>2022-10-23T12:03:35.519Z</time>
      </trkpt>
      <trkpt lat="48.78002" lon="2.09533">
        <ele>127</ele>
        <time>2022-10-23T12:03:39.523Z</time>
      </trkpt>
      <trkpt lat="48.78006" lon="2.0953">
        <ele>127</ele>
        <time>2022-10-23T12:03:43.532Z</time>
      </trkpt>
      <trkpt lat="48.78013" lon="2.09526">
        <ele>127</ele>
        <time>2022-10-23T12:03:48.531Z</time>
      </trkpt>
      <trkpt lat="48.78017" lon="2.09521">
        <ele>129</ele>
        <time>2022-10-23T12:03:52.531Z</time>
      </trkpt>
      <trkpt lat="48.7802" lon="2.09515">
        <ele>129</ele>
        <time>2022-10-23T12:03:57.552Z</time>
      </trkpt>
      <trkpt lat="48.78023" lon="2.09507">
        <ele>128</ele>
        <time>2022-10-23T12:04:02.534Z</time>
      </trkpt>
      <trkpt lat="48.78026" lon="2.095">
        <ele>128</ele>
        <time>2022-10-23T12:04:07.528Z</time>
      </trkpt>
      <trkpt lat="48.7803" lon="2.09502">
        <ele>128</ele>
        <time>2022-10-23T12:04:12.526Z</time>
      </trkpt>
      <trkpt lat="48.78033" lon="2.09508">
        <ele>128</ele>
        <time>2022-10-23T12:04:16.532Z</time>
      </trkpt>
      <trkpt lat="48.78035" lon="2.09513">
        <ele>128</ele>
        <time>2022-10-23T12:04:21.526Z</time>
      </trkpt>
      <trkpt lat="48.78037" lon="2.09517">
        <ele>129</ele>
        <time>2022-10-23T12:04:25.535Z</time>
      </trkpt>
      <trkpt lat="48.78039" lon="2.09523">
        <ele>129</ele>
        <time>2022-10-23T12:04:29.560Z</time>
      </trkpt>
      <trkpt lat="48.7804" lon="2.0953">
        <ele>129</ele>
        <time>2022-10-23T12:04:34.529Z</time>
      </trkpt>
      <trkpt lat="48.78042" lon="2.09539">
        <ele>133</ele>
        <time>2022-10-23T12:04:39.558Z</time>
      </trkpt>
      <trkpt lat="48.78042" lon="2.09546">
        <ele>134</ele>
        <time>2022-10-23T12:04:44.537Z</time>
      </trkpt>
      <trkpt lat="48.78039" lon="2.09551">
        <ele>129</ele>
        <time>2022-10-23T12:04:49.522Z</time>
      </trkpt>
      <trkpt lat="48.78035" lon="2.09555">
        <ele>129</ele>
        <time>2022-10-23T12:04:53.532Z</time>
      </trkpt>
      <trkpt lat="48.78031" lon="2.0956">
        <ele>129</ele>
        <time>2022-10-23T12:04:58.530Z</time>
      </trkpt>
      <trkpt lat="48.78029" lon="2.09566">
        <ele>129</ele>
        <time>2022-10-23T12:05:02.539Z</time>
      </trkpt>
      <trkpt lat="48.78029" lon="2.09577">
        <ele>130</ele>
        <time>2022-10-23T12:05:07.539Z</time>
      </trkpt>
      <trkpt lat="48.78029" lon="2.09584">
        <ele>130</ele>
        <time>2022-10-23T12:05:11.556Z</time>
      </trkpt>
      <trkpt lat="48.78027" lon="2.09592">
        <ele>130</ele>
        <time>2022-10-23T12:05:16.559Z</time>
      </trkpt>
      <trkpt lat="48.78027" lon="2.09594">
        <ele>130</ele>
        <time>2022-10-23T12:05:21.504Z</time>
      </trkpt>
      <trkpt lat="48.78027" lon="2.096">
        <ele>129</ele>
        <time>2022-10-23T12:05:26.518Z</time>
      </trkpt>
      <trkpt lat="48.78026" lon="2.09612">
        <ele>129</ele>
        <time>2022-10-23T12:05:31.515Z</time>
      </trkpt>
      <trkpt lat="48.78029" lon="2.0963">
        <ele>126</ele>
        <time>2022-10-23T12:05:35.515Z</time>
      </trkpt>
      <trkpt lat="48.7803" lon="2.09644">
        <ele>126</ele>
        <time>2022-10-23T12:05:39.521Z</time>
      </trkpt>
      <trkpt lat="48.78035" lon="2.09656">
        <ele>124</ele>
        <time>2022-10-23T12:05:44.529Z</time>
      </trkpt>
      <trkpt lat="48.78037" lon="2.09664">
        <ele>124</ele>
        <time>2022-10-23T12:05:49.504Z</time>
      </trkpt>
      <trkpt lat="48.78039" lon="2.09671">
        <ele>124</ele>
        <time>2022-10-23T12:05:53.527Z</time>
      </trkpt>
      <trkpt lat="48.78041" lon="2.09678">
        <ele>124</ele>
        <time>2022-10-23T12:05:58.503Z</time>
      </trkpt>
      <trkpt lat="48.78045" lon="2.09683">
        <ele>126</ele>
        <time>2022-10-23T12:06:02.523Z</time>
      </trkpt>
      <trkpt lat="48.78048" lon="2.09691">
        <ele>126</ele>
        <time>2022-10-23T12:06:07.499Z</time>
      </trkpt>
      <trkpt lat="48.7805" lon="2.09698">
        <ele>126</ele>
        <time>2022-10-23T12:06:11.522Z</time>
      </trkpt>
      <trkpt lat="48.78052" lon="2.09707">
        <ele>126</ele>
        <time>2022-10-23T12:06:16.538Z</time>
      </trkpt>
      <trkpt lat="48.78054" lon="2.09716">
        <ele>128</ele>
        <time>2022-10-23T12:06:21.517Z</time>
      </trkpt>
      <trkpt lat="48.78056" lon="2.09722">
        <ele>128</ele>
        <time>2022-10-23T12:06:25.523Z</time>
      </trkpt>
      <trkpt lat="48.78057" lon="2.0973">
        <ele>128</ele>
        <time>2022-10-23T12:06:30.518Z</time>
      </trkpt>
      <trkpt lat="48.78057" lon="2.09736">
        <ele>128</ele>
        <time>2022-10-23T12:06:34.522Z</time>
      </trkpt>
      <trkpt lat="48.78057" lon="2.09743">
        <ele>128</ele>
        <time>2022-10-23T12:06:38.525Z</time>
      </trkpt>
      <trkpt lat="48.78057" lon="2.09752">
        <ele>128</ele>
        <time>2022-10-23T12:06:43.502Z</time>
      </trkpt>
      <trkpt lat="48.78057" lon="2.09759">
        <ele>128</ele>
        <time>2022-10-23T12:06:47.502Z</time>
      </trkpt>
      <trkpt lat="48.78057" lon="2.09765">
        <ele>129</ele>
        <time>2022-10-23T12:06:51.534Z</time>
      </trkpt>
      <trkpt lat="48.78057" lon="2.09774">
        <ele>129</ele>
        <time>2022-10-23T12:06:56.529Z</time>
      </trkpt>
      <trkpt lat="48.78057" lon="2.09783">
        <ele>129</ele>
        <time>2022-10-23T12:07:01.518Z</time>
      </trkpt>
      <trkpt lat="48.78056" lon="2.0979">
        <ele>129</ele>
        <time>2022-10-23T12:07:05.530Z</time>
      </trkpt>
      <trkpt lat="48.78056" lon="2.09799">
        <ele>128</ele>
        <time>2022-10-23T12:07:10.522Z</time>
      </trkpt>
      <trkpt lat="48.78056" lon="2.09805">
        <ele>128</ele>
        <time>2022-10-23T12:07:14.528Z</time>
      </trkpt>
      <trkpt lat="48.78057" lon="2.09814">
        <ele>128</ele>
        <time>2022-10-23T12:07:19.513Z</time>
      </trkpt>
      <trkpt lat="48.78056" lon="2.09821">
        <ele>128</ele>
        <time>2022-10-23T12:07:23.513Z</time>
      </trkpt>
      <trkpt lat="48.78054" lon="2.09829">
        <ele>128</ele>
        <time>2022-10-23T12:07:28.521Z</time>
      </trkpt>
      <trkpt lat="48.78051" lon="2.0984">
        <ele>128</ele>
        <time>2022-10-23T12:07:33.536Z</time>
      </trkpt>
      <trkpt lat="48.78049" lon="2.09847">
        <ele>128</ele>
        <time>2022-10-23T12:07:37.556Z</time>
      </trkpt>
      <trkpt lat="48.78047" lon="2.09855">
        <ele>132</ele>
        <time>2022-10-23T12:07:42.540Z</time>
      </trkpt>
      <trkpt lat="48.78044" lon="2.0986">
        <ele>132</ele>
        <time>2022-10-23T12:07:46.552Z</time>
      </trkpt>
      <trkpt lat="48.78041" lon="2.09866">
        <ele>129</ele>
        <time>2022-10-23T12:07:51.505Z</time>
      </trkpt>
      <trkpt lat="48.78038" lon="2.09872">
        <ele>129</ele>
        <time>2022-10-23T12:07:55.553Z</time>
      </trkpt>
      <trkpt lat="48.78034" lon="2.09877">
        <ele>133</ele>
        <time>2022-10-23T12:08:00.521Z</time>
      </trkpt>
      <trkpt lat="48.7803" lon="2.09884">
        <ele>133</ele>
        <time>2022-10-23T12:08:04.546Z</time>
      </trkpt>
      <trkpt lat="48.78026" lon="2.09889">
        <ele>133</ele>
        <time>2022-10-23T12:08:09.519Z</time>
      </trkpt>
      <trkpt lat="48.78022" lon="2.09893">
        <ele>133</ele>
        <time>2022-10-23T12:08:13.528Z</time>
      </trkpt>
      <trkpt lat="48.78018" lon="2.09898">
        <ele>133</ele>
        <time>2022-10-23T12:08:18.527Z</time>
      </trkpt>
      <trkpt lat="48.78014" lon="2.099">
        <ele>133</ele>
        <time>2022-10-23T12:08:22.543Z</time>
      </trkpt>
      <trkpt lat="48.78009" lon="2.099">
        <ele>127</ele>
        <time>2022-10-23T12:08:27.540Z</time>
      </trkpt>
      <trkpt lat="48.78004" lon="2.09903">
        <ele>127</ele>
        <time>2022-10-23T12:08:31.548Z</time>
      </trkpt>
      <trkpt lat="48.77998" lon="2.09904">
        <ele>133</ele>
        <time>2022-10-23T12:08:36.538Z</time>
      </trkpt>
      <trkpt lat="48.77993" lon="2.09908">
        <ele>133</ele>
        <time>2022-10-23T12:08:41.533Z</time>
      </trkpt>
      <trkpt lat="48.77986" lon="2.09912">
        <ele>133</ele>
        <time>2022-10-23T12:08:46.506Z</time>
      </trkpt>
      <trkpt lat="48.77982" lon="2.09912">
        <ele>132</ele>
        <time>2022-10-23T12:08:50.531Z</time>
      </trkpt>
      <trkpt lat="48.77977" lon="2.09911">
        <ele>132</ele>
        <time>2022-10-23T12:08:55.527Z</time>
      </trkpt>
      <trkpt lat="48.77972" lon="2.09911">
        <ele>132</ele>
        <time>2022-10-23T12:09:00.521Z</time>
      </trkpt>
      <trkpt lat="48.77966" lon="2.09911">
        <ele>132</ele>
        <time>2022-10-23T12:09:04.539Z</time>
      </trkpt>
      <trkpt lat="48.77959" lon="2.09909">
        <ele>132</ele>
        <time>2022-10-23T12:09:09.528Z</time>
      </trkpt>
      <trkpt lat="48.77952" lon="2.09908">
        <ele>134</ele>
        <time>2022-10-23T12:09:14.516Z</time>
      </trkpt>
      <trkpt lat="48.77948" lon="2.09906">
        <ele>134</ele>
        <time>2022-10-23T12:09:18.533Z</time>
      </trkpt>
      <trkpt lat="48.7794" lon="2.09903">
        <ele>134</ele>
        <time>2022-10-23T12:09:23.505Z</time>
      </trkpt>
      <trkpt lat="48.77936" lon="2.09899">
        <ele>124</ele>
        <time>2022-10-23T12:09:27.523Z</time>
      </trkpt>
      <trkpt lat="48.7793" lon="2.09895">
        <ele>124</ele>
        <time>2022-10-23T12:09:32.528Z</time>
      </trkpt>
      <trkpt lat="48.77925" lon="2.0989">
        <ele>124</ele>
        <time>2022-10-23T12:09:37.547Z</time>
      </trkpt>
      <trkpt lat="48.77919" lon="2.09885">
        <ele>124</ele>
        <time>2022-10-23T12:09:42.542Z</time>
      </trkpt>
      <trkpt lat="48.77913" lon="2.0988">
        <ele>124</ele>
        <time>2022-10-23T12:09:47.521Z</time>
      </trkpt>
      <trkpt lat="48.77908" lon="2.09876">
        <ele>124</ele>
        <time>2022-10-23T12:09:51.552Z</time>
      </trkpt>
      <trkpt lat="48.77903" lon="2.09873">
        <ele>121</ele>
        <time>2022-10-23T12:09:56.529Z</time>
      </trkpt>
      <trkpt lat="48.77898" lon="2.0987">
        <ele>121</ele>
        <time>2022-10-23T12:10:00.542Z</time>
      </trkpt>
      <trkpt lat="48.77894" lon="2.09869">
        <ele>121</ele>
        <time>2022-10-23T12:10:05.572Z</time>
      </trkpt>
      <trkpt lat="48.77889" lon="2.09868">
        <ele>121</ele>
        <time>2022-10-23T12:10:10.529Z</time>
      </trkpt>
      <trkpt lat="48.77883" lon="2.09866">
        <ele>121</ele>
        <time>2022-10-23T12:10:15.534Z</time>
      </trkpt>
      <trkpt lat="48.77879" lon="2.09865">
        <ele>121</ele>
        <time>2022-10-23T12:10:19.556Z</time>
      </trkpt>
      <trkpt lat="48.77872" lon="2.09864">
        <ele>121</ele>
        <time>2022-10-23T12:10:24.535Z</time>
      </trkpt>
      <trkpt lat="48.77866" lon="2.09866">
        <ele>121</ele>
        <time>2022-10-23T12:10:29.559Z</time>
      </trkpt>
      <trkpt lat="48.77862" lon="2.09869">
        <ele>121</ele>
        <time>2022-10-23T12:10:33.561Z</time>
      </trkpt>
      <trkpt lat="48.77858" lon="2.09873">
        <ele>121</ele>
        <time>2022-10-23T12:10:37.570Z</time>
      </trkpt>
      <trkpt lat="48.77854" lon="2.09879">
        <ele>126</ele>
        <time>2022-10-23T12:10:42.512Z</time>
      </trkpt>
      <trkpt lat="48.7785" lon="2.0988">
        <ele>126</ele>
        <time>2022-10-23T12:10:46.539Z</time>
      </trkpt>
      <trkpt lat="48.77844" lon="2.09886">
        <ele>122</ele>
        <time>2022-10-23T12:10:51.538Z</time>
      </trkpt>
      <trkpt lat="48.7784" lon="2.09892">
        <ele>122</ele>
        <time>2022-10-23T12:10:55.576Z</time>
      </trkpt>
      <trkpt lat="48.77835" lon="2.09898">
        <ele>122</ele>
        <time>2022-10-23T12:11:00.530Z</time>
      </trkpt>
      <trkpt lat="48.7783" lon="2.09905">
        <ele>126</ele>
        <time>2022-10-23T12:11:05.546Z</time>
      </trkpt>
      <trkpt lat="48.77826" lon="2.09913">
        <ele>126</ele>
        <time>2022-10-23T12:11:10.531Z</time>
      </trkpt>
      <trkpt lat="48.77822" lon="2.09917">
        <ele>126</ele>
        <time>2022-10-23T12:11:14.543Z</time>
      </trkpt>
      <trkpt lat="48.77819" lon="2.09924">
        <ele>120</ele>
        <time>2022-10-23T12:11:19.555Z</time>
      </trkpt>
      <trkpt lat="48.77816" lon="2.09932">
        <ele>121</ele>
        <time>2022-10-23T12:11:24.526Z</time>
      </trkpt>
      <trkpt lat="48.77814" lon="2.0994">
        <ele>121</ele>
        <time>2022-10-23T12:11:29.558Z</time>
      </trkpt>
      <trkpt lat="48.77811" lon="2.09949">
        <ele>121</ele>
        <time>2022-10-23T12:11:34.526Z</time>
      </trkpt>
      <trkpt lat="48.7781" lon="2.09957">
        <ele>121</ele>
        <time>2022-10-23T12:11:38.542Z</time>
      </trkpt>
      <trkpt lat="48.77807" lon="2.09965">
        <ele>124</ele>
        <time>2022-10-23T12:11:43.534Z</time>
      </trkpt>
      <trkpt lat="48.77805" lon="2.09972">
        <ele>124</ele>
        <time>2022-10-23T12:11:47.549Z</time>
      </trkpt>
      <trkpt lat="48.77804" lon="2.0998">
        <ele>124</ele>
        <time>2022-10-23T12:11:51.553Z</time>
      </trkpt>
      <trkpt lat="48.77803" lon="2.09989">
        <ele>126</ele>
        <time>2022-10-23T12:11:56.535Z</time>
      </trkpt>
      <trkpt lat="48.77801" lon="2.09997">
        <ele>126</ele>
        <time>2022-10-23T12:12:01.567Z</time>
      </trkpt>
      <trkpt lat="48.778" lon="2.10003">
        <ele>126</ele>
        <time>2022-10-23T12:12:06.518Z</time>
      </trkpt>
      <trkpt lat="48.77798" lon="2.10007">
        <ele>126</ele>
        <time>2022-10-23T12:12:10.543Z</time>
      </trkpt>
      <trkpt lat="48.77794" lon="2.10014">
        <ele>126</ele>
        <time>2022-10-23T12:12:15.550Z</time>
      </trkpt>
      <trkpt lat="48.77791" lon="2.10014">
        <ele>125</ele>
        <time>2022-10-23T12:12:20.539Z</time>
      </trkpt>
      <trkpt lat="48.77787" lon="2.10017">
        <ele>125</ele>
        <time>2022-10-23T12:12:25.537Z</time>
      </trkpt>
      <trkpt lat="48.77783" lon="2.10019">
        <ele>125</ele>
        <time>2022-10-23T12:12:29.560Z</time>
      </trkpt>
      <trkpt lat="48.77779" lon="2.10018">
        <ele>125</ele>
        <time>2022-10-23T12:12:34.534Z</time>
      </trkpt>
      <trkpt lat="48.77775" lon="2.1002">
        <ele>125</ele>
        <time>2022-10-23T12:12:38.546Z</time>
      </trkpt>
      <trkpt lat="48.7777" lon="2.10019">
        <ele>125</ele>
        <time>2022-10-23T12:12:43.548Z</time>
      </trkpt>
      <trkpt lat="48.77766" lon="2.10016">
        <ele>125</ele>
        <time>2022-10-23T12:12:47.555Z</time>
      </trkpt>
      <trkpt lat="48.7776" lon="2.10014">
        <ele>124</ele>
        <time>2022-10-23T12:12:52.539Z</time>
      </trkpt>
      <trkpt lat="48.77753" lon="2.10012">
        <ele>118</ele>
        <time>2022-10-23T12:12:57.521Z</time>
      </trkpt>
      <trkpt lat="48.77746" lon="2.10011">
        <ele>118</ele>
        <time>2022-10-23T12:13:02.537Z</time>
      </trkpt>
      <trkpt lat="48.7774" lon="2.10008">
        <ele>118</ele>
        <time>2022-10-23T12:13:07.511Z</time>
      </trkpt>
      <trkpt lat="48.77734" lon="2.10007">
        <ele>116</ele>
        <time>2022-10-23T12:13:12.533Z</time>
      </trkpt>
      <trkpt lat="48.77727" lon="2.10007">
        <ele>116</ele>
        <time>2022-10-23T12:13:17.507Z</time>
      </trkpt>
      <trkpt lat="48.77721" lon="2.10005">
        <ele>116</ele>
        <time>2022-10-23T12:13:21.533Z</time>
      </trkpt>
      <trkpt lat="48.77715" lon="2.10004">
        <ele>116</ele>
        <time>2022-10-23T12:13:26.515Z</time>
      </trkpt>
      <trkpt lat="48.77709" lon="2.10006">
        <ele>116</ele>
        <time>2022-10-23T12:13:31.508Z</time>
      </trkpt>
      <trkpt lat="48.77703" lon="2.10006">
        <ele>117</ele>
        <time>2022-10-23T12:13:35.520Z</time>
      </trkpt>
      <trkpt lat="48.77695" lon="2.10005">
        <ele>117</ele>
        <time>2022-10-23T12:13:40.507Z</time>
      </trkpt>
      <trkpt lat="48.77688" lon="2.10007">
        <ele>117</ele>
        <time>2022-10-23T12:13:44.520Z</time>
      </trkpt>
      <trkpt lat="48.77682" lon="2.10009">
        <ele>117</ele>
        <time>2022-10-23T12:13:48.528Z</time>
      </trkpt>
      <trkpt lat="48.77677" lon="2.10011">
        <ele>117</ele>
        <time>2022-10-23T12:13:53.521Z</time>
      </trkpt>
      <trkpt lat="48.77671" lon="2.10013">
        <ele>117</ele>
        <time>2022-10-23T12:13:58.516Z</time>
      </trkpt>
      <trkpt lat="48.77664" lon="2.10015">
        <ele>121</ele>
        <time>2022-10-23T12:14:03.506Z</time>
      </trkpt>
      <trkpt lat="48.77659" lon="2.10017">
        <ele>121</ele>
        <time>2022-10-23T12:14:07.554Z</time>
      </trkpt>
      <trkpt lat="48.77654" lon="2.1002">
        <ele>121</ele>
        <time>2022-10-23T12:14:12.522Z</time>
      </trkpt>
      <trkpt lat="48.7765" lon="2.10025">
        <ele>117</ele>
        <time>2022-10-23T12:14:16.532Z</time>
      </trkpt>
      <trkpt lat="48.77647" lon="2.10032">
        <ele>117</ele>
        <time>2022-10-23T12:14:21.507Z</time>
      </trkpt>
      <trkpt lat="48.77643" lon="2.10039">
        <ele>117</ele>
        <time>2022-10-23T12:14:25.528Z</time>
      </trkpt>
      <trkpt lat="48.7764" lon="2.10042">
        <ele>120</ele>
        <time>2022-10-23T12:14:29.540Z</time>
      </trkpt>
      <trkpt lat="48.77635" lon="2.10049">
        <ele>120</ele>
        <time>2022-10-23T12:14:33.542Z</time>
      </trkpt>
      <trkpt lat="48.77631" lon="2.10054">
        <ele>120</ele>
        <time>2022-10-23T12:14:37.546Z</time>
      </trkpt>
      <trkpt lat="48.77628" lon="2.10063">
        <ele>120</ele>
        <time>2022-10-23T12:14:42.519Z</time>
      </trkpt>
      <trkpt lat="48.77626" lon="2.1007">
        <ele>122</ele>
        <time>2022-10-23T12:14:47.504Z</time>
      </trkpt>
      <trkpt lat="48.77626" lon="2.10072">
        <ele>122</ele>
        <time>2022-10-23T12:15:04.531Z</time>
      </trkpt>
      <trkpt lat="48.77626" lon="2.10073">
        <ele>122</ele>
        <time>2022-10-23T12:15:09.525Z</time>
      </trkpt>
      <trkpt lat="48.77626" lon="2.10073">
        <ele>122</ele>
        <time>2022-10-23T12:15:14.518Z</time>
      </trkpt>
      <trkpt lat="48.77624" lon="2.10077">
        <ele>117</ele>
        <time>2022-10-23T12:15:18.521Z</time>
      </trkpt>
      <trkpt lat="48.77623" lon="2.10083">
        <ele>117</ele>
        <time>2022-10-23T12:15:22.538Z</time>
      </trkpt>
      <trkpt lat="48.77621" lon="2.10092">
        <ele>117</ele>
        <time>2022-10-23T12:15:27.540Z</time>
      </trkpt>
      <trkpt lat="48.77621" lon="2.10103">
        <ele>117</ele>
        <time>2022-10-23T12:15:32.521Z</time>
      </trkpt>
      <trkpt lat="48.77621" lon="2.1011">
        <ele>117</ele>
        <time>2022-10-23T12:15:36.529Z</time>
      </trkpt>
      <trkpt lat="48.7762" lon="2.10121">
        <ele>117</ele>
        <time>2022-10-23T12:15:41.527Z</time>
      </trkpt>
      <trkpt lat="48.77619" lon="2.10131">
        <ele>118</ele>
        <time>2022-10-23T12:15:46.522Z</time>
      </trkpt>
      <trkpt lat="48.77618" lon="2.10139">
        <ele>118</ele>
        <time>2022-10-23T12:15:50.527Z</time>
      </trkpt>
      <trkpt lat="48.77618" lon="2.10149">
        <ele>118</ele>
        <time>2022-10-23T12:15:55.554Z</time>
      </trkpt>
      <trkpt lat="48.77618" lon="2.10159">
        <ele>119</ele>
        <time>2022-10-23T12:16:00.522Z</time>
      </trkpt>
      <trkpt lat="48.77616" lon="2.1017">
        <ele>119</ele>
        <time>2022-10-23T12:16:05.523Z</time>
      </trkpt>
      <trkpt lat="48.77616" lon="2.10177">
        <ele>119</ele>
        <time>2022-10-23T12:16:09.534Z</time>
      </trkpt>
      <trkpt lat="48.77616" lon="2.10185">
        <ele>119</ele>
        <time>2022-10-23T12:16:13.545Z</time>
      </trkpt>
      <trkpt lat="48.77615" lon="2.10196">
        <ele>119</ele>
        <time>2022-10-23T12:16:18.528Z</time>
      </trkpt>
      <trkpt lat="48.77614" lon="2.10206">
        <ele>119</ele>
        <time>2022-10-23T12:16:23.544Z</time>
      </trkpt>
      <trkpt lat="48.77615" lon="2.10214">
        <ele>119</ele>
        <time>2022-10-23T12:16:28.523Z</time>
      </trkpt>
      <trkpt lat="48.77615" lon="2.10225">
        <ele>119</ele>
        <time>2022-10-23T12:16:33.524Z</time>
      </trkpt>
      <trkpt lat="48.77616" lon="2.10235">
        <ele>119</ele>
        <time>2022-10-23T12:16:38.523Z</time>
      </trkpt>
      <trkpt lat="48.77616" lon="2.10243">
        <ele>118</ele>
        <time>2022-10-23T12:16:42.532Z</time>
      </trkpt>
      <trkpt lat="48.77617" lon="2.10253">
        <ele>118</ele>
        <time>2022-10-23T12:16:47.524Z</time>
      </trkpt>
      <trkpt lat="48.7762" lon="2.10261">
        <ele>118</ele>
        <time>2022-10-23T12:16:52.529Z</time>
      </trkpt>
      <trkpt lat="48.77621" lon="2.10269">
        <ele>118</ele>
        <time>2022-10-23T12:16:56.529Z</time>
      </trkpt>
      <trkpt lat="48.77623" lon="2.10278">
        <ele>118</ele>
        <time>2022-10-23T12:17:01.543Z</time>
      </trkpt>
      <trkpt lat="48.77625" lon="2.10288">
        <ele>118</ele>
        <time>2022-10-23T12:17:06.508Z</time>
      </trkpt>
      <trkpt lat="48.77625" lon="2.10295">
        <ele>117</ele>
        <time>2022-10-23T12:17:10.516Z</time>
      </trkpt>
      <trkpt lat="48.77625" lon="2.10304">
        <ele>124</ele>
        <time>2022-10-23T12:17:15.518Z</time>
      </trkpt>
      <trkpt lat="48.77626" lon="2.10314">
        <ele>124</ele>
        <time>2022-10-23T12:17:20.531Z</time>
      </trkpt>
      <trkpt lat="48.77627" lon="2.10322">
        <ele>125</ele>
        <time>2022-10-23T12:17:25.524Z</time>
      </trkpt>
      <trkpt lat="48.77627" lon="2.10331">
        <ele>125</ele>
        <time>2022-10-23T12:17:30.525Z</time>
      </trkpt>
      <trkpt lat="48.77626" lon="2.10338">
        <ele>125</ele>
        <time>2022-10-23T12:17:34.522Z</time>
      </trkpt>
      <trkpt lat="48.77625" lon="2.10348">
        <ele>126</ele>
        <time>2022-10-23T12:17:39.519Z</time>
      </trkpt>
      <trkpt lat="48.77624" lon="2.10359">
        <ele>116</ele>
        <time>2022-10-23T12:17:44.515Z</time>
      </trkpt>
      <trkpt lat="48.77624" lon="2.10368">
        <ele>116</ele>
        <time>2022-10-23T12:17:48.526Z</time>
      </trkpt>
      <trkpt lat="48.77623" lon="2.10378">
        <ele>116</ele>
        <time>2022-10-23T12:17:53.551Z</time>
      </trkpt>
      <trkpt lat="48.77622" lon="2.10389">
        <ele>116</ele>
        <time>2022-10-23T12:17:58.540Z</time>
      </trkpt>
      <trkpt lat="48.77621" lon="2.10399">
        <ele>116</ele>
        <time>2022-10-23T12:18:03.536Z</time>
      </trkpt>
      <trkpt lat="48.7762" lon="2.10408">
        <ele>117</ele>
        <time>2022-10-23T12:18:08.526Z</time>
      </trkpt>
      <trkpt lat="48.77618" lon="2.10418">
        <ele>117</ele>
        <time>2022-10-23T12:18:13.542Z</time>
      </trkpt>
      <trkpt lat="48.77616" lon="2.10425">
        <ele>117</ele>
        <time>2022-10-23T12:18:17.544Z</time>
      </trkpt>
      <trkpt lat="48.77615" lon="2.10433">
        <ele>119</ele>
        <time>2022-10-23T12:18:21.547Z</time>
      </trkpt>
      <trkpt lat="48.77614" lon="2.10443">
        <ele>119</ele>
        <time>2022-10-23T12:18:26.523Z</time>
      </trkpt>
      <trkpt lat="48.77613" lon="2.10451">
        <ele>119</ele>
        <time>2022-10-23T12:18:30.531Z</time>
      </trkpt>
      <trkpt lat="48.77612" lon="2.10459">
        <ele>122</ele>
        <time>2022-10-23T12:18:34.553Z</time>
      </trkpt>
      <trkpt lat="48.77611" lon="2.10469">
        <ele>122</ele>
        <time>2022-10-23T12:18:39.531Z</time>
      </trkpt>
      <trkpt lat="48.7761" lon="2.10477">
        <ele>122</ele>
        <time>2022-10-23T12:18:43.549Z</time>
      </trkpt>
      <trkpt lat="48.77608" lon="2.10486">
        <ele>125</ele>
        <time>2022-10-23T12:18:47.569Z</time>
      </trkpt>
      <trkpt lat="48.77606" lon="2.10496">
        <ele>125</ele>
        <time>2022-10-23T12:18:52.529Z</time>
      </trkpt>
      <trkpt lat="48.77605" lon="2.10504">
        <ele>125</ele>
        <time>2022-10-23T12:18:57.554Z</time>
      </trkpt>
      <trkpt lat="48.77603" lon="2.10514">
        <ele>125</ele>
        <time>2022-10-23T12:19:02.532Z</time>
      </trkpt>
      <trkpt lat="48.776" lon="2.10522">
        <ele>127</ele>
        <time>2022-10-23T12:19:07.536Z</time>
      </trkpt>
      <trkpt lat="48.77596" lon="2.10531">
        <ele>119</ele>
        <time>2022-10-23T12:19:12.509Z</time>
      </trkpt>
      <trkpt lat="48.77594" lon="2.10538">
        <ele>119</ele>
        <time>2022-10-23T12:19:16.532Z</time>
      </trkpt>
      <trkpt lat="48.77592" lon="2.10545">
        <ele>121</ele>
        <time>2022-10-23T12:19:20.535Z</time>
      </trkpt>
      <trkpt lat="48.77589" lon="2.10552">
        <ele>121</ele>
        <time>2022-10-23T12:19:24.539Z</time>
      </trkpt>
      <trkpt lat="48.77586" lon="2.1056">
        <ele>121</ele>
        <time>2022-10-23T12:19:29.552Z</time>
      </trkpt>
      <trkpt lat="48.77583" lon="2.10568">
        <ele>121</ele>
        <time>2022-10-23T12:19:34.540Z</time>
      </trkpt>
      <trkpt lat="48.7758" lon="2.10575">
        <ele>122</ele>
        <time>2022-10-23T12:19:38.545Z</time>
      </trkpt>
      <trkpt lat="48.77575" lon="2.10583">
        <ele>122</ele>
        <time>2022-10-23T12:19:43.547Z</time>
      </trkpt>
      <trkpt lat="48.77572" lon="2.1059">
        <ele>122</ele>
        <time>2022-10-23T12:19:47.557Z</time>
      </trkpt>
      <trkpt lat="48.77568" lon="2.10598">
        <ele>118</ele>
        <time>2022-10-23T12:19:52.545Z</time>
      </trkpt>
      <trkpt lat="48.77565" lon="2.10605">
        <ele>118</ele>
        <time>2022-10-23T12:19:56.543Z</time>
      </trkpt>
      <trkpt lat="48.7756" lon="2.10612">
        <ele>118</ele>
        <time>2022-10-23T12:20:01.530Z</time>
      </trkpt>
      <trkpt lat="48.77556" lon="2.10619">
        <ele>118</ele>
        <time>2022-10-23T12:20:06.541Z</time>
      </trkpt>
      <trkpt lat="48.77552" lon="2.10627">
        <ele>120</ele>
        <time>2022-10-23T12:20:11.544Z</time>
      </trkpt>
      <trkpt lat="48.77549" lon="2.10635">
        <ele>120</ele>
        <time>2022-10-23T12:20:16.522Z</time>
      </trkpt>
      <trkpt lat="48.77546" lon="2.1064">
        <ele>120</ele>
        <time>2022-10-23T12:20:20.540Z</time>
      </trkpt>
      <trkpt lat="48.77544" lon="2.10647">
        <ele>120</ele>
        <time>2022-10-23T12:20:25.529Z</time>
      </trkpt>
      <trkpt lat="48.77542" lon="2.10653">
        <ele>121</ele>
        <time>2022-10-23T12:20:29.535Z</time>
      </trkpt>
      <trkpt lat="48.77539" lon="2.10662">
        <ele>116</ele>
        <time>2022-10-23T12:20:34.527Z</time>
      </trkpt>
      <trkpt lat="48.77538" lon="2.10672">
        <ele>116</ele>
        <time>2022-10-23T12:20:39.532Z</time>
      </trkpt>
      <trkpt lat="48.77538" lon="2.10683">
        <ele>116</ele>
        <time>2022-10-23T12:20:44.543Z</time>
      </trkpt>
      <trkpt lat="48.7754" lon="2.10691">
        <ele>116</ele>
        <time>2022-10-23T12:20:49.550Z</time>
      </trkpt>
      <trkpt lat="48.77543" lon="2.10701">
        <ele>122</ele>
        <time>2022-10-23T12:20:54.536Z</time>
      </trkpt>
      <trkpt lat="48.77544" lon="2.10707">
        <ele>122</ele>
        <time>2022-10-23T12:20:58.540Z</time>
      </trkpt>
      <trkpt lat="48.77546" lon="2.10717">
        <ele>122</ele>
        <time>2022-10-23T12:21:03.542Z</time>
      </trkpt>
      <trkpt lat="48.77549" lon="2.10724">
        <ele>122</ele>
        <time>2022-10-23T12:21:07.556Z</time>
      </trkpt>
      <trkpt lat="48.77552" lon="2.10733">
        <ele>122</ele>
        <time>2022-10-23T12:21:12.551Z</time>
      </trkpt>
      <trkpt lat="48.77554" lon="2.10741">
        <ele>120</ele>
        <time>2022-10-23T12:21:17.553Z</time>
      </trkpt>
      <trkpt lat="48.77557" lon="2.1075">
        <ele>120</ele>
        <time>2022-10-23T12:21:22.533Z</time>
      </trkpt>
      <trkpt lat="48.77558" lon="2.10756">
        <ele>120</ele>
        <time>2022-10-23T12:21:26.568Z</time>
      </trkpt>
      <trkpt lat="48.7756" lon="2.10765">
        <ele>119</ele>
        <time>2022-10-23T12:21:31.528Z</time>
      </trkpt>
      <trkpt lat="48.77562" lon="2.10771">
        <ele>119</ele>
        <time>2022-10-23T12:21:35.547Z</time>
      </trkpt>
      <trkpt lat="48.77567" lon="2.10782">
        <ele>119</ele>
        <time>2022-10-23T12:21:40.538Z</time>
      </trkpt>
      <trkpt lat="48.7757" lon="2.1079">
        <ele>122</ele>
        <time>2022-10-23T12:21:44.541Z</time>
      </trkpt>
      <trkpt lat="48.77573" lon="2.10799">
        <ele>122</ele>
        <time>2022-10-23T12:21:48.552Z</time>
      </trkpt>
      <trkpt lat="48.77577" lon="2.10808">
        <ele>122</ele>
        <time>2022-10-23T12:21:53.530Z</time>
      </trkpt>
      <trkpt lat="48.7758" lon="2.10814">
        <ele>122</ele>
        <time>2022-10-23T12:21:57.540Z</time>
      </trkpt>
      <trkpt lat="48.77582" lon="2.10821">
        <ele>120</ele>
        <time>2022-10-23T12:22:02.544Z</time>
      </trkpt>
      <trkpt lat="48.77586" lon="2.10829">
        <ele>120</ele>
        <time>2022-10-23T12:22:07.545Z</time>
      </trkpt>
      <trkpt lat="48.77589" lon="2.10837">
        <ele>120</ele>
        <time>2022-10-23T12:22:12.523Z</time>
      </trkpt>
      <trkpt lat="48.77592" lon="2.10845">
        <ele>120</ele>
        <time>2022-10-23T12:22:17.538Z</time>
      </trkpt>
      <trkpt lat="48.77594" lon="2.10852">
        <ele>119</ele>
        <time>2022-10-23T12:22:21.553Z</time>
      </trkpt>
      <trkpt lat="48.77598" lon="2.10862">
        <ele>123</ele>
        <time>2022-10-23T12:22:26.547Z</time>
      </trkpt>
      <trkpt lat="48.77602" lon="2.1087">
        <ele>123</ele>
        <time>2022-10-23T12:22:31.545Z</time>
      </trkpt>
      <trkpt lat="48.77604" lon="2.10877">
        <ele>122</ele>
        <time>2022-10-23T12:22:35.541Z</time>
      </trkpt>
      <trkpt lat="48.77605" lon="2.10885">
        <ele>122</ele>
        <time>2022-10-23T12:22:40.541Z</time>
      </trkpt>
      <trkpt lat="48.77609" lon="2.10891">
        <ele>122</ele>
        <time>2022-10-23T12:22:44.538Z</time>
      </trkpt>
      <trkpt lat="48.77614" lon="2.10901">
        <ele>122</ele>
        <time>2022-10-23T12:22:49.530Z</time>
      </trkpt>
      <trkpt lat="48.77618" lon="2.1091">
        <ele>120</ele>
        <time>2022-10-23T12:22:54.519Z</time>
      </trkpt>
      <trkpt lat="48.7762" lon="2.10916">
        <ele>120</ele>
        <time>2022-10-23T12:22:58.534Z</time>
      </trkpt>
      <trkpt lat="48.77624" lon="2.10925">
        <ele>120</ele>
        <time>2022-10-23T12:23:03.541Z</time>
      </trkpt>
      <trkpt lat="48.77628" lon="2.10936">
        <ele>123</ele>
        <time>2022-10-23T12:23:08.541Z</time>
      </trkpt>
      <trkpt lat="48.7763" lon="2.10942">
        <ele>123</ele>
        <time>2022-10-23T12:23:12.542Z</time>
      </trkpt>
      <trkpt lat="48.77633" lon="2.10952">
        <ele>123</ele>
        <time>2022-10-23T12:23:17.527Z</time>
      </trkpt>
      <trkpt lat="48.77637" lon="2.10959">
        <ele>121</ele>
        <time>2022-10-23T12:23:21.536Z</time>
      </trkpt>
      <trkpt lat="48.77638" lon="2.10966">
        <ele>121</ele>
        <time>2022-10-23T12:23:25.545Z</time>
      </trkpt>
      <trkpt lat="48.77642" lon="2.10975">
        <ele>121</ele>
        <time>2022-10-23T12:23:30.509Z</time>
      </trkpt>
      <trkpt lat="48.77645" lon="2.10981">
        <ele>121</ele>
        <time>2022-10-23T12:23:34.541Z</time>
      </trkpt>
      <trkpt lat="48.77648" lon="2.1099">
        <ele>120</ele>
        <time>2022-10-23T12:23:39.539Z</time>
      </trkpt>
      <trkpt lat="48.77651" lon="2.10997">
        <ele>120</ele>
        <time>2022-10-23T12:23:43.552Z</time>
      </trkpt>
      <trkpt lat="48.77656" lon="2.11006">
        <ele>123</ele>
        <time>2022-10-23T12:23:48.526Z</time>
      </trkpt>
      <trkpt lat="48.77659" lon="2.11014">
        <ele>123</ele>
        <time>2022-10-23T12:23:53.521Z</time>
      </trkpt>
      <trkpt lat="48.77662" lon="2.11021">
        <ele>122</ele>
        <time>2022-10-23T12:23:57.546Z</time>
      </trkpt>
      <trkpt lat="48.77666" lon="2.11029">
        <ele>122</ele>
        <time>2022-10-23T12:24:02.524Z</time>
      </trkpt>
      <trkpt lat="48.77668" lon="2.11037">
        <ele>122</ele>
        <time>2022-10-23T12:24:06.536Z</time>
      </trkpt>
      <trkpt lat="48.77671" lon="2.11043">
        <ele>120</ele>
        <time>2022-10-23T12:24:11.540Z</time>
      </trkpt>
      <trkpt lat="48.77674" lon="2.11052">
        <ele>120</ele>
        <time>2022-10-23T12:24:16.541Z</time>
      </trkpt>
      <trkpt lat="48.77679" lon="2.11062">
        <ele>120</ele>
        <time>2022-10-23T12:24:21.543Z</time>
      </trkpt>
      <trkpt lat="48.77681" lon="2.11072">
        <ele>120</ele>
        <time>2022-10-23T12:24:26.532Z</time>
      </trkpt>
      <trkpt lat="48.77684" lon="2.11082">
        <ele>120</ele>
        <time>2022-10-23T12:24:31.541Z</time>
      </trkpt>
      <trkpt lat="48.77686" lon="2.1109">
        <ele>120</ele>
        <time>2022-10-23T12:24:35.541Z</time>
      </trkpt>
      <trkpt lat="48.77689" lon="2.11099">
        <ele>118</ele>
        <time>2022-10-23T12:24:39.547Z</time>
      </trkpt>
      <trkpt lat="48.77692" lon="2.11109">
        <ele>118</ele>
        <time>2022-10-23T12:24:44.531Z</time>
      </trkpt>
      <trkpt lat="48.77693" lon="2.11119">
        <ele>118</ele>
        <time>2022-10-23T12:24:49.528Z</time>
      </trkpt>
      <trkpt lat="48.77695" lon="2.11127">
        <ele>116</ele>
        <time>2022-10-23T12:24:53.541Z</time>
      </trkpt>
      <trkpt lat="48.77698" lon="2.11138">
        <ele>116</ele>
        <time>2022-10-23T12:24:58.534Z</time>
      </trkpt>
      <trkpt lat="48.777" lon="2.11146">
        <ele>116</ele>
        <time>2022-10-23T12:25:03.527Z</time>
      </trkpt>
      <trkpt lat="48.77702" lon="2.11152">
        <ele>116</ele>
        <time>2022-10-23T12:25:07.539Z</time>
      </trkpt>
      <trkpt lat="48.77703" lon="2.11161">
        <ele>115</ele>
        <time>2022-10-23T12:25:12.537Z</time>
      </trkpt>
      <trkpt lat="48.77705" lon="2.1117">
        <ele>115</ele>
        <time>2022-10-23T12:25:16.545Z</time>
      </trkpt>
      <trkpt lat="48.77704" lon="2.11179">
        <ele>115</ele>
        <time>2022-10-23T12:25:21.533Z</time>
      </trkpt>
      <trkpt lat="48.77706" lon="2.11187">
        <ele>115</ele>
        <time>2022-10-23T12:25:26.523Z</time>
      </trkpt>
      <trkpt lat="48.77708" lon="2.11194">
        <ele>115</ele>
        <time>2022-10-23T12:25:30.527Z</time>
      </trkpt>
      <trkpt lat="48.77709" lon="2.11203">
        <ele>120</ele>
        <time>2022-10-23T12:25:34.527Z</time>
      </trkpt>
      <trkpt lat="48.77709" lon="2.11211">
        <ele>119</ele>
        <time>2022-10-23T12:25:39.533Z</time>
      </trkpt>
      <trkpt lat="48.77707" lon="2.1122">
        <ele>115</ele>
        <time>2022-10-23T12:25:44.531Z</time>
      </trkpt>
      <trkpt lat="48.77705" lon="2.11228">
        <ele>115</ele>
        <time>2022-10-23T12:25:48.536Z</time>
      </trkpt>
      <trkpt lat="48.77705" lon="2.11236">
        <ele>115</ele>
        <time>2022-10-23T12:25:52.543Z</time>
      </trkpt>
      <trkpt lat="48.77706" lon="2.11244">
        <ele>114</ele>
        <time>2022-10-23T12:25:56.540Z</time>
      </trkpt>
      <trkpt lat="48.77707" lon="2.11252">
        <ele>114</ele>
        <time>2022-10-23T12:26:01.541Z</time>
      </trkpt>
      <trkpt lat="48.77707" lon="2.11261">
        <ele>114</ele>
        <time>2022-10-23T12:26:05.558Z</time>
      </trkpt>
      <trkpt lat="48.77707" lon="2.1127">
        <ele>114</ele>
        <time>2022-10-23T12:26:09.584Z</time>
      </trkpt>
      <trkpt lat="48.77706" lon="2.11279">
        <ele>114</ele>
        <time>2022-10-23T12:26:14.532Z</time>
      </trkpt>
      <trkpt lat="48.77704" lon="2.11287">
        <ele>114</ele>
        <time>2022-10-23T12:26:18.537Z</time>
      </trkpt>
      <trkpt lat="48.77703" lon="2.11294">
        <ele>116</ele>
        <time>2022-10-23T12:26:22.547Z</time>
      </trkpt>
      <trkpt lat="48.777" lon="2.11303">
        <ele>116</ele>
        <time>2022-10-23T12:26:27.524Z</time>
      </trkpt>
      <trkpt lat="48.77698" lon="2.11312">
        <ele>116</ele>
        <time>2022-10-23T12:26:31.551Z</time>
      </trkpt>
      <trkpt lat="48.77697" lon="2.11319">
        <ele>116</ele>
        <time>2022-10-23T12:26:35.554Z</time>
      </trkpt>
      <trkpt lat="48.77697" lon="2.11329">
        <ele>117</ele>
        <time>2022-10-23T12:26:40.533Z</time>
      </trkpt>
      <trkpt lat="48.77697" lon="2.11339">
        <ele>117</ele>
        <time>2022-10-23T12:26:44.542Z</time>
      </trkpt>
      <trkpt lat="48.77698" lon="2.11352">
        <ele>117</ele>
        <time>2022-10-23T12:26:49.557Z</time>
      </trkpt>
      <trkpt lat="48.77698" lon="2.11362">
        <ele>117</ele>
        <time>2022-10-23T12:26:54.528Z</time>
      </trkpt>
      <trkpt lat="48.777" lon="2.1137">
        <ele>117</ele>
        <time>2022-10-23T12:26:58.534Z</time>
      </trkpt>
      <trkpt lat="48.77702" lon="2.11374">
        <ele>117</ele>
        <time>2022-10-23T12:27:03.531Z</time>
      </trkpt>
      <trkpt lat="48.77705" lon="2.1138">
        <ele>116</ele>
        <time>2022-10-23T12:27:07.548Z</time>
      </trkpt>
      <trkpt lat="48.77712" lon="2.11378">
        <ele>117</ele>
        <time>2022-10-23T12:27:12.533Z</time>
      </trkpt>
      <trkpt lat="48.77715" lon="2.11375">
        <ele>117</ele>
        <time>2022-10-23T12:27:16.537Z</time>
      </trkpt>
      <trkpt lat="48.77714" lon="2.11373">
        <ele>117</ele>
        <time>2022-10-23T12:27:21.555Z</time>
      </trkpt>
      <trkpt lat="48.77716" lon="2.11372">
        <ele>117</ele>
        <time>2022-10-23T12:27:30.529Z</time>
      </trkpt>
      <trkpt lat="48.77717" lon="2.11372">
        <ele>117</ele>
        <time>2022-10-23T12:27:35.527Z</time>
      </trkpt>
      <trkpt lat="48.77718" lon="2.1137">
        <ele>117</ele>
        <time>2022-10-23T12:27:40.532Z</time>
      </trkpt>
      <trkpt lat="48.7772" lon="2.11365">
        <ele>117</ele>
        <time>2022-10-23T12:27:45.533Z</time>
      </trkpt>
      <trkpt lat="48.77723" lon="2.1136">
        <ele>117</ele>
        <time>2022-10-23T12:27:49.539Z</time>
      </trkpt>
      <trkpt lat="48.77726" lon="2.11355">
        <ele>117</ele>
        <time>2022-10-23T12:27:54.524Z</time>
      </trkpt>
      <trkpt lat="48.77728" lon="2.1135">
        <ele>117</ele>
        <time>2022-10-23T12:27:58.532Z</time>
      </trkpt>
      <trkpt lat="48.7773" lon="2.11345">
        <ele>118</ele>
        <time>2022-10-23T12:28:02.546Z</time>
      </trkpt>
      <trkpt lat="48.77732" lon="2.11345">
        <ele>118</ele>
        <time>2022-10-23T12:28:07.512Z</time>
      </trkpt>
      <trkpt lat="48.77732" lon="2.11341">
        <ele>118</ele>
        <time>2022-10-23T12:28:52.541Z</time>
      </trkpt>
      <trkpt lat="48.77732" lon="2.11339">
        <ele>118</ele>
        <time>2022-10-23T12:28:56.532Z</time>
      </trkpt>
      <trkpt lat="48.77729" lon="2.11345">
        <ele>118</ele>
        <time>2022-10-23T12:29:01.503Z</time>
      </trkpt>
      <trkpt lat="48.77727" lon="2.11349">
        <ele>117</ele>
        <time>2022-10-23T12:29:05.508Z</time>
      </trkpt>
      <trkpt lat="48.77724" lon="2.11353">
        <ele>117</ele>
        <time>2022-10-23T12:29:09.534Z</time>
      </trkpt>
      <trkpt lat="48.77722" lon="2.11358">
        <ele>117</ele>
        <time>2022-10-23T12:29:13.543Z</time>
      </trkpt>
      <trkpt lat="48.77719" lon="2.11363">
        <ele>117</ele>
        <time>2022-10-23T12:29:18.532Z</time>
      </trkpt>
      <trkpt lat="48.77715" lon="2.11366">
        <ele>117</ele>
        <time>2022-10-23T12:29:22.546Z</time>
      </trkpt>
      <trkpt lat="48.7771" lon="2.11373">
        <ele>117</ele>
        <time>2022-10-23T12:29:27.559Z</time>
      </trkpt>
      <trkpt lat="48.77708" lon="2.11386">
        <ele>116</ele>
        <time>2022-10-23T12:29:32.518Z</time>
      </trkpt>
      <trkpt lat="48.77707" lon="2.11395">
        <ele>116</ele>
        <time>2022-10-23T12:29:36.541Z</time>
      </trkpt>
      <trkpt lat="48.77703" lon="2.11406">
        <ele>116</ele>
        <time>2022-10-23T12:29:41.530Z</time>
      </trkpt>
      <trkpt lat="48.77698" lon="2.11416">
        <ele>116</ele>
        <time>2022-10-23T12:29:45.536Z</time>
      </trkpt>
      <trkpt lat="48.77695" lon="2.11423">
        <ele>116</ele>
        <time>2022-10-23T12:29:49.543Z</time>
      </trkpt>
      <trkpt lat="48.7769" lon="2.11432">
        <ele>118</ele>
        <time>2022-10-23T12:29:54.526Z</time>
      </trkpt>
      <trkpt lat="48.77687" lon="2.1144">
        <ele>118</ele>
        <time>2022-10-23T12:29:58.551Z</time>
      </trkpt>
      <trkpt lat="48.77686" lon="2.11448">
        <ele>118</ele>
        <time>2022-10-23T12:30:02.552Z</time>
      </trkpt>
      <trkpt lat="48.77683" lon="2.11458">
        <ele>118</ele>
        <time>2022-10-23T12:30:06.552Z</time>
      </trkpt>
      <trkpt lat="48.77681" lon="2.11471">
        <ele>119</ele>
        <time>2022-10-23T12:30:11.567Z</time>
      </trkpt>
      <trkpt lat="48.77681" lon="2.11483">
        <ele>119</ele>
        <time>2022-10-23T12:30:16.547Z</time>
      </trkpt>
      <trkpt lat="48.77682" lon="2.11493">
        <ele>120</ele>
        <time>2022-10-23T12:30:20.551Z</time>
      </trkpt>
      <trkpt lat="48.77685" lon="2.11505">
        <ele>120</ele>
        <time>2022-10-23T12:30:25.556Z</time>
      </trkpt>
      <trkpt lat="48.77687" lon="2.11517">
        <ele>120</ele>
        <time>2022-10-23T12:30:30.560Z</time>
      </trkpt>
      <trkpt lat="48.7769" lon="2.11526">
        <ele>120</ele>
        <time>2022-10-23T12:30:35.552Z</time>
      </trkpt>
      <trkpt lat="48.77693" lon="2.11534">
        <ele>120</ele>
        <time>2022-10-23T12:30:40.542Z</time>
      </trkpt>
      <trkpt lat="48.77696" lon="2.11545">
        <ele>121</ele>
        <time>2022-10-23T12:30:45.537Z</time>
      </trkpt>
      <trkpt lat="48.77699" lon="2.11555">
        <ele>121</ele>
        <time>2022-10-23T12:30:50.554Z</time>
      </trkpt>
      <trkpt lat="48.77704" lon="2.11565">
        <ele>121</ele>
        <time>2022-10-23T12:30:55.538Z</time>
      </trkpt>
      <trkpt lat="48.77706" lon="2.11572">
        <ele>120</ele>
        <time>2022-10-23T12:30:59.547Z</time>
      </trkpt>
      <trkpt lat="48.77708" lon="2.11578">
        <ele>121</ele>
        <time>2022-10-23T12:31:04.533Z</time>
      </trkpt>
      <trkpt lat="48.77709" lon="2.11578">
        <ele>121</ele>
        <time>2022-10-23T12:31:09.565Z</time>
      </trkpt>
      <trkpt lat="48.77711" lon="2.11583">
        <ele>121</ele>
        <time>2022-10-23T12:31:14.567Z</time>
      </trkpt>
      <trkpt lat="48.77713" lon="2.11591">
        <ele>121</ele>
        <time>2022-10-23T12:31:19.557Z</time>
      </trkpt>
      <trkpt lat="48.77717" lon="2.11598">
        <ele>118</ele>
        <time>2022-10-23T12:31:24.528Z</time>
      </trkpt>
      <trkpt lat="48.7772" lon="2.11605">
        <ele>118</ele>
        <time>2022-10-23T12:31:28.540Z</time>
      </trkpt>
      <trkpt lat="48.77723" lon="2.11612">
        <ele>118</ele>
        <time>2022-10-23T12:31:32.555Z</time>
      </trkpt>
      <trkpt lat="48.77725" lon="2.11623">
        <ele>118</ele>
        <time>2022-10-23T12:31:37.539Z</time>
      </trkpt>
      <trkpt lat="48.77726" lon="2.1163">
        <ele>116</ele>
        <time>2022-10-23T12:31:41.542Z</time>
      </trkpt>
      <trkpt lat="48.77729" lon="2.11637">
        <ele>116</ele>
        <time>2022-10-23T12:31:45.553Z</time>
      </trkpt>
      <trkpt lat="48.7773" lon="2.11647">
        <ele>116</ele>
        <time>2022-10-23T12:31:50.546Z</time>
      </trkpt>
      <trkpt lat="48.77732" lon="2.11658">
        <ele>114</ele>
        <time>2022-10-23T12:31:55.553Z</time>
      </trkpt>
      <trkpt lat="48.77733" lon="2.11668">
        <ele>114</ele>
        <time>2022-10-23T12:32:00.556Z</time>
      </trkpt>
      <trkpt lat="48.77733" lon="2.11678">
        <ele>114</ele>
        <time>2022-10-23T12:32:05.538Z</time>
      </trkpt>
      <trkpt lat="48.77733" lon="2.11688">
        <ele>112</ele>
        <time>2022-10-23T12:32:10.535Z</time>
      </trkpt>
      <trkpt lat="48.77734" lon="2.11696">
        <ele>112</ele>
        <time>2022-10-23T12:32:14.526Z</time>
      </trkpt>
      <trkpt lat="48.77735" lon="2.11703">
        <ele>112</ele>
        <time>2022-10-23T12:32:18.562Z</time>
      </trkpt>
      <trkpt lat="48.77737" lon="2.11712">
        <ele>115</ele>
        <time>2022-10-23T12:32:23.555Z</time>
      </trkpt>
      <trkpt lat="48.77739" lon="2.11722">
        <ele>115</ele>
        <time>2022-10-23T12:32:28.561Z</time>
      </trkpt>
      <trkpt lat="48.7774" lon="2.11731">
        <ele>115</ele>
        <time>2022-10-23T12:32:33.566Z</time>
      </trkpt>
      <trkpt lat="48.77736" lon="2.11762">
        <ele>117</ele>
        <time>2022-10-23T12:36:09.547Z</time>
      </trkpt>
      <trkpt lat="48.77732" lon="2.11761">
        <ele>112</ele>
        <time>2022-10-23T12:36:13.553Z</time>
      </trkpt>
      <trkpt lat="48.77729" lon="2.11759">
        <ele>112</ele>
        <time>2022-10-23T12:36:17.567Z</time>
      </trkpt>
      <trkpt lat="48.77725" lon="2.1176">
        <ele>112</ele>
        <time>2022-10-23T12:36:22.560Z</time>
      </trkpt>
      <trkpt lat="48.77719" lon="2.11762">
        <ele>112</ele>
        <time>2022-10-23T12:36:27.549Z</time>
      </trkpt>
      <trkpt lat="48.77715" lon="2.11764">
        <ele>113</ele>
        <time>2022-10-23T12:36:31.554Z</time>
      </trkpt>
      <trkpt lat="48.7771" lon="2.11767">
        <ele>113</ele>
        <time>2022-10-23T12:36:36.556Z</time>
      </trkpt>
      <trkpt lat="48.77704" lon="2.11769">
        <ele>109</ele>
        <time>2022-10-23T12:36:41.531Z</time>
      </trkpt>
      <trkpt lat="48.77699" lon="2.1177">
        <ele>109</ele>
        <time>2022-10-23T12:36:46.507Z</time>
      </trkpt>
      <trkpt lat="48.77696" lon="2.11768">
        <ele>109</ele>
        <time>2022-10-23T12:36:50.508Z</time>
      </trkpt>
      <trkpt lat="48.77691" lon="2.11773">
        <ele>109</ele>
        <time>2022-10-23T12:36:55.502Z</time>
      </trkpt>
      <trkpt lat="48.77686" lon="2.11775">
        <ele>109</ele>
        <time>2022-10-23T12:36:59.510Z</time>
      </trkpt>
      <trkpt lat="48.77681" lon="2.11776">
        <ele>109</ele>
        <time>2022-10-23T12:37:04.501Z</time>
      </trkpt>
      <trkpt lat="48.77676" lon="2.1178">
        <ele>109</ele>
        <time>2022-10-23T12:37:36.512Z</time>
      </trkpt>
      <trkpt lat="48.77674" lon="2.11783">
        <ele>109</ele>
        <time>2022-10-23T12:37:41.507Z</time>
      </trkpt>
      <trkpt lat="48.77675" lon="2.11785">
        <ele>109</ele>
        <time>2022-10-23T12:37:45.511Z</time>
      </trkpt>
      <trkpt lat="48.77676" lon="2.11792">
        <ele>108</ele>
        <time>2022-10-23T12:37:50.506Z</time>
      </trkpt>
      <trkpt lat="48.77681" lon="2.11799">
        <ele>109</ele>
        <time>2022-10-23T12:37:55.517Z</time>
      </trkpt>
      <trkpt lat="48.77681" lon="2.11808">
        <ele>109</ele>
        <time>2022-10-23T12:38:00.524Z</time>
      </trkpt>
      <trkpt lat="48.77684" lon="2.11819">
        <ele>109</ele>
        <time>2022-10-23T12:38:05.510Z</time>
      </trkpt>
      <trkpt lat="48.77686" lon="2.11828">
        <ele>109</ele>
        <time>2022-10-23T12:38:10.509Z</time>
      </trkpt>
      <trkpt lat="48.77685" lon="2.11835">
        <ele>109</ele>
        <time>2022-10-23T12:38:14.512Z</time>
      </trkpt>
      <trkpt lat="48.77686" lon="2.11841">
        <ele>109</ele>
        <time>2022-10-23T12:38:18.511Z</time>
      </trkpt>
      <trkpt lat="48.77686" lon="2.11847">
        <ele>109</ele>
        <time>2022-10-23T12:38:23.508Z</time>
      </trkpt>
      <trkpt lat="48.77686" lon="2.11853">
        <ele>109</ele>
        <time>2022-10-23T12:38:27.514Z</time>
      </trkpt>
      <trkpt lat="48.77686" lon="2.11864">
        <ele>109</ele>
        <time>2022-10-23T12:38:32.512Z</time>
      </trkpt>
      <trkpt lat="48.77687" lon="2.11875">
        <ele>109</ele>
        <time>2022-10-23T12:38:37.511Z</time>
      </trkpt>
      <trkpt lat="48.77686" lon="2.11884">
        <ele>108</ele>
        <time>2022-10-23T12:38:41.529Z</time>
      </trkpt>
      <trkpt lat="48.77686" lon="2.11892">
        <ele>108</ele>
        <time>2022-10-23T12:38:46.517Z</time>
      </trkpt>
      <trkpt lat="48.77687" lon="2.11896">
        <ele>108</ele>
        <time>2022-10-23T12:38:51.508Z</time>
      </trkpt>
      <trkpt lat="48.77687" lon="2.119">
        <ele>108</ele>
        <time>2022-10-23T12:38:55.507Z</time>
      </trkpt>
      <trkpt lat="48.7768" lon="2.11903">
        <ele>107</ele>
        <time>2022-10-23T12:39:00.514Z</time>
      </trkpt>
      <trkpt lat="48.7768" lon="2.11914">
        <ele>107</ele>
        <time>2022-10-23T12:39:04.544Z</time>
      </trkpt>
      <trkpt lat="48.7768" lon="2.11927">
        <ele>107</ele>
        <time>2022-10-23T12:39:09.512Z</time>
      </trkpt>
      <trkpt lat="48.7768" lon="2.11937">
        <ele>107</ele>
        <time>2022-10-23T12:39:14.517Z</time>
      </trkpt>
      <trkpt lat="48.77681" lon="2.11947">
        <ele>106</ele>
        <time>2022-10-23T12:39:19.514Z</time>
      </trkpt>
      <trkpt lat="48.77679" lon="2.11957">
        <ele>107</ele>
        <time>2022-10-23T12:39:24.526Z</time>
      </trkpt>
      <trkpt lat="48.77676" lon="2.11965">
        <ele>107</ele>
        <time>2022-10-23T12:39:29.523Z</time>
      </trkpt>
      <trkpt lat="48.77675" lon="2.11973">
        <ele>107</ele>
        <time>2022-10-23T12:39:34.518Z</time>
      </trkpt>
      <trkpt lat="48.77675" lon="2.11981">
        <ele>107</ele>
        <time>2022-10-23T12:39:38.524Z</time>
      </trkpt>
      <trkpt lat="48.77675" lon="2.1199">
        <ele>108</ele>
        <time>2022-10-23T12:39:43.510Z</time>
      </trkpt>
      <trkpt lat="48.77674" lon="2.11998">
        <ele>108</ele>
        <time>2022-10-23T12:39:48.523Z</time>
      </trkpt>
      <trkpt lat="48.77672" lon="2.12007">
        <ele>108</ele>
        <time>2022-10-23T12:40:03.505Z</time>
      </trkpt>
      <trkpt lat="48.77672" lon="2.12008">
        <ele>108</ele>
        <time>2022-10-23T12:40:07.540Z</time>
      </trkpt>
      <trkpt lat="48.77672" lon="2.1201">
        <ele>108</ele>
        <time>2022-10-23T12:40:12.507Z</time>
      </trkpt>
      <trkpt lat="48.7767" lon="2.12016">
        <ele>108</ele>
        <time>2022-10-23T12:40:16.526Z</time>
      </trkpt>
      <trkpt lat="48.77669" lon="2.12025">
        <ele>108</ele>
        <time>2022-10-23T12:40:21.551Z</time>
      </trkpt>
      <trkpt lat="48.77668" lon="2.12034">
        <ele>108</ele>
        <time>2022-10-23T12:40:25.502Z</time>
      </trkpt>
      <trkpt lat="48.77666" lon="2.1204">
        <ele>108</ele>
        <time>2022-10-23T12:40:30.513Z</time>
      </trkpt>
      <trkpt lat="48.77668" lon="2.12049">
        <ele>107</ele>
        <time>2022-10-23T12:40:35.515Z</time>
      </trkpt>
      <trkpt lat="48.77666" lon="2.12058">
        <ele>107</ele>
        <time>2022-10-23T12:40:40.532Z</time>
      </trkpt>
      <trkpt lat="48.77662" lon="2.12067">
        <ele>107</ele>
        <time>2022-10-23T12:40:45.504Z</time>
      </trkpt>
      <trkpt lat="48.7766" lon="2.12076">
        <ele>106</ele>
        <time>2022-10-23T12:40:50.516Z</time>
      </trkpt>
      <trkpt lat="48.77656" lon="2.12082">
        <ele>106</ele>
        <time>2022-10-23T12:40:54.506Z</time>
      </trkpt>
      <trkpt lat="48.77651" lon="2.12092">
        <ele>105</ele>
        <time>2022-10-23T12:40:59.511Z</time>
      </trkpt>
      <trkpt lat="48.77648" lon="2.12101">
        <ele>104</ele>
        <time>2022-10-23T12:41:04.509Z</time>
      </trkpt>
      <trkpt lat="48.77646" lon="2.12109">
        <ele>104</ele>
        <time>2022-10-23T12:41:08.522Z</time>
      </trkpt>
      <trkpt lat="48.77644" lon="2.12118">
        <ele>104</ele>
        <time>2022-10-23T12:41:13.509Z</time>
      </trkpt>
      <trkpt lat="48.77641" lon="2.12127">
        <ele>104</ele>
        <time>2022-10-23T12:41:18.512Z</time>
      </trkpt>
      <trkpt lat="48.77639" lon="2.12135">
        <ele>104</ele>
        <time>2022-10-23T12:41:22.510Z</time>
      </trkpt>
      <trkpt lat="48.77636" lon="2.12143">
        <ele>104</ele>
        <time>2022-10-23T12:41:27.512Z</time>
      </trkpt>
      <trkpt lat="48.77635" lon="2.12154">
        <ele>104</ele>
        <time>2022-10-23T12:41:32.507Z</time>
      </trkpt>
      <trkpt lat="48.77632" lon="2.12164">
        <ele>104</ele>
        <time>2022-10-23T12:41:37.505Z</time>
      </trkpt>
      <trkpt lat="48.77631" lon="2.12171">
        <ele>104</ele>
        <time>2022-10-23T12:41:41.524Z</time>
      </trkpt>
      <trkpt lat="48.77629" lon="2.12182">
        <ele>105</ele>
        <time>2022-10-23T12:41:46.512Z</time>
      </trkpt>
      <trkpt lat="48.77625" lon="2.12191">
        <ele>107</ele>
        <time>2022-10-23T12:41:51.512Z</time>
      </trkpt>
      <trkpt lat="48.77622" lon="2.12201">
        <ele>107</ele>
        <time>2022-10-23T12:41:56.512Z</time>
      </trkpt>
      <trkpt lat="48.7762" lon="2.12209">
        <ele>107</ele>
        <time>2022-10-23T12:42:00.518Z</time>
      </trkpt>
      <trkpt lat="48.77617" lon="2.12219">
        <ele>107</ele>
        <time>2022-10-23T12:42:05.513Z</time>
      </trkpt>
      <trkpt lat="48.77616" lon="2.12229">
        <ele>107</ele>
        <time>2022-10-23T12:42:10.516Z</time>
      </trkpt>
      <trkpt lat="48.77614" lon="2.12239">
        <ele>107</ele>
        <time>2022-10-23T12:42:15.512Z</time>
      </trkpt>
      <trkpt lat="48.77612" lon="2.12247">
        <ele>107</ele>
        <time>2022-10-23T12:42:19.516Z</time>
      </trkpt>
      <trkpt lat="48.77609" lon="2.12258">
        <ele>107</ele>
        <time>2022-10-23T12:42:24.514Z</time>
      </trkpt>
      <trkpt lat="48.77606" lon="2.12265">
        <ele>107</ele>
        <time>2022-10-23T12:42:28.522Z</time>
      </trkpt>
      <trkpt lat="48.77602" lon="2.12272">
        <ele>107</ele>
        <time>2022-10-23T12:42:33.501Z</time>
      </trkpt>
      <trkpt lat="48.77599" lon="2.12276">
        <ele>107</ele>
        <time>2022-10-23T12:42:37.515Z</time>
      </trkpt>
      <trkpt lat="48.77594" lon="2.1228">
        <ele>107</ele>
        <time>2022-10-23T12:42:42.508Z</time>
      </trkpt>
      <trkpt lat="48.77591" lon="2.12283">
        <ele>107</ele>
        <time>2022-10-23T12:42:46.552Z</time>
      </trkpt>
      <trkpt lat="48.77587" lon="2.12289">
        <ele>107</ele>
        <time>2022-10-23T12:42:50.544Z</time>
      </trkpt>
      <trkpt lat="48.77584" lon="2.12299">
        <ele>106</ele>
        <time>2022-10-23T12:42:55.543Z</time>
      </trkpt>
      <trkpt lat="48.77581" lon="2.12303">
        <ele>106</ele>
        <time>2022-10-23T12:43:00.558Z</time>
      </trkpt>
      <trkpt lat="48.77576" lon="2.12306">
        <ele>106</ele>
        <time>2022-10-23T12:43:05.526Z</time>
      </trkpt>
      <trkpt lat="48.77569" lon="2.12309">
        <ele>107</ele>
        <time>2022-10-23T12:43:10.517Z</time>
      </trkpt>
      <trkpt lat="48.77562" lon="2.12313">
        <ele>107</ele>
        <time>2022-10-23T12:43:15.523Z</time>
      </trkpt>
      <trkpt lat="48.77555" lon="2.12319">
        <ele>107</ele>
        <time>2022-10-23T12:43:20.545Z</time>
      </trkpt>
      <trkpt lat="48.77552" lon="2.12329">
        <ele>107</ele>
        <time>2022-10-23T12:43:25.560Z</time>
      </trkpt>
      <trkpt lat="48.7755" lon="2.1234">
        <ele>107</ele>
        <time>2022-10-23T12:43:30.566Z</time>
      </trkpt>
      <trkpt lat="48.77549" lon="2.1235">
        <ele>106</ele>
        <time>2022-10-23T12:43:35.541Z</time>
      </trkpt>
      <trkpt lat="48.7755" lon="2.1236">
        <ele>106</ele>
        <time>2022-10-23T12:43:40.536Z</time>
      </trkpt>
      <trkpt lat="48.77548" lon="2.1237">
        <ele>106</ele>
        <time>2022-10-23T12:43:45.540Z</time>
      </trkpt>
      <trkpt lat="48.77549" lon="2.12378">
        <ele>105</ele>
        <time>2022-10-23T12:43:50.545Z</time>
      </trkpt>
      <trkpt lat="48.77546" lon="2.12384">
        <ele>105</ele>
        <time>2022-10-23T12:43:54.555Z</time>
      </trkpt>
      <trkpt lat="48.77543" lon="2.12395">
        <ele>105</ele>
        <time>2022-10-23T12:43:59.537Z</time>
      </trkpt>
      <trkpt lat="48.77539" lon="2.12403">
        <ele>106</ele>
        <time>2022-10-23T12:44:04.503Z</time>
      </trkpt>
      <trkpt lat="48.77533" lon="2.12405">
        <ele>106</ele>
        <time>2022-10-23T12:44:08.502Z</time>
      </trkpt>
      <trkpt lat="48.77528" lon="2.12415">
        <ele>106</ele>
        <time>2022-10-23T12:44:12.506Z</time>
      </trkpt>
      <trkpt lat="48.77526" lon="2.12421">
        <ele>106</ele>
        <time>2022-10-23T12:44:17.505Z</time>
      </trkpt>
      <trkpt lat="48.77523" lon="2.12425">
        <ele>106</ele>
        <time>2022-10-23T12:44:22.508Z</time>
      </trkpt>
      <trkpt lat="48.7752" lon="2.12432">
        <ele>107</ele>
        <time>2022-10-23T12:44:27.508Z</time>
      </trkpt>
      <trkpt lat="48.77522" lon="2.12437">
        <ele>107</ele>
        <time>2022-10-23T12:44:32.505Z</time>
      </trkpt>
      <trkpt lat="48.77523" lon="2.12439">
        <ele>107</ele>
        <time>2022-10-23T12:44:36.510Z</time>
      </trkpt>
      <trkpt lat="48.77525" lon="2.12447">
        <ele>107</ele>
        <time>2022-10-23T12:44:41.506Z</time>
      </trkpt>
      <trkpt lat="48.77523" lon="2.12454">
        <ele>107</ele>
        <time>2022-10-23T12:44:46.498Z</time>
      </trkpt>
      <trkpt lat="48.77523" lon="2.1246">
        <ele>107</ele>
        <time>2022-10-23T12:44:50.513Z</time>
      </trkpt>
      <trkpt lat="48.77517" lon="2.12467">
        <ele>107</ele>
        <time>2022-10-23T12:44:55.515Z</time>
      </trkpt>
      <trkpt lat="48.77515" lon="2.12478">
        <ele>107</ele>
        <time>2022-10-23T12:45:00.503Z</time>
      </trkpt>
      <trkpt lat="48.77512" lon="2.12487">
        <ele>105</ele>
        <time>2022-10-23T12:45:05.506Z</time>
      </trkpt>
      <trkpt lat="48.77509" lon="2.12491">
        <ele>105</ele>
        <time>2022-10-23T12:45:09.541Z</time>
      </trkpt>
      <trkpt lat="48.77504" lon="2.12498">
        <ele>105</ele>
        <time>2022-10-23T12:45:14.513Z</time>
      </trkpt>
      <trkpt lat="48.77501" lon="2.12503">
        <ele>105</ele>
        <time>2022-10-23T12:45:18.525Z</time>
      </trkpt>
      <trkpt lat="48.77497" lon="2.12509">
        <ele>105</ele>
        <time>2022-10-23T12:45:23.526Z</time>
      </trkpt>
      <trkpt lat="48.77494" lon="2.1252">
        <ele>103</ele>
        <time>2022-10-23T12:45:28.544Z</time>
      </trkpt>
      <trkpt lat="48.77492" lon="2.12529">
        <ele>103</ele>
        <time>2022-10-23T12:45:33.537Z</time>
      </trkpt>
      <trkpt lat="48.77491" lon="2.12539">
        <ele>103</ele>
        <time>2022-10-23T12:45:38.540Z</time>
      </trkpt>
      <trkpt lat="48.77489" lon="2.1255">
        <ele>103</ele>
        <time>2022-10-23T12:45:43.508Z</time>
      </trkpt>
      <trkpt lat="48.77489" lon="2.12557">
        <ele>103</ele>
        <time>2022-10-23T12:45:47.517Z</time>
      </trkpt>
      <trkpt lat="48.77489" lon="2.12568">
        <ele>103</ele>
        <time>2022-10-23T12:45:52.532Z</time>
      </trkpt>
      <trkpt lat="48.7749" lon="2.12575">
        <ele>104</ele>
        <time>2022-10-23T12:45:56.557Z</time>
      </trkpt>
      <trkpt lat="48.7749" lon="2.12586">
        <ele>104</ele>
        <time>2022-10-23T12:46:01.520Z</time>
      </trkpt>
      <trkpt lat="48.77489" lon="2.12596">
        <ele>104</ele>
        <time>2022-10-23T12:46:06.536Z</time>
      </trkpt>
      <trkpt lat="48.7749" lon="2.12604">
        <ele>105</ele>
        <time>2022-10-23T12:46:10.548Z</time>
      </trkpt>
      <trkpt lat="48.77491" lon="2.12612">
        <ele>105</ele>
        <time>2022-10-23T12:46:15.519Z</time>
      </trkpt>
      <trkpt lat="48.7749" lon="2.12622">
        <ele>105</ele>
        <time>2022-10-23T12:46:20.539Z</time>
      </trkpt>
      <trkpt lat="48.7749" lon="2.12628">
        <ele>106</ele>
        <time>2022-10-23T12:46:24.562Z</time>
      </trkpt>
      <trkpt lat="48.7749" lon="2.12636">
        <ele>106</ele>
        <time>2022-10-23T12:46:29.530Z</time>
      </trkpt>
      <trkpt lat="48.7749" lon="2.12641">
        <ele>106</ele>
        <time>2022-10-23T12:46:33.547Z</time>
      </trkpt>
      <trkpt lat="48.77491" lon="2.12649">
        <ele>106</ele>
        <time>2022-10-23T12:46:38.546Z</time>
      </trkpt>
      <trkpt lat="48.77495" lon="2.12659">
        <ele>106</ele>
        <time>2022-10-23T12:46:43.511Z</time>
      </trkpt>
      <trkpt lat="48.77497" lon="2.12664">
        <ele>106</ele>
        <time>2022-10-23T12:46:47.512Z</time>
      </trkpt>
      <trkpt lat="48.77495" lon="2.12673">
        <ele>106</ele>
        <time>2022-10-23T12:46:52.516Z</time>
      </trkpt>
      <trkpt lat="48.77495" lon="2.1268">
        <ele>106</ele>
        <time>2022-10-23T12:46:56.528Z</time>
      </trkpt>
      <trkpt lat="48.77495" lon="2.12687">
        <ele>106</ele>
        <time>2022-10-23T12:47:00.536Z</time>
      </trkpt>
      <trkpt lat="48.77493" lon="2.12697">
        <ele>106</ele>
        <time>2022-10-23T12:47:05.522Z</time>
      </trkpt>
      <trkpt lat="48.77492" lon="2.12703">
        <ele>106</ele>
        <time>2022-10-23T12:47:09.525Z</time>
      </trkpt>
      <trkpt lat="48.77491" lon="2.12708">
        <ele>106</ele>
        <time>2022-10-23T12:47:13.526Z</time>
      </trkpt>
      <trkpt lat="48.77488" lon="2.12711">
        <ele>106</ele>
        <time>2022-10-23T12:47:18.524Z</time>
      </trkpt>
      <trkpt lat="48.77487" lon="2.12716">
        <ele>106</ele>
        <time>2022-10-23T12:47:23.521Z</time>
      </trkpt>
      <trkpt lat="48.77485" lon="2.12721">
        <ele>108</ele>
        <time>2022-10-23T12:47:27.536Z</time>
      </trkpt>
      <trkpt lat="48.77481" lon="2.12727">
        <ele>108</ele>
        <time>2022-10-23T12:47:31.536Z</time>
      </trkpt>
      <trkpt lat="48.77481" lon="2.12739">
        <ele>108</ele>
        <time>2022-10-23T12:47:36.555Z</time>
      </trkpt>
      <trkpt lat="48.77481" lon="2.12748">
        <ele>108</ele>
        <time>2022-10-23T12:47:41.527Z</time>
      </trkpt>
      <trkpt lat="48.77482" lon="2.12759">
        <ele>108</ele>
        <time>2022-10-23T12:47:46.555Z</time>
      </trkpt>
      <trkpt lat="48.77481" lon="2.1277">
        <ele>109</ele>
        <time>2022-10-23T12:47:51.550Z</time>
      </trkpt>
      <trkpt lat="48.77481" lon="2.1278">
        <ele>109</ele>
        <time>2022-10-23T12:47:56.555Z</time>
      </trkpt>
      <trkpt lat="48.77481" lon="2.12791">
        <ele>109</ele>
        <time>2022-10-23T12:48:01.553Z</time>
      </trkpt>
      <trkpt lat="48.77482" lon="2.12803">
        <ele>110</ele>
        <time>2022-10-23T12:48:06.531Z</time>
      </trkpt>
      <trkpt lat="48.77481" lon="2.1281">
        <ele>110</ele>
        <time>2022-10-23T12:48:10.559Z</time>
      </trkpt>
      <trkpt lat="48.77478" lon="2.1282">
        <ele>110</ele>
        <time>2022-10-23T12:48:15.528Z</time>
      </trkpt>
      <trkpt lat="48.77476" lon="2.12827">
        <ele>110</ele>
        <time>2022-10-23T12:48:19.534Z</time>
      </trkpt>
      <trkpt lat="48.77472" lon="2.12836">
        <ele>110</ele>
        <time>2022-10-23T12:48:24.550Z</time>
      </trkpt>
      <trkpt lat="48.7747" lon="2.12845">
        <ele>110</ele>
        <time>2022-10-23T12:48:29.538Z</time>
      </trkpt>
      <trkpt lat="48.7747" lon="2.12849">
        <ele>110</ele>
        <time>2022-10-23T12:48:34.549Z</time>
      </trkpt>
      <trkpt lat="48.77471" lon="2.12854">
        <ele>110</ele>
        <time>2022-10-23T12:48:39.512Z</time>
      </trkpt>
      <trkpt lat="48.77476" lon="2.12856">
        <ele>110</ele>
        <time>2022-10-23T12:48:43.526Z</time>
      </trkpt>
      <trkpt lat="48.7748" lon="2.12857">
        <ele>110</ele>
        <time>2022-10-23T12:48:47.550Z</time>
      </trkpt>
      <trkpt lat="48.77487" lon="2.12859">
        <ele>109</ele>
        <time>2022-10-23T12:48:52.545Z</time>
      </trkpt>
      <trkpt lat="48.77493" lon="2.12863">
        <ele>109</ele>
        <time>2022-10-23T12:48:57.525Z</time>
      </trkpt>
      <trkpt lat="48.77497" lon="2.12868">
        <ele>109</ele>
        <time>2022-10-23T12:49:01.529Z</time>
      </trkpt>
      <trkpt lat="48.77501" lon="2.12873">
        <ele>109</ele>
        <time>2022-10-23T12:49:05.551Z</time>
      </trkpt>
      <trkpt lat="48.77507" lon="2.12881">
        <ele>109</ele>
        <time>2022-10-23T12:49:10.509Z</time>
      </trkpt>
      <trkpt lat="48.7751" lon="2.12886">
        <ele>109</ele>
        <time>2022-10-23T12:49:14.549Z</time>
      </trkpt>
      <trkpt lat="48.77515" lon="2.12895">
        <ele>106</ele>
        <time>2022-10-23T12:49:19.551Z</time>
      </trkpt>
      <trkpt lat="48.77517" lon="2.12901">
        <ele>106</ele>
        <time>2022-10-23T12:49:24.556Z</time>
      </trkpt>
      <trkpt lat="48.77515" lon="2.12909">
        <ele>106</ele>
        <time>2022-10-23T12:49:28.561Z</time>
      </trkpt>
      <trkpt lat="48.77512" lon="2.12917">
        <ele>108</ele>
        <time>2022-10-23T12:49:33.541Z</time>
      </trkpt>
      <trkpt lat="48.77509" lon="2.12924">
        <ele>108</ele>
        <time>2022-10-23T12:49:37.544Z</time>
      </trkpt>
      <trkpt lat="48.77508" lon="2.12928">
        <ele>108</ele>
        <time>2022-10-23T12:49:41.546Z</time>
      </trkpt>
      <trkpt lat="48.77511" lon="2.12922">
        <ele>108</ele>
        <time>2022-10-23T12:49:46.536Z</time>
      </trkpt>
      <trkpt lat="48.77515" lon="2.12917">
        <ele>106</ele>
        <time>2022-10-23T12:49:51.537Z</time>
      </trkpt>
      <trkpt lat="48.77519" lon="2.12912">
        <ele>106</ele>
        <time>2022-10-23T12:49:56.525Z</time>
      </trkpt>
      <trkpt lat="48.77521" lon="2.12907">
        <ele>106</ele>
        <time>2022-10-23T12:50:00.543Z</time>
      </trkpt>
      <trkpt lat="48.77523" lon="2.12907">
        <ele>106</ele>
        <time>2022-10-23T12:50:05.534Z</time>
      </trkpt>
      <trkpt lat="48.77523" lon="2.12909">
        <ele>106</ele>
        <time>2022-10-23T12:50:09.541Z</time>
      </trkpt>
      <trkpt lat="48.77527" lon="2.12911">
        <ele>106</ele>
        <time>2022-10-23T12:50:13.543Z</time>
      </trkpt>
      <trkpt lat="48.77531" lon="2.12914">
        <ele>106</ele>
        <time>2022-10-23T12:50:17.547Z</time>
      </trkpt>
      <trkpt lat="48.77535" lon="2.1292">
        <ele>106</ele>
        <time>2022-10-23T12:50:22.529Z</time>
      </trkpt>
      <trkpt lat="48.7754" lon="2.12926">
        <ele>106</ele>
        <time>2022-10-23T12:50:27.542Z</time>
      </trkpt>
      <trkpt lat="48.77544" lon="2.12933">
        <ele>104</ele>
        <time>2022-10-23T12:50:31.552Z</time>
      </trkpt>
      <trkpt lat="48.77548" lon="2.1294">
        <ele>104</ele>
        <time>2022-10-23T12:50:36.547Z</time>
      </trkpt>
      <trkpt lat="48.77552" lon="2.12947">
        <ele>104</ele>
        <time>2022-10-23T12:51:00.528Z</time>
      </trkpt>
      <trkpt lat="48.77552" lon="2.12948">
        <ele>104</ele>
        <time>2022-10-23T12:51:05.527Z</time>
      </trkpt>
      <trkpt lat="48.77552" lon="2.12948">
        <ele>104</ele>
        <time>2022-10-23T12:51:10.532Z</time>
      </trkpt>
      <trkpt lat="48.77554" lon="2.12952">
        <ele>104</ele>
        <time>2022-10-23T12:51:15.543Z</time>
      </trkpt>
      <trkpt lat="48.77556" lon="2.12956">
        <ele>104</ele>
        <time>2022-10-23T12:51:19.544Z</time>
      </trkpt>
      <trkpt lat="48.77559" lon="2.12957">
        <ele>104</ele>
        <time>2022-10-23T12:51:24.559Z</time>
      </trkpt>
      <trkpt lat="48.77562" lon="2.12963">
        <ele>104</ele>
        <time>2022-10-23T12:51:29.548Z</time>
      </trkpt>
      <trkpt lat="48.77565" lon="2.12967">
        <ele>104</ele>
        <time>2022-10-23T12:51:33.559Z</time>
      </trkpt>
      <trkpt lat="48.77569" lon="2.12971">
        <ele>104</ele>
        <time>2022-10-23T12:51:38.538Z</time>
      </trkpt>
      <trkpt lat="48.7757" lon="2.12972">
        <ele>104</ele>
        <time>2022-10-23T12:52:01.511Z</time>
      </trkpt>
      <trkpt lat="48.7757" lon="2.12974">
        <ele>104</ele>
        <time>2022-10-23T12:52:05.522Z</time>
      </trkpt>
      <trkpt lat="48.77576" lon="2.12981">
        <ele>104</ele>
        <time>2022-10-23T12:52:10.519Z</time>
      </trkpt>
      <trkpt lat="48.7758" lon="2.12987">
        <ele>105</ele>
        <time>2022-10-23T12:52:15.504Z</time>
      </trkpt>
      <trkpt lat="48.77582" lon="2.1299">
        <ele>105</ele>
        <time>2022-10-23T12:52:19.521Z</time>
      </trkpt>
      <trkpt lat="48.77583" lon="2.12995">
        <ele>105</ele>
        <time>2022-10-23T12:52:24.523Z</time>
      </trkpt>
      <trkpt lat="48.77586" lon="2.13001">
        <ele>105</ele>
        <time>2022-10-23T12:52:29.512Z</time>
      </trkpt>
      <trkpt lat="48.77586" lon="2.13007">
        <ele>105</ele>
        <time>2022-10-23T12:52:33.515Z</time>
      </trkpt>
      <trkpt lat="48.77586" lon="2.13015">
        <ele>107</ele>
        <time>2022-10-23T12:52:38.512Z</time>
      </trkpt>
      <trkpt lat="48.77585" lon="2.13025">
        <ele>107</ele>
        <time>2022-10-23T12:52:52.522Z</time>
      </trkpt>
      <trkpt lat="48.77584" lon="2.1303">
        <ele>107</ele>
        <time>2022-10-23T12:52:57.527Z</time>
      </trkpt>
      <trkpt lat="48.77583" lon="2.13036">
        <ele>107</ele>
        <time>2022-10-23T12:53:01.550Z</time>
      </trkpt>
      <trkpt lat="48.77584" lon="2.13045">
        <ele>108</ele>
        <time>2022-10-23T12:53:06.543Z</time>
      </trkpt>
      <trkpt lat="48.77586" lon="2.13051">
        <ele>108</ele>
        <time>2022-10-23T12:53:10.543Z</time>
      </trkpt>
      <trkpt lat="48.77589" lon="2.13058">
        <ele>108</ele>
        <time>2022-10-23T12:53:15.533Z</time>
      </trkpt>
      <trkpt lat="48.77588" lon="2.13066">
        <ele>108</ele>
        <time>2022-10-23T12:53:20.526Z</time>
      </trkpt>
      <trkpt lat="48.77585" lon="2.13073">
        <ele>110</ele>
        <time>2022-10-23T12:53:25.516Z</time>
      </trkpt>
      <trkpt lat="48.77583" lon="2.13081">
        <ele>110</ele>
        <time>2022-10-23T12:53:30.540Z</time>
      </trkpt>
      <trkpt lat="48.77581" lon="2.13088">
        <ele>110</ele>
        <time>2022-10-23T12:53:35.508Z</time>
      </trkpt>
      <trkpt lat="48.77578" lon="2.13096">
        <ele>110</ele>
        <time>2022-10-23T12:53:40.506Z</time>
      </trkpt>
      <trkpt lat="48.77576" lon="2.13104">
        <ele>114</ele>
        <time>2022-10-23T12:53:44.528Z</time>
      </trkpt>
      <trkpt lat="48.77574" lon="2.13111">
        <ele>114</ele>
        <time>2022-10-23T12:53:48.544Z</time>
      </trkpt>
      <trkpt lat="48.77571" lon="2.1312">
        <ele>114</ele>
        <time>2022-10-23T12:53:53.522Z</time>
      </trkpt>
      <trkpt lat="48.77568" lon="2.13127">
        <ele>110</ele>
        <time>2022-10-23T12:53:57.545Z</time>
      </trkpt>
      <trkpt lat="48.77566" lon="2.13134">
        <ele>110</ele>
        <time>2022-10-23T12:54:02.541Z</time>
      </trkpt>
      <trkpt lat="48.77564" lon="2.13143">
        <ele>110</ele>
        <time>2022-10-23T12:54:07.529Z</time>
      </trkpt>
      <trkpt lat="48.77561" lon="2.13151">
        <ele>110</ele>
        <time>2022-10-23T12:54:12.532Z</time>
      </trkpt>
      <trkpt lat="48.77558" lon="2.13157">
        <ele>114</ele>
        <time>2022-10-23T12:54:16.536Z</time>
      </trkpt>
      <trkpt lat="48.77554" lon="2.13165">
        <ele>114</ele>
        <time>2022-10-23T12:54:21.539Z</time>
      </trkpt>
      <trkpt lat="48.77551" lon="2.13173">
        <ele>114</ele>
        <time>2022-10-23T12:54:26.544Z</time>
      </trkpt>
      <trkpt lat="48.77548" lon="2.13182">
        <ele>118</ele>
        <time>2022-10-23T12:54:31.528Z</time>
      </trkpt>
      <trkpt lat="48.77547" lon="2.1319">
        <ele>118</ele>
        <time>2022-10-23T12:54:35.542Z</time>
      </trkpt>
      <trkpt lat="48.77546" lon="2.13199">
        <ele>118</ele>
        <time>2022-10-23T12:54:40.523Z</time>
      </trkpt>
      <trkpt lat="48.77545" lon="2.13207">
        <ele>118</ele>
        <time>2022-10-23T12:54:44.537Z</time>
      </trkpt>
      <trkpt lat="48.77544" lon="2.13215">
        <ele>122</ele>
        <time>2022-10-23T12:54:49.539Z</time>
      </trkpt>
      <trkpt lat="48.77543" lon="2.13222">
        <ele>122</ele>
        <time>2022-10-23T12:54:53.554Z</time>
      </trkpt>
      <trkpt lat="48.7754" lon="2.1323">
        <ele>115</ele>
        <time>2022-10-23T12:54:58.550Z</time>
      </trkpt>
      <trkpt lat="48.77538" lon="2.13236">
        <ele>120</ele>
        <time>2022-10-23T12:55:02.564Z</time>
      </trkpt>
      <trkpt lat="48.77535" lon="2.13243">
        <ele>120</ele>
        <time>2022-10-23T12:55:06.564Z</time>
      </trkpt>
      <trkpt lat="48.77533" lon="2.13252">
        <ele>120</ele>
        <time>2022-10-23T12:55:11.547Z</time>
      </trkpt>
      <trkpt lat="48.7753" lon="2.13261">
        <ele>120</ele>
        <time>2022-10-23T12:55:16.543Z</time>
      </trkpt>
      <trkpt lat="48.77527" lon="2.13269">
        <ele>124</ele>
        <time>2022-10-23T12:55:21.508Z</time>
      </trkpt>
      <trkpt lat="48.77524" lon="2.13275">
        <ele>124</ele>
        <time>2022-10-23T12:55:25.511Z</time>
      </trkpt>
      <trkpt lat="48.7752" lon="2.13287">
        <ele>124</ele>
        <time>2022-10-23T12:55:30.513Z</time>
      </trkpt>
      <trkpt lat="48.77514" lon="2.13296">
        <ele>128</ele>
        <time>2022-10-23T12:55:35.505Z</time>
      </trkpt>
      <trkpt lat="48.77511" lon="2.13303">
        <ele>123</ele>
        <time>2022-10-23T12:55:39.515Z</time>
      </trkpt>
      <trkpt lat="48.77508" lon="2.1331">
        <ele>123</ele>
        <time>2022-10-23T12:55:44.512Z</time>
      </trkpt>
      <trkpt lat="48.77503" lon="2.13316">
        <ele>123</ele>
        <time>2022-10-23T12:55:48.515Z</time>
      </trkpt>
      <trkpt lat="48.77497" lon="2.13321">
        <ele>128</ele>
        <time>2022-10-23T12:55:53.503Z</time>
      </trkpt>
      <trkpt lat="48.7749" lon="2.13325">
        <ele>128</ele>
        <time>2022-10-23T12:55:58.507Z</time>
      </trkpt>
      <trkpt lat="48.77483" lon="2.13329">
        <ele>125</ele>
        <time>2022-10-23T12:56:03.499Z</time>
      </trkpt>
      <trkpt lat="48.77481" lon="2.13335">
        <ele>125</ele>
        <time>2022-10-23T12:56:07.512Z</time>
      </trkpt>
      <trkpt lat="48.77477" lon="2.13343">
        <ele>125</ele>
        <time>2022-10-23T12:56:12.504Z</time>
      </trkpt>
      <trkpt lat="48.77474" lon="2.13345">
        <ele>125</ele>
        <time>2022-10-23T12:56:16.521Z</time>
      </trkpt>
      <trkpt lat="48.77477" lon="2.13347">
        <ele>127</ele>
        <time>2022-10-23T12:56:21.511Z</time>
      </trkpt>
      <trkpt lat="48.77474" lon="2.13347">
        <ele>127</ele>
        <time>2022-10-23T12:56:26.507Z</time>
      </trkpt>
      <trkpt lat="48.77468" lon="2.13349">
        <ele>127</ele>
        <time>2022-10-23T12:56:30.515Z</time>
      </trkpt>
      <trkpt lat="48.77464" lon="2.13352">
        <ele>127</ele>
        <time>2022-10-23T12:56:34.522Z</time>
      </trkpt>
      <trkpt lat="48.77461" lon="2.1336">
        <ele>127</ele>
        <time>2022-10-23T12:56:56.509Z</time>
      </trkpt>
      <trkpt lat="48.77461" lon="2.13362">
        <ele>127</ele>
        <time>2022-10-23T12:57:01.510Z</time>
      </trkpt>
      <trkpt lat="48.77461" lon="2.13363">
        <ele>127</ele>
        <time>2022-10-23T12:57:06.518Z</time>
      </trkpt>
      <trkpt lat="48.77465" lon="2.13365">
        <ele>127</ele>
        <time>2022-10-23T12:57:10.529Z</time>
      </trkpt>
      <trkpt lat="48.77469" lon="2.13374">
        <ele>127</ele>
        <time>2022-10-23T12:57:15.512Z</time>
      </trkpt>
      <trkpt lat="48.77468" lon="2.13383">
        <ele>127</ele>
        <time>2022-10-23T12:57:20.523Z</time>
      </trkpt>
      <trkpt lat="48.77464" lon="2.13383">
        <ele>127</ele>
        <time>2022-10-23T12:57:24.524Z</time>
      </trkpt>
      <trkpt lat="48.77461" lon="2.13385">
        <ele>127</ele>
        <time>2022-10-23T12:57:29.507Z</time>
      </trkpt>
      <trkpt lat="48.77457" lon="2.1338">
        <ele>121</ele>
        <time>2022-10-23T12:57:34.509Z</time>
      </trkpt>
      <trkpt lat="48.77454" lon="2.13382">
        <ele>121</ele>
        <time>2022-10-23T12:57:52.509Z</time>
      </trkpt>
      <trkpt lat="48.77455" lon="2.13383">
        <ele>121</ele>
        <time>2022-10-23T12:57:56.517Z</time>
      </trkpt>
      <trkpt lat="48.77457" lon="2.13391">
        <ele>121</ele>
        <time>2022-10-23T12:58:01.498Z</time>
      </trkpt>
      <trkpt lat="48.77462" lon="2.13398">
        <ele>127</ele>
        <time>2022-10-23T12:58:06.516Z</time>
      </trkpt>
      <trkpt lat="48.77466" lon="2.13404">
        <ele>125</ele>
        <time>2022-10-23T12:58:11.506Z</time>
      </trkpt>
      <trkpt lat="48.77469" lon="2.13411">
        <ele>125</ele>
        <time>2022-10-23T12:58:15.515Z</time>
      </trkpt>
      <trkpt lat="48.77473" lon="2.13419">
        <ele>125</ele>
        <time>2022-10-23T12:58:20.509Z</time>
      </trkpt>
      <trkpt lat="48.77477" lon="2.13423">
        <ele>125</ele>
        <time>2022-10-23T12:58:25.507Z</time>
      </trkpt>
      <trkpt lat="48.77479" lon="2.1343">
        <ele>125</ele>
        <time>2022-10-23T12:58:30.513Z</time>
      </trkpt>
      <trkpt lat="48.77479" lon="2.13437">
        <ele>126</ele>
        <time>2022-10-23T12:58:35.510Z</time>
      </trkpt>
      <trkpt lat="48.77479" lon="2.13442">
        <ele>126</ele>
        <time>2022-10-23T12:58:40.508Z</time>
      </trkpt>
      <trkpt lat="48.77482" lon="2.13449">
        <ele>126</ele>
        <time>2022-10-23T12:58:45.512Z</time>
      </trkpt>
      <trkpt lat="48.77484" lon="2.13456">
        <ele>126</ele>
        <time>2022-10-23T12:58:50.517Z</time>
      </trkpt>
      <trkpt lat="48.77486" lon="2.13463">
        <ele>127</ele>
        <time>2022-10-23T12:58:54.513Z</time>
      </trkpt>
      <trkpt lat="48.77486" lon="2.1347">
        <ele>127</ele>
        <time>2022-10-23T12:58:59.507Z</time>
      </trkpt>
      <trkpt lat="48.77483" lon="2.13475">
        <ele>127</ele>
        <time>2022-10-23T12:59:03.508Z</time>
      </trkpt>
      <trkpt lat="48.77483" lon="2.13483">
        <ele>127</ele>
        <time>2022-10-23T12:59:08.513Z</time>
      </trkpt>
      <trkpt lat="48.77482" lon="2.13491">
        <ele>132</ele>
        <time>2022-10-23T12:59:13.503Z</time>
      </trkpt>
      <trkpt lat="48.77481" lon="2.135">
        <ele>132</ele>
        <time>2022-10-23T12:59:18.509Z</time>
      </trkpt>
      <trkpt lat="48.77481" lon="2.13511">
        <ele>132</ele>
        <time>2022-10-23T12:59:22.535Z</time>
      </trkpt>
      <trkpt lat="48.7748" lon="2.13517">
        <ele>136</ele>
        <time>2022-10-23T12:59:26.547Z</time>
      </trkpt>
      <trkpt lat="48.77479" lon="2.13526">
        <ele>136</ele>
        <time>2022-10-23T12:59:31.525Z</time>
      </trkpt>
      <trkpt lat="48.77478" lon="2.13532">
        <ele>136</ele>
        <time>2022-10-23T12:59:36.543Z</time>
      </trkpt>
      <trkpt lat="48.77475" lon="2.13539">
        <ele>136</ele>
        <time>2022-10-23T12:59:41.530Z</time>
      </trkpt>
      <trkpt lat="48.77476" lon="2.13545">
        <ele>139</ele>
        <time>2022-10-23T12:59:46.546Z</time>
      </trkpt>
      <trkpt lat="48.77475" lon="2.13548">
        <ele>139</ele>
        <time>2022-10-23T12:59:50.539Z</time>
      </trkpt>
      <trkpt lat="48.77474" lon="2.13554">
        <ele>139</ele>
        <time>2022-10-23T12:59:55.501Z</time>
      </trkpt>
      <trkpt lat="48.77475" lon="2.1356">
        <ele>139</ele>
        <time>2022-10-23T12:59:59.506Z</time>
      </trkpt>
      <trkpt lat="48.77474" lon="2.13568">
        <ele>139</ele>
        <time>2022-10-23T13:00:03.521Z</time>
      </trkpt>
      <trkpt lat="48.77471" lon="2.13575">
        <ele>141</ele>
        <time>2022-10-23T13:00:08.537Z</time>
      </trkpt>
      <trkpt lat="48.77471" lon="2.13583">
        <ele>141</ele>
        <time>2022-10-23T13:00:13.537Z</time>
      </trkpt>
      <trkpt lat="48.77473" lon="2.13594">
        <ele>141</ele>
        <time>2022-10-23T13:00:18.510Z</time>
      </trkpt>
      <trkpt lat="48.77475" lon="2.13602">
        <ele>143</ele>
        <time>2022-10-23T13:00:22.519Z</time>
      </trkpt>
      <trkpt lat="48.77476" lon="2.13608">
        <ele>143</ele>
        <time>2022-10-23T13:00:26.549Z</time>
      </trkpt>
      <trkpt lat="48.77478" lon="2.13615">
        <ele>143</ele>
        <time>2022-10-23T13:00:30.540Z</time>
      </trkpt>
      <trkpt lat="48.77481" lon="2.13622">
        <ele>143</ele>
        <time>2022-10-23T13:00:35.514Z</time>
      </trkpt>
      <trkpt lat="48.77482" lon="2.13631">
        <ele>144</ele>
        <time>2022-10-23T13:00:40.541Z</time>
      </trkpt>
      <trkpt lat="48.77485" lon="2.13637">
        <ele>144</ele>
        <time>2022-10-23T13:00:45.522Z</time>
      </trkpt>
      <trkpt lat="48.77489" lon="2.13645">
        <ele>150</ele>
        <time>2022-10-23T13:00:50.540Z</time>
      </trkpt>
      <trkpt lat="48.77492" lon="2.13651">
        <ele>150</ele>
        <time>2022-10-23T13:00:54.568Z</time>
      </trkpt>
      <trkpt lat="48.77494" lon="2.13658">
        <ele>152</ele>
        <time>2022-10-23T13:00:59.528Z</time>
      </trkpt>
      <trkpt lat="48.77497" lon="2.13667">
        <ele>152</ele>
        <time>2022-10-23T13:01:04.554Z</time>
      </trkpt>
      <trkpt lat="48.77498" lon="2.13676">
        <ele>152</ele>
        <time>2022-10-23T13:01:09.520Z</time>
      </trkpt>
      <trkpt lat="48.775" lon="2.13684">
        <ele>153</ele>
        <time>2022-10-23T13:01:14.542Z</time>
      </trkpt>
      <trkpt lat="48.77502" lon="2.1369">
        <ele>153</ele>
        <time>2022-10-23T13:01:18.555Z</time>
      </trkpt>
      <trkpt lat="48.77506" lon="2.137">
        <ele>153</ele>
        <time>2022-10-23T13:01:23.525Z</time>
      </trkpt>
      <trkpt lat="48.77509" lon="2.13709">
        <ele>153</ele>
        <time>2022-10-23T13:01:28.551Z</time>
      </trkpt>
      <trkpt lat="48.77514" lon="2.13715">
        <ele>156</ele>
        <time>2022-10-23T13:01:33.523Z</time>
      </trkpt>
      <trkpt lat="48.77515" lon="2.13717">
        <ele>156</ele>
        <time>2022-10-23T13:01:37.518Z</time>
      </trkpt>
      <trkpt lat="48.77517" lon="2.13717">
        <ele>156</ele>
        <time>2022-10-23T13:03:51.527Z</time>
      </trkpt>
      <trkpt lat="48.77519" lon="2.1372">
        <ele>156</ele>
        <time>2022-10-23T13:03:56.533Z</time>
      </trkpt>
      <trkpt lat="48.77522" lon="2.13725">
        <ele>156</ele>
        <time>2022-10-23T13:04:00.564Z</time>
      </trkpt>
      <trkpt lat="48.77526" lon="2.13729">
        <ele>156</ele>
        <time>2022-10-23T13:04:05.532Z</time>
      </trkpt>
      <trkpt lat="48.77532" lon="2.13732">
        <ele>156</ele>
        <time>2022-10-23T13:04:10.529Z</time>
      </trkpt>
      <trkpt lat="48.77541" lon="2.13734">
        <ele>156</ele>
        <time>2022-10-23T13:04:15.531Z</time>
      </trkpt>
      <trkpt lat="48.77544" lon="2.13728">
        <ele>158</ele>
        <time>2022-10-23T13:04:20.516Z</time>
      </trkpt>
      <trkpt lat="48.77544" lon="2.13722">
        <ele>158</ele>
        <time>2022-10-23T13:04:24.565Z</time>
      </trkpt>
      <trkpt lat="48.77546" lon="2.13713">
        <ele>158</ele>
        <time>2022-10-23T13:04:29.525Z</time>
      </trkpt>
      <trkpt lat="48.77549" lon="2.13703">
        <ele>158</ele>
        <time>2022-10-23T13:04:34.561Z</time>
      </trkpt>
      <trkpt lat="48.77552" lon="2.13695">
        <ele>158</ele>
        <time>2022-10-23T13:04:39.529Z</time>
      </trkpt>
      <trkpt lat="48.77555" lon="2.13689">
        <ele>158</ele>
        <time>2022-10-23T13:04:44.555Z</time>
      </trkpt>
      <trkpt lat="48.77558" lon="2.13682">
        <ele>158</ele>
        <time>2022-10-23T13:04:49.522Z</time>
      </trkpt>
      <trkpt lat="48.77559" lon="2.13675">
        <ele>157</ele>
        <time>2022-10-23T13:04:53.532Z</time>
      </trkpt>
      <trkpt lat="48.77561" lon="2.13664">
        <ele>157</ele>
        <time>2022-10-23T13:04:58.528Z</time>
      </trkpt>
      <trkpt lat="48.77563" lon="2.13657">
        <ele>157</ele>
        <time>2022-10-23T13:05:02.540Z</time>
      </trkpt>
      <trkpt lat="48.77564" lon="2.1365">
        <ele>156</ele>
        <time>2022-10-23T13:05:06.571Z</time>
      </trkpt>
      <trkpt lat="48.77564" lon="2.13639">
        <ele>156</ele>
        <time>2022-10-23T13:05:11.504Z</time>
      </trkpt>
      <trkpt lat="48.77565" lon="2.1363">
        <ele>156</ele>
        <time>2022-10-23T13:05:15.521Z</time>
      </trkpt>
      <trkpt lat="48.77567" lon="2.13621">
        <ele>155</ele>
        <time>2022-10-23T13:05:19.531Z</time>
      </trkpt>
      <trkpt lat="48.7757" lon="2.1361">
        <ele>157</ele>
        <time>2022-10-23T13:05:24.549Z</time>
      </trkpt>
      <trkpt lat="48.77576" lon="2.13599">
        <ele>157</ele>
        <time>2022-10-23T13:05:29.526Z</time>
      </trkpt>
      <trkpt lat="48.77578" lon="2.13592">
        <ele>156</ele>
        <time>2022-10-23T13:05:33.537Z</time>
      </trkpt>
      <trkpt lat="48.77579" lon="2.13584">
        <ele>156</ele>
        <time>2022-10-23T13:05:38.569Z</time>
      </trkpt>
      <trkpt lat="48.77581" lon="2.13574">
        <ele>156</ele>
        <time>2022-10-23T13:05:43.528Z</time>
      </trkpt>
      <trkpt lat="48.77583" lon="2.13563">
        <ele>156</ele>
        <time>2022-10-23T13:05:48.547Z</time>
      </trkpt>
      <trkpt lat="48.77584" lon="2.13556">
        <ele>156</ele>
        <time>2022-10-23T13:05:52.559Z</time>
      </trkpt>
      <trkpt lat="48.77586" lon="2.13546">
        <ele>156</ele>
        <time>2022-10-23T13:05:57.536Z</time>
      </trkpt>
      <trkpt lat="48.77587" lon="2.13537">
        <ele>157</ele>
        <time>2022-10-23T13:06:02.559Z</time>
      </trkpt>
      <trkpt lat="48.77588" lon="2.1353">
        <ele>157</ele>
        <time>2022-10-23T13:06:06.569Z</time>
      </trkpt>
      <trkpt lat="48.7759" lon="2.13521">
        <ele>157</ele>
        <time>2022-10-23T13:06:11.527Z</time>
      </trkpt>
      <trkpt lat="48.77593" lon="2.13511">
        <ele>156</ele>
        <time>2022-10-23T13:06:16.536Z</time>
      </trkpt>
      <trkpt lat="48.77594" lon="2.13502">
        <ele>156</ele>
        <time>2022-10-23T13:06:20.547Z</time>
      </trkpt>
      <trkpt lat="48.77595" lon="2.13492">
        <ele>156</ele>
        <time>2022-10-23T13:06:24.549Z</time>
      </trkpt>
      <trkpt lat="48.77598" lon="2.13481">
        <ele>159</ele>
        <time>2022-10-23T13:06:29.518Z</time>
      </trkpt>
      <trkpt lat="48.77598" lon="2.13474">
        <ele>159</ele>
        <time>2022-10-23T13:06:33.537Z</time>
      </trkpt>
      <trkpt lat="48.77599" lon="2.13461">
        <ele>159</ele>
        <time>2022-10-23T13:06:38.578Z</time>
      </trkpt>
      <trkpt lat="48.776" lon="2.13451">
        <ele>160</ele>
        <time>2022-10-23T13:06:43.529Z</time>
      </trkpt>
      <trkpt lat="48.77602" lon="2.13443">
        <ele>160</ele>
        <time>2022-10-23T13:06:47.531Z</time>
      </trkpt>
      <trkpt lat="48.77605" lon="2.13434">
        <ele>160</ele>
        <time>2022-10-23T13:06:52.543Z</time>
      </trkpt>
      <trkpt lat="48.77608" lon="2.13427">
        <ele>161</ele>
        <time>2022-10-23T13:06:57.521Z</time>
      </trkpt>
      <trkpt lat="48.77611" lon="2.13417">
        <ele>161</ele>
        <time>2022-10-23T13:07:01.534Z</time>
      </trkpt>
      <trkpt lat="48.77614" lon="2.1341">
        <ele>161</ele>
        <time>2022-10-23T13:07:05.533Z</time>
      </trkpt>
      <trkpt lat="48.77619" lon="2.134">
        <ele>161</ele>
        <time>2022-10-23T13:07:10.551Z</time>
      </trkpt>
      <trkpt lat="48.77622" lon="2.13391">
        <ele>161</ele>
        <time>2022-10-23T13:07:15.537Z</time>
      </trkpt>
      <trkpt lat="48.77625" lon="2.13384">
        <ele>164</ele>
        <time>2022-10-23T13:07:20.544Z</time>
      </trkpt>
      <trkpt lat="48.77627" lon="2.13377">
        <ele>164</ele>
        <time>2022-10-23T13:07:24.549Z</time>
      </trkpt>
      <trkpt lat="48.7763" lon="2.13369">
        <ele>163</ele>
        <time>2022-10-23T13:07:29.518Z</time>
      </trkpt>
      <trkpt lat="48.77632" lon="2.13363">
        <ele>163</ele>
        <time>2022-10-23T13:07:33.539Z</time>
      </trkpt>
      <trkpt lat="48.77637" lon="2.13354">
        <ele>163</ele>
        <time>2022-10-23T13:07:38.565Z</time>
      </trkpt>
      <trkpt lat="48.77642" lon="2.13345">
        <ele>162</ele>
        <time>2022-10-23T13:07:43.536Z</time>
      </trkpt>
      <trkpt lat="48.77646" lon="2.13339">
        <ele>162</ele>
        <time>2022-10-23T13:07:47.553Z</time>
      </trkpt>
      <trkpt lat="48.77651" lon="2.13331">
        <ele>162</ele>
        <time>2022-10-23T13:07:52.556Z</time>
      </trkpt>
      <trkpt lat="48.77655" lon="2.13322">
        <ele>164</ele>
        <time>2022-10-23T13:07:57.552Z</time>
      </trkpt>
      <trkpt lat="48.77661" lon="2.13314">
        <ele>164</ele>
        <time>2022-10-23T13:08:02.564Z</time>
      </trkpt>
      <trkpt lat="48.77666" lon="2.13306">
        <ele>164</ele>
        <time>2022-10-23T13:08:07.529Z</time>
      </trkpt>
      <trkpt lat="48.77668" lon="2.13299">
        <ele>164</ele>
        <time>2022-10-23T13:08:11.536Z</time>
      </trkpt>
      <trkpt lat="48.7767" lon="2.13293">
        <ele>164</ele>
        <time>2022-10-23T13:08:15.542Z</time>
      </trkpt>
      <trkpt lat="48.77674" lon="2.13285">
        <ele>165</ele>
        <time>2022-10-23T13:08:20.557Z</time>
      </trkpt>
      <trkpt lat="48.77676" lon="2.13279">
        <ele>165</ele>
        <time>2022-10-23T13:08:25.527Z</time>
      </trkpt>
      <trkpt lat="48.77679" lon="2.13272">
        <ele>165</ele>
        <time>2022-10-23T13:08:29.527Z</time>
      </trkpt>
      <trkpt lat="48.77682" lon="2.13267">
        <ele>165</ele>
        <time>2022-10-23T13:08:33.541Z</time>
      </trkpt>
      <trkpt lat="48.77687" lon="2.1326">
        <ele>165</ele>
        <time>2022-10-23T13:08:38.527Z</time>
      </trkpt>
      <trkpt lat="48.7769" lon="2.13251">
        <ele>165</ele>
        <time>2022-10-23T13:08:42.532Z</time>
      </trkpt>
      <trkpt lat="48.77694" lon="2.13241">
        <ele>165</ele>
        <time>2022-10-23T13:08:47.525Z</time>
      </trkpt>
      <trkpt lat="48.77699" lon="2.13235">
        <ele>163</ele>
        <time>2022-10-23T13:08:51.531Z</time>
      </trkpt>
      <trkpt lat="48.77703" lon="2.13229">
        <ele>163</ele>
        <time>2022-10-23T13:08:55.526Z</time>
      </trkpt>
      <trkpt lat="48.77708" lon="2.13223">
        <ele>167</ele>
        <time>2022-10-23T13:09:00.522Z</time>
      </trkpt>
      <trkpt lat="48.77712" lon="2.13221">
        <ele>167</ele>
        <time>2022-10-23T13:09:04.528Z</time>
      </trkpt>
      <trkpt lat="48.77715" lon="2.13219">
        <ele>167</ele>
        <time>2022-10-23T13:09:08.541Z</time>
      </trkpt>
      <trkpt lat="48.77721" lon="2.13223">
        <ele>167</ele>
        <time>2022-10-23T13:09:13.515Z</time>
      </trkpt>
      <trkpt lat="48.77726" lon="2.13227">
        <ele>167</ele>
        <time>2022-10-23T13:09:17.540Z</time>
      </trkpt>
      <trkpt lat="48.77732" lon="2.13231">
        <ele>167</ele>
        <time>2022-10-23T13:09:22.513Z</time>
      </trkpt>
      <trkpt lat="48.77738" lon="2.13236">
        <ele>169</ele>
        <time>2022-10-23T13:09:26.517Z</time>
      </trkpt>
      <trkpt lat="48.77743" lon="2.13241">
        <ele>169</ele>
        <time>2022-10-23T13:09:30.532Z</time>
      </trkpt>
      <trkpt lat="48.77749" lon="2.13245">
        <ele>169</ele>
        <time>2022-10-23T13:09:35.519Z</time>
      </trkpt>
      <trkpt lat="48.77757" lon="2.13252">
        <ele>169</ele>
        <time>2022-10-23T13:09:40.522Z</time>
      </trkpt>
      <trkpt lat="48.77763" lon="2.13257">
        <ele>169</ele>
        <time>2022-10-23T13:09:45.521Z</time>
      </trkpt>
      <trkpt lat="48.77769" lon="2.13264">
        <ele>170</ele>
        <time>2022-10-23T13:09:50.512Z</time>
      </trkpt>
      <trkpt lat="48.77774" lon="2.13268">
        <ele>170</ele>
        <time>2022-10-23T13:09:54.515Z</time>
      </trkpt>
      <trkpt lat="48.77778" lon="2.13272">
        <ele>170</ele>
        <time>2022-10-23T13:09:58.520Z</time>
      </trkpt>
      <trkpt lat="48.77785" lon="2.13277">
        <ele>170</ele>
        <time>2022-10-23T13:10:03.532Z</time>
      </trkpt>
      <trkpt lat="48.77791" lon="2.13282">
        <ele>170</ele>
        <time>2022-10-23T13:10:08.526Z</time>
      </trkpt>
      <trkpt lat="48.77796" lon="2.13288">
        <ele>170</ele>
        <time>2022-10-23T13:10:13.517Z</time>
      </trkpt>
      <trkpt lat="48.77802" lon="2.13292">
        <ele>171</ele>
        <time>2022-10-23T13:10:18.519Z</time>
      </trkpt>
      <trkpt lat="48.77807" lon="2.13295">
        <ele>171</ele>
        <time>2022-10-23T13:10:23.528Z</time>
      </trkpt>
      <trkpt lat="48.77813" lon="2.13301">
        <ele>171</ele>
        <time>2022-10-23T13:10:28.521Z</time>
      </trkpt>
      <trkpt lat="48.77817" lon="2.13306">
        <ele>171</ele>
        <time>2022-10-23T13:10:32.545Z</time>
      </trkpt>
      <trkpt lat="48.77822" lon="2.1331">
        <ele>169</ele>
        <time>2022-10-23T13:10:36.546Z</time>
      </trkpt>
      <trkpt lat="48.77827" lon="2.13315">
        <ele>169</ele>
        <time>2022-10-23T13:10:41.530Z</time>
      </trkpt>
      <trkpt lat="48.77834" lon="2.1332">
        <ele>171</ele>
        <time>2022-10-23T13:10:46.514Z</time>
      </trkpt>
      <trkpt lat="48.77839" lon="2.13325">
        <ele>171</ele>
        <time>2022-10-23T13:10:50.538Z</time>
      </trkpt>
      <trkpt lat="48.77843" lon="2.13329">
        <ele>171</ele>
        <time>2022-10-23T13:10:54.556Z</time>
      </trkpt>
      <trkpt lat="48.77847" lon="2.13332">
        <ele>171</ele>
        <time>2022-10-23T13:10:59.519Z</time>
      </trkpt>
      <trkpt lat="48.77851" lon="2.13336">
        <ele>170</ele>
        <time>2022-10-23T13:11:03.517Z</time>
      </trkpt>
      <trkpt lat="48.77858" lon="2.13341">
        <ele>170</ele>
        <time>2022-10-23T13:11:08.512Z</time>
      </trkpt>
      <trkpt lat="48.77863" lon="2.13345">
        <ele>170</ele>
        <time>2022-10-23T13:11:12.531Z</time>
      </trkpt>
      <trkpt lat="48.7787" lon="2.13349">
        <ele>172</ele>
        <time>2022-10-23T13:11:17.538Z</time>
      </trkpt>
      <trkpt lat="48.77876" lon="2.13353">
        <ele>170</ele>
        <time>2022-10-23T13:11:22.535Z</time>
      </trkpt>
      <trkpt lat="48.77881" lon="2.13358">
        <ele>170</ele>
        <time>2022-10-23T13:11:26.562Z</time>
      </trkpt>
      <trkpt lat="48.77886" lon="2.13365">
        <ele>170</ele>
        <time>2022-10-23T13:11:31.571Z</time>
      </trkpt>
      <trkpt lat="48.77892" lon="2.1337">
        <ele>170</ele>
        <time>2022-10-23T13:11:36.562Z</time>
      </trkpt>
      <trkpt lat="48.77897" lon="2.13375">
        <ele>171</ele>
        <time>2022-10-23T13:11:40.565Z</time>
      </trkpt>
      <trkpt lat="48.77902" lon="2.1338">
        <ele>171</ele>
        <time>2022-10-23T13:11:45.537Z</time>
      </trkpt>
      <trkpt lat="48.77908" lon="2.13386">
        <ele>170</ele>
        <time>2022-10-23T13:11:50.548Z</time>
      </trkpt>
      <trkpt lat="48.77913" lon="2.13391">
        <ele>170</ele>
        <time>2022-10-23T13:11:54.550Z</time>
      </trkpt>
      <trkpt lat="48.77919" lon="2.13396">
        <ele>170</ele>
        <time>2022-10-23T13:11:59.536Z</time>
      </trkpt>
      <trkpt lat="48.77924" lon="2.13402">
        <ele>170</ele>
        <time>2022-10-23T13:12:03.544Z</time>
      </trkpt>
      <trkpt lat="48.77929" lon="2.13408">
        <ele>171</ele>
        <time>2022-10-23T13:12:08.558Z</time>
      </trkpt>
      <trkpt lat="48.77933" lon="2.13412">
        <ele>170</ele>
        <time>2022-10-23T13:12:12.566Z</time>
      </trkpt>
      <trkpt lat="48.77939" lon="2.13418">
        <ele>170</ele>
        <time>2022-10-23T13:12:17.543Z</time>
      </trkpt>
      <trkpt lat="48.77942" lon="2.13423">
        <ele>170</ele>
        <time>2022-10-23T13:12:22.556Z</time>
      </trkpt>
      <trkpt lat="48.77946" lon="2.13428">
        <ele>170</ele>
        <time>2022-10-23T13:12:27.539Z</time>
      </trkpt>
      <trkpt lat="48.77953" lon="2.13434">
        <ele>173</ele>
        <time>2022-10-23T13:12:32.563Z</time>
      </trkpt>
      <trkpt lat="48.77959" lon="2.13437">
        <ele>173</ele>
        <time>2022-10-23T13:12:37.513Z</time>
      </trkpt>
      <trkpt lat="48.77964" lon="2.13441">
        <ele>173</ele>
        <time>2022-10-23T13:12:42.516Z</time>
      </trkpt>
      <trkpt lat="48.77969" lon="2.13445">
        <ele>173</ele>
        <time>2022-10-23T13:12:46.513Z</time>
      </trkpt>
      <trkpt lat="48.77975" lon="2.13448">
        <ele>173</ele>
        <time>2022-10-23T13:12:50.542Z</time>
      </trkpt>
      <trkpt lat="48.77979" lon="2.13453">
        <ele>173</ele>
        <time>2022-10-23T13:12:55.509Z</time>
      </trkpt>
      <trkpt lat="48.77982" lon="2.13453">
        <ele>173</ele>
        <time>2022-10-23T13:13:00.525Z</time>
      </trkpt>
      <trkpt lat="48.77983" lon="2.13449">
        <ele>173</ele>
        <time>2022-10-23T13:13:05.530Z</time>
      </trkpt>
      <trkpt lat="48.77985" lon="2.13445">
        <ele>173</ele>
        <time>2022-10-23T13:13:10.537Z</time>
      </trkpt>
      <trkpt lat="48.77988" lon="2.13443">
        <ele>174</ele>
        <time>2022-10-23T13:14:02.546Z</time>
      </trkpt>
      <trkpt lat="48.77988" lon="2.13442">
        <ele>174</ele>
        <time>2022-10-23T13:14:07.542Z</time>
      </trkpt>
      <trkpt lat="48.7799" lon="2.1344">
        <ele>174</ele>
        <time>2022-10-23T13:14:12.541Z</time>
      </trkpt>
      <trkpt lat="48.77992" lon="2.13435">
        <ele>174</ele>
        <time>2022-10-23T13:14:16.559Z</time>
      </trkpt>
      <trkpt lat="48.77996" lon="2.13428">
        <ele>172</ele>
        <time>2022-10-23T13:14:21.540Z</time>
      </trkpt>
      <trkpt lat="48.78" lon="2.13421">
        <ele>172</ele>
        <time>2022-10-23T13:14:26.574Z</time>
      </trkpt>
      <trkpt lat="48.78003" lon="2.13412">
        <ele>172</ele>
        <time>2022-10-23T13:14:31.542Z</time>
      </trkpt>
      <trkpt lat="48.78008" lon="2.13404">
        <ele>172</ele>
        <time>2022-10-23T13:14:36.558Z</time>
      </trkpt>
      <trkpt lat="48.7801" lon="2.13395">
        <ele>170</ele>
        <time>2022-10-23T13:14:41.536Z</time>
      </trkpt>
      <trkpt lat="48.78013" lon="2.13388">
        <ele>170</ele>
        <time>2022-10-23T13:14:45.536Z</time>
      </trkpt>
      <trkpt lat="48.78016" lon="2.13381">
        <ele>170</ele>
        <time>2022-10-23T13:14:49.559Z</time>
      </trkpt>
      <trkpt lat="48.78019" lon="2.13373">
        <ele>167</ele>
        <time>2022-10-23T13:14:54.552Z</time>
      </trkpt>
      <trkpt lat="48.78021" lon="2.13365">
        <ele>167</ele>
        <time>2022-10-23T13:14:59.528Z</time>
      </trkpt>
      <trkpt lat="48.78023" lon="2.13357">
        <ele>167</ele>
        <time>2022-10-23T13:15:03.533Z</time>
      </trkpt>
      <trkpt lat="48.78026" lon="2.1335">
        <ele>167</ele>
        <time>2022-10-23T13:15:07.540Z</time>
      </trkpt>
      <trkpt lat="48.78029" lon="2.13342">
        <ele>163</ele>
        <time>2022-10-23T13:15:11.553Z</time>
      </trkpt>
      <trkpt lat="48.78032" lon="2.13333">
        <ele>163</ele>
        <time>2022-10-23T13:15:16.541Z</time>
      </trkpt>
      <trkpt lat="48.78037" lon="2.13329">
        <ele>163</ele>
        <time>2022-10-23T13:15:21.520Z</time>
      </trkpt>
      <trkpt lat="48.78042" lon="2.13327">
        <ele>163</ele>
        <time>2022-10-23T13:15:25.545Z</time>
      </trkpt>
      <trkpt lat="48.78049" lon="2.13326">
        <ele>166</ele>
        <time>2022-10-23T13:15:30.546Z</time>
      </trkpt>
      <trkpt lat="48.78054" lon="2.13323">
        <ele>166</ele>
        <time>2022-10-23T13:15:35.538Z</time>
      </trkpt>
      <trkpt lat="48.78059" lon="2.13325">
        <ele>166</ele>
        <time>2022-10-23T13:15:39.541Z</time>
      </trkpt>
      <trkpt lat="48.78062" lon="2.13328">
        <ele>166</ele>
        <time>2022-10-23T13:15:43.541Z</time>
      </trkpt>
      <trkpt lat="48.78065" lon="2.1333">
        <ele>166</ele>
        <time>2022-10-23T13:15:48.546Z</time>
      </trkpt>
      <trkpt lat="48.78068" lon="2.13331">
        <ele>166</ele>
        <time>2022-10-23T13:15:52.560Z</time>
      </trkpt>
      <trkpt lat="48.78072" lon="2.13331">
        <ele>160</ele>
        <time>2022-10-23T13:15:56.570Z</time>
      </trkpt>
      <trkpt lat="48.78076" lon="2.13329">
        <ele>160</ele>
        <time>2022-10-23T13:16:01.541Z</time>
      </trkpt>
      <trkpt lat="48.78079" lon="2.13331">
        <ele>160</ele>
        <time>2022-10-23T13:16:06.532Z</time>
      </trkpt>
      <trkpt lat="48.78083" lon="2.1333">
        <ele>160</ele>
        <time>2022-10-23T13:16:10.543Z</time>
      </trkpt>
      <trkpt lat="48.78086" lon="2.1333">
        <ele>160</ele>
        <time>2022-10-23T13:16:15.527Z</time>
      </trkpt>
      <trkpt lat="48.7809" lon="2.13331">
        <ele>160</ele>
        <time>2022-10-23T13:16:19.533Z</time>
      </trkpt>
      <trkpt lat="48.78096" lon="2.1333">
        <ele>160</ele>
        <time>2022-10-23T13:16:24.539Z</time>
      </trkpt>
      <trkpt lat="48.781" lon="2.13326">
        <ele>153</ele>
        <time>2022-10-23T13:16:28.560Z</time>
      </trkpt>
      <trkpt lat="48.78103" lon="2.1332">
        <ele>153</ele>
        <time>2022-10-23T13:16:32.565Z</time>
      </trkpt>
      <trkpt lat="48.78105" lon="2.13315">
        <ele>151</ele>
        <time>2022-10-23T13:16:36.571Z</time>
      </trkpt>
      <trkpt lat="48.78109" lon="2.13307">
        <ele>151</ele>
        <time>2022-10-23T13:16:41.532Z</time>
      </trkpt>
      <trkpt lat="48.78113" lon="2.13297">
        <ele>151</ele>
        <time>2022-10-23T13:16:46.512Z</time>
      </trkpt>
      <trkpt lat="48.78116" lon="2.13293">
        <ele>151</ele>
        <time>2022-10-23T13:17:00.523Z</time>
      </trkpt>
      <trkpt lat="48.78118" lon="2.13293">
        <ele>151</ele>
        <time>2022-10-23T13:17:04.529Z</time>
      </trkpt>
      <trkpt lat="48.7812" lon="2.13292">
        <ele>151</ele>
        <time>2022-10-23T13:17:08.530Z</time>
      </trkpt>
      <trkpt lat="48.78123" lon="2.13294">
        <ele>151</ele>
        <time>2022-10-23T13:17:12.547Z</time>
      </trkpt>
      <trkpt lat="48.78127" lon="2.13294">
        <ele>149</ele>
        <time>2022-10-23T13:17:16.563Z</time>
      </trkpt>
      <trkpt lat="48.78133" lon="2.13295">
        <ele>149</ele>
        <time>2022-10-23T13:17:21.533Z</time>
      </trkpt>
      <trkpt lat="48.78139" lon="2.13298">
        <ele>149</ele>
        <time>2022-10-23T13:17:26.550Z</time>
      </trkpt>
      <trkpt lat="48.78144" lon="2.13299">
        <ele>149</ele>
        <time>2022-10-23T13:17:30.551Z</time>
      </trkpt>
      <trkpt lat="48.78149" lon="2.133">
        <ele>149</ele>
        <time>2022-10-23T13:17:34.568Z</time>
      </trkpt>
      <trkpt lat="48.78155" lon="2.13303">
        <ele>149</ele>
        <time>2022-10-23T13:17:39.536Z</time>
      </trkpt>
      <trkpt lat="48.78162" lon="2.13304">
        <ele>149</ele>
        <time>2022-10-23T13:17:44.559Z</time>
      </trkpt>
      <trkpt lat="48.78166" lon="2.13306">
        <ele>149</ele>
        <time>2022-10-23T13:17:49.544Z</time>
      </trkpt>
      <trkpt lat="48.78172" lon="2.13306">
        <ele>149</ele>
        <time>2022-10-23T13:17:54.549Z</time>
      </trkpt>
      <trkpt lat="48.78178" lon="2.13308">
        <ele>149</ele>
        <time>2022-10-23T13:17:59.549Z</time>
      </trkpt>
      <trkpt lat="48.78184" lon="2.13307">
        <ele>150</ele>
        <time>2022-10-23T13:18:04.551Z</time>
      </trkpt>
      <trkpt lat="48.78191" lon="2.13305">
        <ele>150</ele>
        <time>2022-10-23T13:18:09.544Z</time>
      </trkpt>
      <trkpt lat="48.78196" lon="2.13305">
        <ele>150</ele>
        <time>2022-10-23T13:18:14.557Z</time>
      </trkpt>
      <trkpt lat="48.78201" lon="2.13301">
        <ele>150</ele>
        <time>2022-10-23T13:18:19.500Z</time>
      </trkpt>
      <trkpt lat="48.78206" lon="2.13298">
        <ele>150</ele>
        <time>2022-10-23T13:18:23.520Z</time>
      </trkpt>
      <trkpt lat="48.78213" lon="2.13298">
        <ele>151</ele>
        <time>2022-10-23T13:18:28.507Z</time>
      </trkpt>
      <trkpt lat="48.78217" lon="2.13299">
        <ele>151</ele>
        <time>2022-10-23T13:18:32.543Z</time>
      </trkpt>
      <trkpt lat="48.78223" lon="2.133">
        <ele>151</ele>
        <time>2022-10-23T13:18:37.528Z</time>
      </trkpt>
      <trkpt lat="48.78229" lon="2.133">
        <ele>151</ele>
        <time>2022-10-23T13:18:42.528Z</time>
      </trkpt>
      <trkpt lat="48.78235" lon="2.13302">
        <ele>151</ele>
        <time>2022-10-23T13:18:46.544Z</time>
      </trkpt>
      <trkpt lat="48.7824" lon="2.13303">
        <ele>151</ele>
        <time>2022-10-23T13:18:51.538Z</time>
      </trkpt>
      <trkpt lat="48.78245" lon="2.13304">
        <ele>151</ele>
        <time>2022-10-23T13:18:56.552Z</time>
      </trkpt>
      <trkpt lat="48.78251" lon="2.13306">
        <ele>151</ele>
        <time>2022-10-23T13:19:01.540Z</time>
      </trkpt>
      <trkpt lat="48.78258" lon="2.13306">
        <ele>151</ele>
        <time>2022-10-23T13:19:06.553Z</time>
      </trkpt>
      <trkpt lat="48.78263" lon="2.13306">
        <ele>151</ele>
        <time>2022-10-23T13:19:10.572Z</time>
      </trkpt>
      <trkpt lat="48.7827" lon="2.13309">
        <ele>150</ele>
        <time>2022-10-23T13:19:15.540Z</time>
      </trkpt>
      <trkpt lat="48.78277" lon="2.13311">
        <ele>150</ele>
        <time>2022-10-23T13:19:20.546Z</time>
      </trkpt>
      <trkpt lat="48.78283" lon="2.13311">
        <ele>150</ele>
        <time>2022-10-23T13:19:25.537Z</time>
      </trkpt>
      <trkpt lat="48.78289" lon="2.1331">
        <ele>150</ele>
        <time>2022-10-23T13:19:30.549Z</time>
      </trkpt>
      <trkpt lat="48.78294" lon="2.13311">
        <ele>150</ele>
        <time>2022-10-23T13:19:34.560Z</time>
      </trkpt>
      <trkpt lat="48.783" lon="2.13313">
        <ele>150</ele>
        <time>2022-10-23T13:19:39.532Z</time>
      </trkpt>
      <trkpt lat="48.78303" lon="2.13313">
        <ele>150</ele>
        <time>2022-10-23T13:19:43.550Z</time>
      </trkpt>
      <trkpt lat="48.7831" lon="2.13313">
        <ele>150</ele>
        <time>2022-10-23T13:19:48.573Z</time>
      </trkpt>
      <trkpt lat="48.78316" lon="2.13316">
        <ele>150</ele>
        <time>2022-10-23T13:19:53.545Z</time>
      </trkpt>
      <trkpt lat="48.78321" lon="2.13314">
        <ele>148</ele>
        <time>2022-10-23T13:19:58.525Z</time>
      </trkpt>
      <trkpt lat="48.78327" lon="2.13315">
        <ele>148</ele>
        <time>2022-10-23T13:20:02.542Z</time>
      </trkpt>
      <trkpt lat="48.78332" lon="2.13317">
        <ele>148</ele>
        <time>2022-10-23T13:20:06.555Z</time>
      </trkpt>
      <trkpt lat="48.78338" lon="2.13317">
        <ele>148</ele>
        <time>2022-10-23T13:20:11.537Z</time>
      </trkpt>
      <trkpt lat="48.78345" lon="2.13319">
        <ele>148</ele>
        <time>2022-10-23T13:20:15.553Z</time>
      </trkpt>
      <trkpt lat="48.78352" lon="2.13322">
        <ele>150</ele>
        <time>2022-10-23T13:20:20.527Z</time>
      </trkpt>
      <trkpt lat="48.78357" lon="2.13323">
        <ele>150</ele>
        <time>2022-10-23T13:20:24.537Z</time>
      </trkpt>
      <trkpt lat="48.7836" lon="2.13323">
        <ele>150</ele>
        <time>2022-10-23T13:20:28.542Z</time>
      </trkpt>
      <trkpt lat="48.78366" lon="2.13324">
        <ele>150</ele>
        <time>2022-10-23T13:20:33.548Z</time>
      </trkpt>
      <trkpt lat="48.78373" lon="2.13325">
        <ele>150</ele>
        <time>2022-10-23T13:20:38.549Z</time>
      </trkpt>
      <trkpt lat="48.7838" lon="2.13326">
        <ele>151</ele>
        <time>2022-10-23T13:20:43.559Z</time>
      </trkpt>
      <trkpt lat="48.78384" lon="2.13326">
        <ele>151</ele>
        <time>2022-10-23T13:20:47.564Z</time>
      </trkpt>
      <trkpt lat="48.78391" lon="2.13327">
        <ele>151</ele>
        <time>2022-10-23T13:20:52.555Z</time>
      </trkpt>
      <trkpt lat="48.78397" lon="2.13328">
        <ele>151</ele>
        <time>2022-10-23T13:20:57.525Z</time>
      </trkpt>
      <trkpt lat="48.78401" lon="2.13329">
        <ele>151</ele>
        <time>2022-10-23T13:21:01.546Z</time>
      </trkpt>
      <trkpt lat="48.78407" lon="2.1333">
        <ele>151</ele>
        <time>2022-10-23T13:21:06.545Z</time>
      </trkpt>
      <trkpt lat="48.78413" lon="2.13331">
        <ele>151</ele>
        <time>2022-10-23T13:21:11.513Z</time>
      </trkpt>
      <trkpt lat="48.78417" lon="2.13331">
        <ele>151</ele>
        <time>2022-10-23T13:21:16.513Z</time>
      </trkpt>
      <trkpt lat="48.78421" lon="2.13332">
        <ele>151</ele>
        <time>2022-10-23T13:21:20.546Z</time>
      </trkpt>
      <trkpt lat="48.78424" lon="2.13334">
        <ele>151</ele>
        <time>2022-10-23T13:21:25.546Z</time>
      </trkpt>
      <trkpt lat="48.78424" lon="2.13333">
        <ele>151</ele>
        <time>2022-10-23T13:21:30.554Z</time>
      </trkpt>
      <trkpt lat="48.78425" lon="2.13335">
        <ele>151</ele>
        <time>2022-10-23T13:21:35.538Z</time>
      </trkpt>
      <trkpt lat="48.78431" lon="2.1334">
        <ele>152</ele>
        <time>2022-10-23T13:21:40.512Z</time>
      </trkpt>
      <trkpt lat="48.78434" lon="2.13347">
        <ele>152</ele>
        <time>2022-10-23T13:21:44.546Z</time>
      </trkpt>
      <trkpt lat="48.7844" lon="2.13352">
        <ele>153</ele>
        <time>2022-10-23T13:21:49.546Z</time>
      </trkpt>
      <trkpt lat="48.78444" lon="2.13356">
        <ele>153</ele>
        <time>2022-10-23T13:21:53.555Z</time>
      </trkpt>
      <trkpt lat="48.78449" lon="2.13361">
        <ele>153</ele>
        <time>2022-10-23T13:21:58.550Z</time>
      </trkpt>
      <trkpt lat="48.78452" lon="2.13364">
        <ele>153</ele>
        <time>2022-10-23T13:22:02.549Z</time>
      </trkpt>
      <trkpt lat="48.78457" lon="2.13369">
        <ele>153</ele>
        <time>2022-10-23T13:22:06.547Z</time>
      </trkpt>
      <trkpt lat="48.7846" lon="2.13374">
        <ele>154</ele>
        <time>2022-10-23T13:22:11.517Z</time>
      </trkpt>
      <trkpt lat="48.78464" lon="2.13377">
        <ele>155</ele>
        <time>2022-10-23T13:22:15.550Z</time>
      </trkpt>
      <trkpt lat="48.7847" lon="2.13381">
        <ele>155</ele>
        <time>2022-10-23T13:22:20.556Z</time>
      </trkpt>
      <trkpt lat="48.78477" lon="2.13386">
        <ele>155</ele>
        <time>2022-10-23T13:22:25.547Z</time>
      </trkpt>
      <trkpt lat="48.78483" lon="2.13389">
        <ele>155</ele>
        <time>2022-10-23T13:22:30.543Z</time>
      </trkpt>
      <trkpt lat="48.78488" lon="2.13388">
        <ele>155</ele>
        <time>2022-10-23T13:22:34.557Z</time>
      </trkpt>
      <trkpt lat="48.78494" lon="2.13388">
        <ele>155</ele>
        <time>2022-10-23T13:22:39.559Z</time>
      </trkpt>
      <trkpt lat="48.78499" lon="2.13388">
        <ele>155</ele>
        <time>2022-10-23T13:22:44.535Z</time>
      </trkpt>
      <trkpt lat="48.78504" lon="2.13388">
        <ele>155</ele>
        <time>2022-10-23T13:22:48.543Z</time>
      </trkpt>
      <trkpt lat="48.7851" lon="2.13389">
        <ele>155</ele>
        <time>2022-10-23T13:22:53.537Z</time>
      </trkpt>
      <trkpt lat="48.78515" lon="2.1339">
        <ele>156</ele>
        <time>2022-10-23T13:22:58.533Z</time>
      </trkpt>
      <trkpt lat="48.78522" lon="2.13391">
        <ele>156</ele>
        <time>2022-10-23T13:23:03.531Z</time>
      </trkpt>
      <trkpt lat="48.78526" lon="2.1339">
        <ele>156</ele>
        <time>2022-10-23T13:23:07.547Z</time>
      </trkpt>
      <trkpt lat="48.78534" lon="2.13388">
        <ele>156</ele>
        <time>2022-10-23T13:23:12.513Z</time>
      </trkpt>
      <trkpt lat="48.78542" lon="2.13386">
        <ele>158</ele>
        <time>2022-10-23T13:23:17.511Z</time>
      </trkpt>
      <trkpt lat="48.78546" lon="2.13387">
        <ele>158</ele>
        <time>2022-10-23T13:23:21.548Z</time>
      </trkpt>
      <trkpt lat="48.78553" lon="2.13387">
        <ele>158</ele>
        <time>2022-10-23T13:23:26.543Z</time>
      </trkpt>
      <trkpt lat="48.7856" lon="2.13388">
        <ele>158</ele>
        <time>2022-10-23T13:23:31.539Z</time>
      </trkpt>
      <trkpt lat="48.78567" lon="2.13386">
        <ele>158</ele>
        <time>2022-10-23T13:23:36.540Z</time>
      </trkpt>
      <trkpt lat="48.78574" lon="2.13385">
        <ele>159</ele>
        <time>2022-10-23T13:23:40.555Z</time>
      </trkpt>
      <trkpt lat="48.7858" lon="2.13386">
        <ele>159</ele>
        <time>2022-10-23T13:23:45.547Z</time>
      </trkpt>
      <trkpt lat="48.78585" lon="2.13386">
        <ele>159</ele>
        <time>2022-10-23T13:23:50.530Z</time>
      </trkpt>
      <trkpt lat="48.78591" lon="2.13387">
        <ele>159</ele>
        <time>2022-10-23T13:23:55.535Z</time>
      </trkpt>
      <trkpt lat="48.78596" lon="2.13387">
        <ele>159</ele>
        <time>2022-10-23T13:23:59.541Z</time>
      </trkpt>
      <trkpt lat="48.78602" lon="2.13387">
        <ele>159</ele>
        <time>2022-10-23T13:24:04.546Z</time>
      </trkpt>
      <trkpt lat="48.78608" lon="2.13387">
        <ele>159</ele>
        <time>2022-10-23T13:24:09.549Z</time>
      </trkpt>
      <trkpt lat="48.78612" lon="2.13386">
        <ele>159</ele>
        <time>2022-10-23T13:24:13.544Z</time>
      </trkpt>
      <trkpt lat="48.78616" lon="2.13386">
        <ele>159</ele>
        <time>2022-10-23T13:24:18.521Z</time>
      </trkpt>
      <trkpt lat="48.7862" lon="2.13386">
        <ele>159</ele>
        <time>2022-10-23T13:24:22.530Z</time>
      </trkpt>
      <trkpt lat="48.78626" lon="2.13385">
        <ele>160</ele>
        <time>2022-10-23T13:24:26.559Z</time>
      </trkpt>
      <trkpt lat="48.78633" lon="2.13384">
        <ele>160</ele>
        <time>2022-10-23T13:24:31.519Z</time>
      </trkpt>
      <trkpt lat="48.78639" lon="2.13384">
        <ele>160</ele>
        <time>2022-10-23T13:24:35.547Z</time>
      </trkpt>
      <trkpt lat="48.78645" lon="2.13384">
        <ele>160</ele>
        <time>2022-10-23T13:24:40.545Z</time>
      </trkpt>
      <trkpt lat="48.78652" lon="2.13384">
        <ele>160</ele>
        <time>2022-10-23T13:24:45.552Z</time>
      </trkpt>
      <trkpt lat="48.78658" lon="2.13383">
        <ele>161</ele>
        <time>2022-10-23T13:24:50.541Z</time>
      </trkpt>
      <trkpt lat="48.78664" lon="2.13382">
        <ele>161</ele>
        <time>2022-10-23T13:24:55.540Z</time>
      </trkpt>
      <trkpt lat="48.78669" lon="2.13382">
        <ele>161</ele>
        <time>2022-10-23T13:24:59.547Z</time>
      </trkpt>
      <trkpt lat="48.78675" lon="2.13381">
        <ele>161</ele>
        <time>2022-10-23T13:25:04.558Z</time>
      </trkpt>
      <trkpt lat="48.78681" lon="2.13381">
        <ele>163</ele>
        <time>2022-10-23T13:25:09.524Z</time>
      </trkpt>
      <trkpt lat="48.78686" lon="2.13381">
        <ele>163</ele>
        <time>2022-10-23T13:25:13.554Z</time>
      </trkpt>
      <trkpt lat="48.78694" lon="2.1338">
        <ele>163</ele>
        <time>2022-10-23T13:25:18.556Z</time>
      </trkpt>
      <trkpt lat="48.78701" lon="2.1338">
        <ele>163</ele>
        <time>2022-10-23T13:25:23.557Z</time>
      </trkpt>
      <trkpt lat="48.78707" lon="2.1338">
        <ele>163</ele>
        <time>2022-10-23T13:25:28.548Z</time>
      </trkpt>
      <trkpt lat="48.78713" lon="2.13379">
        <ele>163</ele>
        <time>2022-10-23T13:25:33.551Z</time>
      </trkpt>
      <trkpt lat="48.7872" lon="2.1338">
        <ele>163</ele>
        <time>2022-10-23T13:25:38.523Z</time>
      </trkpt>
      <trkpt lat="48.78726" lon="2.1338">
        <ele>163</ele>
        <time>2022-10-23T13:25:43.571Z</time>
      </trkpt>
      <trkpt lat="48.78733" lon="2.13381">
        <ele>163</ele>
        <time>2022-10-23T13:25:48.518Z</time>
      </trkpt>
      <trkpt lat="48.7874" lon="2.13381">
        <ele>162</ele>
        <time>2022-10-23T13:25:53.508Z</time>
      </trkpt>
      <trkpt lat="48.78745" lon="2.1338">
        <ele>162</ele>
        <time>2022-10-23T13:25:57.548Z</time>
      </trkpt>
      <trkpt lat="48.78753" lon="2.13379">
        <ele>162</ele>
        <time>2022-10-23T13:26:02.551Z</time>
      </trkpt>
      <trkpt lat="48.78756" lon="2.13378">
        <ele>162</ele>
        <time>2022-10-23T13:26:07.525Z</time>
      </trkpt>
      <trkpt lat="48.78755" lon="2.13377">
        <ele>162</ele>
        <time>2022-10-23T13:26:19.544Z</time>
      </trkpt>
      <trkpt lat="48.78758" lon="2.13377">
        <ele>162</ele>
        <time>2022-10-23T13:26:23.557Z</time>
      </trkpt>
      <trkpt lat="48.78762" lon="2.13379">
        <ele>162</ele>
        <time>2022-10-23T13:26:28.524Z</time>
      </trkpt>
      <trkpt lat="48.78765" lon="2.13379">
        <ele>162</ele>
        <time>2022-10-23T13:26:33.512Z</time>
      </trkpt>
      <trkpt lat="48.78767" lon="2.13378">
        <ele>162</ele>
        <time>2022-10-23T13:26:37.537Z</time>
      </trkpt>
      <trkpt lat="48.78768" lon="2.13379">
        <ele>162</ele>
        <time>2022-10-23T13:30:25.585Z</time>
      </trkpt>
      <trkpt lat="48.78773" lon="2.13378">
        <ele>162</ele>
        <time>2022-10-23T13:30:30.561Z</time>
      </trkpt>
      <trkpt lat="48.78774" lon="2.1337">
        <ele>159</ele>
        <time>2022-10-23T13:30:35.532Z</time>
      </trkpt>
      <trkpt lat="48.78772" lon="2.13358">
        <ele>159</ele>
        <time>2022-10-23T13:30:40.530Z</time>
      </trkpt>
      <trkpt lat="48.7877" lon="2.1335">
        <ele>159</ele>
        <time>2022-10-23T13:30:44.537Z</time>
      </trkpt>
      <trkpt lat="48.78767" lon="2.13343">
        <ele>156</ele>
        <time>2022-10-23T13:31:10.550Z</time>
      </trkpt>
      <trkpt lat="48.78772" lon="2.13346">
        <ele>156</ele>
        <time>2022-10-23T13:31:14.551Z</time>
      </trkpt>
      <trkpt lat="48.78778" lon="2.1335">
        <ele>159</ele>
        <time>2022-10-23T13:31:19.534Z</time>
      </trkpt>
      <trkpt lat="48.78783" lon="2.13352">
        <ele>159</ele>
        <time>2022-10-23T13:31:23.554Z</time>
      </trkpt>
      <trkpt lat="48.78789" lon="2.13354">
        <ele>159</ele>
        <time>2022-10-23T13:31:28.558Z</time>
      </trkpt>
      <trkpt lat="48.78793" lon="2.13356">
        <ele>160</ele>
        <time>2022-10-23T13:31:32.557Z</time>
      </trkpt>
      <trkpt lat="48.78799" lon="2.13358">
        <ele>160</ele>
        <time>2022-10-23T13:31:37.545Z</time>
      </trkpt>
      <trkpt lat="48.78805" lon="2.13361">
        <ele>160</ele>
        <time>2022-10-23T13:31:42.535Z</time>
      </trkpt>
      <trkpt lat="48.78811" lon="2.13363">
        <ele>160</ele>
        <time>2022-10-23T13:31:47.543Z</time>
      </trkpt>
      <trkpt lat="48.78816" lon="2.13366">
        <ele>160</ele>
        <time>2022-10-23T13:31:51.541Z</time>
      </trkpt>
      <trkpt lat="48.78822" lon="2.13367">
        <ele>161</ele>
        <time>2022-10-23T13:31:55.548Z</time>
      </trkpt>
      <trkpt lat="48.78828" lon="2.1337">
        <ele>161</ele>
        <time>2022-10-23T13:31:59.557Z</time>
      </trkpt>
      <trkpt lat="48.78833" lon="2.13372">
        <ele>161</ele>
        <time>2022-10-23T13:32:03.555Z</time>
      </trkpt>
      <trkpt lat="48.7888" lon="2.13402">
        <ele>166</ele>
        <time>2022-10-23T13:32:48.570Z</time>
      </trkpt>
      <trkpt lat="48.78883" lon="2.13391">
        <ele>166</ele>
        <time>2022-10-23T13:32:53.509Z</time>
      </trkpt>
      <trkpt lat="48.78885" lon="2.13383">
        <ele>166</ele>
        <time>2022-10-23T13:32:57.550Z</time>
      </trkpt>
      <trkpt lat="48.78885" lon="2.13376">
        <ele>166</ele>
        <time>2022-10-23T13:33:01.558Z</time>
      </trkpt>
      <trkpt lat="48.78889" lon="2.13372">
        <ele>166</ele>
        <time>2022-10-23T13:33:06.538Z</time>
      </trkpt>
      <trkpt lat="48.78893" lon="2.13365">
        <ele>166</ele>
        <time>2022-10-23T13:33:11.552Z</time>
      </trkpt>
      <trkpt lat="48.78897" lon="2.1336">
        <ele>166</ele>
        <time>2022-10-23T13:33:16.552Z</time>
      </trkpt>
      <trkpt lat="48.78902" lon="2.13354">
        <ele>166</ele>
        <time>2022-10-23T13:33:21.530Z</time>
      </trkpt>
      <trkpt lat="48.78905" lon="2.1335">
        <ele>170</ele>
        <time>2022-10-23T13:33:25.548Z</time>
      </trkpt>
      <trkpt lat="48.78909" lon="2.13348">
        <ele>170</ele>
        <time>2022-10-23T13:33:29.551Z</time>
      </trkpt>
      <trkpt lat="48.78915" lon="2.13344">
        <ele>171</ele>
        <time>2022-10-23T13:33:34.573Z</time>
      </trkpt>
      <trkpt lat="48.78922" lon="2.13339">
        <ele>171</ele>
        <time>2022-10-23T13:33:39.536Z</time>
      </trkpt>
      <trkpt lat="48.78926" lon="2.13337">
        <ele>171</ele>
        <time>2022-10-23T13:33:43.562Z</time>
      </trkpt>
      <trkpt lat="48.78931" lon="2.13336">
        <ele>174</ele>
        <time>2022-10-23T13:33:48.560Z</time>
      </trkpt>
      <trkpt lat="48.78936" lon="2.13335">
        <ele>174</ele>
        <time>2022-10-23T13:33:53.571Z</time>
      </trkpt>
      <trkpt lat="48.7894" lon="2.13335">
        <ele>174</ele>
        <time>2022-10-23T13:33:58.532Z</time>
      </trkpt>
      <trkpt lat="48.78943" lon="2.13332">
        <ele>174</ele>
        <time>2022-10-23T13:34:02.548Z</time>
      </trkpt>
      <trkpt lat="48.78948" lon="2.1333">
        <ele>174</ele>
        <time>2022-10-23T13:34:07.552Z</time>
      </trkpt>
      <trkpt lat="48.78953" lon="2.13329">
        <ele>174</ele>
        <time>2022-10-23T13:34:12.529Z</time>
      </trkpt>
      <trkpt lat="48.78957" lon="2.13329">
        <ele>174</ele>
        <time>2022-10-23T13:34:16.543Z</time>
      </trkpt>
      <trkpt lat="48.78962" lon="2.13329">
        <ele>176</ele>
        <time>2022-10-23T13:34:20.553Z</time>
      </trkpt>
      <trkpt lat="48.78969" lon="2.13328">
        <ele>176</ele>
        <time>2022-10-23T13:34:25.543Z</time>
      </trkpt>
      <trkpt lat="48.78974" lon="2.13328">
        <ele>176</ele>
        <time>2022-10-23T13:34:29.559Z</time>
      </trkpt>
      <trkpt lat="48.78982" lon="2.13328">
        <ele>176</ele>
        <time>2022-10-23T13:34:34.559Z</time>
      </trkpt>
      <trkpt lat="48.78985" lon="2.13328">
        <ele>176</ele>
        <time>2022-10-23T13:34:38.565Z</time>
      </trkpt>
      <trkpt lat="48.78989" lon="2.13325">
        <ele>176</ele>
        <time>2022-10-23T13:34:43.553Z</time>
      </trkpt>
      <trkpt lat="48.78993" lon="2.13319">
        <ele>176</ele>
        <time>2022-10-23T13:34:47.557Z</time>
      </trkpt>
      <trkpt lat="48.78996" lon="2.13311">
        <ele>176</ele>
        <time>2022-10-23T13:34:51.564Z</time>
      </trkpt>
      <trkpt lat="48.78999" lon="2.13301">
        <ele>176</ele>
        <time>2022-10-23T13:34:56.512Z</time>
      </trkpt>
      <trkpt lat="48.79001" lon="2.13295">
        <ele>176</ele>
        <time>2022-10-23T13:35:00.562Z</time>
      </trkpt>
      <trkpt lat="48.79003" lon="2.13286">
        <ele>176</ele>
        <time>2022-10-23T13:35:05.568Z</time>
      </trkpt>
      <trkpt lat="48.79004" lon="2.13275">
        <ele>176</ele>
        <time>2022-10-23T13:35:10.538Z</time>
      </trkpt>
      <trkpt lat="48.79006" lon="2.13265">
        <ele>176</ele>
        <time>2022-10-23T13:35:14.557Z</time>
      </trkpt>
      <trkpt lat="48.79007" lon="2.13256">
        <ele>177</ele>
        <time>2022-10-23T13:35:19.555Z</time>
      </trkpt>
      <trkpt lat="48.79008" lon="2.13247">
        <ele>177</ele>
        <time>2022-10-23T13:35:23.561Z</time>
      </trkpt>
      <trkpt lat="48.7901" lon="2.13235">
        <ele>177</ele>
        <time>2022-10-23T13:35:28.563Z</time>
      </trkpt>
      <trkpt lat="48.79014" lon="2.13224">
        <ele>175</ele>
        <time>2022-10-23T13:35:33.516Z</time>
      </trkpt>
      <trkpt lat="48.79016" lon="2.13219">
        <ele>175</ele>
        <time>2022-10-23T13:35:37.562Z</time>
      </trkpt>
      <trkpt lat="48.79015" lon="2.13209">
        <ele>175</ele>
        <time>2022-10-23T13:35:42.559Z</time>
      </trkpt>
      <trkpt lat="48.79016" lon="2.13198">
        <ele>175</ele>
        <time>2022-10-23T13:35:47.517Z</time>
      </trkpt>
      <trkpt lat="48.79017" lon="2.13189">
        <ele>175</ele>
        <time>2022-10-23T13:35:51.552Z</time>
      </trkpt>
      <trkpt lat="48.79016" lon="2.1318">
        <ele>176</ele>
        <time>2022-10-23T13:35:55.567Z</time>
      </trkpt>
      <trkpt lat="48.79016" lon="2.13169">
        <ele>176</ele>
        <time>2022-10-23T13:36:00.557Z</time>
      </trkpt>
      <trkpt lat="48.79015" lon="2.13156">
        <ele>176</ele>
        <time>2022-10-23T13:36:05.565Z</time>
      </trkpt>
      <trkpt lat="48.79015" lon="2.13149">
        <ele>175</ele>
        <time>2022-10-23T13:36:10.544Z</time>
      </trkpt>
      <trkpt lat="48.79016" lon="2.13138">
        <ele>175</ele>
        <time>2022-10-23T13:36:14.560Z</time>
      </trkpt>
      <trkpt lat="48.79017" lon="2.13128">
        <ele>175</ele>
        <time>2022-10-23T13:36:19.537Z</time>
      </trkpt>
      <trkpt lat="48.79019" lon="2.13116">
        <ele>174</ele>
        <time>2022-10-23T13:36:24.553Z</time>
      </trkpt>
      <trkpt lat="48.79024" lon="2.13107">
        <ele>174</ele>
        <time>2022-10-23T13:36:29.563Z</time>
      </trkpt>
      <trkpt lat="48.7903" lon="2.13107">
        <ele>174</ele>
        <time>2022-10-23T13:36:34.543Z</time>
      </trkpt>
      <trkpt lat="48.79036" lon="2.13107">
        <ele>174</ele>
        <time>2022-10-23T13:36:39.556Z</time>
      </trkpt>
      <trkpt lat="48.79042" lon="2.13105">
        <ele>174</ele>
        <time>2022-10-23T13:36:44.543Z</time>
      </trkpt>
      <trkpt lat="48.79048" lon="2.13103">
        <ele>175</ele>
        <time>2022-10-23T13:36:49.535Z</time>
      </trkpt>
      <trkpt lat="48.79053" lon="2.13103">
        <ele>175</ele>
        <time>2022-10-23T13:36:53.554Z</time>
      </trkpt>
      <trkpt lat="48.7906" lon="2.13099">
        <ele>175</ele>
        <time>2022-10-23T13:36:58.566Z</time>
      </trkpt>
      <trkpt lat="48.79066" lon="2.13096">
        <ele>173</ele>
        <time>2022-10-23T13:37:03.549Z</time>
      </trkpt>
      <trkpt lat="48.79073" lon="2.1309">
        <ele>174</ele>
        <time>2022-10-23T13:37:08.519Z</time>
      </trkpt>
      <trkpt lat="48.79078" lon="2.13088">
        <ele>174</ele>
        <time>2022-10-23T13:37:12.535Z</time>
      </trkpt>
      <trkpt lat="48.79084" lon="2.13085">
        <ele>174</ele>
        <time>2022-10-23T13:37:16.551Z</time>
      </trkpt>
      <trkpt lat="48.7909" lon="2.13081">
        <ele>174</ele>
        <time>2022-10-23T13:37:21.523Z</time>
      </trkpt>
      <trkpt lat="48.79096" lon="2.13079">
        <ele>174</ele>
        <time>2022-10-23T13:37:25.539Z</time>
      </trkpt>
      <trkpt lat="48.79101" lon="2.13079">
        <ele>175</ele>
        <time>2022-10-23T13:37:29.543Z</time>
      </trkpt>
      <trkpt lat="48.79107" lon="2.13077">
        <ele>175</ele>
        <time>2022-10-23T13:37:34.526Z</time>
      </trkpt>
      <trkpt lat="48.79112" lon="2.13074">
        <ele>175</ele>
        <time>2022-10-23T13:37:38.526Z</time>
      </trkpt>
      <trkpt lat="48.79121" lon="2.1307">
        <ele>175</ele>
        <time>2022-10-23T13:37:43.544Z</time>
      </trkpt>
      <trkpt lat="48.79128" lon="2.13065">
        <ele>176</ele>
        <time>2022-10-23T13:37:48.548Z</time>
      </trkpt>
      <trkpt lat="48.79135" lon="2.1306">
        <ele>176</ele>
        <time>2022-10-23T13:37:53.554Z</time>
      </trkpt>
      <trkpt lat="48.79141" lon="2.13056">
        <ele>176</ele>
        <time>2022-10-23T13:37:58.542Z</time>
      </trkpt>
      <trkpt lat="48.79148" lon="2.13049">
        <ele>176</ele>
        <time>2022-10-23T13:38:03.516Z</time>
      </trkpt>
      <trkpt lat="48.79153" lon="2.13044">
        <ele>176</ele>
        <time>2022-10-23T13:38:07.532Z</time>
      </trkpt>
      <trkpt lat="48.79159" lon="2.13037">
        <ele>175</ele>
        <time>2022-10-23T13:38:12.529Z</time>
      </trkpt>
      <trkpt lat="48.79165" lon="2.13031">
        <ele>175</ele>
        <time>2022-10-23T13:38:17.548Z</time>
      </trkpt>
      <trkpt lat="48.79169" lon="2.13024">
        <ele>175</ele>
        <time>2022-10-23T13:38:22.507Z</time>
      </trkpt>
      <trkpt lat="48.79174" lon="2.13022">
        <ele>175</ele>
        <time>2022-10-23T13:38:26.514Z</time>
      </trkpt>
      <trkpt lat="48.79177" lon="2.13019">
        <ele>175</ele>
        <time>2022-10-23T13:38:31.508Z</time>
      </trkpt>
      <trkpt lat="48.79178" lon="2.13015">
        <ele>175</ele>
        <time>2022-10-23T13:38:36.514Z</time>
      </trkpt>
      <trkpt lat="48.79182" lon="2.13011">
        <ele>171</ele>
        <time>2022-10-23T13:38:41.503Z</time>
      </trkpt>
      <trkpt lat="48.79183" lon="2.13009">
        <ele>171</ele>
        <time>2022-10-23T13:38:45.507Z</time>
      </trkpt>
      <trkpt lat="48.79188" lon="2.13005">
        <ele>171</ele>
        <time>2022-10-23T13:38:50.510Z</time>
      </trkpt>
      <trkpt lat="48.79191" lon="2.13002">
        <ele>171</ele>
        <time>2022-10-23T13:38:54.513Z</time>
      </trkpt>
      <trkpt lat="48.79193" lon="2.12998">
        <ele>171</ele>
        <time>2022-10-23T13:38:58.517Z</time>
      </trkpt>
      <trkpt lat="48.79198" lon="2.12991">
        <ele>171</ele>
        <time>2022-10-23T13:39:13.504Z</time>
      </trkpt>
      <trkpt lat="48.792" lon="2.1299">
        <ele>171</ele>
        <time>2022-10-23T13:39:18.523Z</time>
      </trkpt>
      <trkpt lat="48.79205" lon="2.12987">
        <ele>171</ele>
        <time>2022-10-23T13:39:23.504Z</time>
      </trkpt>
      <trkpt lat="48.79209" lon="2.12983">
        <ele>161</ele>
        <time>2022-10-23T13:39:27.514Z</time>
      </trkpt>
      <trkpt lat="48.79209" lon="2.12981">
        <ele>161</ele>
        <time>2022-10-23T13:39:31.514Z</time>
      </trkpt>
      <trkpt lat="48.79211" lon="2.12971">
        <ele>161</ele>
        <time>2022-10-23T13:39:36.547Z</time>
      </trkpt>
      <trkpt lat="48.79214" lon="2.12963">
        <ele>161</ele>
        <time>2022-10-23T13:39:41.528Z</time>
      </trkpt>
      <trkpt lat="48.79216" lon="2.12954">
        <ele>162</ele>
        <time>2022-10-23T13:39:46.505Z</time>
      </trkpt>
      <trkpt lat="48.79219" lon="2.12945">
        <ele>162</ele>
        <time>2022-10-23T13:39:51.518Z</time>
      </trkpt>
      <trkpt lat="48.79221" lon="2.12938">
        <ele>162</ele>
        <time>2022-10-23T13:39:56.512Z</time>
      </trkpt>
      <trkpt lat="48.79223" lon="2.12932">
        <ele>162</ele>
        <time>2022-10-23T13:40:00.528Z</time>
      </trkpt>
      <trkpt lat="48.79226" lon="2.12927">
        <ele>162</ele>
        <time>2022-10-23T13:40:04.528Z</time>
      </trkpt>
      <trkpt lat="48.79229" lon="2.12922">
        <ele>162</ele>
        <time>2022-10-23T13:40:08.549Z</time>
      </trkpt>
      <trkpt lat="48.79232" lon="2.12913">
        <ele>162</ele>
        <time>2022-10-23T13:40:13.532Z</time>
      </trkpt>
      <trkpt lat="48.79236" lon="2.12905">
        <ele>162</ele>
        <time>2022-10-23T13:40:18.528Z</time>
      </trkpt>
      <trkpt lat="48.79239" lon="2.12898">
        <ele>146</ele>
        <time>2022-10-23T13:40:23.512Z</time>
      </trkpt>
      <trkpt lat="48.79241" lon="2.12891">
        <ele>146</ele>
        <time>2022-10-23T13:40:27.565Z</time>
      </trkpt>
      <trkpt lat="48.79241" lon="2.12881">
        <ele>146</ele>
        <time>2022-10-23T13:40:32.556Z</time>
      </trkpt>
      <trkpt lat="48.79242" lon="2.12873">
        <ele>143</ele>
        <time>2022-10-23T13:40:37.524Z</time>
      </trkpt>
      <trkpt lat="48.79243" lon="2.12869">
        <ele>143</ele>
        <time>2022-10-23T13:40:42.561Z</time>
      </trkpt>
      <trkpt lat="48.79246" lon="2.12864">
        <ele>143</ele>
        <time>2022-10-23T13:40:47.506Z</time>
      </trkpt>
      <trkpt lat="48.7925" lon="2.12866">
        <ele>143</ele>
        <time>2022-10-23T13:41:10.548Z</time>
      </trkpt>
      <trkpt lat="48.79251" lon="2.12865">
        <ele>143</ele>
        <time>2022-10-23T13:41:14.553Z</time>
      </trkpt>
      <trkpt lat="48.79255" lon="2.12867">
        <ele>143</ele>
        <time>2022-10-23T13:41:18.564Z</time>
      </trkpt>
      <trkpt lat="48.79262" lon="2.1287">
        <ele>143</ele>
        <time>2022-10-23T13:41:23.545Z</time>
      </trkpt>
      <trkpt lat="48.79268" lon="2.12873">
        <ele>139</ele>
        <time>2022-10-23T13:41:28.563Z</time>
      </trkpt>
      <trkpt lat="48.79275" lon="2.12873">
        <ele>139</ele>
        <time>2022-10-23T13:41:33.517Z</time>
      </trkpt>
      <trkpt lat="48.79279" lon="2.12875">
        <ele>139</ele>
        <time>2022-10-23T13:41:37.542Z</time>
      </trkpt>
      <trkpt lat="48.79283" lon="2.12879">
        <ele>139</ele>
        <time>2022-10-23T13:41:42.545Z</time>
      </trkpt>
      <trkpt lat="48.79288" lon="2.12885">
        <ele>139</ele>
        <time>2022-10-23T13:41:46.555Z</time>
      </trkpt>
      <trkpt lat="48.79293" lon="2.12889">
        <ele>139</ele>
        <time>2022-10-23T13:41:51.544Z</time>
      </trkpt>
      <trkpt lat="48.79298" lon="2.12894">
        <ele>139</ele>
        <time>2022-10-23T13:41:56.549Z</time>
      </trkpt>
      <trkpt lat="48.79304" lon="2.12896">
        <ele>139</ele>
        <time>2022-10-23T13:42:01.550Z</time>
      </trkpt>
      <trkpt lat="48.79309" lon="2.12898">
        <ele>139</ele>
        <time>2022-10-23T13:42:05.563Z</time>
      </trkpt>
      <trkpt lat="48.79316" lon="2.12902">
        <ele>139</ele>
        <time>2022-10-23T13:42:10.554Z</time>
      </trkpt>
      <trkpt lat="48.7932" lon="2.12904">
        <ele>139</ele>
        <time>2022-10-23T13:42:14.571Z</time>
      </trkpt>
      <trkpt lat="48.79327" lon="2.12908">
        <ele>139</ele>
        <time>2022-10-23T13:42:19.554Z</time>
      </trkpt>
      <trkpt lat="48.79332" lon="2.1291">
        <ele>139</ele>
        <time>2022-10-23T13:42:23.552Z</time>
      </trkpt>
      <trkpt lat="48.79337" lon="2.12915">
        <ele>139</ele>
        <time>2022-10-23T13:42:28.543Z</time>
      </trkpt>
      <trkpt lat="48.79342" lon="2.1292">
        <ele>139</ele>
        <time>2022-10-23T13:42:33.544Z</time>
      </trkpt>
      <trkpt lat="48.79346" lon="2.12924">
        <ele>139</ele>
        <time>2022-10-23T13:42:37.566Z</time>
      </trkpt>
      <trkpt lat="48.79352" lon="2.12927">
        <ele>138</ele>
        <time>2022-10-23T13:42:42.583Z</time>
      </trkpt>
      <trkpt lat="48.79358" lon="2.12929">
        <ele>138</ele>
        <time>2022-10-23T13:42:47.549Z</time>
      </trkpt>
      <trkpt lat="48.79365" lon="2.12933">
        <ele>138</ele>
        <time>2022-10-23T13:42:52.554Z</time>
      </trkpt>
      <trkpt lat="48.79369" lon="2.12936">
        <ele>138</ele>
        <time>2022-10-23T13:42:56.555Z</time>
      </trkpt>
      <trkpt lat="48.79376" lon="2.1294">
        <ele>138</ele>
        <time>2022-10-23T13:43:01.551Z</time>
      </trkpt>
      <trkpt lat="48.79383" lon="2.12944">
        <ele>138</ele>
        <time>2022-10-23T13:43:06.547Z</time>
      </trkpt>
      <trkpt lat="48.79389" lon="2.12947">
        <ele>138</ele>
        <time>2022-10-23T13:43:11.539Z</time>
      </trkpt>
      <trkpt lat="48.79394" lon="2.12949">
        <ele>138</ele>
        <time>2022-10-23T13:43:15.553Z</time>
      </trkpt>
      <trkpt lat="48.79399" lon="2.12954">
        <ele>138</ele>
        <time>2022-10-23T13:43:19.545Z</time>
      </trkpt>
      <trkpt lat="48.79405" lon="2.12958">
        <ele>139</ele>
        <time>2022-10-23T13:43:24.558Z</time>
      </trkpt>
      <trkpt lat="48.7941" lon="2.12961">
        <ele>140</ele>
        <time>2022-10-23T13:43:28.559Z</time>
      </trkpt>
      <trkpt lat="48.79415" lon="2.12965">
        <ele>140</ele>
        <time>2022-10-23T13:43:33.551Z</time>
      </trkpt>
      <trkpt lat="48.79421" lon="2.1297">
        <ele>140</ele>
        <time>2022-10-23T13:43:38.541Z</time>
      </trkpt>
      <trkpt lat="48.79426" lon="2.12972">
        <ele>140</ele>
        <time>2022-10-23T13:43:42.555Z</time>
      </trkpt>
      <trkpt lat="48.79433" lon="2.12976">
        <ele>140</ele>
        <time>2022-10-23T13:43:47.541Z</time>
      </trkpt>
      <trkpt lat="48.7944" lon="2.12979">
        <ele>140</ele>
        <time>2022-10-23T13:43:52.556Z</time>
      </trkpt>
      <trkpt lat="48.79445" lon="2.1298">
        <ele>140</ele>
        <time>2022-10-23T13:43:57.506Z</time>
      </trkpt>
      <trkpt lat="48.79448" lon="2.12983">
        <ele>140</ele>
        <time>2022-10-23T13:44:01.529Z</time>
      </trkpt>
      <trkpt lat="48.79452" lon="2.12989">
        <ele>140</ele>
        <time>2022-10-23T13:44:06.523Z</time>
      </trkpt>
      <trkpt lat="48.79456" lon="2.12992">
        <ele>140</ele>
        <time>2022-10-23T13:44:10.539Z</time>
      </trkpt>
      <trkpt lat="48.7946" lon="2.12997">
        <ele>140</ele>
        <time>2022-10-23T13:44:15.546Z</time>
      </trkpt>
      <trkpt lat="48.79464" lon="2.13">
        <ele>140</ele>
        <time>2022-10-23T13:44:19.562Z</time>
      </trkpt>
      <trkpt lat="48.7947" lon="2.13004">
        <ele>140</ele>
        <time>2022-10-23T13:44:23.569Z</time>
      </trkpt>
      <trkpt lat="48.79479" lon="2.13009">
        <ele>140</ele>
        <time>2022-10-23T13:44:28.565Z</time>
      </trkpt>
      <trkpt lat="48.79485" lon="2.13012">
        <ele>140</ele>
        <time>2022-10-23T13:44:33.509Z</time>
      </trkpt>
      <trkpt lat="48.79489" lon="2.13016">
        <ele>140</ele>
        <time>2022-10-23T13:44:37.547Z</time>
      </trkpt>
      <trkpt lat="48.79492" lon="2.13019">
        <ele>140</ele>
        <time>2022-10-23T13:44:42.508Z</time>
      </trkpt>
      <trkpt lat="48.79495" lon="2.13021">
        <ele>140</ele>
        <time>2022-10-23T13:44:46.556Z</time>
      </trkpt>
      <trkpt lat="48.79501" lon="2.13026">
        <ele>140</ele>
        <time>2022-10-23T13:44:51.541Z</time>
      </trkpt>
      <trkpt lat="48.79505" lon="2.13031">
        <ele>140</ele>
        <time>2022-10-23T13:44:56.543Z</time>
      </trkpt>
      <trkpt lat="48.7951" lon="2.13033">
        <ele>140</ele>
        <time>2022-10-23T13:45:01.528Z</time>
      </trkpt>
      <trkpt lat="48.79518" lon="2.13036">
        <ele>139</ele>
        <time>2022-10-23T13:45:05.562Z</time>
      </trkpt>
      <trkpt lat="48.79524" lon="2.13038">
        <ele>139</ele>
        <time>2022-10-23T13:45:09.551Z</time>
      </trkpt>
      <trkpt lat="48.7953" lon="2.13039">
        <ele>139</ele>
        <time>2022-10-23T13:45:14.563Z</time>
      </trkpt>
      <trkpt lat="48.79535" lon="2.13042">
        <ele>140</ele>
        <time>2022-10-23T13:45:19.544Z</time>
      </trkpt>
      <trkpt lat="48.7954" lon="2.13046">
        <ele>140</ele>
        <time>2022-10-23T13:45:24.547Z</time>
      </trkpt>
      <trkpt lat="48.79547" lon="2.13049">
        <ele>140</ele>
        <time>2022-10-23T13:45:29.508Z</time>
      </trkpt>
      <trkpt lat="48.79551" lon="2.1305">
        <ele>140</ele>
        <time>2022-10-23T13:45:33.525Z</time>
      </trkpt>
      <trkpt lat="48.79557" lon="2.13053">
        <ele>140</ele>
        <time>2022-10-23T13:45:38.513Z</time>
      </trkpt>
      <trkpt lat="48.79568" lon="2.13067">
        <ele>140</ele>
        <time>2022-10-23T13:45:43.503Z</time>
      </trkpt>
      <trkpt lat="48.79577" lon="2.13072">
        <ele>141</ele>
        <time>2022-10-23T13:45:47.513Z</time>
      </trkpt>
      <trkpt lat="48.79579" lon="2.13062">
        <ele>140</ele>
        <time>2022-10-23T13:45:52.511Z</time>
      </trkpt>
      <trkpt lat="48.79583" lon="2.13051">
        <ele>140</ele>
        <time>2022-10-23T13:45:57.503Z</time>
      </trkpt>
      <trkpt lat="48.79584" lon="2.13043">
        <ele>140</ele>
        <time>2022-10-23T13:46:01.506Z</time>
      </trkpt>
      <trkpt lat="48.79588" lon="2.13035">
        <ele>139</ele>
        <time>2022-10-23T13:46:06.521Z</time>
      </trkpt>
      <trkpt lat="48.79591" lon="2.13028">
        <ele>139</ele>
        <time>2022-10-23T13:46:10.533Z</time>
      </trkpt>
      <trkpt lat="48.79594" lon="2.13018">
        <ele>139</ele>
        <time>2022-10-23T13:46:15.526Z</time>
      </trkpt>
      <trkpt lat="48.79597" lon="2.13007">
        <ele>138</ele>
        <time>2022-10-23T13:46:20.543Z</time>
      </trkpt>
      <trkpt lat="48.79599" lon="2.12997">
        <ele>137</ele>
        <time>2022-10-23T13:46:25.544Z</time>
      </trkpt>
      <trkpt lat="48.79602" lon="2.12989">
        <ele>137</ele>
        <time>2022-10-23T13:46:29.552Z</time>
      </trkpt>
      <trkpt lat="48.79604" lon="2.12979">
        <ele>137</ele>
        <time>2022-10-23T13:46:34.547Z</time>
      </trkpt>
      <trkpt lat="48.79605" lon="2.12969">
        <ele>137</ele>
        <time>2022-10-23T13:46:39.528Z</time>
      </trkpt>
      <trkpt lat="48.79608" lon="2.12964">
        <ele>137</ele>
        <time>2022-10-23T13:46:43.562Z</time>
      </trkpt>
      <trkpt lat="48.7961" lon="2.12956">
        <ele>136</ele>
        <time>2022-10-23T13:46:48.531Z</time>
      </trkpt>
      <trkpt lat="48.79613" lon="2.12946">
        <ele>136</ele>
        <time>2022-10-23T13:46:53.524Z</time>
      </trkpt>
      <trkpt lat="48.79616" lon="2.12937">
        <ele>136</ele>
        <time>2022-10-23T13:46:58.548Z</time>
      </trkpt>
      <trkpt lat="48.79619" lon="2.12927">
        <ele>136</ele>
        <time>2022-10-23T13:47:03.557Z</time>
      </trkpt>
      <trkpt lat="48.79622" lon="2.12917">
        <ele>136</ele>
        <time>2022-10-23T13:47:08.560Z</time>
      </trkpt>
      <trkpt lat="48.79625" lon="2.1291">
        <ele>136</ele>
        <time>2022-10-23T13:47:12.563Z</time>
      </trkpt>
      <trkpt lat="48.79627" lon="2.129">
        <ele>133</ele>
        <time>2022-10-23T13:47:17.543Z</time>
      </trkpt>
      <trkpt lat="48.79629" lon="2.12893">
        <ele>133</ele>
        <time>2022-10-23T13:47:21.558Z</time>
      </trkpt>
      <trkpt lat="48.79631" lon="2.12885">
        <ele>133</ele>
        <time>2022-10-23T13:47:25.554Z</time>
      </trkpt>
      <trkpt lat="48.79634" lon="2.12875">
        <ele>133</ele>
        <time>2022-10-23T13:47:30.561Z</time>
      </trkpt>
      <trkpt lat="48.79636" lon="2.12867">
        <ele>133</ele>
        <time>2022-10-23T13:47:34.570Z</time>
      </trkpt>
      <trkpt lat="48.79639" lon="2.12858">
        <ele>133</ele>
        <time>2022-10-23T13:47:39.564Z</time>
      </trkpt>
      <trkpt lat="48.79642" lon="2.12848">
        <ele>133</ele>
        <time>2022-10-23T13:47:44.562Z</time>
      </trkpt>
      <trkpt lat="48.79645" lon="2.12841">
        <ele>133</ele>
        <time>2022-10-23T13:47:49.541Z</time>
      </trkpt>
      <trkpt lat="48.79649" lon="2.12832">
        <ele>133</ele>
        <time>2022-10-23T13:47:54.549Z</time>
      </trkpt>
      <trkpt lat="48.79651" lon="2.12822">
        <ele>133</ele>
        <time>2022-10-23T13:47:59.537Z</time>
      </trkpt>
      <trkpt lat="48.79653" lon="2.12814">
        <ele>136</ele>
        <time>2022-10-23T13:48:03.556Z</time>
      </trkpt>
      <trkpt lat="48.79656" lon="2.12806">
        <ele>136</ele>
        <time>2022-10-23T13:48:08.544Z</time>
      </trkpt>
      <trkpt lat="48.79657" lon="2.12797">
        <ele>136</ele>
        <time>2022-10-23T13:48:12.546Z</time>
      </trkpt>
      <trkpt lat="48.7966" lon="2.12788">
        <ele>137</ele>
        <time>2022-10-23T13:48:17.525Z</time>
      </trkpt>
      <trkpt lat="48.79662" lon="2.1278">
        <ele>137</ele>
        <time>2022-10-23T13:48:21.521Z</time>
      </trkpt>
      <trkpt lat="48.79665" lon="2.12773">
        <ele>137</ele>
        <time>2022-10-23T13:48:25.550Z</time>
      </trkpt>
      <trkpt lat="48.79667" lon="2.12766">
        <ele>137</ele>
        <time>2022-10-23T13:48:29.561Z</time>
      </trkpt>
      <trkpt lat="48.79669" lon="2.12757">
        <ele>136</ele>
        <time>2022-10-23T13:48:34.544Z</time>
      </trkpt>
      <trkpt lat="48.79672" lon="2.12749">
        <ele>136</ele>
        <time>2022-10-23T13:48:38.559Z</time>
      </trkpt>
      <trkpt lat="48.79675" lon="2.12741">
        <ele>136</ele>
        <time>2022-10-23T13:48:43.551Z</time>
      </trkpt>
      <trkpt lat="48.79677" lon="2.12732">
        <ele>134</ele>
        <time>2022-10-23T13:48:47.571Z</time>
      </trkpt>
      <trkpt lat="48.79681" lon="2.12723">
        <ele>133</ele>
        <time>2022-10-23T13:48:52.559Z</time>
      </trkpt>
      <trkpt lat="48.79683" lon="2.12713">
        <ele>133</ele>
        <time>2022-10-23T13:48:57.552Z</time>
      </trkpt>
      <trkpt lat="48.79685" lon="2.12706">
        <ele>130</ele>
        <time>2022-10-23T13:49:01.559Z</time>
      </trkpt>
      <trkpt lat="48.79687" lon="2.12697">
        <ele>130</ele>
        <time>2022-10-23T13:49:06.565Z</time>
      </trkpt>
      <trkpt lat="48.7969" lon="2.12688">
        <ele>130</ele>
        <time>2022-10-23T13:49:11.518Z</time>
      </trkpt>
      <trkpt lat="48.79693" lon="2.12681">
        <ele>130</ele>
        <time>2022-10-23T13:49:15.547Z</time>
      </trkpt>
      <trkpt lat="48.79696" lon="2.12672">
        <ele>128</ele>
        <time>2022-10-23T13:49:20.516Z</time>
      </trkpt>
      <trkpt lat="48.79699" lon="2.12665">
        <ele>128</ele>
        <time>2022-10-23T13:49:24.534Z</time>
      </trkpt>
      <trkpt lat="48.79701" lon="2.12658">
        <ele>128</ele>
        <time>2022-10-23T13:49:28.538Z</time>
      </trkpt>
      <trkpt lat="48.79704" lon="2.1265">
        <ele>127</ele>
        <time>2022-10-23T13:49:51.549Z</time>
      </trkpt>
      <trkpt lat="48.79707" lon="2.12651">
        <ele>127</ele>
        <time>2022-10-23T13:49:55.556Z</time>
      </trkpt>
      <trkpt lat="48.79712" lon="2.12654">
        <ele>129</ele>
        <time>2022-10-23T13:50:00.523Z</time>
      </trkpt>
      <trkpt lat="48.79714" lon="2.12657">
        <ele>129</ele>
        <time>2022-10-23T13:50:04.531Z</time>
      </trkpt>
      <trkpt lat="48.79717" lon="2.12659">
        <ele>129</ele>
        <time>2022-10-23T13:50:08.551Z</time>
      </trkpt>
      <trkpt lat="48.7972" lon="2.12661">
        <ele>129</ele>
        <time>2022-10-23T13:50:13.550Z</time>
      </trkpt>
      <trkpt lat="48.79723" lon="2.12665">
        <ele>129</ele>
        <time>2022-10-23T13:50:17.533Z</time>
      </trkpt>
      <trkpt lat="48.79728" lon="2.1267">
        <ele>129</ele>
        <time>2022-10-23T13:50:22.540Z</time>
      </trkpt>
      <trkpt lat="48.79734" lon="2.12673">
        <ele>129</ele>
        <time>2022-10-23T13:50:26.567Z</time>
      </trkpt>
      <trkpt lat="48.79743" lon="2.12676">
        <ele>131</ele>
        <time>2022-10-23T13:50:31.569Z</time>
      </trkpt>
      <trkpt lat="48.79748" lon="2.12679">
        <ele>131</ele>
        <time>2022-10-23T13:50:36.530Z</time>
      </trkpt>
      <trkpt lat="48.79754" lon="2.12682">
        <ele>132</ele>
        <time>2022-10-23T13:50:40.541Z</time>
      </trkpt>
      <trkpt lat="48.79762" lon="2.12686">
        <ele>132</ele>
        <time>2022-10-23T13:50:45.534Z</time>
      </trkpt>
      <trkpt lat="48.79765" lon="2.12689">
        <ele>133</ele>
        <time>2022-10-23T13:50:49.547Z</time>
      </trkpt>
      <trkpt lat="48.79767" lon="2.12691">
        <ele>133</ele>
        <time>2022-10-23T13:50:54.549Z</time>
      </trkpt>
      <trkpt lat="48.79773" lon="2.12694">
        <ele>133</ele>
        <time>2022-10-23T13:50:59.530Z</time>
      </trkpt>
      <trkpt lat="48.79777" lon="2.12696">
        <ele>133</ele>
        <time>2022-10-23T13:51:03.528Z</time>
      </trkpt>
      <trkpt lat="48.7978" lon="2.12699">
        <ele>133</ele>
        <time>2022-10-23T13:51:08.545Z</time>
      </trkpt>
      <trkpt lat="48.79785" lon="2.12702">
        <ele>133</ele>
        <time>2022-10-23T13:51:13.546Z</time>
      </trkpt>
      <trkpt lat="48.79788" lon="2.12707">
        <ele>133</ele>
        <time>2022-10-23T13:51:17.557Z</time>
      </trkpt>
      <trkpt lat="48.79792" lon="2.12711">
        <ele>132</ele>
        <time>2022-10-23T13:51:22.576Z</time>
      </trkpt>
      <trkpt lat="48.79795" lon="2.12715">
        <ele>132</ele>
        <time>2022-10-23T13:51:27.547Z</time>
      </trkpt>
      <trkpt lat="48.79799" lon="2.12721">
        <ele>132</ele>
        <time>2022-10-23T13:51:32.564Z</time>
      </trkpt>
      <trkpt lat="48.79804" lon="2.12724">
        <ele>132</ele>
        <time>2022-10-23T13:51:37.566Z</time>
      </trkpt>
      <trkpt lat="48.7981" lon="2.12729">
        <ele>132</ele>
        <time>2022-10-23T13:51:42.519Z</time>
      </trkpt>
      <trkpt lat="48.79816" lon="2.12733">
        <ele>132</ele>
        <time>2022-10-23T13:51:46.545Z</time>
      </trkpt>
      <trkpt lat="48.79824" lon="2.12735">
        <ele>131</ele>
        <time>2022-10-23T13:51:50.557Z</time>
      </trkpt>
      <trkpt lat="48.79832" lon="2.12738">
        <ele>131</ele>
        <time>2022-10-23T13:51:55.547Z</time>
      </trkpt>
      <trkpt lat="48.79839" lon="2.12742">
        <ele>131</ele>
        <time>2022-10-23T13:52:00.551Z</time>
      </trkpt>
      <trkpt lat="48.79845" lon="2.12746">
        <ele>131</ele>
        <time>2022-10-23T13:52:05.554Z</time>
      </trkpt>
      <trkpt lat="48.79852" lon="2.1275">
        <ele>131</ele>
        <time>2022-10-23T13:52:10.565Z</time>
      </trkpt>
      <trkpt lat="48.79856" lon="2.12753">
        <ele>131</ele>
        <time>2022-10-23T13:52:14.582Z</time>
      </trkpt>
      <trkpt lat="48.79862" lon="2.12757">
        <ele>131</ele>
        <time>2022-10-23T13:52:19.559Z</time>
      </trkpt>
      <trkpt lat="48.79871" lon="2.12761">
        <ele>131</ele>
        <time>2022-10-23T13:52:24.542Z</time>
      </trkpt>
      <trkpt lat="48.79878" lon="2.12763">
        <ele>132</ele>
        <time>2022-10-23T13:52:28.553Z</time>
      </trkpt>
      <trkpt lat="48.79883" lon="2.12766">
        <ele>131</ele>
        <time>2022-10-23T13:52:32.561Z</time>
      </trkpt>
      <trkpt lat="48.79887" lon="2.1277">
        <ele>131</ele>
        <time>2022-10-23T13:52:37.559Z</time>
      </trkpt>
      <trkpt lat="48.79894" lon="2.12777">
        <ele>131</ele>
        <time>2022-10-23T13:52:42.563Z</time>
      </trkpt>
      <trkpt lat="48.79907" lon="2.12792">
        <ele>128</ele>
        <time>2022-10-23T13:52:47.514Z</time>
      </trkpt>
      <trkpt lat="48.79918" lon="2.12799">
        <ele>128</ele>
        <time>2022-10-23T13:52:52.534Z</time>
      </trkpt>
      <trkpt lat="48.79924" lon="2.12805">
        <ele>128</ele>
        <time>2022-10-23T13:52:56.541Z</time>
      </trkpt>
      <trkpt lat="48.79929" lon="2.12808">
        <ele>128</ele>
        <time>2022-10-23T13:53:01.546Z</time>
      </trkpt>
      <trkpt lat="48.79935" lon="2.12812">
        <ele>127</ele>
        <time>2022-10-23T13:53:05.564Z</time>
      </trkpt>
      <trkpt lat="48.79941" lon="2.12816">
        <ele>127</ele>
        <time>2022-10-23T13:53:10.548Z</time>
      </trkpt>
      <trkpt lat="48.79946" lon="2.12817">
        <ele>127</ele>
        <time>2022-10-23T13:53:14.555Z</time>
      </trkpt>
      <trkpt lat="48.79951" lon="2.12821">
        <ele>127</ele>
        <time>2022-10-23T13:53:19.548Z</time>
      </trkpt>
      <trkpt lat="48.79956" lon="2.12824">
        <ele>127</ele>
        <time>2022-10-23T13:53:23.551Z</time>
      </trkpt>
      <trkpt lat="48.79961" lon="2.12827">
        <ele>128</ele>
        <time>2022-10-23T13:53:28.548Z</time>
      </trkpt>
      <trkpt lat="48.79965" lon="2.12831">
        <ele>128</ele>
        <time>2022-10-23T13:53:32.565Z</time>
      </trkpt>
      <trkpt lat="48.79968" lon="2.12833">
        <ele>128</ele>
        <time>2022-10-23T13:53:37.538Z</time>
      </trkpt>
      <trkpt lat="48.79973" lon="2.12836">
        <ele>128</ele>
        <time>2022-10-23T13:53:42.555Z</time>
      </trkpt>
      <trkpt lat="48.7998" lon="2.1284">
        <ele>128</ele>
        <time>2022-10-23T13:53:47.575Z</time>
      </trkpt>
      <trkpt lat="48.79987" lon="2.12845">
        <ele>129</ele>
        <time>2022-10-23T13:53:52.569Z</time>
      </trkpt>
      <trkpt lat="48.79993" lon="2.12849">
        <ele>129</ele>
        <time>2022-10-23T13:53:57.544Z</time>
      </trkpt>
      <trkpt lat="48.79999" lon="2.12855">
        <ele>129</ele>
        <time>2022-10-23T13:54:02.544Z</time>
      </trkpt>
      <trkpt lat="48.80004" lon="2.12859">
        <ele>129</ele>
        <time>2022-10-23T13:54:06.562Z</time>
      </trkpt>
      <trkpt lat="48.8001" lon="2.12861">
        <ele>129</ele>
        <time>2022-10-23T13:54:11.553Z</time>
      </trkpt>
      <trkpt lat="48.80015" lon="2.12864">
        <ele>129</ele>
        <time>2022-10-23T13:54:16.533Z</time>
      </trkpt>
      <trkpt lat="48.80019" lon="2.12868">
        <ele>129</ele>
        <time>2022-10-23T13:54:21.532Z</time>
      </trkpt>
      <trkpt lat="48.80023" lon="2.12868">
        <ele>129</ele>
        <time>2022-10-23T13:54:26.521Z</time>
      </trkpt>
      <trkpt lat="48.80026" lon="2.12872">
        <ele>129</ele>
        <time>2022-10-23T13:54:31.502Z</time>
      </trkpt>
      <trkpt lat="48.80028" lon="2.12873">
        <ele>129</ele>
        <time>2022-10-23T13:54:36.512Z</time>
      </trkpt>
      <trkpt lat="48.80032" lon="2.12878">
        <ele>129</ele>
        <time>2022-10-23T13:54:41.512Z</time>
      </trkpt>
      <trkpt lat="48.80038" lon="2.12882">
        <ele>129</ele>
        <time>2022-10-23T13:54:46.507Z</time>
      </trkpt>
      <trkpt lat="48.80045" lon="2.12886">
        <ele>129</ele>
        <time>2022-10-23T13:54:51.517Z</time>
      </trkpt>
      <trkpt lat="48.80052" lon="2.12889">
        <ele>129</ele>
        <time>2022-10-23T13:54:56.502Z</time>
      </trkpt>
      <trkpt lat="48.80056" lon="2.12894">
        <ele>129</ele>
        <time>2022-10-23T13:55:00.508Z</time>
      </trkpt>
      <trkpt lat="48.80061" lon="2.12898">
        <ele>129</ele>
        <time>2022-10-23T13:55:04.510Z</time>
      </trkpt>
      <trkpt lat="48.80068" lon="2.12902">
        <ele>129</ele>
        <time>2022-10-23T13:55:09.511Z</time>
      </trkpt>
      <trkpt lat="48.80074" lon="2.12906">
        <ele>130</ele>
        <time>2022-10-23T13:55:14.518Z</time>
      </trkpt>
      <trkpt lat="48.8008" lon="2.1291">
        <ele>130</ele>
        <time>2022-10-23T13:55:19.502Z</time>
      </trkpt>
      <trkpt lat="48.80084" lon="2.12913">
        <ele>130</ele>
        <time>2022-10-23T13:55:23.521Z</time>
      </trkpt>
      <trkpt lat="48.80091" lon="2.12917">
        <ele>130</ele>
        <time>2022-10-23T13:55:28.524Z</time>
      </trkpt>
      <trkpt lat="48.80097" lon="2.1292">
        <ele>130</ele>
        <time>2022-10-23T13:55:33.516Z</time>
      </trkpt>
      <trkpt lat="48.80103" lon="2.12924">
        <ele>133</ele>
        <time>2022-10-23T13:55:38.506Z</time>
      </trkpt>
      <trkpt lat="48.80107" lon="2.12927">
        <ele>133</ele>
        <time>2022-10-23T13:55:42.515Z</time>
      </trkpt>
      <trkpt lat="48.80113" lon="2.12931">
        <ele>136</ele>
        <time>2022-10-23T13:55:47.509Z</time>
      </trkpt>
      <trkpt lat="48.80119" lon="2.12935">
        <ele>136</ele>
        <time>2022-10-23T13:55:52.503Z</time>
      </trkpt>
      <trkpt lat="48.80124" lon="2.12938">
        <ele>136</ele>
        <time>2022-10-23T13:55:56.513Z</time>
      </trkpt>
      <trkpt lat="48.80129" lon="2.12941">
        <ele>136</ele>
        <time>2022-10-23T13:56:00.518Z</time>
      </trkpt>
      <trkpt lat="48.80136" lon="2.12945">
        <ele>136</ele>
        <time>2022-10-23T13:56:05.515Z</time>
      </trkpt>
      <trkpt lat="48.80141" lon="2.12949">
        <ele>136</ele>
        <time>2022-10-23T13:56:09.519Z</time>
      </trkpt>
      <trkpt lat="48.80147" lon="2.12953">
        <ele>136</ele>
        <time>2022-10-23T13:56:14.522Z</time>
      </trkpt>
      <trkpt lat="48.80153" lon="2.12957">
        <ele>133</ele>
        <time>2022-10-23T13:56:19.516Z</time>
      </trkpt>
      <trkpt lat="48.8016" lon="2.12959">
        <ele>134</ele>
        <time>2022-10-23T13:56:24.513Z</time>
      </trkpt>
      <trkpt lat="48.80166" lon="2.12964">
        <ele>134</ele>
        <time>2022-10-23T13:56:29.511Z</time>
      </trkpt>
      <trkpt lat="48.8017" lon="2.12967">
        <ele>134</ele>
        <time>2022-10-23T13:56:34.529Z</time>
      </trkpt>
      <trkpt lat="48.80172" lon="2.12972">
        <ele>134</ele>
        <time>2022-10-23T13:56:38.530Z</time>
      </trkpt>
      <trkpt lat="48.80171" lon="2.12973">
        <ele>134</ele>
        <time>2022-10-23T13:56:43.505Z</time>
      </trkpt>
      <trkpt lat="48.80175" lon="2.12974">
        <ele>134</ele>
        <time>2022-10-23T13:56:47.512Z</time>
      </trkpt>
      <trkpt lat="48.80181" lon="2.12977">
        <ele>134</ele>
        <time>2022-10-23T13:56:51.505Z</time>
      </trkpt>
      <trkpt lat="48.80186" lon="2.12983">
        <ele>132</ele>
        <time>2022-10-23T13:56:56.520Z</time>
      </trkpt>
      <trkpt lat="48.80189" lon="2.12992">
        <ele>132</ele>
        <time>2022-10-23T13:57:01.524Z</time>
      </trkpt>
      <trkpt lat="48.80184" lon="2.13001">
        <ele>132</ele>
        <time>2022-10-23T13:57:06.516Z</time>
      </trkpt>
      <trkpt lat="48.8018" lon="2.13005">
        <ele>135</ele>
        <time>2022-10-23T13:57:10.523Z</time>
      </trkpt>
      <trkpt lat="48.80178" lon="2.13008">
        <ele>135</ele>
        <time>2022-10-23T13:57:14.519Z</time>
      </trkpt>
      <trkpt lat="48.80185" lon="2.13014">
        <ele>132</ele>
        <time>2022-10-23T13:57:19.518Z</time>
      </trkpt>
      <trkpt lat="48.80191" lon="2.13017">
        <ele>132</ele>
        <time>2022-10-23T13:57:24.519Z</time>
      </trkpt>
      <trkpt lat="48.80201" lon="2.13017">
        <ele>132</ele>
        <time>2022-10-23T13:57:49.516Z</time>
      </trkpt>
      <trkpt lat="48.80202" lon="2.13017">
        <ele>132</ele>
        <time>2022-10-23T13:57:54.517Z</time>
      </trkpt>
      <trkpt lat="48.80204" lon="2.13017">
        <ele>132</ele>
        <time>2022-10-23T13:57:59.514Z</time>
      </trkpt>
      <trkpt lat="48.80209" lon="2.13021">
        <ele>133</ele>
        <time>2022-10-23T13:58:03.523Z</time>
      </trkpt>
      <trkpt lat="48.80215" lon="2.13026">
        <ele>133</ele>
        <time>2022-10-23T13:58:08.520Z</time>
      </trkpt>
      <trkpt lat="48.8022" lon="2.13029">
        <ele>133</ele>
        <time>2022-10-23T13:58:12.521Z</time>
      </trkpt>
      <trkpt lat="48.80225" lon="2.13031">
        <ele>133</ele>
        <time>2022-10-23T13:58:16.519Z</time>
      </trkpt>
      <trkpt lat="48.80233" lon="2.13031">
        <ele>133</ele>
        <time>2022-10-23T13:58:21.519Z</time>
      </trkpt>
      <trkpt lat="48.80239" lon="2.13026">
        <ele>133</ele>
        <time>2022-10-23T13:58:26.516Z</time>
      </trkpt>
      <trkpt lat="48.80245" lon="2.13024">
        <ele>133</ele>
        <time>2022-10-23T13:58:31.507Z</time>
      </trkpt>
      <trkpt lat="48.8025" lon="2.13021">
        <ele>133</ele>
        <time>2022-10-23T13:58:35.515Z</time>
      </trkpt>
      <trkpt lat="48.80254" lon="2.13016">
        <ele>133</ele>
        <time>2022-10-23T13:58:39.519Z</time>
      </trkpt>
      <trkpt lat="48.80259" lon="2.13013">
        <ele>132</ele>
        <time>2022-10-23T13:58:44.519Z</time>
      </trkpt>
      <trkpt lat="48.80265" lon="2.13012">
        <ele>132</ele>
        <time>2022-10-23T13:58:49.514Z</time>
      </trkpt>
      <trkpt lat="48.80271" lon="2.13014">
        <ele>133</ele>
        <time>2022-10-23T13:58:54.518Z</time>
      </trkpt>
      <trkpt lat="48.80277" lon="2.13016">
        <ele>133</ele>
        <time>2022-10-23T13:58:59.509Z</time>
      </trkpt>
      <trkpt lat="48.80282" lon="2.13019">
        <ele>133</ele>
        <time>2022-10-23T13:59:03.515Z</time>
      </trkpt>
      <trkpt lat="48.80289" lon="2.13021">
        <ele>133</ele>
        <time>2022-10-23T13:59:08.518Z</time>
      </trkpt>
      <trkpt lat="48.80296" lon="2.13023">
        <ele>132</ele>
        <time>2022-10-23T13:59:13.510Z</time>
      </trkpt>
      <trkpt lat="48.80301" lon="2.13026">
        <ele>132</ele>
        <time>2022-10-23T13:59:17.537Z</time>
      </trkpt>
      <trkpt lat="48.80308" lon="2.13034">
        <ele>132</ele>
        <time>2022-10-23T13:59:22.552Z</time>
      </trkpt>
      <trkpt lat="48.80315" lon="2.13042">
        <ele>132</ele>
        <time>2022-10-23T13:59:27.510Z</time>
      </trkpt>
      <trkpt lat="48.80322" lon="2.13048">
        <ele>134</ele>
        <time>2022-10-23T13:59:32.516Z</time>
      </trkpt>
      <trkpt lat="48.80328" lon="2.13052">
        <ele>134</ele>
        <time>2022-10-23T13:59:37.524Z</time>
      </trkpt>
      <trkpt lat="48.80335" lon="2.13056">
        <ele>134</ele>
        <time>2022-10-23T13:59:42.512Z</time>
      </trkpt>
      <trkpt lat="48.80341" lon="2.13058">
        <ele>134</ele>
        <time>2022-10-23T13:59:47.504Z</time>
      </trkpt>
      <trkpt lat="48.80348" lon="2.13061">
        <ele>132</ele>
        <time>2022-10-23T13:59:52.513Z</time>
      </trkpt>
      <trkpt lat="48.80351" lon="2.13061">
        <ele>132</ele>
        <time>2022-10-23T13:59:57.506Z</time>
      </trkpt>
      <trkpt lat="48.80353" lon="2.13071">
        <ele>133</ele>
        <time>2022-10-23T14:00:02.507Z</time>
      </trkpt>
      <trkpt lat="48.80358" lon="2.13077">
        <ele>133</ele>
        <time>2022-10-23T14:00:07.498Z</time>
      </trkpt>
      <trkpt lat="48.80366" lon="2.13081">
        <ele>133</ele>
        <time>2022-10-23T14:00:12.509Z</time>
      </trkpt>
      <trkpt lat="48.80373" lon="2.13084">
        <ele>133</ele>
        <time>2022-10-23T14:00:17.503Z</time>
      </trkpt>
      <trkpt lat="48.80379" lon="2.13087">
        <ele>131</ele>
        <time>2022-10-23T14:00:22.511Z</time>
      </trkpt>
      <trkpt lat="48.80386" lon="2.13093">
        <ele>131</ele>
        <time>2022-10-23T14:00:27.516Z</time>
      </trkpt>
      <trkpt lat="48.80393" lon="2.13098">
        <ele>132</ele>
        <time>2022-10-23T14:00:32.513Z</time>
      </trkpt>
      <trkpt lat="48.804" lon="2.13102">
        <ele>132</ele>
        <time>2022-10-23T14:00:37.507Z</time>
      </trkpt>
      <trkpt lat="48.80403" lon="2.13105">
        <ele>131</ele>
        <time>2022-10-23T14:00:41.540Z</time>
      </trkpt>
      <trkpt lat="48.80409" lon="2.13106">
        <ele>131</ele>
        <time>2022-10-23T14:00:45.549Z</time>
      </trkpt>
      <trkpt lat="48.80414" lon="2.13109">
        <ele>131</ele>
        <time>2022-10-23T14:00:50.526Z</time>
      </trkpt>
      <trkpt lat="48.80422" lon="2.13114">
        <ele>131</ele>
        <time>2022-10-23T14:00:55.548Z</time>
      </trkpt>
      <trkpt lat="48.8043" lon="2.13116">
        <ele>131</ele>
        <time>2022-10-23T14:01:00.552Z</time>
      </trkpt>
      <trkpt lat="48.80437" lon="2.13118">
        <ele>131</ele>
        <time>2022-10-23T14:01:05.546Z</time>
      </trkpt>
      <trkpt lat="48.80442" lon="2.13123">
        <ele>131</ele>
        <time>2022-10-23T14:01:10.532Z</time>
      </trkpt>
      <trkpt lat="48.80449" lon="2.13125">
        <ele>131</ele>
        <time>2022-10-23T14:01:15.540Z</time>
      </trkpt>
      <trkpt lat="48.80456" lon="2.13122">
        <ele>131</ele>
        <time>2022-10-23T14:01:20.541Z</time>
      </trkpt>
      <trkpt lat="48.80462" lon="2.13121">
        <ele>131</ele>
        <time>2022-10-23T14:01:24.512Z</time>
      </trkpt>
      <trkpt lat="48.80467" lon="2.13126">
        <ele>133</ele>
        <time>2022-10-23T14:01:29.538Z</time>
      </trkpt>
      <trkpt lat="48.80473" lon="2.13128">
        <ele>133</ele>
        <time>2022-10-23T14:01:34.521Z</time>
      </trkpt>
      <trkpt lat="48.80477" lon="2.1313">
        <ele>133</ele>
        <time>2022-10-23T14:01:38.546Z</time>
      </trkpt>
      <trkpt lat="48.80482" lon="2.1314">
        <ele>133</ele>
        <time>2022-10-23T14:01:43.526Z</time>
      </trkpt>
      <trkpt lat="48.80486" lon="2.13146">
        <ele>133</ele>
        <time>2022-10-23T14:01:47.529Z</time>
      </trkpt>
      <trkpt lat="48.80488" lon="2.13156">
        <ele>133</ele>
        <time>2022-10-23T14:01:52.509Z</time>
      </trkpt>
      <trkpt lat="48.8049" lon="2.13162">
        <ele>133</ele>
        <time>2022-10-23T14:01:56.532Z</time>
      </trkpt>
      <trkpt lat="48.80495" lon="2.13162">
        <ele>133</ele>
        <time>2022-10-23T14:02:01.511Z</time>
      </trkpt>
      <trkpt lat="48.80499" lon="2.13158">
        <ele>133</ele>
        <time>2022-10-23T14:02:05.540Z</time>
      </trkpt>
      <trkpt lat="48.805" lon="2.13154">
        <ele>133</ele>
        <time>2022-10-23T14:02:10.527Z</time>
      </trkpt>
      <trkpt lat="48.80504" lon="2.13152">
        <ele>133</ele>
        <time>2022-10-23T14:02:14.563Z</time>
      </trkpt>
      <trkpt lat="48.8051" lon="2.13149">
        <ele>133</ele>
        <time>2022-10-23T14:02:19.536Z</time>
      </trkpt>
      <trkpt lat="48.80513" lon="2.13146">
        <ele>133</ele>
        <time>2022-10-23T14:02:23.555Z</time>
      </trkpt>
      <trkpt lat="48.80516" lon="2.13142">
        <ele>134</ele>
        <time>2022-10-23T14:02:28.548Z</time>
      </trkpt>
      <trkpt lat="48.80522" lon="2.13141">
        <ele>134</ele>
        <time>2022-10-23T14:02:33.533Z</time>
      </trkpt>
      <trkpt lat="48.80527" lon="2.13141">
        <ele>134</ele>
        <time>2022-10-23T14:02:38.542Z</time>
      </trkpt>
      <trkpt lat="48.80531" lon="2.1314">
        <ele>134</ele>
        <time>2022-10-23T14:02:42.538Z</time>
      </trkpt>
      <trkpt lat="48.80534" lon="2.13141">
        <ele>134</ele>
        <time>2022-10-23T14:02:47.529Z</time>
      </trkpt>
      <trkpt lat="48.80537" lon="2.13144">
        <ele>134</ele>
        <time>2022-10-23T14:02:51.538Z</time>
      </trkpt>
      <trkpt lat="48.80542" lon="2.13147">
        <ele>135</ele>
        <time>2022-10-23T14:02:56.540Z</time>
      </trkpt>
      <trkpt lat="48.80548" lon="2.1315">
        <ele>135</ele>
        <time>2022-10-23T14:03:01.524Z</time>
      </trkpt>
      <trkpt lat="48.80556" lon="2.13155">
        <ele>134</ele>
        <time>2022-10-23T14:03:06.526Z</time>
      </trkpt>
      <trkpt lat="48.80562" lon="2.13157">
        <ele>134</ele>
        <time>2022-10-23T14:03:10.527Z</time>
      </trkpt>
      <trkpt lat="48.8057" lon="2.13162">
        <ele>132</ele>
        <time>2022-10-23T14:03:15.523Z</time>
      </trkpt>
      <trkpt lat="48.80576" lon="2.13165">
        <ele>132</ele>
        <time>2022-10-23T14:03:19.560Z</time>
      </trkpt>
      <trkpt lat="48.80583" lon="2.13168">
        <ele>132</ele>
        <time>2022-10-23T14:03:24.551Z</time>
      </trkpt>
      <trkpt lat="48.8059" lon="2.13171">
        <ele>132</ele>
        <time>2022-10-23T14:03:29.564Z</time>
      </trkpt>
      <trkpt lat="48.80599" lon="2.13177">
        <ele>130</ele>
        <time>2022-10-23T14:03:34.531Z</time>
      </trkpt>
      <trkpt lat="48.80606" lon="2.13181">
        <ele>128</ele>
        <time>2022-10-23T14:03:38.557Z</time>
      </trkpt>
      <trkpt lat="48.8061" lon="2.13184">
        <ele>128</ele>
        <time>2022-10-23T14:03:43.526Z</time>
      </trkpt>
      <trkpt lat="48.80614" lon="2.13184">
        <ele>128</ele>
        <time>2022-10-23T14:03:47.548Z</time>
      </trkpt>
      <trkpt lat="48.80621" lon="2.13191">
        <ele>128</ele>
        <time>2022-10-23T14:03:52.535Z</time>
      </trkpt>
      <trkpt lat="48.80626" lon="2.13201">
        <ele>127</ele>
        <time>2022-10-23T14:03:57.519Z</time>
      </trkpt>
      <trkpt lat="48.80631" lon="2.13209">
        <ele>126</ele>
        <time>2022-10-23T14:04:02.510Z</time>
      </trkpt>
      <trkpt lat="48.80635" lon="2.13214">
        <ele>126</ele>
        <time>2022-10-23T14:04:07.511Z</time>
      </trkpt>
      <trkpt lat="48.8064" lon="2.13217">
        <ele>126</ele>
        <time>2022-10-23T14:04:11.522Z</time>
      </trkpt>
      <trkpt lat="48.80648" lon="2.13221">
        <ele>126</ele>
        <time>2022-10-23T14:04:16.509Z</time>
      </trkpt>
      <trkpt lat="48.80653" lon="2.13225">
        <ele>126</ele>
        <time>2022-10-23T14:04:21.522Z</time>
      </trkpt>
      <trkpt lat="48.80659" lon="2.13229">
        <ele>126</ele>
        <time>2022-10-23T14:04:26.517Z</time>
      </trkpt>
      <trkpt lat="48.80667" lon="2.13233">
        <ele>126</ele>
        <time>2022-10-23T14:04:31.516Z</time>
      </trkpt>
      <trkpt lat="48.80672" lon="2.13237">
        <ele>125</ele>
        <time>2022-10-23T14:04:36.520Z</time>
      </trkpt>
      <trkpt lat="48.80676" lon="2.13236">
        <ele>125</ele>
        <time>2022-10-23T14:04:41.521Z</time>
      </trkpt>
      <trkpt lat="48.80683" lon="2.13237">
        <ele>127</ele>
        <time>2022-10-23T14:04:46.519Z</time>
      </trkpt>
      <trkpt lat="48.80691" lon="2.13237">
        <ele>127</ele>
        <time>2022-10-23T14:04:51.518Z</time>
      </trkpt>
      <trkpt lat="48.80698" lon="2.13239">
        <ele>127</ele>
        <time>2022-10-23T14:04:56.511Z</time>
      </trkpt>
      <trkpt lat="48.80703" lon="2.13242">
        <ele>127</ele>
        <time>2022-10-23T14:05:00.515Z</time>
      </trkpt>
      <trkpt lat="48.80707" lon="2.13246">
        <ele>127</ele>
        <time>2022-10-23T14:05:04.517Z</time>
      </trkpt>
      <trkpt lat="48.80709" lon="2.13247">
        <ele>130</ele>
        <time>2022-10-23T14:05:09.521Z</time>
      </trkpt>
      <trkpt lat="48.80712" lon="2.13249">
        <ele>130</ele>
        <time>2022-10-23T14:05:13.509Z</time>
      </trkpt>
      <trkpt lat="48.80716" lon="2.13251">
        <ele>130</ele>
        <time>2022-10-23T14:05:18.522Z</time>
      </trkpt>
      <trkpt lat="48.80721" lon="2.13252">
        <ele>130</ele>
        <time>2022-10-23T14:05:23.511Z</time>
      </trkpt>
      <trkpt lat="48.80725" lon="2.13256">
        <ele>130</ele>
        <time>2022-10-23T14:05:28.505Z</time>
      </trkpt>
      <trkpt lat="48.8073" lon="2.13259">
        <ele>130</ele>
        <time>2022-10-23T14:05:32.514Z</time>
      </trkpt>
      <trkpt lat="48.80736" lon="2.13262">
        <ele>130</ele>
        <time>2022-10-23T14:05:37.516Z</time>
      </trkpt>
      <trkpt lat="48.80739" lon="2.13263">
        <ele>131</ele>
        <time>2022-10-23T14:05:41.520Z</time>
      </trkpt>
      <trkpt lat="48.80744" lon="2.13266">
        <ele>131</ele>
        <time>2022-10-23T14:05:45.542Z</time>
      </trkpt>
      <trkpt lat="48.80751" lon="2.13275">
        <ele>131</ele>
        <time>2022-10-23T14:05:50.515Z</time>
      </trkpt>
      <trkpt lat="48.80758" lon="2.13274">
        <ele>131</ele>
        <time>2022-10-23T14:05:55.511Z</time>
      </trkpt>
      <trkpt lat="48.80767" lon="2.13275">
        <ele>130</ele>
        <time>2022-10-23T14:06:00.513Z</time>
      </trkpt>
      <trkpt lat="48.80775" lon="2.13276">
        <ele>130</ele>
        <time>2022-10-23T14:06:05.524Z</time>
      </trkpt>
      <trkpt lat="48.80784" lon="2.13279">
        <ele>130</ele>
        <time>2022-10-23T14:06:10.520Z</time>
      </trkpt>
      <trkpt lat="48.80793" lon="2.13285">
        <ele>129</ele>
        <time>2022-10-23T14:06:15.520Z</time>
      </trkpt>
      <trkpt lat="48.80795" lon="2.13295">
        <ele>128</ele>
        <time>2022-10-23T14:06:19.538Z</time>
      </trkpt>
      <trkpt lat="48.80798" lon="2.13296">
        <ele>128</ele>
        <time>2022-10-23T14:06:24.511Z</time>
      </trkpt>
      <trkpt lat="48.80805" lon="2.13296">
        <ele>128</ele>
        <time>2022-10-23T14:06:28.553Z</time>
      </trkpt>
      <trkpt lat="48.80809" lon="2.13299">
        <ele>128</ele>
        <time>2022-10-23T14:06:32.548Z</time>
      </trkpt>
      <trkpt lat="48.80814" lon="2.13302">
        <ele>128</ele>
        <time>2022-10-23T14:06:37.528Z</time>
      </trkpt>
      <trkpt lat="48.80821" lon="2.13306">
        <ele>127</ele>
        <time>2022-10-23T14:06:42.555Z</time>
      </trkpt>
      <trkpt lat="48.80829" lon="2.13313">
        <ele>127</ele>
        <time>2022-10-23T14:06:47.550Z</time>
      </trkpt>
      <trkpt lat="48.80836" lon="2.13318">
        <ele>127</ele>
        <time>2022-10-23T14:06:52.564Z</time>
      </trkpt>
      <trkpt lat="48.80844" lon="2.13318">
        <ele>127</ele>
        <time>2022-10-23T14:06:57.547Z</time>
      </trkpt>
      <trkpt lat="48.8085" lon="2.13321">
        <ele>126</ele>
        <time>2022-10-23T14:07:02.533Z</time>
      </trkpt>
      <trkpt lat="48.80855" lon="2.13325">
        <ele>126</ele>
        <time>2022-10-23T14:07:06.555Z</time>
      </trkpt>
      <trkpt lat="48.80863" lon="2.13327">
        <ele>126</ele>
        <time>2022-10-23T14:07:11.546Z</time>
      </trkpt>
      <trkpt lat="48.80871" lon="2.13339">
        <ele>126</ele>
        <time>2022-10-23T14:07:16.558Z</time>
      </trkpt>
      <trkpt lat="48.80879" lon="2.13351">
        <ele>126</ele>
        <time>2022-10-23T14:07:21.527Z</time>
      </trkpt>
      <trkpt lat="48.80885" lon="2.13359">
        <ele>126</ele>
        <time>2022-10-23T14:07:25.536Z</time>
      </trkpt>
      <trkpt lat="48.80891" lon="2.13365">
        <ele>126</ele>
        <time>2022-10-23T14:07:29.546Z</time>
      </trkpt>
      <trkpt lat="48.80898" lon="2.13369">
        <ele>126</ele>
        <time>2022-10-23T14:07:34.552Z</time>
      </trkpt>
      <trkpt lat="48.8091" lon="2.13364">
        <ele>127</ele>
        <time>2022-10-23T14:08:01.535Z</time>
      </trkpt>
      <trkpt lat="48.8091" lon="2.13364">
        <ele>127</ele>
        <time>2022-10-23T14:08:05.506Z</time>
      </trkpt>
      <trkpt lat="48.8091" lon="2.13362">
        <ele>127</ele>
        <time>2022-10-23T14:08:10.547Z</time>
      </trkpt>
      <trkpt lat="48.8091" lon="2.1336">
        <ele>127</ele>
        <time>2022-10-23T14:08:15.519Z</time>
      </trkpt>
      <trkpt lat="48.80911" lon="2.13359">
        <ele>127</ele>
        <time>2022-10-23T14:08:20.541Z</time>
      </trkpt>
      <trkpt lat="48.80911" lon="2.13359">
        <ele>127</ele>
        <time>2022-10-23T14:08:25.544Z</time>
      </trkpt>
      <trkpt lat="48.80916" lon="2.13361">
        <ele>127</ele>
        <time>2022-10-23T14:08:30.530Z</time>
      </trkpt>
      <trkpt lat="48.80921" lon="2.13366">
        <ele>127</ele>
        <time>2022-10-23T14:08:35.526Z</time>
      </trkpt>
      <trkpt lat="48.80927" lon="2.13369">
        <ele>127</ele>
        <time>2022-10-23T14:08:40.529Z</time>
      </trkpt>
      <trkpt lat="48.80931" lon="2.1337">
        <ele>128</ele>
        <time>2022-10-23T14:08:44.549Z</time>
      </trkpt>
      <trkpt lat="48.80937" lon="2.13372">
        <ele>128</ele>
        <time>2022-10-23T14:08:49.529Z</time>
      </trkpt>
      <trkpt lat="48.80942" lon="2.13375">
        <ele>128</ele>
        <time>2022-10-23T14:08:53.536Z</time>
      </trkpt>
      <trkpt lat="48.80946" lon="2.13378">
        <ele>128</ele>
        <time>2022-10-23T14:08:57.541Z</time>
      </trkpt>
      <trkpt lat="48.80957" lon="2.13388">
        <ele>128</ele>
        <time>2022-10-23T14:09:02.529Z</time>
      </trkpt>
      <trkpt lat="48.80958" lon="2.13403">
        <ele>127</ele>
        <time>2022-10-23T14:09:07.508Z</time>
      </trkpt>
      <trkpt lat="48.80958" lon="2.13416">
        <ele>127</ele>
        <time>2022-10-23T14:09:12.505Z</time>
      </trkpt>
      <trkpt lat="48.8096" lon="2.13416">
        <ele>128</ele>
        <time>2022-10-23T14:09:16.512Z</time>
      </trkpt>
      <trkpt lat="48.8096" lon="2.13416">
        <ele>128</ele>
        <time>2022-10-23T14:09:20.534Z</time>
      </trkpt>
      <trkpt lat="48.8096" lon="2.13424">
        <ele>128</ele>
        <time>2022-10-23T14:09:25.534Z</time>
      </trkpt>
      <trkpt lat="48.80961" lon="2.13438">
        <ele>126</ele>
        <time>2022-10-23T14:09:30.544Z</time>
      </trkpt>
      <trkpt lat="48.80961" lon="2.13449">
        <ele>126</ele>
        <time>2022-10-23T14:09:35.535Z</time>
      </trkpt>
      <trkpt lat="48.80963" lon="2.1346">
        <ele>124</ele>
        <time>2022-10-23T14:09:40.547Z</time>
      </trkpt>
      <trkpt lat="48.80966" lon="2.13467">
        <ele>124</ele>
        <time>2022-10-23T14:09:44.544Z</time>
      </trkpt>
      <trkpt lat="48.80968" lon="2.13476">
        <ele>124</ele>
        <time>2022-10-23T14:09:49.513Z</time>
      </trkpt>
      <trkpt lat="48.80968" lon="2.13479">
        <ele>124</ele>
        <time>2022-10-23T14:09:53.529Z</time>
      </trkpt>
    </trkseg>
  </trk>
</gpx>